<?xml version='1.0' encoding='UTF-8'?><gpx version="1.1" creator="JPX - https://github.com/jenetics/jpx" xmlns="http://www.topografix.com/GPX/1/1"><trk><trkseg><trkpt lat="43.0511229" lon="12.3304375"><ele>297.0</ele><time>2026-03-29T06:00:22.741Z</time></trkpt><trkpt lat="43.0510466" lon="12.330458"><ele>297.0</ele><time>2026-03-29T06:00:26.637Z</time></trkpt><trkpt lat="43.0510332" lon="12.3303409"><ele>297.0</ele><time>2026-03-29T06:00:29.652Z</time></trkpt><trkpt lat="43.0509071" lon="12.330151"><ele>297.0</ele><time>2026-03-29T06:00:30.652Z</time></trkpt><trkpt lat="43.0508151" lon="12.3299559"><ele>297.0</ele><time>2026-03-29T06:00:31.641Z</time></trkpt><trkpt lat="43.0508288" lon="12.3300699"><ele>297.0</ele><time>2026-03-29T06:00:36.643Z</time></trkpt><trkpt lat="43.050878" lon="12.3302058"><ele>297.0</ele><time>2026-03-29T06:00:38.639Z</time></trkpt><trkpt lat="43.0509199" lon="12.3303063"><ele>297.0</ele><time>2026-03-29T06:00:40.739Z</time></trkpt><trkpt lat="43.0509834" lon="12.3304012"><ele>297.0</ele><time>2026-03-29T06:00:41.65Z</time></trkpt><trkpt lat="43.0510255" lon="12.3304695"><ele>297.0</ele><time>2026-03-29T06:00:42.65Z</time></trkpt><trkpt lat="43.051074" lon="12.3305589"><ele>297.0</ele><time>2026-03-29T06:00:44.659Z</time></trkpt><trkpt lat="43.051021" lon="12.3304628"><ele>297.0</ele><time>2026-03-29T06:00:54.65Z</time></trkpt><trkpt lat="43.0509889" lon="12.3303776"><ele>297.0</ele><time>2026-03-29T06:00:55.651Z</time></trkpt><trkpt lat="43.0509514" lon="12.3303027"><ele>297.0</ele><time>2026-03-29T06:00:57.651Z</time></trkpt><trkpt lat="43.0510441" lon="12.3303795"><ele>297.0</ele><time>2026-03-29T06:00:58.635Z</time></trkpt><trkpt lat="43.051089" lon="12.330442"><ele>297.0</ele><time>2026-03-29T06:01:01.687Z</time></trkpt><trkpt lat="43.0510245" lon="12.3303524"><ele>288.0</ele><time>2026-03-29T06:01:06.634Z</time></trkpt><trkpt lat="43.049705" lon="12.3287766"><ele>298.0</ele><time>2026-03-29T06:01:08.635Z</time></trkpt><trkpt lat="43.0512886" lon="12.3305611"><ele>297.8333333333333</ele><time>2026-03-29T06:01:11.746Z</time></trkpt><trkpt lat="43.0512192" lon="12.3305092"><ele>297.66666666666663</ele><time>2026-03-29T06:01:12.657Z</time></trkpt><trkpt lat="43.0511463" lon="12.3304377"><ele>297.5</ele><time>2026-03-29T06:01:15.651Z</time></trkpt><trkpt lat="43.0510915" lon="12.3303928"><ele>297.3333333333333</ele><time>2026-03-29T06:01:21.656Z</time></trkpt><trkpt lat="43.0510154" lon="12.3303357"><ele>297.1666666666667</ele><time>2026-03-29T06:01:26.653Z</time></trkpt><trkpt lat="43.0509376" lon="12.3303597"><ele>297.0</ele><time>2026-03-29T06:01:35.568Z</time></trkpt><trkpt lat="43.051001" lon="12.3303405"><ele>297.0</ele><time>2026-03-29T06:02:29.564Z</time></trkpt><trkpt lat="43.0510521" lon="12.3303917"><ele>297.0</ele><time>2026-03-29T06:02:35.55Z</time></trkpt><trkpt lat="43.0509813" lon="12.330379"><ele>297.0</ele><time>2026-03-29T06:02:47.574Z</time></trkpt><trkpt lat="43.0510113" lon="12.3304616"><ele>297.0</ele><time>2026-03-29T06:05:12.551Z</time></trkpt><trkpt lat="43.0509474" lon="12.3305456"><ele>297.0</ele><time>2026-03-29T06:05:15.548Z</time></trkpt><trkpt lat="43.0508691" lon="12.3306444"><ele>297.0</ele><time>2026-03-29T06:05:17.55Z</time></trkpt><trkpt lat="43.0508429" lon="12.3307236"><ele>297.0</ele><time>2026-03-29T06:05:30.55Z</time></trkpt><trkpt lat="43.0507744" lon="12.330732"><ele>297.0</ele><time>2026-03-29T06:05:34.564Z</time></trkpt><trkpt lat="43.0507044" lon="12.3306984"><ele>297.0</ele><time>2026-03-29T06:05:38.558Z</time></trkpt><trkpt lat="43.0508598" lon="12.3305069"><ele>297.0</ele><time>2026-03-29T06:05:45.552Z</time></trkpt><trkpt lat="43.0509148" lon="12.3304561"><ele>297.0</ele><time>2026-03-29T06:05:46.572Z</time></trkpt><trkpt lat="43.0509698" lon="12.3303815"><ele>297.0</ele><time>2026-03-29T06:05:48.583Z</time></trkpt><trkpt lat="43.0510074" lon="12.3302943"><ele>297.0</ele><time>2026-03-29T06:05:51.573Z</time></trkpt><trkpt lat="43.0510886" lon="12.3304592"><ele>297.0</ele><time>2026-03-29T06:05:53.58Z</time></trkpt><trkpt lat="43.0510413" lon="12.3303952"><ele>297.0</ele><time>2026-03-29T06:15:53.563Z</time></trkpt><trkpt lat="43.0510682" lon="12.3304816"><ele>297.0</ele><time>2026-03-29T06:16:08.547Z</time></trkpt><trkpt lat="43.0511253" lon="12.3303809"><ele>297.0</ele><time>2026-03-29T06:16:37.413Z</time></trkpt><trkpt lat="43.0511333" lon="12.3302904"><ele>297.0</ele><time>2026-03-29T06:16:39.579Z</time></trkpt><trkpt lat="43.0512967" lon="12.3302574"><ele>297.0</ele><time>2026-03-29T06:16:40.562Z</time></trkpt><trkpt lat="43.0513643" lon="12.3301934"><ele>297.0</ele><time>2026-03-29T06:16:42.554Z</time></trkpt><trkpt lat="43.0514383" lon="12.3302206"><ele>297.0</ele><time>2026-03-29T06:16:46.827Z</time></trkpt><trkpt lat="43.0514869" lon="12.3302817"><ele>297.0</ele><time>2026-03-29T06:16:50.57Z</time></trkpt><trkpt lat="43.051495" lon="12.3301953"><ele>297.0</ele><time>2026-03-29T06:16:54.562Z</time></trkpt><trkpt lat="43.0514622" lon="12.3300763"><ele>297.0</ele><time>2026-03-29T06:16:56.97Z</time></trkpt><trkpt lat="43.0514269" lon="12.3299598"><ele>297.0</ele><time>2026-03-29T06:16:59.305Z</time></trkpt><trkpt lat="43.0514238" lon="12.329829"><ele>297.0</ele><time>2026-03-29T06:17:01.566Z</time></trkpt><trkpt lat="43.0514484" lon="12.329707"><ele>297.0</ele><time>2026-03-29T06:17:03.559Z</time></trkpt><trkpt lat="43.0514415" lon="12.3296165"><ele>297.0</ele><time>2026-03-29T06:17:04.546Z</time></trkpt><trkpt lat="43.0514461" lon="12.3294966"><ele>296.8</ele><time>2026-03-29T06:17:06.555Z</time></trkpt><trkpt lat="43.0514304" lon="12.3293637"><ele>296.6</ele><time>2026-03-29T06:17:08.546Z</time></trkpt><trkpt lat="43.0514102" lon="12.3291717"><ele>296.40000000000003</ele><time>2026-03-29T06:17:11.542Z</time></trkpt><trkpt lat="43.0514101" lon="12.3290404"><ele>296.2</ele><time>2026-03-29T06:17:13.548Z</time></trkpt><trkpt lat="43.0513965" lon="12.3289241"><ele>296.0</ele><time>2026-03-29T06:17:15.567Z</time></trkpt><trkpt lat="43.0514461" lon="12.3287893"><ele>296.0</ele><time>2026-03-29T06:17:19.547Z</time></trkpt><trkpt lat="43.0515377" lon="12.3287505"><ele>296.0</ele><time>2026-03-29T06:17:21.56Z</time></trkpt><trkpt lat="43.0516402" lon="12.3287814"><ele>296.0</ele><time>2026-03-29T06:17:23.566Z</time></trkpt><trkpt lat="43.0517507" lon="12.3288052"><ele>296.0</ele><time>2026-03-29T06:17:25.569Z</time></trkpt><trkpt lat="43.0518572" lon="12.3288424"><ele>296.0</ele><time>2026-03-29T06:17:27.56Z</time></trkpt><trkpt lat="43.0519579" lon="12.3288734"><ele>296.2</ele><time>2026-03-29T06:17:29.57Z</time></trkpt><trkpt lat="43.052061" lon="12.3289136"><ele>296.40000000000003</ele><time>2026-03-29T06:17:31.67Z</time></trkpt><trkpt lat="43.0521584" lon="12.3289435"><ele>296.6</ele><time>2026-03-29T06:17:33.561Z</time></trkpt><trkpt lat="43.0522551" lon="12.3289753"><ele>296.8</ele><time>2026-03-29T06:17:35.569Z</time></trkpt><trkpt lat="43.0523495" lon="12.3290058"><ele>297.0</ele><time>2026-03-29T06:17:37.551Z</time></trkpt><trkpt lat="43.0524471" lon="12.3290475"><ele>296.6</ele><time>2026-03-29T06:17:39.551Z</time></trkpt><trkpt lat="43.0525305" lon="12.3290034"><ele>296.2</ele><time>2026-03-29T06:17:41.572Z</time></trkpt><trkpt lat="43.0525704" lon="12.3288779"><ele>295.8</ele><time>2026-03-29T06:17:43.556Z</time></trkpt><trkpt lat="43.0525509" lon="12.3287495"><ele>295.4</ele><time>2026-03-29T06:17:45.549Z</time></trkpt><trkpt lat="43.0525105" lon="12.3286346"><ele>295.0</ele><time>2026-03-29T06:17:47.565Z</time></trkpt><trkpt lat="43.0524862" lon="12.3285388"><ele>295.00000000000006</ele><time>2026-03-29T06:17:49.551Z</time></trkpt><trkpt lat="43.0524775" lon="12.3284427"><ele>295.0</ele><time>2026-03-29T06:17:53.56Z</time></trkpt><trkpt lat="43.0524141" lon="12.3284282"><ele>295.0</ele><time>2026-03-29T06:21:58.568Z</time></trkpt><trkpt lat="43.0524324" lon="12.3285128"><ele>295.0</ele><time>2026-03-29T06:22:09.567Z</time></trkpt><trkpt lat="43.0524556" lon="12.3286036"><ele>295.0</ele><time>2026-03-29T06:22:14.554Z</time></trkpt><trkpt lat="43.0525259" lon="12.3286045"><ele>295.00000000000006</ele><time>2026-03-29T06:22:18.549Z</time></trkpt><trkpt lat="43.0525505" lon="12.3285097"><ele>295.0</ele><time>2026-03-29T06:22:21.559Z</time></trkpt><trkpt lat="43.052559" lon="12.3283934"><ele>295.0</ele><time>2026-03-29T06:22:24.549Z</time></trkpt><trkpt lat="43.0525639" lon="12.3282979"><ele>295.0</ele><time>2026-03-29T06:22:26.567Z</time></trkpt><trkpt lat="43.0525789" lon="12.3282034"><ele>295.0</ele><time>2026-03-29T06:22:28.563Z</time></trkpt><trkpt lat="43.0526034" lon="12.3280954"><ele>295.0</ele><time>2026-03-29T06:22:30.564Z</time></trkpt><trkpt lat="43.0526328" lon="12.3279818"><ele>295.0</ele><time>2026-03-29T06:22:32.571Z</time></trkpt><trkpt lat="43.0526551" lon="12.3278695"><ele>295.0</ele><time>2026-03-29T06:22:34.568Z</time></trkpt><trkpt lat="43.0526832" lon="12.3277635"><ele>295.0</ele><time>2026-03-29T06:22:36.562Z</time></trkpt><trkpt lat="43.0527137" lon="12.3276544"><ele>295.0</ele><time>2026-03-29T06:22:38.569Z</time></trkpt><trkpt lat="43.0527424" lon="12.3275436"><ele>295.0</ele><time>2026-03-29T06:22:40.567Z</time></trkpt><trkpt lat="43.052764" lon="12.3274269"><ele>295.0</ele><time>2026-03-29T06:22:42.565Z</time></trkpt><trkpt lat="43.0527845" lon="12.3273083"><ele>295.0</ele><time>2026-03-29T06:22:44.571Z</time></trkpt><trkpt lat="43.0528126" lon="12.3271895"><ele>295.0</ele><time>2026-03-29T06:22:46.563Z</time></trkpt><trkpt lat="43.052838" lon="12.327073"><ele>294.66666666666663</ele><time>2026-03-29T06:22:48.564Z</time></trkpt><trkpt lat="43.0528612" lon="12.32696"><ele>294.3333333333333</ele><time>2026-03-29T06:22:50.575Z</time></trkpt><trkpt lat="43.0528929" lon="12.3268437"><ele>294.0</ele><time>2026-03-29T06:22:52.57Z</time></trkpt><trkpt lat="43.0529186" lon="12.3267309"><ele>293.6666666666667</ele><time>2026-03-29T06:22:54.546Z</time></trkpt><trkpt lat="43.0529445" lon="12.3266131"><ele>293.33333333333337</ele><time>2026-03-29T06:22:56.571Z</time></trkpt><trkpt lat="43.0529647" lon="12.3264942"><ele>293.0</ele><time>2026-03-29T06:22:58.563Z</time></trkpt><trkpt lat="43.0529929" lon="12.3263747"><ele>292.6</ele><time>2026-03-29T06:23:00.564Z</time></trkpt><trkpt lat="43.0530181" lon="12.3262491"><ele>292.20000000000005</ele><time>2026-03-29T06:23:02.57Z</time></trkpt><trkpt lat="43.0530539" lon="12.3261241"><ele>291.8</ele><time>2026-03-29T06:23:04.563Z</time></trkpt><trkpt lat="43.0530976" lon="12.325997"><ele>291.40000000000003</ele><time>2026-03-29T06:23:06.556Z</time></trkpt><trkpt lat="43.0531512" lon="12.3258752"><ele>291.0</ele><time>2026-03-29T06:23:08.57Z</time></trkpt><trkpt lat="43.0532173" lon="12.3257496"><ele>291.0</ele><time>2026-03-29T06:23:10.567Z</time></trkpt><trkpt lat="43.0532753" lon="12.3256191"><ele>291.0</ele><time>2026-03-29T06:23:12.667Z</time></trkpt><trkpt lat="43.053338" lon="12.3254784"><ele>291.0</ele><time>2026-03-29T06:23:14.576Z</time></trkpt><trkpt lat="43.0533917" lon="12.325336"><ele>291.0</ele><time>2026-03-29T06:23:16.557Z</time></trkpt><trkpt lat="43.0534256" lon="12.3252605"><ele>291.0</ele><time>2026-03-29T06:23:17.568Z</time></trkpt><trkpt lat="43.0534519" lon="12.3251781"><ele>290.0</ele><time>2026-03-29T06:23:18.569Z</time></trkpt><trkpt lat="43.0534985" lon="12.3250169"><ele>289.0</ele><time>2026-03-29T06:23:20.56Z</time></trkpt><trkpt lat="43.0535229" lon="12.3249364"><ele>288.0</ele><time>2026-03-29T06:23:21.567Z</time></trkpt><trkpt lat="43.053536" lon="12.3248518"><ele>287.0</ele><time>2026-03-29T06:23:22.549Z</time></trkpt><trkpt lat="43.0535504" lon="12.3247572"><ele>286.0</ele><time>2026-03-29T06:23:23.56Z</time></trkpt><trkpt lat="43.0535634" lon="12.3246645"><ele>285.0</ele><time>2026-03-29T06:23:24.566Z</time></trkpt><trkpt lat="43.0535699" lon="12.3245662"><ele>284.0</ele><time>2026-03-29T06:23:25.56Z</time></trkpt><trkpt lat="43.0535666" lon="12.3244722"><ele>283.0</ele><time>2026-03-29T06:23:26.553Z</time></trkpt><trkpt lat="43.053557" lon="12.3243797"><ele>282.0</ele><time>2026-03-29T06:23:27.549Z</time></trkpt><trkpt lat="43.0535433" lon="12.3242805"><ele>281.0</ele><time>2026-03-29T06:23:28.564Z</time></trkpt><trkpt lat="43.0535219" lon="12.3241897"><ele>280.0</ele><time>2026-03-29T06:23:29.567Z</time></trkpt><trkpt lat="43.0534939" lon="12.3240959"><ele>279.0</ele><time>2026-03-29T06:23:30.548Z</time></trkpt><trkpt lat="43.0534594" lon="12.3240032"><ele>278.0</ele><time>2026-03-29T06:23:31.547Z</time></trkpt><trkpt lat="43.0534221" lon="12.3239154"><ele>277.33333333333337</ele><time>2026-03-29T06:23:32.551Z</time></trkpt><trkpt lat="43.053383" lon="12.3238319"><ele>276.6666666666667</ele><time>2026-03-29T06:23:33.547Z</time></trkpt><trkpt lat="43.0533344" lon="12.3237519"><ele>276.0</ele><time>2026-03-29T06:23:34.546Z</time></trkpt><trkpt lat="43.0532783" lon="12.3236847"><ele>275.3333333333333</ele><time>2026-03-29T06:23:35.552Z</time></trkpt><trkpt lat="43.0532176" lon="12.3236178"><ele>274.66666666666663</ele><time>2026-03-29T06:23:36.547Z</time></trkpt><trkpt lat="43.0531536" lon="12.3235617"><ele>274.0</ele><time>2026-03-29T06:23:37.551Z</time></trkpt><trkpt lat="43.0530882" lon="12.3235081"><ele>274.00000000000006</ele><time>2026-03-29T06:23:38.547Z</time></trkpt><trkpt lat="43.0530273" lon="12.3234573"><ele>274.0</ele><time>2026-03-29T06:23:39.567Z</time></trkpt><trkpt lat="43.0529674" lon="12.3234043"><ele>274.0</ele><time>2026-03-29T06:23:40.551Z</time></trkpt><trkpt lat="43.052914" lon="12.3233382"><ele>274.0</ele><time>2026-03-29T06:23:41.55Z</time></trkpt><trkpt lat="43.05287" lon="12.3232585"><ele>274.0</ele><time>2026-03-29T06:23:42.548Z</time></trkpt><trkpt lat="43.0528464" lon="12.3231621"><ele>274.00000000000006</ele><time>2026-03-29T06:23:43.573Z</time></trkpt><trkpt lat="43.0528491" lon="12.3230565"><ele>274.0</ele><time>2026-03-29T06:23:44.566Z</time></trkpt><trkpt lat="43.0528742" lon="12.3229505"><ele>273.0</ele><time>2026-03-29T06:23:45.556Z</time></trkpt><trkpt lat="43.05292" lon="12.3228586"><ele>272.0</ele><time>2026-03-29T06:23:46.558Z</time></trkpt><trkpt lat="43.0529834" lon="12.322788"><ele>271.0</ele><time>2026-03-29T06:23:47.549Z</time></trkpt><trkpt lat="43.0530519" lon="12.3227226"><ele>270.0</ele><time>2026-03-29T06:23:48.544Z</time></trkpt><trkpt lat="43.0531092" lon="12.3226474"><ele>269.0</ele><time>2026-03-29T06:23:49.545Z</time></trkpt><trkpt lat="43.0531843" lon="12.3225722"><ele>268.0</ele><time>2026-03-29T06:23:50.573Z</time></trkpt><trkpt lat="43.0532472" lon="12.3225035"><ele>267.5</ele><time>2026-03-29T06:23:51.657Z</time></trkpt><trkpt lat="43.0533054" lon="12.3224277"><ele>267.0</ele><time>2026-03-29T06:23:52.56Z</time></trkpt><trkpt lat="43.0533615" lon="12.3223458"><ele>266.5</ele><time>2026-03-29T06:23:53.556Z</time></trkpt><trkpt lat="43.0534161" lon="12.3222614"><ele>266.0</ele><time>2026-03-29T06:23:54.567Z</time></trkpt><trkpt lat="43.0534696" lon="12.3221835"><ele>265.5</ele><time>2026-03-29T06:23:55.57Z</time></trkpt><trkpt lat="43.0535209" lon="12.3221075"><ele>265.0</ele><time>2026-03-29T06:23:56.572Z</time></trkpt><trkpt lat="43.0535764" lon="12.3220123"><ele>264.5</ele><time>2026-03-29T06:23:57.568Z</time></trkpt><trkpt lat="43.0536319" lon="12.3219276"><ele>264.0</ele><time>2026-03-29T06:23:58.567Z</time></trkpt><trkpt lat="43.0536854" lon="12.3218466"><ele>263.5</ele><time>2026-03-29T06:23:59.562Z</time></trkpt><trkpt lat="43.0537443" lon="12.3217573"><ele>263.0</ele><time>2026-03-29T06:24:00.562Z</time></trkpt><trkpt lat="43.0537989" lon="12.321668"><ele>262.5</ele><time>2026-03-29T06:24:01.563Z</time></trkpt><trkpt lat="43.0538642" lon="12.321582"><ele>262.0</ele><time>2026-03-29T06:24:02.561Z</time></trkpt><trkpt lat="43.0539354" lon="12.3214992"><ele>262.0</ele><time>2026-03-29T06:24:03.577Z</time></trkpt><trkpt lat="43.0540129" lon="12.3214356"><ele>262.0</ele><time>2026-03-29T06:24:04.572Z</time></trkpt><trkpt lat="43.0541002" lon="12.3213968"><ele>262.0</ele><time>2026-03-29T06:24:05.568Z</time></trkpt><trkpt lat="43.054188" lon="12.3213753"><ele>262.0</ele><time>2026-03-29T06:24:06.558Z</time></trkpt><trkpt lat="43.0542782" lon="12.3213626"><ele>262.0</ele><time>2026-03-29T06:24:07.57Z</time></trkpt><trkpt lat="43.0543716" lon="12.3213613"><ele>261.2</ele><time>2026-03-29T06:24:08.551Z</time></trkpt><trkpt lat="43.0544677" lon="12.3213583"><ele>260.4</ele><time>2026-03-29T06:24:09.566Z</time></trkpt><trkpt lat="43.0545525" lon="12.321322"><ele>259.6</ele><time>2026-03-29T06:24:10.56Z</time></trkpt><trkpt lat="43.0546343" lon="12.3212711"><ele>258.8</ele><time>2026-03-29T06:24:11.558Z</time></trkpt><trkpt lat="43.0547075" lon="12.3212068"><ele>258.0</ele><time>2026-03-29T06:24:12.562Z</time></trkpt><trkpt lat="43.0547732" lon="12.3211226"><ele>258.0</ele><time>2026-03-29T06:24:13.564Z</time></trkpt><trkpt lat="43.0548333" lon="12.3210317"><ele>258.0</ele><time>2026-03-29T06:24:14.666Z</time></trkpt><trkpt lat="43.0548747" lon="12.3209394"><ele>258.0</ele><time>2026-03-29T06:24:15.568Z</time></trkpt><trkpt lat="43.0549193" lon="12.320847"><ele>258.0</ele><time>2026-03-29T06:24:16.57Z</time></trkpt><trkpt lat="43.0549672" lon="12.3207381"><ele>258.0</ele><time>2026-03-29T06:24:17.555Z</time></trkpt><trkpt lat="43.0550176" lon="12.3206261"><ele>258.0</ele><time>2026-03-29T06:24:18.564Z</time></trkpt><trkpt lat="43.0550643" lon="12.3205114"><ele>256.8333333333333</ele><time>2026-03-29T06:24:19.57Z</time></trkpt><trkpt lat="43.055109" lon="12.3203965"><ele>255.66666666666669</ele><time>2026-03-29T06:24:20.562Z</time></trkpt><trkpt lat="43.0551457" lon="12.3202921"><ele>254.5</ele><time>2026-03-29T06:24:21.567Z</time></trkpt><trkpt lat="43.0551857" lon="12.3201851"><ele>253.33333333333334</ele><time>2026-03-29T06:24:22.566Z</time></trkpt><trkpt lat="43.05523" lon="12.3200821"><ele>252.16666666666669</ele><time>2026-03-29T06:24:23.548Z</time></trkpt><trkpt lat="43.0552739" lon="12.3199774"><ele>251.0</ele><time>2026-03-29T06:24:24.547Z</time></trkpt><trkpt lat="43.0553276" lon="12.3198736"><ele>251.00000000000003</ele><time>2026-03-29T06:24:25.568Z</time></trkpt><trkpt lat="43.0553636" lon="12.3197772"><ele>251.0</ele><time>2026-03-29T06:24:26.662Z</time></trkpt><trkpt lat="43.0554029" lon="12.3196812"><ele>251.0</ele><time>2026-03-29T06:24:27.563Z</time></trkpt><trkpt lat="43.0554457" lon="12.319573"><ele>251.0</ele><time>2026-03-29T06:24:28.555Z</time></trkpt><trkpt lat="43.0554921" lon="12.3194776"><ele>251.00000000000003</ele><time>2026-03-29T06:24:29.572Z</time></trkpt><trkpt lat="43.0555339" lon="12.3193858"><ele>251.0</ele><time>2026-03-29T06:24:30.569Z</time></trkpt><trkpt lat="43.055575" lon="12.3192836"><ele>250.50000000000003</ele><time>2026-03-29T06:24:31.568Z</time></trkpt><trkpt lat="43.0556174" lon="12.319186"><ele>250.0</ele><time>2026-03-29T06:24:32.556Z</time></trkpt><trkpt lat="43.0556546" lon="12.3190884"><ele>249.5</ele><time>2026-03-29T06:24:33.568Z</time></trkpt><trkpt lat="43.0556925" lon="12.3189995"><ele>249.0</ele><time>2026-03-29T06:24:34.563Z</time></trkpt><trkpt lat="43.0557333" lon="12.318898"><ele>248.50000000000003</ele><time>2026-03-29T06:24:35.564Z</time></trkpt><trkpt lat="43.0557763" lon="12.3188018"><ele>248.0</ele><time>2026-03-29T06:24:36.564Z</time></trkpt><trkpt lat="43.0558171" lon="12.3187067"><ele>247.33333333333334</ele><time>2026-03-29T06:24:37.567Z</time></trkpt><trkpt lat="43.0558604" lon="12.3186096"><ele>246.66666666666669</ele><time>2026-03-29T06:24:38.565Z</time></trkpt><trkpt lat="43.0559028" lon="12.3185077"><ele>246.0</ele><time>2026-03-29T06:24:39.567Z</time></trkpt><trkpt lat="43.0559458" lon="12.3184079"><ele>245.33333333333331</ele><time>2026-03-29T06:24:40.569Z</time></trkpt><trkpt lat="43.0559882" lon="12.318308"><ele>244.66666666666666</ele><time>2026-03-29T06:24:41.565Z</time></trkpt><trkpt lat="43.0560278" lon="12.3182133"><ele>244.0</ele><time>2026-03-29T06:24:42.564Z</time></trkpt><trkpt lat="43.0560683" lon="12.3181182"><ele>243.33333333333331</ele><time>2026-03-29T06:24:43.558Z</time></trkpt><trkpt lat="43.0561065" lon="12.3180216"><ele>242.66666666666666</ele><time>2026-03-29T06:24:44.563Z</time></trkpt><trkpt lat="43.0561519" lon="12.317922"><ele>242.0</ele><time>2026-03-29T06:24:45.568Z</time></trkpt><trkpt lat="43.0561991" lon="12.3178321"><ele>241.33333333333331</ele><time>2026-03-29T06:24:46.563Z</time></trkpt><trkpt lat="43.0562441" lon="12.3177357"><ele>240.66666666666666</ele><time>2026-03-29T06:24:47.567Z</time></trkpt><trkpt lat="43.0562923" lon="12.3176389"><ele>240.0</ele><time>2026-03-29T06:24:48.571Z</time></trkpt><trkpt lat="43.0563508" lon="12.3175537"><ele>240.0</ele><time>2026-03-29T06:24:49.572Z</time></trkpt><trkpt lat="43.0564214" lon="12.3174801"><ele>240.0</ele><time>2026-03-29T06:24:50.557Z</time></trkpt><trkpt lat="43.0564953" lon="12.3174087"><ele>240.0</ele><time>2026-03-29T06:24:51.566Z</time></trkpt><trkpt lat="43.0565758" lon="12.3173441"><ele>240.0</ele><time>2026-03-29T06:24:52.568Z</time></trkpt><trkpt lat="43.056652" lon="12.3172822"><ele>240.0</ele><time>2026-03-29T06:24:53.566Z</time></trkpt><trkpt lat="43.0567178" lon="12.3172294"><ele>240.0</ele><time>2026-03-29T06:24:54.546Z</time></trkpt><trkpt lat="43.056797" lon="12.3171675"><ele>239.0</ele><time>2026-03-29T06:24:55.561Z</time></trkpt><trkpt lat="43.056871" lon="12.3171158"><ele>238.0</ele><time>2026-03-29T06:24:56.555Z</time></trkpt><trkpt lat="43.0569434" lon="12.3170511"><ele>237.0</ele><time>2026-03-29T06:24:57.571Z</time></trkpt><trkpt lat="43.057021" lon="12.3169976"><ele>236.0</ele><time>2026-03-29T06:24:58.551Z</time></trkpt><trkpt lat="43.0571021" lon="12.3169361"><ele>235.0</ele><time>2026-03-29T06:24:59.553Z</time></trkpt><trkpt lat="43.0571716" lon="12.3168827"><ele>234.0</ele><time>2026-03-29T06:25:00.569Z</time></trkpt><trkpt lat="43.0572432" lon="12.3168254"><ele>234.0</ele><time>2026-03-29T06:25:01.546Z</time></trkpt><trkpt lat="43.0573173" lon="12.316782"><ele>234.0</ele><time>2026-03-29T06:25:02.57Z</time></trkpt><trkpt lat="43.0573912" lon="12.316729"><ele>234.0</ele><time>2026-03-29T06:25:03.546Z</time></trkpt><trkpt lat="43.0574659" lon="12.316676"><ele>234.0</ele><time>2026-03-29T06:25:04.537Z</time></trkpt><trkpt lat="43.0575264" lon="12.3166265"><ele>234.0</ele><time>2026-03-29T06:25:05.545Z</time></trkpt><trkpt lat="43.0575912" lon="12.3165739"><ele>234.0</ele><time>2026-03-29T06:25:06.543Z</time></trkpt><trkpt lat="43.0576608" lon="12.3165278"><ele>233.57142857142858</ele><time>2026-03-29T06:25:07.549Z</time></trkpt><trkpt lat="43.0577204" lon="12.3164772"><ele>233.14285714285717</ele><time>2026-03-29T06:25:08.543Z</time></trkpt><trkpt lat="43.0577888" lon="12.3164152"><ele>232.71428571428572</ele><time>2026-03-29T06:25:09.548Z</time></trkpt><trkpt lat="43.0578348" lon="12.3163542"><ele>232.28571428571428</ele><time>2026-03-29T06:25:10.545Z</time></trkpt><trkpt lat="43.0578863" lon="12.3162931"><ele>231.85714285714286</ele><time>2026-03-29T06:25:11.562Z</time></trkpt><trkpt lat="43.0579351" lon="12.3162324"><ele>231.42857142857144</ele><time>2026-03-29T06:25:12.546Z</time></trkpt><trkpt lat="43.0579845" lon="12.3161768"><ele>231.0</ele><time>2026-03-29T06:25:13.654Z</time></trkpt><trkpt lat="43.0580758" lon="12.3160686"><ele>231.0</ele><time>2026-03-29T06:25:15.56Z</time></trkpt><trkpt lat="43.0581589" lon="12.3159551"><ele>231.00000000000003</ele><time>2026-03-29T06:25:17.572Z</time></trkpt><trkpt lat="43.0582063" lon="12.3158967"><ele>231.00000000000003</ele><time>2026-03-29T06:25:18.553Z</time></trkpt><trkpt lat="43.058299" lon="12.3157974"><ele>231.0</ele><time>2026-03-29T06:25:20.57Z</time></trkpt><trkpt lat="43.0583955" lon="12.3156928"><ele>231.0</ele><time>2026-03-29T06:25:22.562Z</time></trkpt><trkpt lat="43.058494" lon="12.315614"><ele>231.0</ele><time>2026-03-29T06:25:24.554Z</time></trkpt><trkpt lat="43.0585993" lon="12.3155404"><ele>231.00000000000003</ele><time>2026-03-29T06:25:26.568Z</time></trkpt><trkpt lat="43.0587087" lon="12.3154899"><ele>231.00000000000003</ele><time>2026-03-29T06:25:28.569Z</time></trkpt><trkpt lat="43.0588097" lon="12.3154305"><ele>231.0</ele><time>2026-03-29T06:25:30.566Z</time></trkpt><trkpt lat="43.0588904" lon="12.3153703"><ele>231.0</ele><time>2026-03-29T06:25:32.58Z</time></trkpt><trkpt lat="43.0589758" lon="12.3153104"><ele>231.0</ele><time>2026-03-29T06:25:34.57Z</time></trkpt><trkpt lat="43.0590549" lon="12.3152607"><ele>231.0</ele><time>2026-03-29T06:25:36.572Z</time></trkpt><trkpt lat="43.0591323" lon="12.315206"><ele>231.0</ele><time>2026-03-29T06:25:38.55Z</time></trkpt><trkpt lat="43.0591961" lon="12.3151267"><ele>231.0</ele><time>2026-03-29T06:25:40.572Z</time></trkpt><trkpt lat="43.0592525" lon="12.3150393"><ele>231.0</ele><time>2026-03-29T06:25:42.571Z</time></trkpt><trkpt lat="43.0593268" lon="12.3149612"><ele>231.0</ele><time>2026-03-29T06:25:44.552Z</time></trkpt><trkpt lat="43.0594052" lon="12.3148771"><ele>232.5</ele><time>2026-03-29T06:25:46.564Z</time></trkpt><trkpt lat="43.0594798" lon="12.3147924"><ele>234.0</ele><time>2026-03-29T06:25:48.572Z</time></trkpt><trkpt lat="43.0596027" lon="12.3146629"><ele>235.5</ele><time>2026-03-29T06:25:51.549Z</time></trkpt><trkpt lat="43.0596834" lon="12.3145778"><ele>237.0</ele><time>2026-03-29T06:25:53.55Z</time></trkpt><trkpt lat="43.059773" lon="12.3145116"><ele>237.0</ele><time>2026-03-29T06:25:55.549Z</time></trkpt><trkpt lat="43.0598688" lon="12.3144706"><ele>237.0</ele><time>2026-03-29T06:25:57.548Z</time></trkpt><trkpt lat="43.0599725" lon="12.3144312"><ele>237.0</ele><time>2026-03-29T06:25:59.56Z</time></trkpt><trkpt lat="43.0600754" lon="12.3144118"><ele>237.0</ele><time>2026-03-29T06:26:01.546Z</time></trkpt><trkpt lat="43.0601817" lon="12.3143956"><ele>237.0</ele><time>2026-03-29T06:26:03.551Z</time></trkpt><trkpt lat="43.0602901" lon="12.3143842"><ele>236.5</ele><time>2026-03-29T06:26:05.552Z</time></trkpt><trkpt lat="43.060394" lon="12.3143884"><ele>236.0</ele><time>2026-03-29T06:26:07.546Z</time></trkpt><trkpt lat="43.0605014" lon="12.3143958"><ele>235.5</ele><time>2026-03-29T06:26:09.547Z</time></trkpt><trkpt lat="43.0606057" lon="12.3143806"><ele>235.0</ele><time>2026-03-29T06:26:11.549Z</time></trkpt><trkpt lat="43.0607579" lon="12.3143061"><ele>235.0</ele><time>2026-03-29T06:26:14.545Z</time></trkpt><trkpt lat="43.0608494" lon="12.3142629"><ele>235.0</ele><time>2026-03-29T06:26:16.545Z</time></trkpt><trkpt lat="43.0609401" lon="12.3142118"><ele>235.0</ele><time>2026-03-29T06:26:18.549Z</time></trkpt><trkpt lat="43.0610379" lon="12.3141724"><ele>235.0</ele><time>2026-03-29T06:26:20.553Z</time></trkpt><trkpt lat="43.0611367" lon="12.3141311"><ele>235.0</ele><time>2026-03-29T06:26:22.547Z</time></trkpt><trkpt lat="43.0611994" lon="12.3141139"><ele>235.0</ele><time>2026-03-29T06:26:23.546Z</time></trkpt><trkpt lat="43.061311" lon="12.3140582"><ele>235.0</ele><time>2026-03-29T06:26:25.548Z</time></trkpt><trkpt lat="43.0613991" lon="12.3139907"><ele>235.0</ele><time>2026-03-29T06:26:27.548Z</time></trkpt><trkpt lat="43.0614875" lon="12.3139142"><ele>235.0</ele><time>2026-03-29T06:26:29.549Z</time></trkpt><trkpt lat="43.0615704" lon="12.3138388"><ele>235.0</ele><time>2026-03-29T06:26:31.548Z</time></trkpt><trkpt lat="43.0616621" lon="12.3137708"><ele>235.6</ele><time>2026-03-29T06:26:33.546Z</time></trkpt><trkpt lat="43.0617514" lon="12.3137166"><ele>236.2</ele><time>2026-03-29T06:26:35.547Z</time></trkpt><trkpt lat="43.0618371" lon="12.313667"><ele>236.8</ele><time>2026-03-29T06:26:37.551Z</time></trkpt><trkpt lat="43.0619296" lon="12.3136069"><ele>237.4</ele><time>2026-03-29T06:26:39.544Z</time></trkpt><trkpt lat="43.0620127" lon="12.3135533"><ele>238.0</ele><time>2026-03-29T06:26:41.547Z</time></trkpt><trkpt lat="43.0621021" lon="12.3134986"><ele>238.0</ele><time>2026-03-29T06:26:43.546Z</time></trkpt><trkpt lat="43.062193" lon="12.3134319"><ele>238.0</ele><time>2026-03-29T06:26:45.55Z</time></trkpt><trkpt lat="43.0622843" lon="12.3133572"><ele>238.0</ele><time>2026-03-29T06:26:47.545Z</time></trkpt><trkpt lat="43.0623743" lon="12.3133004"><ele>238.0</ele><time>2026-03-29T06:26:49.548Z</time></trkpt><trkpt lat="43.062461" lon="12.3132418"><ele>238.0</ele><time>2026-03-29T06:26:51.548Z</time></trkpt><trkpt lat="43.0625518" lon="12.3131707"><ele>237.8</ele><time>2026-03-29T06:26:53.551Z</time></trkpt><trkpt lat="43.0626418" lon="12.3131217"><ele>237.60000000000002</ele><time>2026-03-29T06:26:55.55Z</time></trkpt><trkpt lat="43.0627324" lon="12.3130529"><ele>237.39999999999998</ele><time>2026-03-29T06:26:57.554Z</time></trkpt><trkpt lat="43.0628176" lon="12.312992"><ele>237.2</ele><time>2026-03-29T06:26:59.553Z</time></trkpt><trkpt lat="43.0629015" lon="12.3129228"><ele>237.0</ele><time>2026-03-29T06:27:01.56Z</time></trkpt><trkpt lat="43.0629895" lon="12.3128551"><ele>237.2</ele><time>2026-03-29T06:27:03.55Z</time></trkpt><trkpt lat="43.0630786" lon="12.3127884"><ele>237.39999999999998</ele><time>2026-03-29T06:27:05.545Z</time></trkpt><trkpt lat="43.0631608" lon="12.3127388"><ele>237.60000000000002</ele><time>2026-03-29T06:27:07.564Z</time></trkpt><trkpt lat="43.0632405" lon="12.3126687"><ele>237.8</ele><time>2026-03-29T06:27:09.566Z</time></trkpt><trkpt lat="43.0633294" lon="12.3126078"><ele>238.0</ele><time>2026-03-29T06:27:11.566Z</time></trkpt><trkpt lat="43.0634111" lon="12.3125576"><ele>238.0</ele><time>2026-03-29T06:27:13.56Z</time></trkpt><trkpt lat="43.0634985" lon="12.3125087"><ele>238.0</ele><time>2026-03-29T06:27:15.57Z</time></trkpt><trkpt lat="43.0635652" lon="12.3124376"><ele>238.0</ele><time>2026-03-29T06:27:17.565Z</time></trkpt><trkpt lat="43.0636597" lon="12.3124022"><ele>238.0</ele><time>2026-03-29T06:27:19.555Z</time></trkpt><trkpt lat="43.0637564" lon="12.3123511"><ele>238.0</ele><time>2026-03-29T06:27:21.569Z</time></trkpt><trkpt lat="43.0638339" lon="12.312298"><ele>238.25</ele><time>2026-03-29T06:27:23.572Z</time></trkpt><trkpt lat="43.0639298" lon="12.3122341"><ele>238.5</ele><time>2026-03-29T06:27:25.547Z</time></trkpt><trkpt lat="43.0640169" lon="12.3121863"><ele>238.75</ele><time>2026-03-29T06:27:27.564Z</time></trkpt><trkpt lat="43.0641147" lon="12.3121191"><ele>239.0</ele><time>2026-03-29T06:27:29.566Z</time></trkpt><trkpt lat="43.0642579" lon="12.3120326"><ele>239.39999999999998</ele><time>2026-03-29T06:27:32.568Z</time></trkpt><trkpt lat="43.0643514" lon="12.311988"><ele>239.79999999999998</ele><time>2026-03-29T06:27:34.548Z</time></trkpt><trkpt lat="43.0644371" lon="12.311947"><ele>240.20000000000002</ele><time>2026-03-29T06:27:36.663Z</time></trkpt><trkpt lat="43.0645157" lon="12.3118915"><ele>240.60000000000002</ele><time>2026-03-29T06:27:38.548Z</time></trkpt><trkpt lat="43.0646009" lon="12.3118463"><ele>241.0</ele><time>2026-03-29T06:27:40.569Z</time></trkpt><trkpt lat="43.0646783" lon="12.3118"><ele>240.99999999999997</ele><time>2026-03-29T06:27:42.567Z</time></trkpt><trkpt lat="43.0647504" lon="12.3117527"><ele>241.0</ele><time>2026-03-29T06:27:44.562Z</time></trkpt><trkpt lat="43.0648281" lon="12.3117101"><ele>241.0</ele><time>2026-03-29T06:27:46.561Z</time></trkpt><trkpt lat="43.0648957" lon="12.3116757"><ele>241.0</ele><time>2026-03-29T06:27:48.569Z</time></trkpt><trkpt lat="43.064976" lon="12.3116575"><ele>240.99999999999997</ele><time>2026-03-29T06:27:50.563Z</time></trkpt><trkpt lat="43.0650474" lon="12.3116298"><ele>241.0</ele><time>2026-03-29T06:27:52.571Z</time></trkpt><trkpt lat="43.0651196" lon="12.3116215"><ele>240.99999999999997</ele><time>2026-03-29T06:27:54.561Z</time></trkpt><trkpt lat="43.0651863" lon="12.3116755"><ele>241.0</ele><time>2026-03-29T06:27:56.557Z</time></trkpt><trkpt lat="43.065249" lon="12.3117622"><ele>241.0</ele><time>2026-03-29T06:27:58.569Z</time></trkpt><trkpt lat="43.0653354" lon="12.3118127"><ele>241.0</ele><time>2026-03-29T06:28:00.544Z</time></trkpt><trkpt lat="43.0654127" lon="12.3118811"><ele>240.99999999999997</ele><time>2026-03-29T06:28:02.571Z</time></trkpt><trkpt lat="43.0654953" lon="12.3119376"><ele>241.0</ele><time>2026-03-29T06:28:04.559Z</time></trkpt><trkpt lat="43.0655891" lon="12.311992"><ele>241.0</ele><time>2026-03-29T06:28:06.562Z</time></trkpt><trkpt lat="43.0656776" lon="12.3120386"><ele>241.00000000000003</ele><time>2026-03-29T06:28:08.572Z</time></trkpt><trkpt lat="43.0657611" lon="12.3120962"><ele>241.00000000000003</ele><time>2026-03-29T06:28:10.567Z</time></trkpt><trkpt lat="43.0658502" lon="12.3121381"><ele>241.0</ele><time>2026-03-29T06:28:12.666Z</time></trkpt><trkpt lat="43.0659518" lon="12.3121806"><ele>241.0</ele><time>2026-03-29T06:28:14.569Z</time></trkpt><trkpt lat="43.0660611" lon="12.3122106"><ele>241.0</ele><time>2026-03-29T06:28:16.563Z</time></trkpt><trkpt lat="43.0661556" lon="12.3122665"><ele>241.00000000000003</ele><time>2026-03-29T06:28:18.668Z</time></trkpt><trkpt lat="43.0662511" lon="12.3123039"><ele>241.00000000000003</ele><time>2026-03-29T06:28:20.567Z</time></trkpt><trkpt lat="43.0663512" lon="12.3123478"><ele>241.0</ele><time>2026-03-29T06:28:22.57Z</time></trkpt><trkpt lat="43.0664487" lon="12.3124008"><ele>241.0</ele><time>2026-03-29T06:28:24.573Z</time></trkpt><trkpt lat="43.0665436" lon="12.3124602"><ele>241.0</ele><time>2026-03-29T06:28:26.559Z</time></trkpt><trkpt lat="43.0666465" lon="12.3125111"><ele>241.00000000000003</ele><time>2026-03-29T06:28:28.549Z</time></trkpt><trkpt lat="43.0667546" lon="12.3125533"><ele>241.00000000000003</ele><time>2026-03-29T06:28:30.564Z</time></trkpt><trkpt lat="43.066857" lon="12.3125935"><ele>241.0</ele><time>2026-03-29T06:28:32.568Z</time></trkpt><trkpt lat="43.0669547" lon="12.3126344"><ele>241.0</ele><time>2026-03-29T06:28:34.566Z</time></trkpt><trkpt lat="43.0670606" lon="12.3126905"><ele>241.0</ele><time>2026-03-29T06:28:36.565Z</time></trkpt><trkpt lat="43.0671758" lon="12.312747"><ele>241.00000000000003</ele><time>2026-03-29T06:28:38.565Z</time></trkpt><trkpt lat="43.0672376" lon="12.3127703"><ele>241.00000000000003</ele><time>2026-03-29T06:28:39.571Z</time></trkpt><trkpt lat="43.0673571" lon="12.3127969"><ele>241.0</ele><time>2026-03-29T06:28:41.567Z</time></trkpt><trkpt lat="43.0674716" lon="12.3128011"><ele>241.0</ele><time>2026-03-29T06:28:43.571Z</time></trkpt><trkpt lat="43.0675831" lon="12.3128225"><ele>240.25</ele><time>2026-03-29T06:28:45.57Z</time></trkpt><trkpt lat="43.0676893" lon="12.3128557"><ele>239.5</ele><time>2026-03-29T06:28:47.564Z</time></trkpt><trkpt lat="43.0677805" lon="12.3129358"><ele>238.75</ele><time>2026-03-29T06:28:49.577Z</time></trkpt><trkpt lat="43.0678609" lon="12.3130429"><ele>238.0</ele><time>2026-03-29T06:28:51.564Z</time></trkpt><trkpt lat="43.0679384" lon="12.3131723"><ele>237.99999999999997</ele><time>2026-03-29T06:28:53.566Z</time></trkpt><trkpt lat="43.0680295" lon="12.3132884"><ele>238.0</ele><time>2026-03-29T06:28:55.563Z</time></trkpt><trkpt lat="43.068083" lon="12.313338"><ele>238.0</ele><time>2026-03-29T06:28:56.565Z</time></trkpt><trkpt lat="43.0681412" lon="12.3133942"><ele>238.0</ele><time>2026-03-29T06:28:57.573Z</time></trkpt><trkpt lat="43.0681972" lon="12.3134451"><ele>237.99999999999997</ele><time>2026-03-29T06:28:58.569Z</time></trkpt><trkpt lat="43.0682505" lon="12.3135016"><ele>238.0</ele><time>2026-03-29T06:28:59.566Z</time></trkpt><trkpt lat="43.0683392" lon="12.3136254"><ele>237.5</ele><time>2026-03-29T06:29:01.663Z</time></trkpt><trkpt lat="43.0684264" lon="12.3137387"><ele>237.0</ele><time>2026-03-29T06:29:03.556Z</time></trkpt><trkpt lat="43.0685233" lon="12.3138506"><ele>236.5</ele><time>2026-03-29T06:29:05.572Z</time></trkpt><trkpt lat="43.0686153" lon="12.3139613"><ele>236.0</ele><time>2026-03-29T06:29:07.668Z</time></trkpt><trkpt lat="43.0686959" lon="12.3140821"><ele>236.0</ele><time>2026-03-29T06:29:09.555Z</time></trkpt><trkpt lat="43.0687727" lon="12.3142063"><ele>236.00000000000003</ele><time>2026-03-29T06:29:11.558Z</time></trkpt><trkpt lat="43.0688174" lon="12.3142707"><ele>236.00000000000003</ele><time>2026-03-29T06:29:12.565Z</time></trkpt><trkpt lat="43.068911" lon="12.3143526"><ele>236.0</ele><time>2026-03-29T06:29:14.568Z</time></trkpt><trkpt lat="43.0690078" lon="12.3144314"><ele>236.0</ele><time>2026-03-29T06:29:16.56Z</time></trkpt><trkpt lat="43.0691016" lon="12.3145111"><ele>235.8</ele><time>2026-03-29T06:29:18.56Z</time></trkpt><trkpt lat="43.0691965" lon="12.314585"><ele>235.60000000000002</ele><time>2026-03-29T06:29:20.57Z</time></trkpt><trkpt lat="43.0692895" lon="12.3146513"><ele>235.4</ele><time>2026-03-29T06:29:22.569Z</time></trkpt><trkpt lat="43.0693858" lon="12.3147194"><ele>235.2</ele><time>2026-03-29T06:29:24.58Z</time></trkpt><trkpt lat="43.0694636" lon="12.3147943"><ele>235.0</ele><time>2026-03-29T06:29:26.572Z</time></trkpt><trkpt lat="43.0695637" lon="12.314849"><ele>235.4</ele><time>2026-03-29T06:29:28.571Z</time></trkpt><trkpt lat="43.0696625" lon="12.3149132"><ele>235.8</ele><time>2026-03-29T06:29:30.571Z</time></trkpt><trkpt lat="43.0697483" lon="12.3149775"><ele>236.2</ele><time>2026-03-29T06:29:32.572Z</time></trkpt><trkpt lat="43.0698295" lon="12.3150486"><ele>236.6</ele><time>2026-03-29T06:29:34.571Z</time></trkpt><trkpt lat="43.0699043" lon="12.3151171"><ele>237.0</ele><time>2026-03-29T06:29:36.567Z</time></trkpt><trkpt lat="43.0699932" lon="12.3151877"><ele>237.0</ele><time>2026-03-29T06:29:38.57Z</time></trkpt><trkpt lat="43.0700885" lon="12.3152416"><ele>237.0</ele><time>2026-03-29T06:29:40.567Z</time></trkpt><trkpt lat="43.0701885" lon="12.315289"><ele>237.0</ele><time>2026-03-29T06:29:42.567Z</time></trkpt><trkpt lat="43.0702736" lon="12.315354"><ele>237.0</ele><time>2026-03-29T06:29:44.573Z</time></trkpt><trkpt lat="43.0703615" lon="12.3154222"><ele>237.0</ele><time>2026-03-29T06:29:46.568Z</time></trkpt><trkpt lat="43.0704507" lon="12.3155072"><ele>237.6</ele><time>2026-03-29T06:29:48.568Z</time></trkpt><trkpt lat="43.0705275" lon="12.3156135"><ele>238.2</ele><time>2026-03-29T06:29:50.55Z</time></trkpt><trkpt lat="43.0705927" lon="12.3157415"><ele>238.8</ele><time>2026-03-29T06:29:52.561Z</time></trkpt><trkpt lat="43.0706418" lon="12.3158542"><ele>239.4</ele><time>2026-03-29T06:29:54.544Z</time></trkpt><trkpt lat="43.0706906" lon="12.3159526"><ele>240.0</ele><time>2026-03-29T06:29:56.553Z</time></trkpt><trkpt lat="43.0707482" lon="12.3160528"><ele>239.8</ele><time>2026-03-29T06:29:58.542Z</time></trkpt><trkpt lat="43.0707883" lon="12.3161441"><ele>239.6</ele><time>2026-03-29T06:30:00.544Z</time></trkpt><trkpt lat="43.070853" lon="12.3163136"><ele>239.39999999999998</ele><time>2026-03-29T06:30:03.552Z</time></trkpt><trkpt lat="43.070912" lon="12.316422"><ele>239.2</ele><time>2026-03-29T06:30:05.536Z</time></trkpt><trkpt lat="43.0709655" lon="12.316533"><ele>239.0</ele><time>2026-03-29T06:30:07.543Z</time></trkpt><trkpt lat="43.0710217" lon="12.316642"><ele>239.0</ele><time>2026-03-29T06:30:09.544Z</time></trkpt><trkpt lat="43.0710675" lon="12.3167501"><ele>238.99999999999997</ele><time>2026-03-29T06:30:11.548Z</time></trkpt><trkpt lat="43.0711197" lon="12.3168694"><ele>238.99999999999997</ele><time>2026-03-29T06:30:13.549Z</time></trkpt><trkpt lat="43.0711618" lon="12.3169902"><ele>239.0</ele><time>2026-03-29T06:30:15.548Z</time></trkpt><trkpt lat="43.0711853" lon="12.3171298"><ele>239.0</ele><time>2026-03-29T06:30:17.547Z</time></trkpt><trkpt lat="43.0712068" lon="12.3172646"><ele>239.2</ele><time>2026-03-29T06:30:19.57Z</time></trkpt><trkpt lat="43.071243" lon="12.3174035"><ele>239.39999999999998</ele><time>2026-03-29T06:30:21.57Z</time></trkpt><trkpt lat="43.0712986" lon="12.3175131"><ele>239.6</ele><time>2026-03-29T06:30:23.568Z</time></trkpt><trkpt lat="43.0713717" lon="12.3175863"><ele>239.8</ele><time>2026-03-29T06:30:25.573Z</time></trkpt><trkpt lat="43.071447" lon="12.3176149"><ele>240.0</ele><time>2026-03-29T06:30:27.562Z</time></trkpt><trkpt lat="43.0715274" lon="12.3175658"><ele>240.0</ele><time>2026-03-29T06:30:29.643Z</time></trkpt><trkpt lat="43.0715739" lon="12.3174663"><ele>240.0</ele><time>2026-03-29T06:30:31.549Z</time></trkpt><trkpt lat="43.0716166" lon="12.3173889"><ele>240.0</ele><time>2026-03-29T06:30:33.551Z</time></trkpt><trkpt lat="43.0716773" lon="12.3173084"><ele>240.0</ele><time>2026-03-29T06:30:36.551Z</time></trkpt><trkpt lat="43.0717213" lon="12.3172247"><ele>240.0</ele><time>2026-03-29T06:30:39.564Z</time></trkpt><trkpt lat="43.0717456" lon="12.3171414"><ele>240.0</ele><time>2026-03-29T06:30:42.571Z</time></trkpt><trkpt lat="43.0717678" lon="12.3170492"><ele>240.0</ele><time>2026-03-29T06:33:05.556Z</time></trkpt><trkpt lat="43.0717995" lon="12.3169626"><ele>240.0</ele><time>2026-03-29T06:33:11.565Z</time></trkpt><trkpt lat="43.0718367" lon="12.3168648"><ele>240.0</ele><time>2026-03-29T06:33:15.572Z</time></trkpt><trkpt lat="43.0718468" lon="12.3167478"><ele>240.0</ele><time>2026-03-29T06:33:19.562Z</time></trkpt><trkpt lat="43.0718862" lon="12.3166731"><ele>240.0</ele><time>2026-03-29T06:33:21.562Z</time></trkpt><trkpt lat="43.0719459" lon="12.3166412"><ele>240.0</ele><time>2026-03-29T06:33:23.581Z</time></trkpt><trkpt lat="43.0720118" lon="12.3166235"><ele>240.0</ele><time>2026-03-29T06:33:25.549Z</time></trkpt><trkpt lat="43.072085" lon="12.3166136"><ele>240.0</ele><time>2026-03-29T06:33:27.579Z</time></trkpt><trkpt lat="43.0721667" lon="12.316599"><ele>240.0</ele><time>2026-03-29T06:33:29.557Z</time></trkpt><trkpt lat="43.072248" lon="12.31658"><ele>240.0</ele><time>2026-03-29T06:33:31.565Z</time></trkpt><trkpt lat="43.0723245" lon="12.3165731"><ele>240.0</ele><time>2026-03-29T06:33:33.566Z</time></trkpt><trkpt lat="43.072403" lon="12.3165717"><ele>240.0</ele><time>2026-03-29T06:33:35.547Z</time></trkpt><trkpt lat="43.0724764" lon="12.3165725"><ele>240.0</ele><time>2026-03-29T06:33:37.572Z</time></trkpt><trkpt lat="43.0725611" lon="12.3165724"><ele>240.0</ele><time>2026-03-29T06:33:39.569Z</time></trkpt><trkpt lat="43.072642" lon="12.3165749"><ele>240.0</ele><time>2026-03-29T06:33:41.567Z</time></trkpt><trkpt lat="43.0727218" lon="12.3165738"><ele>240.0</ele><time>2026-03-29T06:33:43.572Z</time></trkpt><trkpt lat="43.0727988" lon="12.3165697"><ele>240.0</ele><time>2026-03-29T06:33:45.566Z</time></trkpt><trkpt lat="43.0728771" lon="12.3165639"><ele>240.0</ele><time>2026-03-29T06:33:47.548Z</time></trkpt><trkpt lat="43.072945" lon="12.3165523"><ele>240.0</ele><time>2026-03-29T06:33:49.568Z</time></trkpt><trkpt lat="43.0730254" lon="12.3165475"><ele>240.0</ele><time>2026-03-29T06:33:53.573Z</time></trkpt><trkpt lat="43.073097" lon="12.3165579"><ele>240.0</ele><time>2026-03-29T06:33:55.568Z</time></trkpt><trkpt lat="43.0731734" lon="12.3165676"><ele>240.0</ele><time>2026-03-29T06:33:57.572Z</time></trkpt><trkpt lat="43.0732478" lon="12.316569"><ele>240.0</ele><time>2026-03-29T06:33:59.561Z</time></trkpt><trkpt lat="43.0733465" lon="12.3165735"><ele>240.0</ele><time>2026-03-29T06:34:02.558Z</time></trkpt><trkpt lat="43.0734327" lon="12.3165619"><ele>240.0</ele><time>2026-03-29T06:34:04.561Z</time></trkpt><trkpt lat="43.0735269" lon="12.3165356"><ele>240.16666666666666</ele><time>2026-03-29T06:34:06.553Z</time></trkpt><trkpt lat="43.0736157" lon="12.3165215"><ele>240.33333333333331</ele><time>2026-03-29T06:34:08.549Z</time></trkpt><trkpt lat="43.0737029" lon="12.3165075"><ele>240.5</ele><time>2026-03-29T06:34:10.559Z</time></trkpt><trkpt lat="43.0737955" lon="12.3164958"><ele>240.66666666666666</ele><time>2026-03-29T06:34:12.563Z</time></trkpt><trkpt lat="43.0738817" lon="12.3164785"><ele>240.83333333333331</ele><time>2026-03-29T06:34:14.57Z</time></trkpt><trkpt lat="43.0739627" lon="12.3164704"><ele>241.0</ele><time>2026-03-29T06:34:16.567Z</time></trkpt><trkpt lat="43.0740415" lon="12.3164709"><ele>240.49999999999997</ele><time>2026-03-29T06:34:18.564Z</time></trkpt><trkpt lat="43.0741208" lon="12.3164688"><ele>240.0</ele><time>2026-03-29T06:34:20.558Z</time></trkpt><trkpt lat="43.0742006" lon="12.3164698"><ele>239.5</ele><time>2026-03-29T06:34:22.548Z</time></trkpt><trkpt lat="43.0742794" lon="12.3164836"><ele>239.0</ele><time>2026-03-29T06:34:24.57Z</time></trkpt><trkpt lat="43.0743556" lon="12.3164938"><ele>238.49999999999997</ele><time>2026-03-29T06:34:26.565Z</time></trkpt><trkpt lat="43.0744399" lon="12.3164902"><ele>238.0</ele><time>2026-03-29T06:34:28.574Z</time></trkpt><trkpt lat="43.0745234" lon="12.3164878"><ele>237.99999999999997</ele><time>2026-03-29T06:34:30.57Z</time></trkpt><trkpt lat="43.0746051" lon="12.3164815"><ele>238.0</ele><time>2026-03-29T06:34:32.568Z</time></trkpt><trkpt lat="43.0746875" lon="12.3164722"><ele>238.0</ele><time>2026-03-29T06:34:34.548Z</time></trkpt><trkpt lat="43.074768" lon="12.3164659"><ele>238.0</ele><time>2026-03-29T06:34:36.566Z</time></trkpt><trkpt lat="43.0748541" lon="12.3164561"><ele>237.99999999999997</ele><time>2026-03-29T06:34:38.558Z</time></trkpt><trkpt lat="43.0749373" lon="12.3164448"><ele>238.0</ele><time>2026-03-29T06:34:40.571Z</time></trkpt><trkpt lat="43.0750211" lon="12.3164277"><ele>238.0</ele><time>2026-03-29T06:34:42.566Z</time></trkpt><trkpt lat="43.0751057" lon="12.316417"><ele>238.0</ele><time>2026-03-29T06:34:44.575Z</time></trkpt><trkpt lat="43.0752342" lon="12.3164189"><ele>238.0</ele><time>2026-03-29T06:34:47.567Z</time></trkpt><trkpt lat="43.0753127" lon="12.3164165"><ele>238.0</ele><time>2026-03-29T06:34:49.568Z</time></trkpt><trkpt lat="43.0753911" lon="12.316405"><ele>238.0</ele><time>2026-03-29T06:34:51.563Z</time></trkpt><trkpt lat="43.0754708" lon="12.3163896"><ele>237.99999999999997</ele><time>2026-03-29T06:34:53.567Z</time></trkpt><trkpt lat="43.075547" lon="12.3163706"><ele>238.0</ele><time>2026-03-29T06:34:55.577Z</time></trkpt><trkpt lat="43.0756184" lon="12.3163432"><ele>238.0</ele><time>2026-03-29T06:34:57.671Z</time></trkpt><trkpt lat="43.0756956" lon="12.3163211"><ele>238.0</ele><time>2026-03-29T06:34:59.576Z</time></trkpt><trkpt lat="43.075765" lon="12.3162994"><ele>237.99999999999997</ele><time>2026-03-29T06:35:01.563Z</time></trkpt><trkpt lat="43.0758383" lon="12.31626"><ele>238.0</ele><time>2026-03-29T06:35:03.667Z</time></trkpt><trkpt lat="43.0759263" lon="12.3162126"><ele>237.99999999999997</ele><time>2026-03-29T06:35:05.572Z</time></trkpt><trkpt lat="43.0760145" lon="12.3161747"><ele>238.0</ele><time>2026-03-29T06:35:07.558Z</time></trkpt><trkpt lat="43.0761039" lon="12.316144"><ele>238.0</ele><time>2026-03-29T06:35:09.562Z</time></trkpt><trkpt lat="43.0761858" lon="12.3161154"><ele>238.0</ele><time>2026-03-29T06:35:11.555Z</time></trkpt><trkpt lat="43.0762745" lon="12.3160983"><ele>237.99999999999997</ele><time>2026-03-29T06:35:13.566Z</time></trkpt><trkpt lat="43.076361" lon="12.3160776"><ele>238.0</ele><time>2026-03-29T06:35:15.664Z</time></trkpt><trkpt lat="43.0764443" lon="12.3160548"><ele>238.0</ele><time>2026-03-29T06:35:17.548Z</time></trkpt><trkpt lat="43.0765314" lon="12.3160311"><ele>238.0</ele><time>2026-03-29T06:35:19.569Z</time></trkpt><trkpt lat="43.0766354" lon="12.315998"><ele>238.0</ele><time>2026-03-29T06:35:21.612Z</time></trkpt><trkpt lat="43.0767319" lon="12.3159525"><ele>238.0</ele><time>2026-03-29T06:35:23.554Z</time></trkpt><trkpt lat="43.0768313" lon="12.3159381"><ele>238.0</ele><time>2026-03-29T06:35:25.565Z</time></trkpt><trkpt lat="43.0769138" lon="12.3159127"><ele>237.8</ele><time>2026-03-29T06:35:27.562Z</time></trkpt><trkpt lat="43.0769998" lon="12.3158754"><ele>237.60000000000002</ele><time>2026-03-29T06:35:29.547Z</time></trkpt><trkpt lat="43.0770779" lon="12.3158475"><ele>237.39999999999998</ele><time>2026-03-29T06:35:31.561Z</time></trkpt><trkpt lat="43.0771676" lon="12.3158056"><ele>237.2</ele><time>2026-03-29T06:35:33.548Z</time></trkpt><trkpt lat="43.0772508" lon="12.3157647"><ele>237.0</ele><time>2026-03-29T06:35:35.55Z</time></trkpt><trkpt lat="43.0773508" lon="12.3157217"><ele>236.8</ele><time>2026-03-29T06:35:37.578Z</time></trkpt><trkpt lat="43.0774438" lon="12.3157053"><ele>236.6</ele><time>2026-03-29T06:35:39.56Z</time></trkpt><trkpt lat="43.0775374" lon="12.3156586"><ele>236.40000000000003</ele><time>2026-03-29T06:35:41.557Z</time></trkpt><trkpt lat="43.0776325" lon="12.3156308"><ele>236.20000000000002</ele><time>2026-03-29T06:35:43.571Z</time></trkpt><trkpt lat="43.0777212" lon="12.3156035"><ele>236.0</ele><time>2026-03-29T06:35:45.558Z</time></trkpt><trkpt lat="43.0778101" lon="12.3155791"><ele>235.60000000000002</ele><time>2026-03-29T06:35:47.557Z</time></trkpt><trkpt lat="43.0779027" lon="12.3155579"><ele>235.20000000000002</ele><time>2026-03-29T06:35:49.569Z</time></trkpt><trkpt lat="43.0779953" lon="12.3155303"><ele>234.79999999999998</ele><time>2026-03-29T06:35:51.56Z</time></trkpt><trkpt lat="43.0780827" lon="12.315488"><ele>234.39999999999998</ele><time>2026-03-29T06:35:53.569Z</time></trkpt><trkpt lat="43.078181" lon="12.315439"><ele>234.0</ele><time>2026-03-29T06:35:55.57Z</time></trkpt><trkpt lat="43.0782805" lon="12.3153871"><ele>233.79999999999998</ele><time>2026-03-29T06:35:57.577Z</time></trkpt><trkpt lat="43.0783767" lon="12.3153359"><ele>233.59999999999997</ele><time>2026-03-29T06:35:59.564Z</time></trkpt><trkpt lat="43.0784593" lon="12.3152795"><ele>233.4</ele><time>2026-03-29T06:36:01.569Z</time></trkpt><trkpt lat="43.0785479" lon="12.3151935"><ele>233.2</ele><time>2026-03-29T06:36:03.572Z</time></trkpt><trkpt lat="43.0786331" lon="12.3150981"><ele>233.0</ele><time>2026-03-29T06:36:05.564Z</time></trkpt><trkpt lat="43.0787115" lon="12.3149972"><ele>233.0</ele><time>2026-03-29T06:36:07.57Z</time></trkpt><trkpt lat="43.078782" lon="12.3148959"><ele>233.0</ele><time>2026-03-29T06:36:09.575Z</time></trkpt><trkpt lat="43.0788581" lon="12.314797"><ele>233.0</ele><time>2026-03-29T06:36:11.564Z</time></trkpt><trkpt lat="43.0789272" lon="12.3147076"><ele>233.0</ele><time>2026-03-29T06:36:13.555Z</time></trkpt><trkpt lat="43.0789899" lon="12.3146219"><ele>233.0</ele><time>2026-03-29T06:36:15.565Z</time></trkpt><trkpt lat="43.0790572" lon="12.3145325"><ele>232.83333333333334</ele><time>2026-03-29T06:36:17.569Z</time></trkpt><trkpt lat="43.0791266" lon="12.3144538"><ele>232.66666666666669</ele><time>2026-03-29T06:36:19.578Z</time></trkpt><trkpt lat="43.0791956" lon="12.3143795"><ele>232.5</ele><time>2026-03-29T06:36:21.571Z</time></trkpt><trkpt lat="43.0792472" lon="12.3143072"><ele>232.33333333333331</ele><time>2026-03-29T06:36:23.561Z</time></trkpt><trkpt lat="43.0793054" lon="12.3142315"><ele>232.16666666666666</ele><time>2026-03-29T06:36:25.568Z</time></trkpt><trkpt lat="43.0793719" lon="12.3141546"><ele>232.0</ele><time>2026-03-29T06:36:27.566Z</time></trkpt><trkpt lat="43.079437" lon="12.3140808"><ele>232.0</ele><time>2026-03-29T06:36:29.562Z</time></trkpt><trkpt lat="43.0795115" lon="12.314001"><ele>232.0</ele><time>2026-03-29T06:36:31.561Z</time></trkpt><trkpt lat="43.079577" lon="12.3139153"><ele>232.0</ele><time>2026-03-29T06:36:33.563Z</time></trkpt><trkpt lat="43.0796446" lon="12.3138462"><ele>232.0</ele><time>2026-03-29T06:36:35.557Z</time></trkpt><trkpt lat="43.0797109" lon="12.3137839"><ele>232.0</ele><time>2026-03-29T06:36:37.569Z</time></trkpt><trkpt lat="43.0798186" lon="12.3136932"><ele>232.00000000000003</ele><time>2026-03-29T06:36:40.57Z</time></trkpt><trkpt lat="43.0798766" lon="12.3136405"><ele>232.0</ele><time>2026-03-29T06:36:42.567Z</time></trkpt><trkpt lat="43.0799373" lon="12.3136001"><ele>232.00000000000003</ele><time>2026-03-29T06:36:44.55Z</time></trkpt><trkpt lat="43.0800121" lon="12.3135648"><ele>232.00000000000003</ele><time>2026-03-29T06:36:47.55Z</time></trkpt><trkpt lat="43.0800772" lon="12.3135439"><ele>232.0</ele><time>2026-03-29T06:36:49.557Z</time></trkpt><trkpt lat="43.0801348" lon="12.3135032"><ele>232.00000000000003</ele><time>2026-03-29T06:36:51.569Z</time></trkpt><trkpt lat="43.0801998" lon="12.313453"><ele>232.00000000000003</ele><time>2026-03-29T06:36:53.549Z</time></trkpt><trkpt lat="43.0802606" lon="12.3134098"><ele>232.00000000000003</ele><time>2026-03-29T06:36:55.562Z</time></trkpt><trkpt lat="43.0803277" lon="12.3133688"><ele>232.0</ele><time>2026-03-29T06:36:57.57Z</time></trkpt><trkpt lat="43.0803885" lon="12.3133452"><ele>232.00000000000003</ele><time>2026-03-29T06:36:59.546Z</time></trkpt><trkpt lat="43.0804623" lon="12.313335"><ele>232.00000000000003</ele><time>2026-03-29T06:37:01.676Z</time></trkpt><trkpt lat="43.0805394" lon="12.3133227"><ele>232.0</ele><time>2026-03-29T06:37:03.569Z</time></trkpt><trkpt lat="43.0806059" lon="12.3133112"><ele>232.00000000000003</ele><time>2026-03-29T06:37:05.553Z</time></trkpt><trkpt lat="43.0806967" lon="12.313301"><ele>232.00000000000003</ele><time>2026-03-29T06:37:08.553Z</time></trkpt><trkpt lat="43.0807749" lon="12.3132937"><ele>232.14285714285717</ele><time>2026-03-29T06:37:11.544Z</time></trkpt><trkpt lat="43.0808325" lon="12.3132505"><ele>232.28571428571428</ele><time>2026-03-29T06:37:14.545Z</time></trkpt><trkpt lat="43.0808914" lon="12.3132079"><ele>232.42857142857144</ele><time>2026-03-29T06:37:16.548Z</time></trkpt><trkpt lat="43.0809816" lon="12.3131861"><ele>232.57142857142858</ele><time>2026-03-29T06:37:18.55Z</time></trkpt><trkpt lat="43.0810518" lon="12.3131584"><ele>232.71428571428572</ele><time>2026-03-29T06:37:22.545Z</time></trkpt><trkpt lat="43.0810652" lon="12.3130698"><ele>232.85714285714286</ele><time>2026-03-29T06:37:25.547Z</time></trkpt><trkpt lat="43.0810034" lon="12.3130258"><ele>233.0</ele><time>2026-03-29T06:37:28.544Z</time></trkpt><trkpt lat="43.0809219" lon="12.3130312"><ele>233.0</ele><time>2026-03-29T06:37:31.547Z</time></trkpt><trkpt lat="43.0808554" lon="12.3129984"><ele>233.0</ele><time>2026-03-29T06:37:33.548Z</time></trkpt><trkpt lat="43.0807878" lon="12.312914"><ele>233.0</ele><time>2026-03-29T06:37:35.56Z</time></trkpt><trkpt lat="43.0807603" lon="12.3127684"><ele>233.0</ele><time>2026-03-29T06:37:37.557Z</time></trkpt><trkpt lat="43.0807242" lon="12.3126115"><ele>233.0</ele><time>2026-03-29T06:37:39.566Z</time></trkpt><trkpt lat="43.0807035" lon="12.3124641"><ele>233.4</ele><time>2026-03-29T06:37:41.571Z</time></trkpt><trkpt lat="43.0806786" lon="12.3123133"><ele>233.8</ele><time>2026-03-29T06:37:43.56Z</time></trkpt><trkpt lat="43.0806568" lon="12.3121662"><ele>234.2</ele><time>2026-03-29T06:37:45.563Z</time></trkpt><trkpt lat="43.0806485" lon="12.3120312"><ele>234.6</ele><time>2026-03-29T06:37:47.571Z</time></trkpt><trkpt lat="43.0806407" lon="12.3119012"><ele>235.0</ele><time>2026-03-29T06:37:49.661Z</time></trkpt><trkpt lat="43.0806273" lon="12.3117786"><ele>234.99999999999997</ele><time>2026-03-29T06:37:51.57Z</time></trkpt><trkpt lat="43.0806147" lon="12.311666"><ele>235.0</ele><time>2026-03-29T06:37:53.552Z</time></trkpt><trkpt lat="43.0805857" lon="12.3115595"><ele>235.0</ele><time>2026-03-29T06:37:55.558Z</time></trkpt><trkpt lat="43.0805301" lon="12.3114769"><ele>235.0</ele><time>2026-03-29T06:37:57.57Z</time></trkpt><trkpt lat="43.080462" lon="12.3114381"><ele>234.99999999999997</ele><time>2026-03-29T06:37:59.562Z</time></trkpt><trkpt lat="43.0803946" lon="12.3114102"><ele>235.0</ele><time>2026-03-29T06:38:01.56Z</time></trkpt><trkpt lat="43.0803322" lon="12.3113699"><ele>236.0</ele><time>2026-03-29T06:38:03.573Z</time></trkpt><trkpt lat="43.0802752" lon="12.3113202"><ele>236.99999999999997</ele><time>2026-03-29T06:38:05.57Z</time></trkpt><trkpt lat="43.0802019" lon="12.3112445"><ele>238.0</ele><time>2026-03-29T06:38:08.548Z</time></trkpt><trkpt lat="43.0801517" lon="12.3111888"><ele>239.0</ele><time>2026-03-29T06:38:10.546Z</time></trkpt><trkpt lat="43.0800991" lon="12.3111352"><ele>239.99999999999997</ele><time>2026-03-29T06:38:12.547Z</time></trkpt><trkpt lat="43.0800478" lon="12.311081"><ele>241.0</ele><time>2026-03-29T06:38:14.557Z</time></trkpt><trkpt lat="43.0799932" lon="12.3110309"><ele>242.0</ele><time>2026-03-29T06:38:16.546Z</time></trkpt><trkpt lat="43.0799152" lon="12.3109595"><ele>242.0</ele><time>2026-03-29T06:38:19.547Z</time></trkpt><trkpt lat="43.079842" lon="12.3108867"><ele>242.0</ele><time>2026-03-29T06:38:22.546Z</time></trkpt><trkpt lat="43.0797716" lon="12.3108106"><ele>242.0</ele><time>2026-03-29T06:38:25.548Z</time></trkpt><trkpt lat="43.0797011" lon="12.3107285"><ele>242.0</ele><time>2026-03-29T06:38:28.545Z</time></trkpt><trkpt lat="43.0796051" lon="12.3106258"><ele>242.0</ele><time>2026-03-29T06:38:32.547Z</time></trkpt><trkpt lat="43.0795343" lon="12.3105466"><ele>242.66666666666669</ele><time>2026-03-29T06:38:35.551Z</time></trkpt><trkpt lat="43.0794624" lon="12.3104678"><ele>243.33333333333334</ele><time>2026-03-29T06:38:38.554Z</time></trkpt><trkpt lat="43.079398" lon="12.3103966"><ele>244.0</ele><time>2026-03-29T06:38:41.549Z</time></trkpt><trkpt lat="43.0793452" lon="12.3103141"><ele>244.66666666666669</ele><time>2026-03-29T06:38:44.546Z</time></trkpt><trkpt lat="43.0793092" lon="12.3102214"><ele>245.33333333333334</ele><time>2026-03-29T06:38:47.552Z</time></trkpt><trkpt lat="43.0792875" lon="12.3101251"><ele>246.0</ele><time>2026-03-29T06:38:50.553Z</time></trkpt><trkpt lat="43.0793027" lon="12.3100347"><ele>246.0</ele><time>2026-03-29T06:38:53.546Z</time></trkpt><trkpt lat="43.0793743" lon="12.3099909"><ele>246.0</ele><time>2026-03-29T06:38:56.544Z</time></trkpt><trkpt lat="43.0794502" lon="12.3099605"><ele>246.0</ele><time>2026-03-29T06:38:59.561Z</time></trkpt><trkpt lat="43.0795264" lon="12.309926"><ele>246.0</ele><time>2026-03-29T06:39:02.568Z</time></trkpt><trkpt lat="43.0796034" lon="12.3098922"><ele>246.0</ele><time>2026-03-29T06:39:05.56Z</time></trkpt><trkpt lat="43.0796824" lon="12.3098567"><ele>246.0</ele><time>2026-03-29T06:39:08.557Z</time></trkpt><trkpt lat="43.0797614" lon="12.3098254"><ele>246.0</ele><time>2026-03-29T06:39:11.554Z</time></trkpt><trkpt lat="43.0798319" lon="12.3097915"><ele>246.0</ele><time>2026-03-29T06:39:14.568Z</time></trkpt><trkpt lat="43.0799044" lon="12.3097302"><ele>246.0</ele><time>2026-03-29T06:39:17.692Z</time></trkpt><trkpt lat="43.0799679" lon="12.3096527"><ele>246.0</ele><time>2026-03-29T06:39:20.567Z</time></trkpt><trkpt lat="43.0800159" lon="12.3095601"><ele>246.0</ele><time>2026-03-29T06:39:23.554Z</time></trkpt><trkpt lat="43.0800424" lon="12.3094567"><ele>246.0</ele><time>2026-03-29T06:39:26.578Z</time></trkpt><trkpt lat="43.080078" lon="12.3093548"><ele>248.0</ele><time>2026-03-29T06:39:29.653Z</time></trkpt><trkpt lat="43.0801522" lon="12.3093015"><ele>250.0</ele><time>2026-03-29T06:39:32.565Z</time></trkpt><trkpt lat="43.0802304" lon="12.3092643"><ele>252.0</ele><time>2026-03-29T06:39:35.56Z</time></trkpt><trkpt lat="43.0803088" lon="12.309233"><ele>254.0</ele><time>2026-03-29T06:39:38.554Z</time></trkpt><trkpt lat="43.0803898" lon="12.3092008"><ele>256.0</ele><time>2026-03-29T06:39:41.554Z</time></trkpt><trkpt lat="43.0804779" lon="12.3091772"><ele>258.0</ele><time>2026-03-29T06:39:44.565Z</time></trkpt><trkpt lat="43.0805639" lon="12.3091364"><ele>258.0</ele><time>2026-03-29T06:39:47.65Z</time></trkpt><trkpt lat="43.0806519" lon="12.3091009"><ele>258.0</ele><time>2026-03-29T06:39:50.565Z</time></trkpt><trkpt lat="43.0807381" lon="12.3090688"><ele>258.0</ele><time>2026-03-29T06:39:53.651Z</time></trkpt><trkpt lat="43.08083" lon="12.3090385"><ele>258.0</ele><time>2026-03-29T06:39:56.565Z</time></trkpt><trkpt lat="43.0808896" lon="12.3090081"><ele>258.0</ele><time>2026-03-29T06:39:58.556Z</time></trkpt><trkpt lat="43.0809483" lon="12.3089766"><ele>258.0</ele><time>2026-03-29T06:40:00.557Z</time></trkpt><trkpt lat="43.0810341" lon="12.3089214"><ele>260.6666666666667</ele><time>2026-03-29T06:40:03.569Z</time></trkpt><trkpt lat="43.0811146" lon="12.3088736"><ele>263.3333333333333</ele><time>2026-03-29T06:40:06.572Z</time></trkpt><trkpt lat="43.0811925" lon="12.3088206"><ele>266.0</ele><time>2026-03-29T06:40:09.564Z</time></trkpt><trkpt lat="43.0812695" lon="12.3087718"><ele>268.66666666666663</ele><time>2026-03-29T06:40:12.561Z</time></trkpt><trkpt lat="43.0813398" lon="12.3087186"><ele>271.3333333333333</ele><time>2026-03-29T06:40:15.561Z</time></trkpt><trkpt lat="43.0814038" lon="12.3086454"><ele>274.0</ele><time>2026-03-29T06:40:18.565Z</time></trkpt><trkpt lat="43.0814659" lon="12.3085619"><ele>274.0</ele><time>2026-03-29T06:40:21.562Z</time></trkpt><trkpt lat="43.0815295" lon="12.3084818"><ele>274.0</ele><time>2026-03-29T06:40:24.566Z</time></trkpt><trkpt lat="43.0815931" lon="12.3083977"><ele>274.0</ele><time>2026-03-29T06:40:27.563Z</time></trkpt><trkpt lat="43.0816444" lon="12.3083161"><ele>274.0</ele><time>2026-03-29T06:40:30.57Z</time></trkpt><trkpt lat="43.0817048" lon="12.3082378"><ele>274.0</ele><time>2026-03-29T06:40:33.57Z</time></trkpt><trkpt lat="43.0817586" lon="12.3081526"><ele>274.0</ele><time>2026-03-29T06:40:36.563Z</time></trkpt><trkpt lat="43.0818184" lon="12.3080589"><ele>275.7142857142857</ele><time>2026-03-29T06:40:39.651Z</time></trkpt><trkpt lat="43.0818607" lon="12.307993"><ele>277.42857142857144</ele><time>2026-03-29T06:40:41.564Z</time></trkpt><trkpt lat="43.0819021" lon="12.3079211"><ele>279.1428571428571</ele><time>2026-03-29T06:40:43.556Z</time></trkpt><trkpt lat="43.0819541" lon="12.3078572"><ele>280.8571428571429</ele><time>2026-03-29T06:40:45.651Z</time></trkpt><trkpt lat="43.0820062" lon="12.3077865"><ele>282.57142857142856</ele><time>2026-03-29T06:40:47.574Z</time></trkpt><trkpt lat="43.0820619" lon="12.3077179"><ele>284.2857142857143</ele><time>2026-03-29T06:40:49.572Z</time></trkpt><trkpt lat="43.0821197" lon="12.3076459"><ele>286.0</ele><time>2026-03-29T06:40:51.672Z</time></trkpt><trkpt lat="43.0821751" lon="12.3075682"><ele>286.0</ele><time>2026-03-29T06:40:53.567Z</time></trkpt><trkpt lat="43.0822297" lon="12.307497"><ele>286.0</ele><time>2026-03-29T06:40:55.569Z</time></trkpt><trkpt lat="43.0822856" lon="12.3074255"><ele>286.0</ele><time>2026-03-29T06:40:57.571Z</time></trkpt><trkpt lat="43.0823415" lon="12.3073539"><ele>286.0</ele><time>2026-03-29T06:40:59.546Z</time></trkpt><trkpt lat="43.0823983" lon="12.3072763"><ele>286.0</ele><time>2026-03-29T06:41:01.571Z</time></trkpt><trkpt lat="43.0824659" lon="12.3071993"><ele>286.0</ele><time>2026-03-29T06:41:03.557Z</time></trkpt><trkpt lat="43.0825323" lon="12.3071215"><ele>285.8333333333333</ele><time>2026-03-29T06:41:05.57Z</time></trkpt><trkpt lat="43.0825866" lon="12.30705"><ele>285.66666666666663</ele><time>2026-03-29T06:41:07.571Z</time></trkpt><trkpt lat="43.0826449" lon="12.3069769"><ele>285.5</ele><time>2026-03-29T06:41:09.571Z</time></trkpt><trkpt lat="43.0827071" lon="12.3068981"><ele>285.3333333333333</ele><time>2026-03-29T06:41:11.548Z</time></trkpt><trkpt lat="43.0827648" lon="12.3068167"><ele>285.1666666666667</ele><time>2026-03-29T06:41:13.568Z</time></trkpt><trkpt lat="43.0828151" lon="12.3067289"><ele>285.0</ele><time>2026-03-29T06:41:15.573Z</time></trkpt><trkpt lat="43.0828665" lon="12.3066224"><ele>285.0</ele><time>2026-03-29T06:41:17.567Z</time></trkpt><trkpt lat="43.0829146" lon="12.3065058"><ele>285.0</ele><time>2026-03-29T06:41:19.577Z</time></trkpt><trkpt lat="43.0829615" lon="12.3063949"><ele>285.0</ele><time>2026-03-29T06:41:21.571Z</time></trkpt><trkpt lat="43.0830121" lon="12.3062986"><ele>285.0</ele><time>2026-03-29T06:41:23.57Z</time></trkpt><trkpt lat="43.0830532" lon="12.3062084"><ele>285.0</ele><time>2026-03-29T06:41:25.565Z</time></trkpt><trkpt lat="43.0830861" lon="12.3061217"><ele>285.0</ele><time>2026-03-29T06:41:27.566Z</time></trkpt><trkpt lat="43.083123" lon="12.3060385"><ele>283.8333333333333</ele><time>2026-03-29T06:41:29.56Z</time></trkpt><trkpt lat="43.0831586" lon="12.3059569"><ele>282.6666666666667</ele><time>2026-03-29T06:41:31.666Z</time></trkpt><trkpt lat="43.0831952" lon="12.3058806"><ele>281.5</ele><time>2026-03-29T06:41:33.567Z</time></trkpt><trkpt lat="43.0832499" lon="12.3057794"><ele>280.33333333333337</ele><time>2026-03-29T06:41:36.558Z</time></trkpt><trkpt lat="43.0833035" lon="12.3056988"><ele>279.1666666666667</ele><time>2026-03-29T06:41:39.571Z</time></trkpt><trkpt lat="43.0833509" lon="12.3056183"><ele>278.0</ele><time>2026-03-29T06:41:42.572Z</time></trkpt><trkpt lat="43.0834171" lon="12.3055264"><ele>280.5</ele><time>2026-03-29T06:41:45.571Z</time></trkpt><trkpt lat="43.0834596" lon="12.3054169"><ele>283.0</ele><time>2026-03-29T06:41:48.564Z</time></trkpt><trkpt lat="43.0834847" lon="12.3052955"><ele>285.5</ele><time>2026-03-29T06:41:51.571Z</time></trkpt><trkpt lat="43.0834939" lon="12.305171"><ele>288.0</ele><time>2026-03-29T06:41:54.569Z</time></trkpt><trkpt lat="43.0835016" lon="12.3050591"><ele>290.5</ele><time>2026-03-29T06:41:57.55Z</time></trkpt><trkpt lat="43.0835202" lon="12.3049528"><ele>293.0</ele><time>2026-03-29T06:42:00.663Z</time></trkpt><trkpt lat="43.0835441" lon="12.3048587"><ele>293.0</ele><time>2026-03-29T06:42:03.549Z</time></trkpt><trkpt lat="43.0835799" lon="12.3047595"><ele>293.0</ele><time>2026-03-29T06:42:06.662Z</time></trkpt><trkpt lat="43.08361" lon="12.3046603"><ele>293.0</ele><time>2026-03-29T06:42:09.566Z</time></trkpt><trkpt lat="43.0836485" lon="12.3045669"><ele>293.0</ele><time>2026-03-29T06:42:12.654Z</time></trkpt><trkpt lat="43.0836822" lon="12.3044679"><ele>293.0</ele><time>2026-03-29T06:42:16.571Z</time></trkpt><trkpt lat="43.0837275" lon="12.3044026"><ele>293.0</ele><time>2026-03-29T06:42:19.555Z</time></trkpt><trkpt lat="43.0837718" lon="12.3043238"><ele>294.83333333333337</ele><time>2026-03-29T06:42:22.546Z</time></trkpt><trkpt lat="43.0838318" lon="12.3042237"><ele>296.6666666666667</ele><time>2026-03-29T06:42:26.549Z</time></trkpt><trkpt lat="43.0838865" lon="12.304147"><ele>298.5</ele><time>2026-03-29T06:42:29.545Z</time></trkpt><trkpt lat="43.083922" lon="12.304068"><ele>300.3333333333333</ele><time>2026-03-29T06:42:32.548Z</time></trkpt><trkpt lat="43.0839432" lon="12.3039692"><ele>302.16666666666663</ele><time>2026-03-29T06:42:35.638Z</time></trkpt><trkpt lat="43.0839543" lon="12.3038661"><ele>304.0</ele><time>2026-03-29T06:42:38.549Z</time></trkpt><trkpt lat="43.0839592" lon="12.3037693"><ele>304.0</ele><time>2026-03-29T06:42:41.559Z</time></trkpt><trkpt lat="43.0839642" lon="12.3036727"><ele>304.0</ele><time>2026-03-29T06:42:44.556Z</time></trkpt><trkpt lat="43.0839617" lon="12.3035818"><ele>304.0</ele><time>2026-03-29T06:42:47.566Z</time></trkpt><trkpt lat="43.0839576" lon="12.3034894"><ele>304.0</ele><time>2026-03-29T06:42:50.565Z</time></trkpt><trkpt lat="43.0839436" lon="12.3033902"><ele>304.0</ele><time>2026-03-29T06:42:53.57Z</time></trkpt><trkpt lat="43.0839377" lon="12.3032857"><ele>304.0</ele><time>2026-03-29T06:42:56.562Z</time></trkpt><trkpt lat="43.0839501" lon="12.3031835"><ele>304.0</ele><time>2026-03-29T06:42:59.565Z</time></trkpt><trkpt lat="43.0839547" lon="12.3030702"><ele>304.0</ele><time>2026-03-29T06:43:02.55Z</time></trkpt><trkpt lat="43.0839474" lon="12.3029554"><ele>304.0</ele><time>2026-03-29T06:43:05.56Z</time></trkpt><trkpt lat="43.0839337" lon="12.3028425"><ele>304.0</ele><time>2026-03-29T06:43:08.56Z</time></trkpt><trkpt lat="43.0839208" lon="12.3027271"><ele>304.0</ele><time>2026-03-29T06:43:11.563Z</time></trkpt><trkpt lat="43.0839068" lon="12.3026132"><ele>304.0</ele><time>2026-03-29T06:43:14.57Z</time></trkpt><trkpt lat="43.0838832" lon="12.3024565"><ele>304.0</ele><time>2026-03-29T06:43:18.571Z</time></trkpt><trkpt lat="43.0839048" lon="12.3023395"><ele>304.0</ele><time>2026-03-29T06:43:21.567Z</time></trkpt><trkpt lat="43.0839786" lon="12.302306"><ele>304.0</ele><time>2026-03-29T06:43:24.551Z</time></trkpt><trkpt lat="43.0840522" lon="12.3022618"><ele>304.0</ele><time>2026-03-29T06:43:27.561Z</time></trkpt><trkpt lat="43.0841279" lon="12.3022142"><ele>304.0</ele><time>2026-03-29T06:43:30.548Z</time></trkpt><trkpt lat="43.0842023" lon="12.3021822"><ele>304.0</ele><time>2026-03-29T06:43:33.567Z</time></trkpt><trkpt lat="43.0842852" lon="12.3021524"><ele>304.16666666666663</ele><time>2026-03-29T06:43:36.567Z</time></trkpt><trkpt lat="43.0843699" lon="12.3021297"><ele>304.3333333333333</ele><time>2026-03-29T06:43:39.554Z</time></trkpt><trkpt lat="43.0844532" lon="12.3021646"><ele>304.5</ele><time>2026-03-29T06:43:42.569Z</time></trkpt><trkpt lat="43.08452" lon="12.3021876"><ele>304.6666666666667</ele><time>2026-03-29T06:44:11.555Z</time></trkpt><trkpt lat="43.0845954" lon="12.3022419"><ele>304.83333333333337</ele><time>2026-03-29T06:44:16.554Z</time></trkpt><trkpt lat="43.0846854" lon="12.3022553"><ele>305.0</ele><time>2026-03-29T06:44:19.544Z</time></trkpt><trkpt lat="43.0847518" lon="12.3022546"><ele>305.0</ele><time>2026-03-29T06:44:21.552Z</time></trkpt><trkpt lat="43.0848349" lon="12.3022597"><ele>305.0</ele><time>2026-03-29T06:44:24.544Z</time></trkpt><trkpt lat="43.084911" lon="12.3022462"><ele>305.0</ele><time>2026-03-29T06:44:27.553Z</time></trkpt><trkpt lat="43.0849814" lon="12.3022181"><ele>305.0</ele><time>2026-03-29T06:44:30.56Z</time></trkpt><trkpt lat="43.0850421" lon="12.3021901"><ele>305.0</ele><time>2026-03-29T06:44:33.567Z</time></trkpt><trkpt lat="43.0850991" lon="12.3021379"><ele>305.0</ele><time>2026-03-29T06:44:36.548Z</time></trkpt><trkpt lat="43.0851521" lon="12.3020879"><ele>305.0</ele><time>2026-03-29T06:44:39.546Z</time></trkpt><trkpt lat="43.085233" lon="12.3020136"><ele>305.33333333333337</ele><time>2026-03-29T06:44:43.56Z</time></trkpt><trkpt lat="43.0852922" lon="12.3019654"><ele>305.6666666666667</ele><time>2026-03-29T06:44:46.569Z</time></trkpt><trkpt lat="43.085368" lon="12.3019097"><ele>306.0</ele><time>2026-03-29T06:44:50.573Z</time></trkpt><trkpt lat="43.0854238" lon="12.3018664"><ele>306.3333333333333</ele><time>2026-03-29T06:44:53.562Z</time></trkpt><trkpt lat="43.0854886" lon="12.3018244"><ele>306.66666666666663</ele><time>2026-03-29T06:44:56.572Z</time></trkpt><trkpt lat="43.0855645" lon="12.3017649"><ele>307.0</ele><time>2026-03-29T06:45:00.568Z</time></trkpt><trkpt lat="43.0856366" lon="12.3017151"><ele>307.0</ele><time>2026-03-29T06:45:04.55Z</time></trkpt><trkpt lat="43.0857042" lon="12.3016558"><ele>307.0</ele><time>2026-03-29T06:45:07.662Z</time></trkpt><trkpt lat="43.085768" lon="12.3016121"><ele>307.0</ele><time>2026-03-29T06:45:10.549Z</time></trkpt><trkpt lat="43.0858306" lon="12.3015644"><ele>307.0</ele><time>2026-03-29T06:45:13.551Z</time></trkpt><trkpt lat="43.0858988" lon="12.3015223"><ele>307.0</ele><time>2026-03-29T06:45:16.554Z</time></trkpt><trkpt lat="43.0859811" lon="12.30153"><ele>307.0</ele><time>2026-03-29T06:45:20.568Z</time></trkpt><trkpt lat="43.0860611" lon="12.3015576"><ele>309.16666666666663</ele><time>2026-03-29T06:45:24.545Z</time></trkpt><trkpt lat="43.0861341" lon="12.3015868"><ele>311.3333333333333</ele><time>2026-03-29T06:45:27.546Z</time></trkpt><trkpt lat="43.0861949" lon="12.301625"><ele>313.5</ele><time>2026-03-29T06:45:30.549Z</time></trkpt><trkpt lat="43.0862755" lon="12.3016541"><ele>315.6666666666667</ele><time>2026-03-29T06:45:34.544Z</time></trkpt><trkpt lat="43.0863475" lon="12.3017041"><ele>317.83333333333337</ele><time>2026-03-29T06:45:38.546Z</time></trkpt><trkpt lat="43.0864198" lon="12.3017623"><ele>320.0</ele><time>2026-03-29T06:45:42.549Z</time></trkpt><trkpt lat="43.086472" lon="12.3018129"><ele>320.0</ele><time>2026-03-29T06:45:45.543Z</time></trkpt><trkpt lat="43.0865362" lon="12.3018542"><ele>320.0</ele><time>2026-03-29T06:45:48.547Z</time></trkpt><trkpt lat="43.0866038" lon="12.3019027"><ele>320.0</ele><time>2026-03-29T06:45:51.545Z</time></trkpt><trkpt lat="43.0866381" lon="12.3019795"><ele>320.0</ele><time>2026-03-29T06:45:54.544Z</time></trkpt><trkpt lat="43.086637" lon="12.3020787"><ele>320.0</ele><time>2026-03-29T06:45:58.551Z</time></trkpt><trkpt lat="43.0866208" lon="12.3021679"><ele>320.0</ele><time>2026-03-29T06:46:01.547Z</time></trkpt><trkpt lat="43.0866077" lon="12.3022637"><ele>320.0</ele><time>2026-03-29T06:46:04.554Z</time></trkpt><trkpt lat="43.0866409" lon="12.3023491"><ele>321.83333333333337</ele><time>2026-03-29T06:46:07.565Z</time></trkpt><trkpt lat="43.0867017" lon="12.3024048"><ele>323.6666666666667</ele><time>2026-03-29T06:46:10.565Z</time></trkpt><trkpt lat="43.0867664" lon="12.3024436"><ele>325.5</ele><time>2026-03-29T06:46:13.568Z</time></trkpt><trkpt lat="43.0868361" lon="12.3024844"><ele>327.3333333333333</ele><time>2026-03-29T06:46:16.569Z</time></trkpt><trkpt lat="43.0869103" lon="12.3025199"><ele>329.16666666666663</ele><time>2026-03-29T06:46:19.671Z</time></trkpt><trkpt lat="43.0869893" lon="12.3025581"><ele>331.0</ele><time>2026-03-29T06:46:22.567Z</time></trkpt><trkpt lat="43.0870605" lon="12.3025917"><ele>331.0</ele><time>2026-03-29T06:46:25.548Z</time></trkpt><trkpt lat="43.0871362" lon="12.3026267"><ele>331.0</ele><time>2026-03-29T06:46:28.571Z</time></trkpt><trkpt lat="43.0872107" lon="12.3026532"><ele>331.0</ele><time>2026-03-29T06:46:31.559Z</time></trkpt><trkpt lat="43.0872848" lon="12.3026836"><ele>331.0</ele><time>2026-03-29T06:46:34.557Z</time></trkpt><trkpt lat="43.0873594" lon="12.302721"><ele>331.0</ele><time>2026-03-29T06:46:37.58Z</time></trkpt><trkpt lat="43.0874307" lon="12.3027646"><ele>331.0</ele><time>2026-03-29T06:46:40.555Z</time></trkpt><trkpt lat="43.0875006" lon="12.3027981"><ele>332.16666666666663</ele><time>2026-03-29T06:46:43.558Z</time></trkpt><trkpt lat="43.0875658" lon="12.3028342"><ele>333.3333333333333</ele><time>2026-03-29T06:46:46.574Z</time></trkpt><trkpt lat="43.0876395" lon="12.302858"><ele>334.5</ele><time>2026-03-29T06:46:49.562Z</time></trkpt><trkpt lat="43.0877221" lon="12.3028571"><ele>335.6666666666667</ele><time>2026-03-29T06:46:52.561Z</time></trkpt><trkpt lat="43.0878005" lon="12.3028351"><ele>336.83333333333337</ele><time>2026-03-29T06:46:55.563Z</time></trkpt><trkpt lat="43.0878772" lon="12.3027804"><ele>338.0</ele><time>2026-03-29T06:46:58.552Z</time></trkpt><trkpt lat="43.087946" lon="12.3027399"><ele>338.0</ele><time>2026-03-29T06:47:01.571Z</time></trkpt><trkpt lat="43.0880177" lon="12.3026948"><ele>338.0</ele><time>2026-03-29T06:47:04.565Z</time></trkpt><trkpt lat="43.088088" lon="12.3026232"><ele>338.0</ele><time>2026-03-29T06:47:07.584Z</time></trkpt><trkpt lat="43.0881512" lon="12.3025462"><ele>338.0</ele><time>2026-03-29T06:47:10.568Z</time></trkpt><trkpt lat="43.0882" lon="12.3024728"><ele>338.0</ele><time>2026-03-29T06:47:13.572Z</time></trkpt><trkpt lat="43.0882478" lon="12.3023924"><ele>338.0</ele><time>2026-03-29T06:47:16.564Z</time></trkpt><trkpt lat="43.0883059" lon="12.3022995"><ele>338.0</ele><time>2026-03-29T06:47:19.576Z</time></trkpt><trkpt lat="43.0883681" lon="12.3022173"><ele>338.0</ele><time>2026-03-29T06:47:22.576Z</time></trkpt><trkpt lat="43.0884155" lon="12.3021254"><ele>338.0</ele><time>2026-03-29T06:47:25.573Z</time></trkpt><trkpt lat="43.0884551" lon="12.3020265"><ele>338.0</ele><time>2026-03-29T06:47:28.548Z</time></trkpt><trkpt lat="43.0885144" lon="12.3019462"><ele>338.0</ele><time>2026-03-29T06:47:31.561Z</time></trkpt><trkpt lat="43.088591" lon="12.3018882"><ele>338.0</ele><time>2026-03-29T06:47:34.562Z</time></trkpt><trkpt lat="43.0886532" lon="12.3018573"><ele>338.0</ele><time>2026-03-29T06:47:36.656Z</time></trkpt><trkpt lat="43.0887283" lon="12.3018217"><ele>338.0</ele><time>2026-03-29T06:47:38.554Z</time></trkpt><trkpt lat="43.0888041" lon="12.3017698"><ele>338.0</ele><time>2026-03-29T06:47:40.562Z</time></trkpt><trkpt lat="43.0888719" lon="12.3017052"><ele>338.0</ele><time>2026-03-29T06:47:42.554Z</time></trkpt><trkpt lat="43.0889234" lon="12.3016268"><ele>338.0</ele><time>2026-03-29T06:47:44.569Z</time></trkpt><trkpt lat="43.0889921" lon="12.3015754"><ele>338.0</ele><time>2026-03-29T06:47:46.563Z</time></trkpt><trkpt lat="43.0890929" lon="12.3015574"><ele>336.2</ele><time>2026-03-29T06:47:48.652Z</time></trkpt><trkpt lat="43.0892064" lon="12.3015403"><ele>334.4</ele><time>2026-03-29T06:47:50.549Z</time></trkpt><trkpt lat="43.0893162" lon="12.3015195"><ele>332.59999999999997</ele><time>2026-03-29T06:47:52.556Z</time></trkpt><trkpt lat="43.0894176" lon="12.3014961"><ele>330.79999999999995</ele><time>2026-03-29T06:47:54.548Z</time></trkpt><trkpt lat="43.0895244" lon="12.3014631"><ele>329.0</ele><time>2026-03-29T06:47:56.545Z</time></trkpt><trkpt lat="43.0896198" lon="12.3014673"><ele>329.0</ele><time>2026-03-29T06:47:58.549Z</time></trkpt><trkpt lat="43.0896846" lon="12.3015096"><ele>329.0</ele><time>2026-03-29T06:48:00.553Z</time></trkpt><trkpt lat="43.089747" lon="12.3014933"><ele>329.0</ele><time>2026-03-29T06:48:02.546Z</time></trkpt><trkpt lat="43.089833" lon="12.3014844"><ele>329.0</ele><time>2026-03-29T06:48:05.547Z</time></trkpt><trkpt lat="43.0899028" lon="12.3014787"><ele>329.0</ele><time>2026-03-29T06:48:07.546Z</time></trkpt><trkpt lat="43.089968" lon="12.3014744"><ele>329.0</ele><time>2026-03-29T06:48:09.554Z</time></trkpt><trkpt lat="43.0900309" lon="12.3014677"><ele>329.0</ele><time>2026-03-29T06:48:11.551Z</time></trkpt><trkpt lat="43.0900969" lon="12.3014581"><ele>328.42857142857144</ele><time>2026-03-29T06:48:13.568Z</time></trkpt><trkpt lat="43.0901604" lon="12.3014463"><ele>327.8571428571429</ele><time>2026-03-29T06:48:15.555Z</time></trkpt><trkpt lat="43.0902254" lon="12.3013687"><ele>327.2857142857143</ele><time>2026-03-29T06:48:18.556Z</time></trkpt><trkpt lat="43.0902898" lon="12.3013257"><ele>326.7142857142857</ele><time>2026-03-29T06:48:21.563Z</time></trkpt><trkpt lat="43.0903702" lon="12.3013062"><ele>326.14285714285717</ele><time>2026-03-29T06:48:24.571Z</time></trkpt><trkpt lat="43.090441" lon="12.3012923"><ele>325.57142857142856</ele><time>2026-03-29T06:48:27.566Z</time></trkpt><trkpt lat="43.0905091" lon="12.3012805"><ele>325.0</ele><time>2026-03-29T06:48:30.57Z</time></trkpt><trkpt lat="43.0905862" lon="12.3012714"><ele>325.0</ele><time>2026-03-29T06:48:33.556Z</time></trkpt><trkpt lat="43.0906663" lon="12.3012499"><ele>325.0</ele><time>2026-03-29T06:48:36.565Z</time></trkpt><trkpt lat="43.0907464" lon="12.3011951"><ele>325.0</ele><time>2026-03-29T06:48:39.644Z</time></trkpt><trkpt lat="43.0908212" lon="12.3011592"><ele>325.0</ele><time>2026-03-29T06:48:42.549Z</time></trkpt><trkpt lat="43.0908928" lon="12.3011566"><ele>325.0</ele><time>2026-03-29T06:48:45.55Z</time></trkpt><trkpt lat="43.0909709" lon="12.3011771"><ele>325.0</ele><time>2026-03-29T06:48:48.56Z</time></trkpt><trkpt lat="43.0910572" lon="12.3011797"><ele>326.4285714285714</ele><time>2026-03-29T06:48:51.565Z</time></trkpt><trkpt lat="43.0911415" lon="12.3011516"><ele>327.8571428571429</ele><time>2026-03-29T06:48:54.557Z</time></trkpt><trkpt lat="43.0912259" lon="12.3011032"><ele>329.2857142857143</ele><time>2026-03-29T06:48:57.555Z</time></trkpt><trkpt lat="43.0912808" lon="12.301055"><ele>330.71428571428567</ele><time>2026-03-29T06:48:59.556Z</time></trkpt><trkpt lat="43.0913297" lon="12.3009941"><ele>332.1428571428571</ele><time>2026-03-29T06:49:01.56Z</time></trkpt><trkpt lat="43.0913713" lon="12.300924"><ele>333.57142857142856</ele><time>2026-03-29T06:49:03.557Z</time></trkpt><trkpt lat="43.0914017" lon="12.3008436"><ele>335.0</ele><time>2026-03-29T06:49:05.565Z</time></trkpt><trkpt lat="43.0914261" lon="12.3007639"><ele>334.99999999999994</ele><time>2026-03-29T06:49:07.577Z</time></trkpt><trkpt lat="43.0914414" lon="12.3006738"><ele>335.0</ele><time>2026-03-29T06:49:09.556Z</time></trkpt><trkpt lat="43.091447" lon="12.3005776"><ele>335.0</ele><time>2026-03-29T06:49:11.569Z</time></trkpt><trkpt lat="43.0914405" lon="12.3004807"><ele>335.0</ele><time>2026-03-29T06:49:13.568Z</time></trkpt><trkpt lat="43.0914334" lon="12.3003914"><ele>335.0</ele><time>2026-03-29T06:49:15.571Z</time></trkpt><trkpt lat="43.0914453" lon="12.3002872"><ele>334.99999999999994</ele><time>2026-03-29T06:49:18.568Z</time></trkpt><trkpt lat="43.0914861" lon="12.3002165"><ele>335.0</ele><time>2026-03-29T06:49:20.571Z</time></trkpt><trkpt lat="43.0915336" lon="12.3001391"><ele>334.5</ele><time>2026-03-29T06:49:22.567Z</time></trkpt><trkpt lat="43.0915843" lon="12.3000557"><ele>334.0</ele><time>2026-03-29T06:49:24.575Z</time></trkpt><trkpt lat="43.0916409" lon="12.2999613"><ele>333.5</ele><time>2026-03-29T06:49:26.563Z</time></trkpt><trkpt lat="43.0916984" lon="12.2998678"><ele>333.0</ele><time>2026-03-29T06:49:28.576Z</time></trkpt><trkpt lat="43.0917811" lon="12.2998064"><ele>332.5</ele><time>2026-03-29T06:49:30.577Z</time></trkpt><trkpt lat="43.0918758" lon="12.2997951"><ele>332.0</ele><time>2026-03-29T06:49:32.67Z</time></trkpt><trkpt lat="43.0919572" lon="12.2997416"><ele>329.6666666666667</ele><time>2026-03-29T06:49:34.548Z</time></trkpt><trkpt lat="43.0920261" lon="12.2996632"><ele>327.33333333333337</ele><time>2026-03-29T06:49:36.571Z</time></trkpt><trkpt lat="43.0921008" lon="12.2996088"><ele>325.0</ele><time>2026-03-29T06:49:38.572Z</time></trkpt><trkpt lat="43.0921621" lon="12.2995154"><ele>322.6666666666667</ele><time>2026-03-29T06:49:40.558Z</time></trkpt><trkpt lat="43.0922147" lon="12.2994218"><ele>320.3333333333333</ele><time>2026-03-29T06:49:42.566Z</time></trkpt><trkpt lat="43.0922733" lon="12.2993221"><ele>318.0</ele><time>2026-03-29T06:49:45.569Z</time></trkpt><trkpt lat="43.0923429" lon="12.2993019"><ele>318.0</ele><time>2026-03-29T06:49:47.565Z</time></trkpt><trkpt lat="43.0923524" lon="12.2991461"><ele>318.0</ele><time>2026-03-29T06:49:51.571Z</time></trkpt><trkpt lat="43.0923442" lon="12.2990493"><ele>318.0</ele><time>2026-03-29T06:49:53.566Z</time></trkpt><trkpt lat="43.0923329" lon="12.2989059"><ele>318.0</ele><time>2026-03-29T06:49:55.545Z</time></trkpt><trkpt lat="43.0923276" lon="12.2987702"><ele>318.0</ele><time>2026-03-29T06:49:57.568Z</time></trkpt><trkpt lat="43.0923916" lon="12.2986783"><ele>314.3333333333333</ele><time>2026-03-29T06:49:59.566Z</time></trkpt><trkpt lat="43.0924723" lon="12.2986555"><ele>310.6666666666667</ele><time>2026-03-29T06:50:01.659Z</time></trkpt><trkpt lat="43.0925402" lon="12.2985844"><ele>307.0</ele><time>2026-03-29T06:50:03.563Z</time></trkpt><trkpt lat="43.0925688" lon="12.2984501"><ele>303.33333333333337</ele><time>2026-03-29T06:50:05.57Z</time></trkpt><trkpt lat="43.092564" lon="12.2983538"><ele>299.6666666666667</ele><time>2026-03-29T06:50:07.55Z</time></trkpt><trkpt lat="43.0925455" lon="12.2982608"><ele>296.0</ele><time>2026-03-29T06:50:09.552Z</time></trkpt><trkpt lat="43.092587" lon="12.2981891"><ele>296.0</ele><time>2026-03-29T06:50:11.563Z</time></trkpt><trkpt lat="43.0926463" lon="12.2981084"><ele>296.0</ele><time>2026-03-29T06:50:13.554Z</time></trkpt><trkpt lat="43.0927108" lon="12.2980433"><ele>296.0</ele><time>2026-03-29T06:50:15.562Z</time></trkpt><trkpt lat="43.0927835" lon="12.2979914"><ele>296.0</ele><time>2026-03-29T06:50:17.571Z</time></trkpt><trkpt lat="43.092851" lon="12.2979431"><ele>296.0</ele><time>2026-03-29T06:50:19.572Z</time></trkpt><trkpt lat="43.0929121" lon="12.2978706"><ele>296.0</ele><time>2026-03-29T06:50:21.564Z</time></trkpt><trkpt lat="43.0929872" lon="12.2978128"><ele>293.0</ele><time>2026-03-29T06:50:23.565Z</time></trkpt><trkpt lat="43.0930615" lon="12.2977628"><ele>290.0</ele><time>2026-03-29T06:50:25.552Z</time></trkpt><trkpt lat="43.0931275" lon="12.2977323"><ele>287.0</ele><time>2026-03-29T06:50:27.556Z</time></trkpt><trkpt lat="43.093205" lon="12.2977299"><ele>284.0</ele><time>2026-03-29T06:50:29.549Z</time></trkpt><trkpt lat="43.0932739" lon="12.2976979"><ele>281.0</ele><time>2026-03-29T06:50:31.558Z</time></trkpt><trkpt lat="43.0933415" lon="12.297693"><ele>278.0</ele><time>2026-03-29T06:50:33.563Z</time></trkpt><trkpt lat="43.093429" lon="12.2977459"><ele>276.33333333333337</ele><time>2026-03-29T06:50:36.565Z</time></trkpt><trkpt lat="43.0935123" lon="12.2977423"><ele>274.6666666666667</ele><time>2026-03-29T06:50:39.57Z</time></trkpt><trkpt lat="43.0935772" lon="12.2976698"><ele>273.0</ele><time>2026-03-29T06:50:41.563Z</time></trkpt><trkpt lat="43.0936471" lon="12.2976342"><ele>271.3333333333333</ele><time>2026-03-29T06:50:43.57Z</time></trkpt><trkpt lat="43.0937408" lon="12.2976079"><ele>269.66666666666663</ele><time>2026-03-29T06:50:45.563Z</time></trkpt><trkpt lat="43.0938164" lon="12.2975411"><ele>268.0</ele><time>2026-03-29T06:50:47.672Z</time></trkpt><trkpt lat="43.0938829" lon="12.2974863"><ele>268.0</ele><time>2026-03-29T06:50:49.562Z</time></trkpt><trkpt lat="43.0939529" lon="12.2974372"><ele>268.0</ele><time>2026-03-29T06:50:51.551Z</time></trkpt><trkpt lat="43.0940172" lon="12.2973653"><ele>268.0</ele><time>2026-03-29T06:50:53.564Z</time></trkpt><trkpt lat="43.094081" lon="12.2973005"><ele>268.0</ele><time>2026-03-29T06:50:55.567Z</time></trkpt><trkpt lat="43.0941365" lon="12.2972499"><ele>268.0</ele><time>2026-03-29T06:50:57.566Z</time></trkpt><trkpt lat="43.0942166" lon="12.2972731"><ele>268.0</ele><time>2026-03-29T06:51:00.567Z</time></trkpt><trkpt lat="43.0942531" lon="12.2972003"><ele>265.0</ele><time>2026-03-29T06:51:02.571Z</time></trkpt><trkpt lat="43.0942742" lon="12.2970753"><ele>262.0</ele><time>2026-03-29T06:51:04.563Z</time></trkpt><trkpt lat="43.094296" lon="12.2969763"><ele>259.0</ele><time>2026-03-29T06:51:06.563Z</time></trkpt><trkpt lat="43.0943304" lon="12.2968735"><ele>256.0</ele><time>2026-03-29T06:51:09.562Z</time></trkpt><trkpt lat="43.0943349" lon="12.296785"><ele>253.0</ele><time>2026-03-29T06:51:13.574Z</time></trkpt><trkpt lat="43.0943528" lon="12.2966951"><ele>250.0</ele><time>2026-03-29T06:51:37.545Z</time></trkpt><trkpt lat="43.0943269" lon="12.2966153"><ele>247.0</ele><time>2026-03-29T06:51:58.54Z</time></trkpt><trkpt lat="43.0943229" lon="12.2964947"><ele>245.39999999999998</ele><time>2026-03-29T06:52:01.551Z</time></trkpt><trkpt lat="43.0943062" lon="12.2963949"><ele>243.79999999999998</ele><time>2026-03-29T06:52:03.542Z</time></trkpt><trkpt lat="43.0942824" lon="12.2962815"><ele>242.2</ele><time>2026-03-29T06:52:05.543Z</time></trkpt><trkpt lat="43.0942548" lon="12.2961534"><ele>240.6</ele><time>2026-03-29T06:52:07.682Z</time></trkpt><trkpt lat="43.0942177" lon="12.2960101"><ele>239.0</ele><time>2026-03-29T06:52:09.547Z</time></trkpt><trkpt lat="43.0941959" lon="12.2958851"><ele>239.0</ele><time>2026-03-29T06:52:11.544Z</time></trkpt><trkpt lat="43.0941702" lon="12.2957353"><ele>239.0</ele><time>2026-03-29T06:52:13.549Z</time></trkpt><trkpt lat="43.0941551" lon="12.2955868"><ele>239.0</ele><time>2026-03-29T06:52:15.541Z</time></trkpt><trkpt lat="43.0941261" lon="12.2954214"><ele>239.0</ele><time>2026-03-29T06:52:17.546Z</time></trkpt><trkpt lat="43.0941036" lon="12.2952493"><ele>239.16666666666669</ele><time>2026-03-29T06:52:19.543Z</time></trkpt><trkpt lat="43.0940696" lon="12.2950939"><ele>239.33333333333334</ele><time>2026-03-29T06:52:21.542Z</time></trkpt><trkpt lat="43.0940575" lon="12.2950059"><ele>239.5</ele><time>2026-03-29T06:52:22.549Z</time></trkpt><trkpt lat="43.0940478" lon="12.2949202"><ele>239.66666666666669</ele><time>2026-03-29T06:52:23.548Z</time></trkpt><trkpt lat="43.094027" lon="12.2948356"><ele>239.83333333333334</ele><time>2026-03-29T06:52:24.543Z</time></trkpt><trkpt lat="43.0940065" lon="12.2946758"><ele>240.0</ele><time>2026-03-29T06:52:26.541Z</time></trkpt><trkpt lat="43.0939898" lon="12.2945126"><ele>239.28571428571428</ele><time>2026-03-29T06:52:28.544Z</time></trkpt><trkpt lat="43.0939745" lon="12.2943984"><ele>238.57142857142856</ele><time>2026-03-29T06:52:30.543Z</time></trkpt><trkpt lat="43.0939933" lon="12.2943114"><ele>237.85714285714283</ele><time>2026-03-29T06:52:33.549Z</time></trkpt><trkpt lat="43.0940717" lon="12.2942825"><ele>237.14285714285714</ele><time>2026-03-29T06:52:36.547Z</time></trkpt><trkpt lat="43.094122" lon="12.2943376"><ele>236.4285714285714</ele><time>2026-03-29T06:52:39.546Z</time></trkpt><trkpt lat="43.0941815" lon="12.2942841"><ele>235.7142857142857</ele><time>2026-03-29T06:52:44.545Z</time></trkpt><trkpt lat="43.0942232" lon="12.2942071"><ele>235.0</ele><time>2026-03-29T06:52:46.548Z</time></trkpt><trkpt lat="43.0943662" lon="12.2941412"><ele>234.0</ele><time>2026-03-29T06:52:49.551Z</time></trkpt><trkpt lat="43.0944729" lon="12.2940927"><ele>233.0</ele><time>2026-03-29T06:52:51.546Z</time></trkpt><trkpt lat="43.0945801" lon="12.2940304"><ele>232.0</ele><time>2026-03-29T06:52:53.653Z</time></trkpt><trkpt lat="43.0946761" lon="12.2939899"><ele>231.0</ele><time>2026-03-29T06:52:55.551Z</time></trkpt><trkpt lat="43.094762" lon="12.2939534"><ele>230.0</ele><time>2026-03-29T06:52:57.546Z</time></trkpt><trkpt lat="43.0948425" lon="12.2939263"><ele>229.99999999999997</ele><time>2026-03-29T06:52:59.546Z</time></trkpt><trkpt lat="43.094911" lon="12.2939035"><ele>230.0</ele><time>2026-03-29T06:53:01.548Z</time></trkpt><trkpt lat="43.0949797" lon="12.2938884"><ele>229.99999999999997</ele><time>2026-03-29T06:53:03.548Z</time></trkpt><trkpt lat="43.0950462" lon="12.2938717"><ele>229.99999999999997</ele><time>2026-03-29T06:53:05.55Z</time></trkpt><trkpt lat="43.0951095" lon="12.2938622"><ele>230.0</ele><time>2026-03-29T06:53:07.552Z</time></trkpt><trkpt lat="43.0951973" lon="12.2938485"><ele>229.99999999999997</ele><time>2026-03-29T06:53:10.549Z</time></trkpt><trkpt lat="43.0952787" lon="12.2938292"><ele>229.99999999999997</ele><time>2026-03-29T06:53:13.548Z</time></trkpt><trkpt lat="43.095359" lon="12.2938102"><ele>229.50000000000003</ele><time>2026-03-29T06:53:16.546Z</time></trkpt><trkpt lat="43.0954398" lon="12.2937988"><ele>229.0</ele><time>2026-03-29T06:53:19.559Z</time></trkpt><trkpt lat="43.0955218" lon="12.2937992"><ele>228.5</ele><time>2026-03-29T06:53:22.549Z</time></trkpt><trkpt lat="43.0955991" lon="12.2937991"><ele>228.0</ele><time>2026-03-29T06:53:25.546Z</time></trkpt><trkpt lat="43.0956774" lon="12.2938135"><ele>227.50000000000003</ele><time>2026-03-29T06:53:28.574Z</time></trkpt><trkpt lat="43.0957484" lon="12.2938352"><ele>227.0</ele><time>2026-03-29T06:53:31.56Z</time></trkpt><trkpt lat="43.0958214" lon="12.2938471"><ele>226.66666666666669</ele><time>2026-03-29T06:53:34.566Z</time></trkpt><trkpt lat="43.0959003" lon="12.2938601"><ele>226.33333333333334</ele><time>2026-03-29T06:53:37.548Z</time></trkpt><trkpt lat="43.096004" lon="12.2938717"><ele>226.0</ele><time>2026-03-29T06:53:41.559Z</time></trkpt><trkpt lat="43.0960869" lon="12.2938644"><ele>225.66666666666669</ele><time>2026-03-29T06:53:44.557Z</time></trkpt><trkpt lat="43.096172" lon="12.2938594"><ele>225.33333333333334</ele><time>2026-03-29T06:53:47.546Z</time></trkpt><trkpt lat="43.0962363" lon="12.2938628"><ele>225.0</ele><time>2026-03-29T06:53:49.547Z</time></trkpt><trkpt lat="43.0963115" lon="12.2938672"><ele>225.0</ele><time>2026-03-29T06:53:51.65Z</time></trkpt><trkpt lat="43.096392" lon="12.2938667"><ele>225.0</ele><time>2026-03-29T06:53:53.553Z</time></trkpt><trkpt lat="43.0964758" lon="12.2938643"><ele>225.0</ele><time>2026-03-29T06:53:55.549Z</time></trkpt><trkpt lat="43.0965632" lon="12.2938543"><ele>225.0</ele><time>2026-03-29T06:53:57.546Z</time></trkpt><trkpt lat="43.0966429" lon="12.2938406"><ele>225.0</ele><time>2026-03-29T06:53:59.549Z</time></trkpt><trkpt lat="43.0967165" lon="12.2938274"><ele>225.0</ele><time>2026-03-29T06:54:01.555Z</time></trkpt><trkpt lat="43.0967927" lon="12.2938051"><ele>225.00000000000003</ele><time>2026-03-29T06:54:03.641Z</time></trkpt><trkpt lat="43.0968655" lon="12.2937889"><ele>225.0</ele><time>2026-03-29T06:54:05.557Z</time></trkpt><trkpt lat="43.0969352" lon="12.2937889"><ele>225.00000000000003</ele><time>2026-03-29T06:54:07.562Z</time></trkpt><trkpt lat="43.0969985" lon="12.2937945"><ele>225.00000000000003</ele><time>2026-03-29T06:54:09.672Z</time></trkpt><trkpt lat="43.0970636" lon="12.2938022"><ele>225.0</ele><time>2026-03-29T06:54:11.573Z</time></trkpt><trkpt lat="43.0971335" lon="12.2938148"><ele>225.00000000000003</ele><time>2026-03-29T06:54:13.566Z</time></trkpt><trkpt lat="43.0972059" lon="12.2938232"><ele>225.00000000000003</ele><time>2026-03-29T06:54:15.562Z</time></trkpt><trkpt lat="43.0972735" lon="12.2938337"><ele>225.0</ele><time>2026-03-29T06:54:17.568Z</time></trkpt><trkpt lat="43.0973373" lon="12.2938424"><ele>225.0</ele><time>2026-03-29T06:54:19.561Z</time></trkpt><trkpt lat="43.097401" lon="12.2938539"><ele>225.0</ele><time>2026-03-29T06:54:21.652Z</time></trkpt><trkpt lat="43.0974651" lon="12.2938552"><ele>225.0</ele><time>2026-03-29T06:54:23.574Z</time></trkpt><trkpt lat="43.0975534" lon="12.2938429"><ele>225.0</ele><time>2026-03-29T06:54:26.562Z</time></trkpt><trkpt lat="43.0976337" lon="12.2938192"><ele>225.0</ele><time>2026-03-29T06:54:29.564Z</time></trkpt><trkpt lat="43.0977181" lon="12.2937869"><ele>225.14285714285717</ele><time>2026-03-29T06:54:32.564Z</time></trkpt><trkpt lat="43.09779" lon="12.2937613"><ele>225.28571428571428</ele><time>2026-03-29T06:54:35.573Z</time></trkpt><trkpt lat="43.0978578" lon="12.2937414"><ele>225.42857142857144</ele><time>2026-03-29T06:54:38.563Z</time></trkpt><trkpt lat="43.0979233" lon="12.2937058"><ele>225.57142857142858</ele><time>2026-03-29T06:54:41.566Z</time></trkpt><trkpt lat="43.0979855" lon="12.2936676"><ele>225.71428571428572</ele><time>2026-03-29T06:54:44.57Z</time></trkpt><trkpt lat="43.0980323" lon="12.2936041"><ele>225.85714285714286</ele><time>2026-03-29T06:54:47.572Z</time></trkpt><trkpt lat="43.0980711" lon="12.2935216"><ele>226.0</ele><time>2026-03-29T06:54:50.57Z</time></trkpt><trkpt lat="43.0980945" lon="12.2934372"><ele>226.0</ele><time>2026-03-29T06:54:53.564Z</time></trkpt><trkpt lat="43.0981015" lon="12.2933139"><ele>226.00000000000003</ele><time>2026-03-29T06:54:59.546Z</time></trkpt><trkpt lat="43.0981216" lon="12.2932106"><ele>226.00000000000003</ele><time>2026-03-29T06:55:02.569Z</time></trkpt><trkpt lat="43.0981348" lon="12.2930949"><ele>226.0</ele><time>2026-03-29T06:55:05.569Z</time></trkpt><trkpt lat="43.09815" lon="12.2929605"><ele>226.0</ele><time>2026-03-29T06:55:08.562Z</time></trkpt><trkpt lat="43.0981712" lon="12.292827"><ele>226.25</ele><time>2026-03-29T06:55:10.578Z</time></trkpt><trkpt lat="43.0981975" lon="12.2926719"><ele>226.5</ele><time>2026-03-29T06:55:12.566Z</time></trkpt><trkpt lat="43.0982177" lon="12.2925225"><ele>226.75</ele><time>2026-03-29T06:55:14.569Z</time></trkpt><trkpt lat="43.0982392" lon="12.2923668"><ele>227.0</ele><time>2026-03-29T06:55:16.571Z</time></trkpt><trkpt lat="43.0982534" lon="12.2922035"><ele>227.5</ele><time>2026-03-29T06:55:18.557Z</time></trkpt><trkpt lat="43.0982615" lon="12.29204"><ele>228.0</ele><time>2026-03-29T06:55:20.573Z</time></trkpt><trkpt lat="43.0982729" lon="12.2918757"><ele>228.5</ele><time>2026-03-29T06:55:22.564Z</time></trkpt><trkpt lat="43.0982689" lon="12.2917134"><ele>229.0</ele><time>2026-03-29T06:55:24.577Z</time></trkpt><trkpt lat="43.0982532" lon="12.291566"><ele>227.6</ele><time>2026-03-29T06:55:26.569Z</time></trkpt><trkpt lat="43.0982346" lon="12.2914112"><ele>226.2</ele><time>2026-03-29T06:55:28.568Z</time></trkpt><trkpt lat="43.0982112" lon="12.2912574"><ele>224.79999999999998</ele><time>2026-03-29T06:55:30.57Z</time></trkpt><trkpt lat="43.0981845" lon="12.2911137"><ele>223.39999999999998</ele><time>2026-03-29T06:55:32.568Z</time></trkpt><trkpt lat="43.0981673" lon="12.2909877"><ele>222.0</ele><time>2026-03-29T06:55:34.572Z</time></trkpt><trkpt lat="43.0981456" lon="12.2908514"><ele>222.0</ele><time>2026-03-29T06:55:36.558Z</time></trkpt><trkpt lat="43.0981187" lon="12.2907121"><ele>222.0</ele><time>2026-03-29T06:55:38.556Z</time></trkpt><trkpt lat="43.0980903" lon="12.2905803"><ele>222.0</ele><time>2026-03-29T06:55:40.555Z</time></trkpt><trkpt lat="43.0980617" lon="12.2904428"><ele>222.0</ele><time>2026-03-29T06:55:42.549Z</time></trkpt><trkpt lat="43.0980298" lon="12.2903028"><ele>222.0</ele><time>2026-03-29T06:55:44.55Z</time></trkpt><trkpt lat="43.0980031" lon="12.2901617"><ele>222.2</ele><time>2026-03-29T06:55:46.574Z</time></trkpt><trkpt lat="43.097976" lon="12.2900237"><ele>222.39999999999998</ele><time>2026-03-29T06:55:48.558Z</time></trkpt><trkpt lat="43.097957" lon="12.2899008"><ele>222.60000000000002</ele><time>2026-03-29T06:55:50.562Z</time></trkpt><trkpt lat="43.0979383" lon="12.2897636"><ele>222.8</ele><time>2026-03-29T06:55:52.562Z</time></trkpt><trkpt lat="43.0979158" lon="12.2896265"><ele>223.0</ele><time>2026-03-29T06:55:54.553Z</time></trkpt><trkpt lat="43.0978883" lon="12.2895082"><ele>223.2</ele><time>2026-03-29T06:55:56.56Z</time></trkpt><trkpt lat="43.0978619" lon="12.2893758"><ele>223.4</ele><time>2026-03-29T06:55:58.566Z</time></trkpt><trkpt lat="43.0978357" lon="12.2892592"><ele>223.59999999999997</ele><time>2026-03-29T06:56:00.576Z</time></trkpt><trkpt lat="43.0978035" lon="12.2891312"><ele>223.79999999999998</ele><time>2026-03-29T06:56:02.556Z</time></trkpt><trkpt lat="43.0977581" lon="12.2889483"><ele>224.0</ele><time>2026-03-29T06:56:05.568Z</time></trkpt><trkpt lat="43.0977322" lon="12.2888336"><ele>223.39999999999998</ele><time>2026-03-29T06:56:07.576Z</time></trkpt><trkpt lat="43.0977024" lon="12.28872"><ele>222.79999999999998</ele><time>2026-03-29T06:56:09.565Z</time></trkpt><trkpt lat="43.0976821" lon="12.2886049"><ele>222.20000000000002</ele><time>2026-03-29T06:56:11.56Z</time></trkpt><trkpt lat="43.097653" lon="12.2884795"><ele>221.60000000000002</ele><time>2026-03-29T06:56:13.562Z</time></trkpt><trkpt lat="43.0976299" lon="12.2883665"><ele>221.0</ele><time>2026-03-29T06:56:15.572Z</time></trkpt><trkpt lat="43.0976133" lon="12.2882353"><ele>221.0</ele><time>2026-03-29T06:56:17.566Z</time></trkpt><trkpt lat="43.0975901" lon="12.288106"><ele>221.00000000000003</ele><time>2026-03-29T06:56:19.567Z</time></trkpt><trkpt lat="43.0975744" lon="12.2879842"><ele>221.00000000000003</ele><time>2026-03-29T06:56:21.575Z</time></trkpt><trkpt lat="43.0975525" lon="12.2878722"><ele>221.0</ele><time>2026-03-29T06:56:23.566Z</time></trkpt><trkpt lat="43.0975207" lon="12.2877573"><ele>221.0</ele><time>2026-03-29T06:56:25.546Z</time></trkpt><trkpt lat="43.0974983" lon="12.2876343"><ele>221.33333333333334</ele><time>2026-03-29T06:56:27.563Z</time></trkpt><trkpt lat="43.0974659" lon="12.287502"><ele>221.66666666666669</ele><time>2026-03-29T06:56:29.566Z</time></trkpt><trkpt lat="43.097447" lon="12.2873769"><ele>222.0</ele><time>2026-03-29T06:56:31.552Z</time></trkpt><trkpt lat="43.0974509" lon="12.2872592"><ele>222.33333333333331</ele><time>2026-03-29T06:56:33.572Z</time></trkpt><trkpt lat="43.0974777" lon="12.2871558"><ele>222.66666666666666</ele><time>2026-03-29T06:56:35.566Z</time></trkpt><trkpt lat="43.0974639" lon="12.2870628"><ele>223.0</ele><time>2026-03-29T06:56:37.558Z</time></trkpt><trkpt lat="43.0973904" lon="12.2869123"><ele>223.16666666666666</ele><time>2026-03-29T06:56:40.56Z</time></trkpt><trkpt lat="43.0973365" lon="12.2868258"><ele>223.33333333333331</ele><time>2026-03-29T06:56:42.565Z</time></trkpt><trkpt lat="43.0972909" lon="12.2867189"><ele>223.5</ele><time>2026-03-29T06:56:44.558Z</time></trkpt><trkpt lat="43.0972532" lon="12.2866028"><ele>223.66666666666669</ele><time>2026-03-29T06:56:46.557Z</time></trkpt><trkpt lat="43.0972152" lon="12.2864873"><ele>223.83333333333334</ele><time>2026-03-29T06:56:48.569Z</time></trkpt><trkpt lat="43.0971861" lon="12.2863726"><ele>224.0</ele><time>2026-03-29T06:56:50.549Z</time></trkpt><trkpt lat="43.0971502" lon="12.2862558"><ele>223.2</ele><time>2026-03-29T06:56:52.56Z</time></trkpt><trkpt lat="43.0971154" lon="12.2861498"><ele>222.39999999999998</ele><time>2026-03-29T06:56:54.561Z</time></trkpt><trkpt lat="43.0970866" lon="12.2860396"><ele>221.6</ele><time>2026-03-29T06:56:56.56Z</time></trkpt><trkpt lat="43.0970728" lon="12.2859222"><ele>220.8</ele><time>2026-03-29T06:56:58.571Z</time></trkpt><trkpt lat="43.0970282" lon="12.2857885"><ele>220.0</ele><time>2026-03-29T06:57:00.548Z</time></trkpt><trkpt lat="43.0970114" lon="12.2856548"><ele>219.8</ele><time>2026-03-29T06:57:02.557Z</time></trkpt><trkpt lat="43.0969895" lon="12.285541"><ele>219.6</ele><time>2026-03-29T06:57:04.562Z</time></trkpt><trkpt lat="43.0969713" lon="12.2854077"><ele>219.39999999999998</ele><time>2026-03-29T06:57:06.559Z</time></trkpt><trkpt lat="43.0969509" lon="12.2852957"><ele>219.2</ele><time>2026-03-29T06:57:08.563Z</time></trkpt><trkpt lat="43.0969088" lon="12.2851723"><ele>219.0</ele><time>2026-03-29T06:57:10.568Z</time></trkpt><trkpt lat="43.0968837" lon="12.2850547"><ele>219.0</ele><time>2026-03-29T06:57:12.562Z</time></trkpt><trkpt lat="43.0968637" lon="12.2849338"><ele>218.99999999999997</ele><time>2026-03-29T06:57:14.559Z</time></trkpt><trkpt lat="43.096852" lon="12.2848051"><ele>218.99999999999997</ele><time>2026-03-29T06:57:16.571Z</time></trkpt><trkpt lat="43.09684" lon="12.2846832"><ele>219.0</ele><time>2026-03-29T06:57:18.547Z</time></trkpt><trkpt lat="43.0968217" lon="12.2845483"><ele>219.0</ele><time>2026-03-29T06:57:20.562Z</time></trkpt><trkpt lat="43.0968138" lon="12.2844434"><ele>219.16666666666666</ele><time>2026-03-29T06:57:22.568Z</time></trkpt><trkpt lat="43.096811" lon="12.2843556"><ele>219.33333333333331</ele><time>2026-03-29T06:57:24.568Z</time></trkpt><trkpt lat="43.0968074" lon="12.2842534"><ele>219.5</ele><time>2026-03-29T06:57:26.576Z</time></trkpt><trkpt lat="43.096784" lon="12.2841419"><ele>219.66666666666666</ele><time>2026-03-29T06:57:28.559Z</time></trkpt><trkpt lat="43.0967361" lon="12.2840233"><ele>219.83333333333331</ele><time>2026-03-29T06:57:30.563Z</time></trkpt><trkpt lat="43.0967029" lon="12.283901"><ele>220.0</ele><time>2026-03-29T06:57:32.569Z</time></trkpt><trkpt lat="43.0966791" lon="12.283784"><ele>220.0</ele><time>2026-03-29T06:57:34.566Z</time></trkpt><trkpt lat="43.0966547" lon="12.2836609"><ele>220.0</ele><time>2026-03-29T06:57:36.557Z</time></trkpt><trkpt lat="43.0966239" lon="12.283545"><ele>220.0</ele><time>2026-03-29T06:57:38.548Z</time></trkpt><trkpt lat="43.0966021" lon="12.2834112"><ele>220.0</ele><time>2026-03-29T06:57:40.563Z</time></trkpt><trkpt lat="43.0965775" lon="12.2832855"><ele>220.0</ele><time>2026-03-29T06:57:42.566Z</time></trkpt><trkpt lat="43.0965557" lon="12.2831617"><ele>219.6</ele><time>2026-03-29T06:57:44.568Z</time></trkpt><trkpt lat="43.0965266" lon="12.2830382"><ele>219.2</ele><time>2026-03-29T06:57:46.572Z</time></trkpt><trkpt lat="43.0965053" lon="12.2829114"><ele>218.8</ele><time>2026-03-29T06:57:48.57Z</time></trkpt><trkpt lat="43.0964774" lon="12.2827924"><ele>218.4</ele><time>2026-03-29T06:57:50.57Z</time></trkpt><trkpt lat="43.0964591" lon="12.2826703"><ele>218.0</ele><time>2026-03-29T06:57:52.57Z</time></trkpt><trkpt lat="43.0964453" lon="12.2825425"><ele>218.0</ele><time>2026-03-29T06:57:54.572Z</time></trkpt><trkpt lat="43.0964264" lon="12.2824204"><ele>218.0</ele><time>2026-03-29T06:57:56.554Z</time></trkpt><trkpt lat="43.096401" lon="12.2822927"><ele>218.0</ele><time>2026-03-29T06:57:58.558Z</time></trkpt><trkpt lat="43.0963819" lon="12.2821694"><ele>218.0</ele><time>2026-03-29T06:58:00.548Z</time></trkpt><trkpt lat="43.0963434" lon="12.2820415"><ele>218.0</ele><time>2026-03-29T06:58:02.56Z</time></trkpt><trkpt lat="43.0963234" lon="12.2819089"><ele>218.4</ele><time>2026-03-29T06:58:04.561Z</time></trkpt><trkpt lat="43.0962937" lon="12.2817922"><ele>218.8</ele><time>2026-03-29T06:58:06.57Z</time></trkpt><trkpt lat="43.0962651" lon="12.2816699"><ele>219.2</ele><time>2026-03-29T06:58:08.567Z</time></trkpt><trkpt lat="43.0962424" lon="12.2815517"><ele>219.6</ele><time>2026-03-29T06:58:10.553Z</time></trkpt><trkpt lat="43.0962196" lon="12.2814298"><ele>220.0</ele><time>2026-03-29T06:58:12.561Z</time></trkpt><trkpt lat="43.0961937" lon="12.2813033"><ele>220.0</ele><time>2026-03-29T06:58:14.558Z</time></trkpt><trkpt lat="43.0961636" lon="12.2811754"><ele>220.0</ele><time>2026-03-29T06:58:16.543Z</time></trkpt><trkpt lat="43.0961327" lon="12.2810485"><ele>220.0</ele><time>2026-03-29T06:58:18.551Z</time></trkpt><trkpt lat="43.0961051" lon="12.2809264"><ele>220.0</ele><time>2026-03-29T06:58:20.555Z</time></trkpt><trkpt lat="43.0960811" lon="12.2808085"><ele>220.0</ele><time>2026-03-29T06:58:22.554Z</time></trkpt><trkpt lat="43.0960571" lon="12.2806863"><ele>219.8</ele><time>2026-03-29T06:58:24.559Z</time></trkpt><trkpt lat="43.0960275" lon="12.2805657"><ele>219.6</ele><time>2026-03-29T06:58:26.548Z</time></trkpt><trkpt lat="43.0960048" lon="12.280446"><ele>219.39999999999998</ele><time>2026-03-29T06:58:28.55Z</time></trkpt><trkpt lat="43.0959833" lon="12.2803201"><ele>219.2</ele><time>2026-03-29T06:58:30.552Z</time></trkpt><trkpt lat="43.0959632" lon="12.2801912"><ele>219.0</ele><time>2026-03-29T06:58:32.551Z</time></trkpt><trkpt lat="43.0959346" lon="12.2800685"><ele>219.0</ele><time>2026-03-29T06:58:34.55Z</time></trkpt><trkpt lat="43.0959066" lon="12.2799386"><ele>219.0</ele><time>2026-03-29T06:58:36.549Z</time></trkpt><trkpt lat="43.0958839" lon="12.2798272"><ele>219.0</ele><time>2026-03-29T06:58:38.545Z</time></trkpt><trkpt lat="43.0958623" lon="12.2797057"><ele>219.0</ele><time>2026-03-29T06:58:40.546Z</time></trkpt><trkpt lat="43.0958401" lon="12.2795875"><ele>219.0</ele><time>2026-03-29T06:58:42.548Z</time></trkpt><trkpt lat="43.0958159" lon="12.2794773"><ele>219.0</ele><time>2026-03-29T06:58:44.551Z</time></trkpt><trkpt lat="43.0957909" lon="12.2793516"><ele>219.2</ele><time>2026-03-29T06:58:46.545Z</time></trkpt><trkpt lat="43.0957737" lon="12.279231"><ele>219.39999999999998</ele><time>2026-03-29T06:58:48.553Z</time></trkpt><trkpt lat="43.095747" lon="12.2791078"><ele>219.6</ele><time>2026-03-29T06:58:50.55Z</time></trkpt><trkpt lat="43.0957011" lon="12.2789861"><ele>219.8</ele><time>2026-03-29T06:58:52.647Z</time></trkpt><trkpt lat="43.0956786" lon="12.278879"><ele>220.0</ele><time>2026-03-29T06:58:54.546Z</time></trkpt><trkpt lat="43.0956514" lon="12.2787678"><ele>219.83333333333331</ele><time>2026-03-29T06:58:56.559Z</time></trkpt><trkpt lat="43.0956338" lon="12.2786396"><ele>219.66666666666666</ele><time>2026-03-29T06:58:58.547Z</time></trkpt><trkpt lat="43.0956118" lon="12.2785232"><ele>219.5</ele><time>2026-03-29T06:59:00.55Z</time></trkpt><trkpt lat="43.0955891" lon="12.2784054"><ele>219.33333333333331</ele><time>2026-03-29T06:59:02.548Z</time></trkpt><trkpt lat="43.0955791" lon="12.2782925"><ele>219.16666666666666</ele><time>2026-03-29T06:59:04.544Z</time></trkpt><trkpt lat="43.0955556" lon="12.2781689"><ele>219.0</ele><time>2026-03-29T06:59:06.547Z</time></trkpt><trkpt lat="43.0955382" lon="12.2780439"><ele>219.0</ele><time>2026-03-29T06:59:08.565Z</time></trkpt><trkpt lat="43.0955152" lon="12.2779231"><ele>219.0</ele><time>2026-03-29T06:59:10.544Z</time></trkpt><trkpt lat="43.0954859" lon="12.2778035"><ele>219.0</ele><time>2026-03-29T06:59:12.546Z</time></trkpt><trkpt lat="43.095461" lon="12.2776944"><ele>219.0</ele><time>2026-03-29T06:59:14.554Z</time></trkpt><trkpt lat="43.0954329" lon="12.2775806"><ele>219.0</ele><time>2026-03-29T06:59:16.545Z</time></trkpt><trkpt lat="43.0954091" lon="12.2774619"><ele>219.0</ele><time>2026-03-29T06:59:18.543Z</time></trkpt><trkpt lat="43.0953759" lon="12.2773457"><ele>219.0</ele><time>2026-03-29T06:59:20.546Z</time></trkpt><trkpt lat="43.0953585" lon="12.2772195"><ele>219.0</ele><time>2026-03-29T06:59:22.547Z</time></trkpt><trkpt lat="43.095344" lon="12.2770989"><ele>219.0</ele><time>2026-03-29T06:59:24.543Z</time></trkpt><trkpt lat="43.0953238" lon="12.2769887"><ele>219.0</ele><time>2026-03-29T06:59:26.545Z</time></trkpt><trkpt lat="43.0952945" lon="12.2768811"><ele>219.0</ele><time>2026-03-29T06:59:28.544Z</time></trkpt><trkpt lat="43.0952826" lon="12.2767543"><ele>219.0</ele><time>2026-03-29T06:59:30.553Z</time></trkpt><trkpt lat="43.0952647" lon="12.2766369"><ele>219.0</ele><time>2026-03-29T06:59:32.64Z</time></trkpt><trkpt lat="43.0952276" lon="12.2765363"><ele>219.0</ele><time>2026-03-29T06:59:34.549Z</time></trkpt><trkpt lat="43.0952073" lon="12.2764155"><ele>219.0</ele><time>2026-03-29T06:59:36.566Z</time></trkpt><trkpt lat="43.0951801" lon="12.2762999"><ele>219.0</ele><time>2026-03-29T06:59:38.545Z</time></trkpt><trkpt lat="43.0951555" lon="12.2761857"><ele>219.0</ele><time>2026-03-29T06:59:40.565Z</time></trkpt><trkpt lat="43.0951318" lon="12.2760698"><ele>219.0</ele><time>2026-03-29T06:59:42.563Z</time></trkpt><trkpt lat="43.0951113" lon="12.2759523"><ele>218.83333333333334</ele><time>2026-03-29T06:59:44.57Z</time></trkpt><trkpt lat="43.0950862" lon="12.2758422"><ele>218.66666666666669</ele><time>2026-03-29T06:59:46.547Z</time></trkpt><trkpt lat="43.0950626" lon="12.2757239"><ele>218.5</ele><time>2026-03-29T06:59:48.543Z</time></trkpt><trkpt lat="43.095044" lon="12.2756051"><ele>218.33333333333334</ele><time>2026-03-29T06:59:50.638Z</time></trkpt><trkpt lat="43.0950168" lon="12.2754838"><ele>218.16666666666669</ele><time>2026-03-29T06:59:52.551Z</time></trkpt><trkpt lat="43.0949858" lon="12.2753669"><ele>218.0</ele><time>2026-03-29T06:59:54.55Z</time></trkpt><trkpt lat="43.0949569" lon="12.275257"><ele>218.00000000000003</ele><time>2026-03-29T06:59:56.549Z</time></trkpt><trkpt lat="43.0949312" lon="12.2751508"><ele>218.0</ele><time>2026-03-29T06:59:58.546Z</time></trkpt><trkpt lat="43.0949126" lon="12.275037"><ele>218.0</ele><time>2026-03-29T07:00:00.544Z</time></trkpt><trkpt lat="43.0948904" lon="12.2749261"><ele>218.0</ele><time>2026-03-29T07:00:02.561Z</time></trkpt><trkpt lat="43.0948712" lon="12.274814"><ele>218.00000000000003</ele><time>2026-03-29T07:00:04.563Z</time></trkpt><trkpt lat="43.0948525" lon="12.2747081"><ele>218.0</ele><time>2026-03-29T07:00:06.564Z</time></trkpt><trkpt lat="43.0948327" lon="12.2745946"><ele>217.83333333333334</ele><time>2026-03-29T07:00:08.663Z</time></trkpt><trkpt lat="43.0948084" lon="12.2744866"><ele>217.66666666666669</ele><time>2026-03-29T07:00:10.562Z</time></trkpt><trkpt lat="43.0947842" lon="12.2743797"><ele>217.5</ele><time>2026-03-29T07:00:12.57Z</time></trkpt><trkpt lat="43.0947579" lon="12.2742738"><ele>217.33333333333331</ele><time>2026-03-29T07:00:14.564Z</time></trkpt><trkpt lat="43.0947379" lon="12.274168"><ele>217.16666666666666</ele><time>2026-03-29T07:00:16.551Z</time></trkpt><trkpt lat="43.0947273" lon="12.2740528"><ele>217.0</ele><time>2026-03-29T07:00:18.559Z</time></trkpt><trkpt lat="43.094698" lon="12.2739522"><ele>217.14285714285714</ele><time>2026-03-29T07:00:20.569Z</time></trkpt><trkpt lat="43.0946749" lon="12.2738586"><ele>217.28571428571428</ele><time>2026-03-29T07:00:22.571Z</time></trkpt><trkpt lat="43.0946525" lon="12.2737702"><ele>217.42857142857144</ele><time>2026-03-29T07:00:24.56Z</time></trkpt><trkpt lat="43.0946344" lon="12.2736502"><ele>217.57142857142856</ele><time>2026-03-29T07:00:27.568Z</time></trkpt><trkpt lat="43.094612" lon="12.2735625"><ele>217.71428571428572</ele><time>2026-03-29T07:00:29.57Z</time></trkpt><trkpt lat="43.0945925" lon="12.2734687"><ele>217.85714285714286</ele><time>2026-03-29T07:00:31.562Z</time></trkpt><trkpt lat="43.0945705" lon="12.2733636"><ele>218.0</ele><time>2026-03-29T07:00:33.571Z</time></trkpt><trkpt lat="43.0945486" lon="12.2732554"><ele>218.00000000000003</ele><time>2026-03-29T07:00:35.558Z</time></trkpt><trkpt lat="43.0945281" lon="12.2731613"><ele>218.0</ele><time>2026-03-29T07:00:37.57Z</time></trkpt><trkpt lat="43.0945108" lon="12.2730596"><ele>218.0</ele><time>2026-03-29T07:00:39.568Z</time></trkpt><trkpt lat="43.0944875" lon="12.2729523"><ele>218.0</ele><time>2026-03-29T07:00:41.562Z</time></trkpt><trkpt lat="43.0944674" lon="12.2728439"><ele>218.00000000000003</ele><time>2026-03-29T07:00:43.568Z</time></trkpt><trkpt lat="43.0944481" lon="12.2727336"><ele>218.0</ele><time>2026-03-29T07:00:45.566Z</time></trkpt><trkpt lat="43.0944277" lon="12.2726224"><ele>218.16666666666669</ele><time>2026-03-29T07:00:47.566Z</time></trkpt><trkpt lat="43.0944043" lon="12.2725139"><ele>218.33333333333334</ele><time>2026-03-29T07:00:49.574Z</time></trkpt><trkpt lat="43.0943843" lon="12.2724023"><ele>218.5</ele><time>2026-03-29T07:00:51.574Z</time></trkpt><trkpt lat="43.0943618" lon="12.2722926"><ele>218.66666666666669</ele><time>2026-03-29T07:00:53.566Z</time></trkpt><trkpt lat="43.0943374" lon="12.2721841"><ele>218.83333333333334</ele><time>2026-03-29T07:00:55.564Z</time></trkpt><trkpt lat="43.0943159" lon="12.2720721"><ele>219.0</ele><time>2026-03-29T07:00:57.558Z</time></trkpt><trkpt lat="43.0942954" lon="12.271966"><ele>219.16666666666666</ele><time>2026-03-29T07:00:59.558Z</time></trkpt><trkpt lat="43.0942826" lon="12.271856"><ele>219.33333333333331</ele><time>2026-03-29T07:01:01.567Z</time></trkpt><trkpt lat="43.09426" lon="12.2717422"><ele>219.5</ele><time>2026-03-29T07:01:03.567Z</time></trkpt><trkpt lat="43.0942441" lon="12.27163"><ele>219.66666666666666</ele><time>2026-03-29T07:01:05.565Z</time></trkpt><trkpt lat="43.0942302" lon="12.2715137"><ele>219.83333333333331</ele><time>2026-03-29T07:01:07.566Z</time></trkpt><trkpt lat="43.0942163" lon="12.2714003"><ele>220.0</ele><time>2026-03-29T07:01:09.568Z</time></trkpt><trkpt lat="43.0941961" lon="12.2712921"><ele>219.99999999999997</ele><time>2026-03-29T07:01:11.564Z</time></trkpt><trkpt lat="43.094175" lon="12.271184"><ele>220.0</ele><time>2026-03-29T07:01:13.563Z</time></trkpt><trkpt lat="43.0941513" lon="12.2710735"><ele>220.0</ele><time>2026-03-29T07:01:15.577Z</time></trkpt><trkpt lat="43.0941313" lon="12.2709602"><ele>220.0</ele><time>2026-03-29T07:01:17.566Z</time></trkpt><trkpt lat="43.0941118" lon="12.2708503"><ele>219.99999999999997</ele><time>2026-03-29T07:01:19.562Z</time></trkpt><trkpt lat="43.0940816" lon="12.2707419"><ele>220.0</ele><time>2026-03-29T07:01:21.562Z</time></trkpt><trkpt lat="43.0940543" lon="12.2706277"><ele>219.99999999999997</ele><time>2026-03-29T07:01:23.562Z</time></trkpt><trkpt lat="43.0940284" lon="12.2705158"><ele>220.0</ele><time>2026-03-29T07:01:25.671Z</time></trkpt><trkpt lat="43.0939994" lon="12.2704026"><ele>220.0</ele><time>2026-03-29T07:01:27.563Z</time></trkpt><trkpt lat="43.0939696" lon="12.270292"><ele>220.0</ele><time>2026-03-29T07:01:29.57Z</time></trkpt><trkpt lat="43.0939407" lon="12.2701757"><ele>219.99999999999997</ele><time>2026-03-29T07:01:31.548Z</time></trkpt><trkpt lat="43.0939251" lon="12.2700616"><ele>220.0</ele><time>2026-03-29T07:01:33.549Z</time></trkpt><trkpt lat="43.0939111" lon="12.2699583"><ele>219.99999999999997</ele><time>2026-03-29T07:01:35.545Z</time></trkpt><trkpt lat="43.0938859" lon="12.2698012"><ele>220.0</ele><time>2026-03-29T07:01:38.557Z</time></trkpt><trkpt lat="43.0938633" lon="12.2696953"><ele>220.0</ele><time>2026-03-29T07:01:40.552Z</time></trkpt><trkpt lat="43.0938396" lon="12.2695922"><ele>220.0</ele><time>2026-03-29T07:01:42.546Z</time></trkpt><trkpt lat="43.0938111" lon="12.2694932"><ele>219.99999999999997</ele><time>2026-03-29T07:01:44.556Z</time></trkpt><trkpt lat="43.0937837" lon="12.2694023"><ele>220.0</ele><time>2026-03-29T07:01:46.548Z</time></trkpt><trkpt lat="43.0937604" lon="12.2693141"><ele>220.16666666666666</ele><time>2026-03-29T07:01:48.554Z</time></trkpt><trkpt lat="43.0937343" lon="12.2692181"><ele>220.33333333333331</ele><time>2026-03-29T07:01:50.546Z</time></trkpt><trkpt lat="43.0937049" lon="12.2691105"><ele>220.5</ele><time>2026-03-29T07:01:52.571Z</time></trkpt><trkpt lat="43.0936806" lon="12.2689941"><ele>220.66666666666669</ele><time>2026-03-29T07:01:54.547Z</time></trkpt><trkpt lat="43.0936625" lon="12.2688761"><ele>220.83333333333334</ele><time>2026-03-29T07:01:56.557Z</time></trkpt><trkpt lat="43.0936481" lon="12.268764"><ele>221.0</ele><time>2026-03-29T07:01:58.566Z</time></trkpt><trkpt lat="43.0935802" lon="12.2688081"><ele>221.00000000000003</ele><time>2026-03-29T07:02:03.551Z</time></trkpt><trkpt lat="43.0935272" lon="12.2688758"><ele>221.0</ele><time>2026-03-29T07:02:05.562Z</time></trkpt><trkpt lat="43.0934562" lon="12.268919"><ele>221.0</ele><time>2026-03-29T07:02:07.559Z</time></trkpt><trkpt lat="43.0933787" lon="12.2689423"><ele>221.0</ele><time>2026-03-29T07:02:09.555Z</time></trkpt><trkpt lat="43.0932972" lon="12.2689554"><ele>221.00000000000003</ele><time>2026-03-29T07:02:11.56Z</time></trkpt><trkpt lat="43.0932084" lon="12.2689625"><ele>221.0</ele><time>2026-03-29T07:02:13.553Z</time></trkpt><trkpt lat="43.0931192" lon="12.2689653"><ele>221.33333333333334</ele><time>2026-03-29T07:02:15.566Z</time></trkpt><trkpt lat="43.0930325" lon="12.2689627"><ele>221.66666666666669</ele><time>2026-03-29T07:02:17.558Z</time></trkpt><trkpt lat="43.0929479" lon="12.2689574"><ele>222.0</ele><time>2026-03-29T07:02:19.545Z</time></trkpt><trkpt lat="43.0928693" lon="12.2689515"><ele>222.33333333333331</ele><time>2026-03-29T07:02:21.571Z</time></trkpt><trkpt lat="43.0927924" lon="12.2689407"><ele>222.66666666666666</ele><time>2026-03-29T07:02:23.564Z</time></trkpt><trkpt lat="43.0927092" lon="12.2689239"><ele>223.0</ele><time>2026-03-29T07:02:25.579Z</time></trkpt><trkpt lat="43.0926296" lon="12.2689135"><ele>224.99999999999997</ele><time>2026-03-29T07:02:27.558Z</time></trkpt><trkpt lat="43.0925075" lon="12.2689118"><ele>227.0</ele><time>2026-03-29T07:02:30.66Z</time></trkpt><trkpt lat="43.0924307" lon="12.2689036"><ele>229.0</ele><time>2026-03-29T07:02:32.565Z</time></trkpt><trkpt lat="43.092351" lon="12.2688943"><ele>231.0</ele><time>2026-03-29T07:02:34.562Z</time></trkpt><trkpt lat="43.0922731" lon="12.2688817"><ele>232.99999999999997</ele><time>2026-03-29T07:02:36.562Z</time></trkpt><trkpt lat="43.0922021" lon="12.2688716"><ele>235.0</ele><time>2026-03-29T07:02:38.561Z</time></trkpt><trkpt lat="43.0921335" lon="12.2688619"><ele>235.0</ele><time>2026-03-29T07:02:40.554Z</time></trkpt><trkpt lat="43.0920633" lon="12.2688442"><ele>234.99999999999997</ele><time>2026-03-29T07:02:42.668Z</time></trkpt><trkpt lat="43.0919946" lon="12.2688327"><ele>235.0</ele><time>2026-03-29T07:02:44.563Z</time></trkpt><trkpt lat="43.091923" lon="12.2688212"><ele>235.0</ele><time>2026-03-29T07:02:46.565Z</time></trkpt><trkpt lat="43.0918518" lon="12.2688113"><ele>234.99999999999997</ele><time>2026-03-29T07:02:48.562Z</time></trkpt><trkpt lat="43.0917816" lon="12.2687991"><ele>235.0</ele><time>2026-03-29T07:02:50.558Z</time></trkpt><trkpt lat="43.0917143" lon="12.2687827"><ele>235.0</ele><time>2026-03-29T07:02:52.567Z</time></trkpt><trkpt lat="43.0916442" lon="12.2687689"><ele>233.83333333333331</ele><time>2026-03-29T07:02:54.56Z</time></trkpt><trkpt lat="43.0915732" lon="12.2687754"><ele>232.66666666666666</ele><time>2026-03-29T07:02:56.571Z</time></trkpt><trkpt lat="43.0914994" lon="12.2687892"><ele>231.5</ele><time>2026-03-29T07:02:58.559Z</time></trkpt><trkpt lat="43.0914206" lon="12.2688083"><ele>230.33333333333331</ele><time>2026-03-29T07:03:00.57Z</time></trkpt><trkpt lat="43.0913303" lon="12.2688425"><ele>229.16666666666666</ele><time>2026-03-29T07:03:02.557Z</time></trkpt><trkpt lat="43.0912256" lon="12.2688959"><ele>228.0</ele><time>2026-03-29T07:03:04.563Z</time></trkpt><trkpt lat="43.0911135" lon="12.2689381"><ele>227.14285714285714</ele><time>2026-03-29T07:03:06.568Z</time></trkpt><trkpt lat="43.0910527" lon="12.2689654"><ele>226.28571428571428</ele><time>2026-03-29T07:03:07.562Z</time></trkpt><trkpt lat="43.0909875" lon="12.2690003"><ele>225.42857142857142</ele><time>2026-03-29T07:03:08.556Z</time></trkpt><trkpt lat="43.0909236" lon="12.2690293"><ele>224.57142857142856</ele><time>2026-03-29T07:03:09.566Z</time></trkpt><trkpt lat="43.0908572" lon="12.2690553"><ele>223.71428571428572</ele><time>2026-03-29T07:03:10.557Z</time></trkpt><trkpt lat="43.0907933" lon="12.2690794"><ele>222.85714285714283</ele><time>2026-03-29T07:03:11.557Z</time></trkpt><trkpt lat="43.0907287" lon="12.2691148"><ele>222.0</ele><time>2026-03-29T07:03:12.572Z</time></trkpt><trkpt lat="43.0906656" lon="12.2691627"><ele>221.57142857142856</ele><time>2026-03-29T07:03:13.562Z</time></trkpt><trkpt lat="43.0906028" lon="12.2692119"><ele>221.14285714285717</ele><time>2026-03-29T07:03:14.559Z</time></trkpt><trkpt lat="43.0905444" lon="12.2692529"><ele>220.71428571428572</ele><time>2026-03-29T07:03:15.561Z</time></trkpt><trkpt lat="43.0904899" lon="12.2692996"><ele>220.28571428571428</ele><time>2026-03-29T07:03:16.562Z</time></trkpt><trkpt lat="43.0904354" lon="12.2693454"><ele>219.85714285714283</ele><time>2026-03-29T07:03:17.562Z</time></trkpt><trkpt lat="43.0903749" lon="12.2693946"><ele>219.42857142857144</ele><time>2026-03-29T07:03:18.563Z</time></trkpt><trkpt lat="43.0903173" lon="12.269438"><ele>219.0</ele><time>2026-03-29T07:03:19.56Z</time></trkpt><trkpt lat="43.090264" lon="12.2694848"><ele>219.0</ele><time>2026-03-29T07:03:20.567Z</time></trkpt><trkpt lat="43.0901689" lon="12.2695759"><ele>218.99999999999997</ele><time>2026-03-29T07:03:22.543Z</time></trkpt><trkpt lat="43.0900798" lon="12.269645"><ele>218.99999999999997</ele><time>2026-03-29T07:03:24.559Z</time></trkpt><trkpt lat="43.0900001" lon="12.269641"><ele>219.0</ele><time>2026-03-29T07:03:26.559Z</time></trkpt><trkpt lat="43.089945" lon="12.2695473"><ele>219.0</ele><time>2026-03-29T07:03:28.548Z</time></trkpt><trkpt lat="43.0898928" lon="12.2694594"><ele>219.0</ele><time>2026-03-29T07:03:30.554Z</time></trkpt><trkpt lat="43.089843" lon="12.2693696"><ele>219.0</ele><time>2026-03-29T07:03:32.552Z</time></trkpt><trkpt lat="43.0897925" lon="12.2692763"><ele>219.0</ele><time>2026-03-29T07:03:34.547Z</time></trkpt><trkpt lat="43.0897448" lon="12.2691763"><ele>219.0</ele><time>2026-03-29T07:03:36.553Z</time></trkpt><trkpt lat="43.0896953" lon="12.2690804"><ele>219.0</ele><time>2026-03-29T07:03:38.551Z</time></trkpt><trkpt lat="43.0896447" lon="12.2689811"><ele>219.0</ele><time>2026-03-29T07:03:40.561Z</time></trkpt><trkpt lat="43.0896026" lon="12.2688802"><ele>219.0</ele><time>2026-03-29T07:03:42.536Z</time></trkpt><trkpt lat="43.089575" lon="12.2687734"><ele>219.0</ele><time>2026-03-29T07:03:44.558Z</time></trkpt><trkpt lat="43.0895569" lon="12.26866"><ele>219.0</ele><time>2026-03-29T07:03:46.547Z</time></trkpt><trkpt lat="43.0895493" lon="12.268546"><ele>219.0</ele><time>2026-03-29T07:03:48.546Z</time></trkpt><trkpt lat="43.0895443" lon="12.2684326"><ele>219.0</ele><time>2026-03-29T07:03:50.555Z</time></trkpt><trkpt lat="43.0895346" lon="12.2683173"><ele>219.0</ele><time>2026-03-29T07:03:52.643Z</time></trkpt><trkpt lat="43.0895151" lon="12.2682031"><ele>218.83333333333334</ele><time>2026-03-29T07:03:54.571Z</time></trkpt><trkpt lat="43.0894891" lon="12.2680936"><ele>218.66666666666669</ele><time>2026-03-29T07:03:56.572Z</time></trkpt><trkpt lat="43.0894537" lon="12.2679896"><ele>218.5</ele><time>2026-03-29T07:03:58.564Z</time></trkpt><trkpt lat="43.0894145" lon="12.2678836"><ele>218.33333333333334</ele><time>2026-03-29T07:04:00.547Z</time></trkpt><trkpt lat="43.0893738" lon="12.2677795"><ele>218.16666666666669</ele><time>2026-03-29T07:04:02.581Z</time></trkpt><trkpt lat="43.0893355" lon="12.267676"><ele>218.0</ele><time>2026-03-29T07:04:04.565Z</time></trkpt><trkpt lat="43.0893002" lon="12.26757"><ele>218.00000000000003</ele><time>2026-03-29T07:04:06.569Z</time></trkpt><trkpt lat="43.0892661" lon="12.2674603"><ele>218.0</ele><time>2026-03-29T07:04:08.57Z</time></trkpt><trkpt lat="43.08924" lon="12.2673465"><ele>218.0</ele><time>2026-03-29T07:04:10.559Z</time></trkpt><trkpt lat="43.0892226" lon="12.2672326"><ele>218.0</ele><time>2026-03-29T07:04:12.562Z</time></trkpt><trkpt lat="43.0892089" lon="12.267118"><ele>218.00000000000003</ele><time>2026-03-29T07:04:14.566Z</time></trkpt><trkpt lat="43.089195" lon="12.2669987"><ele>218.0</ele><time>2026-03-29T07:04:16.553Z</time></trkpt><trkpt lat="43.0891819" lon="12.2668787"><ele>218.00000000000003</ele><time>2026-03-29T07:04:18.562Z</time></trkpt><trkpt lat="43.089167" lon="12.2667615"><ele>218.0</ele><time>2026-03-29T07:04:20.559Z</time></trkpt><trkpt lat="43.0891542" lon="12.2666464"><ele>218.0</ele><time>2026-03-29T07:04:22.562Z</time></trkpt><trkpt lat="43.08914" lon="12.266533"><ele>218.0</ele><time>2026-03-29T07:04:24.574Z</time></trkpt><trkpt lat="43.0891255" lon="12.2664195"><ele>218.00000000000003</ele><time>2026-03-29T07:04:26.549Z</time></trkpt><trkpt lat="43.0891074" lon="12.2663069"><ele>218.0</ele><time>2026-03-29T07:04:28.67Z</time></trkpt><trkpt lat="43.0890813" lon="12.2661983"><ele>218.00000000000003</ele><time>2026-03-29T07:04:30.558Z</time></trkpt><trkpt lat="43.0890491" lon="12.2660918"><ele>218.0</ele><time>2026-03-29T07:04:32.563Z</time></trkpt><trkpt lat="43.089012" lon="12.2659913"><ele>218.0</ele><time>2026-03-29T07:04:34.545Z</time></trkpt><trkpt lat="43.0889705" lon="12.2658948"><ele>218.0</ele><time>2026-03-29T07:04:36.554Z</time></trkpt><trkpt lat="43.0889279" lon="12.2658018"><ele>218.00000000000003</ele><time>2026-03-29T07:04:38.57Z</time></trkpt><trkpt lat="43.088889" lon="12.2657059"><ele>218.0</ele><time>2026-03-29T07:04:40.547Z</time></trkpt><trkpt lat="43.0888507" lon="12.2656099"><ele>218.16666666666669</ele><time>2026-03-29T07:04:42.556Z</time></trkpt><trkpt lat="43.0888083" lon="12.2655121"><ele>218.33333333333334</ele><time>2026-03-29T07:04:44.562Z</time></trkpt><trkpt lat="43.0887645" lon="12.2654153"><ele>218.5</ele><time>2026-03-29T07:04:46.559Z</time></trkpt><trkpt lat="43.0887229" lon="12.2653173"><ele>218.66666666666669</ele><time>2026-03-29T07:04:48.566Z</time></trkpt><trkpt lat="43.0886847" lon="12.2652158"><ele>218.83333333333334</ele><time>2026-03-29T07:04:50.564Z</time></trkpt><trkpt lat="43.0886581" lon="12.2651078"><ele>219.0</ele><time>2026-03-29T07:04:52.554Z</time></trkpt><trkpt lat="43.0886325" lon="12.2649997"><ele>219.0</ele><time>2026-03-29T07:04:54.558Z</time></trkpt><trkpt lat="43.0886124" lon="12.2648925"><ele>219.0</ele><time>2026-03-29T07:04:56.56Z</time></trkpt><trkpt lat="43.0886037" lon="12.2647831"><ele>219.0</ele><time>2026-03-29T07:04:58.558Z</time></trkpt><trkpt lat="43.0886015" lon="12.2646734"><ele>219.0</ele><time>2026-03-29T07:05:00.547Z</time></trkpt><trkpt lat="43.0886077" lon="12.2645618"><ele>219.0</ele><time>2026-03-29T07:05:02.55Z</time></trkpt><trkpt lat="43.0886163" lon="12.2644525"><ele>219.0</ele><time>2026-03-29T07:05:04.545Z</time></trkpt><trkpt lat="43.0886271" lon="12.2643458"><ele>219.0</ele><time>2026-03-29T07:05:06.556Z</time></trkpt><trkpt lat="43.0886399" lon="12.2642417"><ele>219.0</ele><time>2026-03-29T07:05:08.548Z</time></trkpt><trkpt lat="43.0886559" lon="12.2641361"><ele>219.0</ele><time>2026-03-29T07:05:10.546Z</time></trkpt><trkpt lat="43.0886728" lon="12.2640315"><ele>219.0</ele><time>2026-03-29T07:05:12.548Z</time></trkpt><trkpt lat="43.0886879" lon="12.2639282"><ele>219.0</ele><time>2026-03-29T07:05:14.545Z</time></trkpt><trkpt lat="43.0887072" lon="12.2638262"><ele>219.0</ele><time>2026-03-29T07:05:16.551Z</time></trkpt><trkpt lat="43.0887266" lon="12.2637246"><ele>219.33333333333334</ele><time>2026-03-29T07:05:18.55Z</time></trkpt><trkpt lat="43.088743" lon="12.2636264"><ele>219.66666666666669</ele><time>2026-03-29T07:05:20.553Z</time></trkpt><trkpt lat="43.0887609" lon="12.2635322"><ele>220.0</ele><time>2026-03-29T07:05:22.554Z</time></trkpt><trkpt lat="43.088781" lon="12.26344"><ele>220.33333333333334</ele><time>2026-03-29T07:05:24.543Z</time></trkpt><trkpt lat="43.0887989" lon="12.263351"><ele>220.66666666666669</ele><time>2026-03-29T07:05:26.547Z</time></trkpt><trkpt lat="43.0888212" lon="12.2632223"><ele>221.0</ele><time>2026-03-29T07:05:29.546Z</time></trkpt><trkpt lat="43.0888419" lon="12.2630969"><ele>221.71428571428572</ele><time>2026-03-29T07:05:32.646Z</time></trkpt><trkpt lat="43.0888573" lon="12.2630117"><ele>222.42857142857144</ele><time>2026-03-29T07:05:34.547Z</time></trkpt><trkpt lat="43.0888858" lon="12.2628921"><ele>223.14285714285717</ele><time>2026-03-29T07:05:37.549Z</time></trkpt><trkpt lat="43.0889193" lon="12.2628156"><ele>223.85714285714286</ele><time>2026-03-29T07:05:39.566Z</time></trkpt><trkpt lat="43.0889559" lon="12.2627342"><ele>224.57142857142856</ele><time>2026-03-29T07:05:41.555Z</time></trkpt><trkpt lat="43.0889869" lon="12.262614"><ele>225.2857142857143</ele><time>2026-03-29T07:05:44.563Z</time></trkpt><trkpt lat="43.0890127" lon="12.2625348"><ele>226.0</ele><time>2026-03-29T07:05:46.564Z</time></trkpt><trkpt lat="43.0890383" lon="12.2624519"><ele>225.99999999999997</ele><time>2026-03-29T07:05:48.565Z</time></trkpt><trkpt lat="43.0890856" lon="12.2622892"><ele>226.0</ele><time>2026-03-29T07:05:52.558Z</time></trkpt><trkpt lat="43.0890943" lon="12.2622018"><ele>226.0</ele><time>2026-03-29T07:05:54.555Z</time></trkpt><trkpt lat="43.0890928" lon="12.26211"><ele>226.0</ele><time>2026-03-29T07:05:56.559Z</time></trkpt><trkpt lat="43.0890846" lon="12.2620161"><ele>225.99999999999997</ele><time>2026-03-29T07:05:58.563Z</time></trkpt><trkpt lat="43.0890622" lon="12.2619237"><ele>226.0</ele><time>2026-03-29T07:06:00.568Z</time></trkpt><trkpt lat="43.0890294" lon="12.2618362"><ele>226.14285714285717</ele><time>2026-03-29T07:06:02.565Z</time></trkpt><trkpt lat="43.0889979" lon="12.261749"><ele>226.28571428571428</ele><time>2026-03-29T07:06:04.564Z</time></trkpt><trkpt lat="43.0889719" lon="12.2616604"><ele>226.42857142857144</ele><time>2026-03-29T07:06:06.568Z</time></trkpt><trkpt lat="43.0889478" lon="12.2615763"><ele>226.57142857142858</ele><time>2026-03-29T07:06:08.559Z</time></trkpt><trkpt lat="43.0889237" lon="12.2614934"><ele>226.71428571428572</ele><time>2026-03-29T07:06:10.57Z</time></trkpt><trkpt lat="43.0888866" lon="12.2613741"><ele>226.85714285714286</ele><time>2026-03-29T07:06:13.567Z</time></trkpt><trkpt lat="43.0888612" lon="12.2612898"><ele>227.0</ele><time>2026-03-29T07:06:15.581Z</time></trkpt><trkpt lat="43.0888384" lon="12.2612035"><ele>227.57142857142858</ele><time>2026-03-29T07:06:17.57Z</time></trkpt><trkpt lat="43.0888191" lon="12.2611126"><ele>228.14285714285717</ele><time>2026-03-29T07:06:19.562Z</time></trkpt><trkpt lat="43.0888065" lon="12.2610144"><ele>228.71428571428572</ele><time>2026-03-29T07:06:21.57Z</time></trkpt><trkpt lat="43.0887848" lon="12.2609111"><ele>229.28571428571428</ele><time>2026-03-29T07:06:23.578Z</time></trkpt><trkpt lat="43.0887659" lon="12.2608255"><ele>229.85714285714286</ele><time>2026-03-29T07:06:26.569Z</time></trkpt><trkpt lat="43.0887089" lon="12.2607828"><ele>230.42857142857144</ele><time>2026-03-29T07:06:30.565Z</time></trkpt><trkpt lat="43.0886411" lon="12.2607991"><ele>231.0</ele><time>2026-03-29T07:06:33.565Z</time></trkpt><trkpt lat="43.088568" lon="12.2608242"><ele>231.0</ele><time>2026-03-29T07:06:36.563Z</time></trkpt><trkpt lat="43.0884913" lon="12.2608451"><ele>231.0</ele><time>2026-03-29T07:06:39.566Z</time></trkpt><trkpt lat="43.0884059" lon="12.2608886"><ele>231.0</ele><time>2026-03-29T07:06:42.563Z</time></trkpt><trkpt lat="43.0883259" lon="12.2609249"><ele>231.0</ele><time>2026-03-29T07:06:45.559Z</time></trkpt><trkpt lat="43.0882519" lon="12.2609587"><ele>231.0</ele><time>2026-03-29T07:06:48.562Z</time></trkpt><trkpt lat="43.0881838" lon="12.260987"><ele>231.0</ele><time>2026-03-29T07:06:51.558Z</time></trkpt><trkpt lat="43.0881026" lon="12.2609881"><ele>232.14285714285714</ele><time>2026-03-29T07:06:54.559Z</time></trkpt><trkpt lat="43.0880354" lon="12.2609454"><ele>233.28571428571428</ele><time>2026-03-29T07:06:57.549Z</time></trkpt><trkpt lat="43.0879903" lon="12.2608679"><ele>234.42857142857144</ele><time>2026-03-29T07:07:00.544Z</time></trkpt><trkpt lat="43.0879471" lon="12.2607719"><ele>235.57142857142858</ele><time>2026-03-29T07:07:04.55Z</time></trkpt><trkpt lat="43.08791" lon="12.2606779"><ele>236.71428571428572</ele><time>2026-03-29T07:07:08.57Z</time></trkpt><trkpt lat="43.0878645" lon="12.2606149"><ele>237.8571428571429</ele><time>2026-03-29T07:07:11.55Z</time></trkpt><trkpt lat="43.087833" lon="12.2605353"><ele>239.00000000000003</ele><time>2026-03-29T07:07:14.568Z</time></trkpt><trkpt lat="43.0878059" lon="12.2604465"><ele>240.50000000000003</ele><time>2026-03-29T07:07:17.569Z</time></trkpt><trkpt lat="43.0877748" lon="12.2603657"><ele>242.0</ele><time>2026-03-29T07:07:20.572Z</time></trkpt><trkpt lat="43.087725" lon="12.2603056"><ele>243.5</ele><time>2026-03-29T07:07:23.56Z</time></trkpt><trkpt lat="43.0876605" lon="12.2602723"><ele>245.0</ele><time>2026-03-29T07:07:26.566Z</time></trkpt><trkpt lat="43.0875927" lon="12.2602152"><ele>246.50000000000003</ele><time>2026-03-29T07:07:29.565Z</time></trkpt><trkpt lat="43.0875191" lon="12.260137"><ele>248.0</ele><time>2026-03-29T07:07:32.562Z</time></trkpt><trkpt lat="43.0874714" lon="12.2600575"><ele>248.42857142857144</ele><time>2026-03-29T07:07:36.564Z</time></trkpt><trkpt lat="43.0874064" lon="12.2600484"><ele>248.8571428571429</ele><time>2026-03-29T07:08:52.652Z</time></trkpt><trkpt lat="43.087338" lon="12.2600516"><ele>249.28571428571428</ele><time>2026-03-29T07:08:55.547Z</time></trkpt><trkpt lat="43.0872747" lon="12.2600085"><ele>249.71428571428572</ele><time>2026-03-29T07:08:58.541Z</time></trkpt><trkpt lat="43.0871981" lon="12.2599826"><ele>250.14285714285714</ele><time>2026-03-29T07:09:01.543Z</time></trkpt><trkpt lat="43.0871157" lon="12.2599707"><ele>250.57142857142856</ele><time>2026-03-29T07:09:04.537Z</time></trkpt><trkpt lat="43.0870554" lon="12.2599451"><ele>250.99999999999997</ele><time>2026-03-29T07:09:07.545Z</time></trkpt><trkpt lat="43.0869646" lon="12.2599001"><ele>250.99999999999997</ele><time>2026-03-29T07:09:12.549Z</time></trkpt><trkpt lat="43.0868925" lon="12.2598628"><ele>251.0</ele><time>2026-03-29T07:09:16.548Z</time></trkpt><trkpt lat="43.0868332" lon="12.2598285"><ele>250.99999999999997</ele><time>2026-03-29T07:09:20.542Z</time></trkpt><trkpt lat="43.0867669" lon="12.2597883"><ele>250.99999999999997</ele><time>2026-03-29T07:09:25.552Z</time></trkpt><trkpt lat="43.0866935" lon="12.259769"><ele>251.0</ele><time>2026-03-29T07:09:29.557Z</time></trkpt><trkpt lat="43.0866242" lon="12.2597389"><ele>250.99999999999997</ele><time>2026-03-29T07:09:33.548Z</time></trkpt><trkpt lat="43.0865537" lon="12.2597105"><ele>250.99999999999997</ele><time>2026-03-29T07:09:37.545Z</time></trkpt><trkpt lat="43.0864848" lon="12.2596833"><ele>253.50000000000003</ele><time>2026-03-29T07:09:41.569Z</time></trkpt><trkpt lat="43.0864201" lon="12.2596545"><ele>256.0</ele><time>2026-03-29T07:09:45.564Z</time></trkpt><trkpt lat="43.0863304" lon="12.2596362"><ele>258.5</ele><time>2026-03-29T07:09:49.566Z</time></trkpt><trkpt lat="43.0862534" lon="12.2596083"><ele>261.0</ele><time>2026-03-29T07:09:53.552Z</time></trkpt><trkpt lat="43.0861911" lon="12.259584"><ele>263.5</ele><time>2026-03-29T07:09:56.546Z</time></trkpt><trkpt lat="43.0861159" lon="12.2595475"><ele>266.0</ele><time>2026-03-29T07:10:00.549Z</time></trkpt><trkpt lat="43.0860388" lon="12.2595234"><ele>266.0</ele><time>2026-03-29T07:10:04.564Z</time></trkpt><trkpt lat="43.0859588" lon="12.2594934"><ele>266.0</ele><time>2026-03-29T07:10:08.569Z</time></trkpt><trkpt lat="43.0858669" lon="12.2594467"><ele>266.0</ele><time>2026-03-29T07:10:13.571Z</time></trkpt><trkpt lat="43.0857974" lon="12.259406"><ele>266.0</ele><time>2026-03-29T07:10:17.572Z</time></trkpt><trkpt lat="43.0857253" lon="12.2593478"><ele>266.0</ele><time>2026-03-29T07:10:21.569Z</time></trkpt><trkpt lat="43.0856663" lon="12.2592994"><ele>266.0</ele><time>2026-03-29T07:10:24.571Z</time></trkpt><trkpt lat="43.0856059" lon="12.2592483"><ele>265.0</ele><time>2026-03-29T07:10:27.567Z</time></trkpt><trkpt lat="43.0855484" lon="12.2591893"><ele>264.0</ele><time>2026-03-29T07:10:30.574Z</time></trkpt><trkpt lat="43.0854931" lon="12.2591235"><ele>263.0</ele><time>2026-03-29T07:10:33.568Z</time></trkpt><trkpt lat="43.0854284" lon="12.259059"><ele>262.0</ele><time>2026-03-29T07:10:36.576Z</time></trkpt><trkpt lat="43.0853624" lon="12.259012"><ele>261.0</ele><time>2026-03-29T07:10:39.562Z</time></trkpt><trkpt lat="43.085299" lon="12.2589604"><ele>260.0</ele><time>2026-03-29T07:10:42.569Z</time></trkpt><trkpt lat="43.0852428" lon="12.2589064"><ele>259.0</ele><time>2026-03-29T07:10:45.571Z</time></trkpt><trkpt lat="43.0851884" lon="12.2588449"><ele>259.14285714285717</ele><time>2026-03-29T07:10:48.576Z</time></trkpt><trkpt lat="43.085137" lon="12.2587864"><ele>259.2857142857143</ele><time>2026-03-29T07:10:51.565Z</time></trkpt><trkpt lat="43.0850863" lon="12.2587043"><ele>259.42857142857144</ele><time>2026-03-29T07:10:55.562Z</time></trkpt><trkpt lat="43.0850371" lon="12.2586146"><ele>259.57142857142856</ele><time>2026-03-29T07:10:59.578Z</time></trkpt><trkpt lat="43.0849817" lon="12.2585599"><ele>259.7142857142857</ele><time>2026-03-29T07:11:02.568Z</time></trkpt><trkpt lat="43.0849308" lon="12.2585029"><ele>259.8571428571429</ele><time>2026-03-29T07:11:05.57Z</time></trkpt><trkpt lat="43.0848857" lon="12.2584407"><ele>260.0</ele><time>2026-03-29T07:11:08.57Z</time></trkpt><trkpt lat="43.0848545" lon="12.258337"><ele>260.00000000000006</ele><time>2026-03-29T07:11:12.573Z</time></trkpt><trkpt lat="43.0848199" lon="12.2582354"><ele>260.0</ele><time>2026-03-29T07:11:16.563Z</time></trkpt><trkpt lat="43.0847924" lon="12.2581533"><ele>260.0</ele><time>2026-03-29T07:11:19.548Z</time></trkpt><trkpt lat="43.08477" lon="12.2580605"><ele>260.0</ele><time>2026-03-29T07:11:22.565Z</time></trkpt><trkpt lat="43.0847606" lon="12.2579644"><ele>260.0</ele><time>2026-03-29T07:11:25.562Z</time></trkpt><trkpt lat="43.0847583" lon="12.257865"><ele>260.00000000000006</ele><time>2026-03-29T07:11:28.568Z</time></trkpt><trkpt lat="43.0847578" lon="12.2577712"><ele>260.0</ele><time>2026-03-29T07:11:31.56Z</time></trkpt><trkpt lat="43.0847514" lon="12.2576759"><ele>260.8571428571429</ele><time>2026-03-29T07:11:34.554Z</time></trkpt><trkpt lat="43.0847499" lon="12.2575754"><ele>261.7142857142857</ele><time>2026-03-29T07:11:37.543Z</time></trkpt><trkpt lat="43.0847289" lon="12.2574774"><ele>262.57142857142856</ele><time>2026-03-29T07:11:40.551Z</time></trkpt><trkpt lat="43.084696" lon="12.2573848"><ele>263.42857142857144</ele><time>2026-03-29T07:11:43.55Z</time></trkpt><trkpt lat="43.0846625" lon="12.257296"><ele>264.2857142857143</ele><time>2026-03-29T07:11:46.579Z</time></trkpt><trkpt lat="43.0846294" lon="12.2572087"><ele>265.14285714285717</ele><time>2026-03-29T07:11:49.546Z</time></trkpt><trkpt lat="43.0845983" lon="12.2571092"><ele>266.0</ele><time>2026-03-29T07:11:52.563Z</time></trkpt><trkpt lat="43.0845641" lon="12.2570104"><ele>268.0</ele><time>2026-03-29T07:11:55.547Z</time></trkpt><trkpt lat="43.0845261" lon="12.2569223"><ele>270.0</ele><time>2026-03-29T07:11:58.547Z</time></trkpt><trkpt lat="43.0844887" lon="12.2568369"><ele>272.0</ele><time>2026-03-29T07:12:01.546Z</time></trkpt><trkpt lat="43.0844299" lon="12.2567386"><ele>274.0</ele><time>2026-03-29T07:12:05.551Z</time></trkpt><trkpt lat="43.084382" lon="12.2566686"><ele>276.0</ele><time>2026-03-29T07:12:08.552Z</time></trkpt><trkpt lat="43.0843272" lon="12.2566064"><ele>278.0</ele><time>2026-03-29T07:12:11.547Z</time></trkpt><trkpt lat="43.0842768" lon="12.256546"><ele>280.0</ele><time>2026-03-29T07:12:14.568Z</time></trkpt><trkpt lat="43.0842304" lon="12.256483"><ele>280.42857142857144</ele><time>2026-03-29T07:12:17.546Z</time></trkpt><trkpt lat="43.084189" lon="12.2564143"><ele>280.8571428571429</ele><time>2026-03-29T07:12:20.555Z</time></trkpt><trkpt lat="43.084142" lon="12.2563444"><ele>281.2857142857143</ele><time>2026-03-29T07:12:23.578Z</time></trkpt><trkpt lat="43.0840958" lon="12.2562743"><ele>281.7142857142857</ele><time>2026-03-29T07:12:26.555Z</time></trkpt><trkpt lat="43.084049" lon="12.2562109"><ele>282.14285714285717</ele><time>2026-03-29T07:12:29.556Z</time></trkpt><trkpt lat="43.084005" lon="12.2561395"><ele>282.57142857142856</ele><time>2026-03-29T07:12:32.57Z</time></trkpt><trkpt lat="43.0839634" lon="12.2560653"><ele>283.0</ele><time>2026-03-29T07:12:35.571Z</time></trkpt><trkpt lat="43.0839178" lon="12.2559874"><ele>283.0</ele><time>2026-03-29T07:12:38.571Z</time></trkpt><trkpt lat="43.0838779" lon="12.2559019"><ele>283.0</ele><time>2026-03-29T07:12:41.567Z</time></trkpt><trkpt lat="43.0838351" lon="12.2558102"><ele>283.0</ele><time>2026-03-29T07:12:44.572Z</time></trkpt><trkpt lat="43.0838105" lon="12.2557173"><ele>283.0</ele><time>2026-03-29T07:12:47.562Z</time></trkpt><trkpt lat="43.083778" lon="12.2556177"><ele>283.0</ele><time>2026-03-29T07:12:50.568Z</time></trkpt><trkpt lat="43.0837203" lon="12.2555266"><ele>283.0</ele><time>2026-03-29T07:12:53.567Z</time></trkpt><trkpt lat="43.0836555" lon="12.2554462"><ele>285.16666666666663</ele><time>2026-03-29T07:12:56.558Z</time></trkpt><trkpt lat="43.0835785" lon="12.2553817"><ele>287.3333333333333</ele><time>2026-03-29T07:12:59.57Z</time></trkpt><trkpt lat="43.0835209" lon="12.2553455"><ele>289.5</ele><time>2026-03-29T07:13:01.558Z</time></trkpt><trkpt lat="43.0834378" lon="12.2552914"><ele>291.6666666666667</ele><time>2026-03-29T07:13:04.565Z</time></trkpt><trkpt lat="43.0833528" lon="12.2552477"><ele>293.83333333333337</ele><time>2026-03-29T07:13:07.566Z</time></trkpt><trkpt lat="43.0832909" lon="12.2552262"><ele>296.0</ele><time>2026-03-29T07:13:09.571Z</time></trkpt><trkpt lat="43.0832026" lon="12.255199"><ele>297.33333333333337</ele><time>2026-03-29T07:13:12.559Z</time></trkpt><trkpt lat="43.0831223" lon="12.2551795"><ele>298.6666666666667</ele><time>2026-03-29T07:13:15.572Z</time></trkpt><trkpt lat="43.0830438" lon="12.2551617"><ele>300.0</ele><time>2026-03-29T07:13:18.563Z</time></trkpt><trkpt lat="43.0829535" lon="12.2551533"><ele>301.3333333333333</ele><time>2026-03-29T07:13:21.568Z</time></trkpt><trkpt lat="43.0828678" lon="12.2551385"><ele>302.66666666666663</ele><time>2026-03-29T07:13:24.572Z</time></trkpt><trkpt lat="43.0827874" lon="12.2551366"><ele>304.0</ele><time>2026-03-29T07:13:27.566Z</time></trkpt><trkpt lat="43.082704" lon="12.2551338"><ele>304.0</ele><time>2026-03-29T07:13:30.57Z</time></trkpt><trkpt lat="43.0826208" lon="12.2551276"><ele>304.0</ele><time>2026-03-29T07:13:33.572Z</time></trkpt><trkpt lat="43.0825405" lon="12.2551278"><ele>304.0</ele><time>2026-03-29T07:13:36.571Z</time></trkpt><trkpt lat="43.0824583" lon="12.2551241"><ele>304.0</ele><time>2026-03-29T07:13:39.569Z</time></trkpt><trkpt lat="43.0823756" lon="12.2551217"><ele>304.0</ele><time>2026-03-29T07:13:42.568Z</time></trkpt><trkpt lat="43.0822945" lon="12.2551189"><ele>304.0</ele><time>2026-03-29T07:13:45.55Z</time></trkpt><trkpt lat="43.0822199" lon="12.2551172"><ele>303.8333333333333</ele><time>2026-03-29T07:13:48.551Z</time></trkpt><trkpt lat="43.0821315" lon="12.2551099"><ele>303.66666666666663</ele><time>2026-03-29T07:13:51.546Z</time></trkpt><trkpt lat="43.0820458" lon="12.2550891"><ele>303.5</ele><time>2026-03-29T07:13:54.549Z</time></trkpt><trkpt lat="43.0819668" lon="12.2550614"><ele>303.3333333333333</ele><time>2026-03-29T07:13:57.547Z</time></trkpt><trkpt lat="43.0818856" lon="12.2550264"><ele>303.1666666666667</ele><time>2026-03-29T07:14:00.557Z</time></trkpt><trkpt lat="43.0818119" lon="12.2549815"><ele>303.0</ele><time>2026-03-29T07:14:03.549Z</time></trkpt><trkpt lat="43.0817461" lon="12.2549248"><ele>303.0</ele><time>2026-03-29T07:14:06.554Z</time></trkpt><trkpt lat="43.0816783" lon="12.2548651"><ele>303.0</ele><time>2026-03-29T07:14:09.55Z</time></trkpt><trkpt lat="43.0816208" lon="12.2547892"><ele>303.0</ele><time>2026-03-29T07:14:12.554Z</time></trkpt><trkpt lat="43.0815645" lon="12.2547041"><ele>303.0</ele><time>2026-03-29T07:14:15.555Z</time></trkpt><trkpt lat="43.0815096" lon="12.2546196"><ele>303.0</ele><time>2026-03-29T07:14:18.578Z</time></trkpt><trkpt lat="43.0814498" lon="12.2545649"><ele>303.0</ele><time>2026-03-29T07:14:20.571Z</time></trkpt><trkpt lat="43.0814002" lon="12.2544598"><ele>303.3333333333333</ele><time>2026-03-29T07:14:23.569Z</time></trkpt><trkpt lat="43.0813536" lon="12.2543524"><ele>303.6666666666667</ele><time>2026-03-29T07:14:26.571Z</time></trkpt><trkpt lat="43.0813167" lon="12.2542717"><ele>304.0</ele><time>2026-03-29T07:14:28.544Z</time></trkpt><trkpt lat="43.0813013" lon="12.2541881"><ele>304.33333333333337</ele><time>2026-03-29T07:14:30.538Z</time></trkpt><trkpt lat="43.0812702" lon="12.2541046"><ele>304.6666666666667</ele><time>2026-03-29T07:14:32.549Z</time></trkpt><trkpt lat="43.0812384" lon="12.2540286"><ele>305.0</ele><time>2026-03-29T07:14:34.573Z</time></trkpt><trkpt lat="43.0812064" lon="12.253906"><ele>305.0</ele><time>2026-03-29T07:14:37.653Z</time></trkpt><trkpt lat="43.0811821" lon="12.2538224"><ele>305.0</ele><time>2026-03-29T07:14:39.564Z</time></trkpt><trkpt lat="43.0811556" lon="12.2537408"><ele>305.0</ele><time>2026-03-29T07:14:41.57Z</time></trkpt><trkpt lat="43.0811265" lon="12.2536617"><ele>305.0</ele><time>2026-03-29T07:14:43.567Z</time></trkpt><trkpt lat="43.0810952" lon="12.2535847"><ele>305.0</ele><time>2026-03-29T07:14:45.573Z</time></trkpt><trkpt lat="43.0810463" lon="12.2534783"><ele>305.0</ele><time>2026-03-29T07:14:48.569Z</time></trkpt><trkpt lat="43.081008" lon="12.2533734"><ele>305.0</ele><time>2026-03-29T07:14:51.564Z</time></trkpt><trkpt lat="43.0810272" lon="12.2532667"><ele>305.0</ele><time>2026-03-29T07:14:54.559Z</time></trkpt><trkpt lat="43.0811034" lon="12.2532551"><ele>305.0</ele><time>2026-03-29T07:14:57.573Z</time></trkpt><trkpt lat="43.0811828" lon="12.2532707"><ele>305.0</ele><time>2026-03-29T07:15:00.55Z</time></trkpt><trkpt lat="43.0812635" lon="12.2532794"><ele>305.0</ele><time>2026-03-29T07:15:03.561Z</time></trkpt><trkpt lat="43.0813461" lon="12.253247"><ele>305.0</ele><time>2026-03-29T07:15:06.551Z</time></trkpt><trkpt lat="43.081399" lon="12.2531992"><ele>305.0</ele><time>2026-03-29T07:15:08.56Z</time></trkpt><trkpt lat="43.0814485" lon="12.2531442"><ele>306.33333333333337</ele><time>2026-03-29T07:15:10.571Z</time></trkpt><trkpt lat="43.0815162" lon="12.2530515"><ele>307.6666666666667</ele><time>2026-03-29T07:15:13.549Z</time></trkpt><trkpt lat="43.0815438" lon="12.2529474"><ele>309.0</ele><time>2026-03-29T07:15:16.554Z</time></trkpt><trkpt lat="43.0815583" lon="12.2528461"><ele>310.3333333333333</ele><time>2026-03-29T07:15:18.573Z</time></trkpt><trkpt lat="43.0815696" lon="12.2527572"><ele>311.66666666666663</ele><time>2026-03-29T07:15:20.561Z</time></trkpt><trkpt lat="43.0815581" lon="12.2526397"><ele>313.0</ele><time>2026-03-29T07:15:22.557Z</time></trkpt><trkpt lat="43.0815485" lon="12.2525219"><ele>313.0</ele><time>2026-03-29T07:15:24.564Z</time></trkpt><trkpt lat="43.0815566" lon="12.2523891"><ele>313.0</ele><time>2026-03-29T07:15:26.558Z</time></trkpt><trkpt lat="43.0815452" lon="12.2522409"><ele>313.0</ele><time>2026-03-29T07:15:28.571Z</time></trkpt><trkpt lat="43.0815261" lon="12.2520566"><ele>313.0</ele><time>2026-03-29T07:15:30.569Z</time></trkpt><trkpt lat="43.0815157" lon="12.2519025"><ele>312.2</ele><time>2026-03-29T07:15:32.576Z</time></trkpt><trkpt lat="43.0815235" lon="12.2517387"><ele>311.4</ele><time>2026-03-29T07:15:34.569Z</time></trkpt><trkpt lat="43.0815745" lon="12.2515889"><ele>310.59999999999997</ele><time>2026-03-29T07:15:36.57Z</time></trkpt><trkpt lat="43.0816142" lon="12.2514683"><ele>309.8</ele><time>2026-03-29T07:15:38.567Z</time></trkpt><trkpt lat="43.0816798" lon="12.2513561"><ele>309.0</ele><time>2026-03-29T07:15:40.573Z</time></trkpt><trkpt lat="43.0817575" lon="12.2512905"><ele>310.3333333333333</ele><time>2026-03-29T07:15:42.569Z</time></trkpt><trkpt lat="43.0818203" lon="12.2512053"><ele>311.6666666666667</ele><time>2026-03-29T07:15:44.562Z</time></trkpt><trkpt lat="43.0818904" lon="12.2511312"><ele>313.0</ele><time>2026-03-29T07:15:47.559Z</time></trkpt><trkpt lat="43.0819634" lon="12.2510459"><ele>314.33333333333337</ele><time>2026-03-29T07:15:50.576Z</time></trkpt><trkpt lat="43.0820161" lon="12.2509673"><ele>315.6666666666667</ele><time>2026-03-29T07:15:52.562Z</time></trkpt><trkpt lat="43.082056" lon="12.2508785"><ele>317.0</ele><time>2026-03-29T07:15:54.566Z</time></trkpt><trkpt lat="43.0820776" lon="12.2507536"><ele>317.0</ele><time>2026-03-29T07:15:57.538Z</time></trkpt><trkpt lat="43.0820641" lon="12.2506668"><ele>317.0</ele><time>2026-03-29T07:15:59.566Z</time></trkpt><trkpt lat="43.0820425" lon="12.2505851"><ele>317.0</ele><time>2026-03-29T07:16:01.566Z</time></trkpt><trkpt lat="43.0820244" lon="12.2504958"><ele>317.0</ele><time>2026-03-29T07:16:03.568Z</time></trkpt><trkpt lat="43.0820054" lon="12.2503997"><ele>317.0</ele><time>2026-03-29T07:16:05.565Z</time></trkpt><trkpt lat="43.0819854" lon="12.2503054"><ele>317.0</ele><time>2026-03-29T07:16:07.571Z</time></trkpt><trkpt lat="43.0819609" lon="12.2502226"><ele>317.0</ele><time>2026-03-29T07:16:09.567Z</time></trkpt><trkpt lat="43.0819261" lon="12.2501503"><ele>317.1666666666667</ele><time>2026-03-29T07:16:11.555Z</time></trkpt><trkpt lat="43.0818709" lon="12.250086"><ele>317.33333333333337</ele><time>2026-03-29T07:16:14.57Z</time></trkpt><trkpt lat="43.0818315" lon="12.2499856"><ele>317.5</ele><time>2026-03-29T07:16:18.561Z</time></trkpt><trkpt lat="43.0817558" lon="12.2499108"><ele>317.6666666666667</ele><time>2026-03-29T07:16:21.565Z</time></trkpt><trkpt lat="43.0816962" lon="12.2498216"><ele>317.8333333333333</ele><time>2026-03-29T07:16:24.565Z</time></trkpt><trkpt lat="43.0816605" lon="12.2497243"><ele>318.0</ele><time>2026-03-29T07:16:27.564Z</time></trkpt><trkpt lat="43.0816598" lon="12.2496201"><ele>317.6666666666667</ele><time>2026-03-29T07:16:30.658Z</time></trkpt><trkpt lat="43.0816776" lon="12.2494968"><ele>317.3333333333333</ele><time>2026-03-29T07:16:33.561Z</time></trkpt><trkpt lat="43.0816931" lon="12.2493758"><ele>317.0</ele><time>2026-03-29T07:16:36.658Z</time></trkpt><trkpt lat="43.081679" lon="12.2492828"><ele>316.66666666666663</ele><time>2026-03-29T07:16:38.562Z</time></trkpt><trkpt lat="43.0816578" lon="12.2491913"><ele>316.3333333333333</ele><time>2026-03-29T07:16:40.563Z</time></trkpt><trkpt lat="43.0816265" lon="12.2490951"><ele>316.0</ele><time>2026-03-29T07:16:42.552Z</time></trkpt><trkpt lat="43.0815943" lon="12.2490053"><ele>315.28571428571433</ele><time>2026-03-29T07:16:44.565Z</time></trkpt><trkpt lat="43.081561" lon="12.2489161"><ele>314.57142857142856</ele><time>2026-03-29T07:16:46.567Z</time></trkpt><trkpt lat="43.0815485" lon="12.2488045"><ele>313.8571428571429</ele><time>2026-03-29T07:16:49.568Z</time></trkpt><trkpt lat="43.0815413" lon="12.2487165"><ele>313.14285714285717</ele><time>2026-03-29T07:16:52.567Z</time></trkpt><trkpt lat="43.0814994" lon="12.24865"><ele>312.42857142857144</ele><time>2026-03-29T07:16:55.568Z</time></trkpt><trkpt lat="43.0814835" lon="12.2485639"><ele>311.7142857142857</ele><time>2026-03-29T07:16:58.558Z</time></trkpt><trkpt lat="43.0815231" lon="12.2484793"><ele>311.0</ele><time>2026-03-29T07:17:00.555Z</time></trkpt><trkpt lat="43.0816184" lon="12.2483937"><ele>311.0</ele><time>2026-03-29T07:17:02.568Z</time></trkpt><trkpt lat="43.0816554" lon="12.2483086"><ele>311.0</ele><time>2026-03-29T07:17:04.561Z</time></trkpt><trkpt lat="43.0816726" lon="12.2481931"><ele>311.0</ele><time>2026-03-29T07:17:07.558Z</time></trkpt><trkpt lat="43.081684" lon="12.2480906"><ele>311.0</ele><time>2026-03-29T07:17:09.567Z</time></trkpt><trkpt lat="43.0817012" lon="12.2479845"><ele>311.0</ele><time>2026-03-29T07:17:11.551Z</time></trkpt><trkpt lat="43.0817043" lon="12.2478734"><ele>311.0</ele><time>2026-03-29T07:17:13.569Z</time></trkpt><trkpt lat="43.0817131" lon="12.2477469"><ele>311.25</ele><time>2026-03-29T07:17:15.575Z</time></trkpt><trkpt lat="43.0817798" lon="12.2475624"><ele>311.5</ele><time>2026-03-29T07:17:18.566Z</time></trkpt><trkpt lat="43.0817782" lon="12.2474184"><ele>311.75</ele><time>2026-03-29T07:17:20.568Z</time></trkpt><trkpt lat="43.0817989" lon="12.2472706"><ele>312.0</ele><time>2026-03-29T07:17:22.558Z</time></trkpt><trkpt lat="43.0817958" lon="12.2471407"><ele>310.5</ele><time>2026-03-29T07:17:24.568Z</time></trkpt><trkpt lat="43.0818236" lon="12.2470058"><ele>309.0</ele><time>2026-03-29T07:17:26.565Z</time></trkpt><trkpt lat="43.0818404" lon="12.2469185"><ele>307.5</ele><time>2026-03-29T07:17:28.557Z</time></trkpt><trkpt lat="43.0818289" lon="12.2467973"><ele>306.0</ele><time>2026-03-29T07:17:31.56Z</time></trkpt><trkpt lat="43.0818217" lon="12.2467101"><ele>304.5</ele><time>2026-03-29T07:17:33.57Z</time></trkpt><trkpt lat="43.0817811" lon="12.2465875"><ele>303.0</ele><time>2026-03-29T07:17:35.572Z</time></trkpt><trkpt lat="43.081721" lon="12.2464901"><ele>302.0</ele><time>2026-03-29T07:17:37.564Z</time></trkpt><trkpt lat="43.0816839" lon="12.2464157"><ele>301.0</ele><time>2026-03-29T07:17:39.566Z</time></trkpt><trkpt lat="43.0816205" lon="12.2463577"><ele>300.0</ele><time>2026-03-29T07:17:41.564Z</time></trkpt><trkpt lat="43.081554" lon="12.2463133"><ele>299.0</ele><time>2026-03-29T07:17:43.564Z</time></trkpt><trkpt lat="43.081487" lon="12.2462864"><ele>298.0</ele><time>2026-03-29T07:17:45.564Z</time></trkpt><trkpt lat="43.0814151" lon="12.2462697"><ele>297.0</ele><time>2026-03-29T07:17:47.559Z</time></trkpt><trkpt lat="43.0813439" lon="12.2462525"><ele>296.0</ele><time>2026-03-29T07:17:49.546Z</time></trkpt><trkpt lat="43.0812805" lon="12.2462331"><ele>296.0</ele><time>2026-03-29T07:17:51.561Z</time></trkpt><trkpt lat="43.0812172" lon="12.2462152"><ele>296.0</ele><time>2026-03-29T07:17:53.562Z</time></trkpt><trkpt lat="43.0811506" lon="12.2462022"><ele>296.0</ele><time>2026-03-29T07:17:55.559Z</time></trkpt><trkpt lat="43.081065" lon="12.2462033"><ele>296.0</ele><time>2026-03-29T07:17:58.572Z</time></trkpt><trkpt lat="43.0809975" lon="12.2462045"><ele>296.0</ele><time>2026-03-29T07:18:01.575Z</time></trkpt><trkpt lat="43.0809264" lon="12.2462131"><ele>296.0</ele><time>2026-03-29T07:18:04.564Z</time></trkpt><trkpt lat="43.0808599" lon="12.2462154"><ele>296.0</ele><time>2026-03-29T07:18:07.57Z</time></trkpt><trkpt lat="43.0807787" lon="12.2462125"><ele>295.1666666666667</ele><time>2026-03-29T07:18:11.566Z</time></trkpt><trkpt lat="43.0807084" lon="12.2462074"><ele>294.33333333333337</ele><time>2026-03-29T07:18:15.566Z</time></trkpt><trkpt lat="43.0806329" lon="12.2462163"><ele>293.5</ele><time>2026-03-29T07:18:19.562Z</time></trkpt><trkpt lat="43.080561" lon="12.2462494"><ele>292.6666666666667</ele><time>2026-03-29T07:18:23.55Z</time></trkpt><trkpt lat="43.080486" lon="12.2463059"><ele>291.8333333333333</ele><time>2026-03-29T07:18:27.549Z</time></trkpt><trkpt lat="43.0804186" lon="12.2463555"><ele>291.0</ele><time>2026-03-29T07:18:29.549Z</time></trkpt><trkpt lat="43.0803276" lon="12.2464212"><ele>293.8</ele><time>2026-03-29T07:18:31.546Z</time></trkpt><trkpt lat="43.0802642" lon="12.2464921"><ele>296.6</ele><time>2026-03-29T07:18:33.57Z</time></trkpt><trkpt lat="43.0802049" lon="12.2465623"><ele>299.4</ele><time>2026-03-29T07:18:36.55Z</time></trkpt><trkpt lat="43.0801443" lon="12.2466415"><ele>302.2</ele><time>2026-03-29T07:18:39.546Z</time></trkpt><trkpt lat="43.0800653" lon="12.2467041"><ele>305.0</ele><time>2026-03-29T07:18:42.55Z</time></trkpt><trkpt lat="43.079971" lon="12.2467987"><ele>305.0</ele><time>2026-03-29T07:18:46.546Z</time></trkpt><trkpt lat="43.0799006" lon="12.2468589"><ele>305.0</ele><time>2026-03-29T07:18:49.546Z</time></trkpt><trkpt lat="43.0798379" lon="12.246916"><ele>305.0</ele><time>2026-03-29T07:18:52.546Z</time></trkpt><trkpt lat="43.0797741" lon="12.2469733"><ele>305.0</ele><time>2026-03-29T07:18:55.543Z</time></trkpt><trkpt lat="43.079696" lon="12.2470048"><ele>305.0</ele><time>2026-03-29T07:18:58.546Z</time></trkpt><trkpt lat="43.0796285" lon="12.247057"><ele>305.0</ele><time>2026-03-29T07:19:01.545Z</time></trkpt><trkpt lat="43.0795545" lon="12.2470373"><ele>305.0</ele><time>2026-03-29T07:19:05.547Z</time></trkpt><trkpt lat="43.0794783" lon="12.2470107"><ele>305.0</ele><time>2026-03-29T07:19:08.552Z</time></trkpt><trkpt lat="43.0794097" lon="12.247005"><ele>305.0</ele><time>2026-03-29T07:19:10.552Z</time></trkpt><trkpt lat="43.0793447" lon="12.2470043"><ele>305.0</ele><time>2026-03-29T07:19:12.548Z</time></trkpt><trkpt lat="43.0792755" lon="12.2469758"><ele>305.0</ele><time>2026-03-29T07:19:14.545Z</time></trkpt><trkpt lat="43.0792044" lon="12.2469258"><ele>305.0</ele><time>2026-03-29T07:19:16.549Z</time></trkpt><trkpt lat="43.0791351" lon="12.2468965"><ele>305.0</ele><time>2026-03-29T07:19:19.544Z</time></trkpt><trkpt lat="43.0790736" lon="12.246877"><ele>306.2857142857143</ele><time>2026-03-29T07:19:22.547Z</time></trkpt><trkpt lat="43.0790123" lon="12.246821"><ele>307.57142857142856</ele><time>2026-03-29T07:19:26.549Z</time></trkpt><trkpt lat="43.078951" lon="12.2467592"><ele>308.85714285714283</ele><time>2026-03-29T07:19:30.545Z</time></trkpt><trkpt lat="43.0789006" lon="12.2466968"><ele>310.1428571428571</ele><time>2026-03-29T07:19:35.556Z</time></trkpt><trkpt lat="43.0788362" lon="12.2466304"><ele>311.42857142857144</ele><time>2026-03-29T07:19:40.561Z</time></trkpt><trkpt lat="43.0787695" lon="12.2466027"><ele>312.71428571428567</ele><time>2026-03-29T07:19:44.57Z</time></trkpt><trkpt lat="43.0787093" lon="12.2465449"><ele>314.0</ele><time>2026-03-29T07:19:48.546Z</time></trkpt><trkpt lat="43.0786491" lon="12.2464687"><ele>314.6666666666667</ele><time>2026-03-29T07:19:51.562Z</time></trkpt><trkpt lat="43.0785925" lon="12.2464214"><ele>315.33333333333337</ele><time>2026-03-29T07:19:53.548Z</time></trkpt><trkpt lat="43.0784975" lon="12.2463585"><ele>316.0</ele><time>2026-03-29T07:19:56.564Z</time></trkpt><trkpt lat="43.0784289" lon="12.2463327"><ele>316.6666666666667</ele><time>2026-03-29T07:19:58.564Z</time></trkpt><trkpt lat="43.0783518" lon="12.246323"><ele>317.3333333333333</ele><time>2026-03-29T07:20:00.55Z</time></trkpt><trkpt lat="43.0782669" lon="12.2463318"><ele>318.0</ele><time>2026-03-29T07:20:02.57Z</time></trkpt><trkpt lat="43.0781911" lon="12.246334"><ele>318.0</ele><time>2026-03-29T07:20:04.544Z</time></trkpt><trkpt lat="43.078095" lon="12.2463361"><ele>318.0</ele><time>2026-03-29T07:20:06.544Z</time></trkpt><trkpt lat="43.0779946" lon="12.2463451"><ele>318.0</ele><time>2026-03-29T07:20:08.562Z</time></trkpt><trkpt lat="43.0779138" lon="12.2463219"><ele>318.0</ele><time>2026-03-29T07:20:10.571Z</time></trkpt><trkpt lat="43.0778527" lon="12.2462394"><ele>318.0</ele><time>2026-03-29T07:20:12.543Z</time></trkpt><trkpt lat="43.0778528" lon="12.2461291"><ele>318.0</ele><time>2026-03-29T07:20:15.546Z</time></trkpt><trkpt lat="43.0778313" lon="12.2460382"><ele>318.0</ele><time>2026-03-29T07:20:17.563Z</time></trkpt><trkpt lat="43.0778343" lon="12.2459498"><ele>318.0</ele><time>2026-03-29T07:20:19.57Z</time></trkpt><trkpt lat="43.0778307" lon="12.245832"><ele>318.0</ele><time>2026-03-29T07:20:22.567Z</time></trkpt><trkpt lat="43.0777921" lon="12.2457348"><ele>318.0</ele><time>2026-03-29T07:20:25.583Z</time></trkpt><trkpt lat="43.0777396" lon="12.2456276"><ele>318.0</ele><time>2026-03-29T07:20:28.56Z</time></trkpt><trkpt lat="43.077708" lon="12.2455519"><ele>318.0</ele><time>2026-03-29T07:20:30.563Z</time></trkpt><trkpt lat="43.0776559" lon="12.2454481"><ele>319.1666666666667</ele><time>2026-03-29T07:20:33.564Z</time></trkpt><trkpt lat="43.0776052" lon="12.2453558"><ele>320.3333333333333</ele><time>2026-03-29T07:20:36.562Z</time></trkpt><trkpt lat="43.0775583" lon="12.2452633"><ele>321.5</ele><time>2026-03-29T07:20:39.57Z</time></trkpt><trkpt lat="43.0774993" lon="12.2451715"><ele>322.66666666666663</ele><time>2026-03-29T07:20:42.565Z</time></trkpt><trkpt lat="43.0774319" lon="12.2450897"><ele>323.8333333333333</ele><time>2026-03-29T07:20:45.556Z</time></trkpt><trkpt lat="43.0773595" lon="12.2450212"><ele>325.0</ele><time>2026-03-29T07:20:48.596Z</time></trkpt><trkpt lat="43.0772926" lon="12.2449471"><ele>325.0</ele><time>2026-03-29T07:20:51.55Z</time></trkpt><trkpt lat="43.0772291" lon="12.244851"><ele>325.0</ele><time>2026-03-29T07:20:54.567Z</time></trkpt><trkpt lat="43.0771806" lon="12.2447844"><ele>325.0</ele><time>2026-03-29T07:20:56.57Z</time></trkpt><trkpt lat="43.0771283" lon="12.2447151"><ele>325.0</ele><time>2026-03-29T07:20:58.566Z</time></trkpt><trkpt lat="43.0770721" lon="12.244633"><ele>325.0</ele><time>2026-03-29T07:21:00.557Z</time></trkpt><trkpt lat="43.0770238" lon="12.244542"><ele>325.0</ele><time>2026-03-29T07:21:02.566Z</time></trkpt><trkpt lat="43.0769798" lon="12.2444455"><ele>323.0</ele><time>2026-03-29T07:21:04.554Z</time></trkpt><trkpt lat="43.0769109" lon="12.2443012"><ele>321.0</ele><time>2026-03-29T07:21:07.57Z</time></trkpt><trkpt lat="43.0768622" lon="12.2442224"><ele>319.0</ele><time>2026-03-29T07:21:09.573Z</time></trkpt><trkpt lat="43.0768141" lon="12.2441612"><ele>317.0</ele><time>2026-03-29T07:21:11.561Z</time></trkpt><trkpt lat="43.0767675" lon="12.2440971"><ele>315.0</ele><time>2026-03-29T07:21:13.571Z</time></trkpt><trkpt lat="43.0767181" lon="12.2440408"><ele>313.0</ele><time>2026-03-29T07:21:15.56Z</time></trkpt><trkpt lat="43.0766481" lon="12.2439581"><ele>314.3333333333333</ele><time>2026-03-29T07:21:18.574Z</time></trkpt><trkpt lat="43.07657" lon="12.2438885"><ele>315.66666666666663</ele><time>2026-03-29T07:21:21.562Z</time></trkpt><trkpt lat="43.0764851" lon="12.2438514"><ele>317.0</ele><time>2026-03-29T07:21:24.569Z</time></trkpt><trkpt lat="43.0764226" lon="12.2438298"><ele>318.3333333333333</ele><time>2026-03-29T07:21:26.572Z</time></trkpt><trkpt lat="43.0763327" lon="12.2437917"><ele>319.6666666666667</ele><time>2026-03-29T07:21:29.571Z</time></trkpt><trkpt lat="43.0762467" lon="12.2437439"><ele>321.0</ele><time>2026-03-29T07:21:32.568Z</time></trkpt><trkpt lat="43.0761759" lon="12.2436699"><ele>320.99999999999994</ele><time>2026-03-29T07:21:35.571Z</time></trkpt><trkpt lat="43.0761265" lon="12.2435804"><ele>321.0</ele><time>2026-03-29T07:21:38.56Z</time></trkpt><trkpt lat="43.0760811" lon="12.2434881"><ele>321.0</ele><time>2026-03-29T07:21:41.567Z</time></trkpt><trkpt lat="43.0760532" lon="12.2434078"><ele>321.0</ele><time>2026-03-29T07:21:44.567Z</time></trkpt><trkpt lat="43.0760323" lon="12.2433256"><ele>321.0</ele><time>2026-03-29T07:21:47.571Z</time></trkpt><trkpt lat="43.0760152" lon="12.2432388"><ele>320.99999999999994</ele><time>2026-03-29T07:21:50.57Z</time></trkpt><trkpt lat="43.0760061" lon="12.2431447"><ele>321.0</ele><time>2026-03-29T07:21:53.57Z</time></trkpt><trkpt lat="43.0760048" lon="12.2430532"><ele>321.1428571428571</ele><time>2026-03-29T07:21:56.651Z</time></trkpt><trkpt lat="43.0760049" lon="12.2429545"><ele>321.2857142857143</ele><time>2026-03-29T07:21:59.57Z</time></trkpt><trkpt lat="43.0759968" lon="12.2428625"><ele>321.42857142857144</ele><time>2026-03-29T07:22:02.564Z</time></trkpt><trkpt lat="43.075957" lon="12.2427949"><ele>321.57142857142856</ele><time>2026-03-29T07:22:05.572Z</time></trkpt><trkpt lat="43.0758917" lon="12.242802"><ele>321.7142857142857</ele><time>2026-03-29T07:22:08.561Z</time></trkpt><trkpt lat="43.0758214" lon="12.2428201"><ele>321.85714285714283</ele><time>2026-03-29T07:22:11.57Z</time></trkpt><trkpt lat="43.0757486" lon="12.2428388"><ele>322.0</ele><time>2026-03-29T07:22:14.549Z</time></trkpt><trkpt lat="43.0756734" lon="12.2428719"><ele>322.0</ele><time>2026-03-29T07:22:17.568Z</time></trkpt><trkpt lat="43.0755895" lon="12.2428922"><ele>322.0</ele><time>2026-03-29T07:22:20.568Z</time></trkpt><trkpt lat="43.0754984" lon="12.2428918"><ele>322.0</ele><time>2026-03-29T07:22:23.569Z</time></trkpt><trkpt lat="43.0754082" lon="12.2428903"><ele>322.0</ele><time>2026-03-29T07:22:26.565Z</time></trkpt><trkpt lat="43.0753225" lon="12.2428833"><ele>322.0</ele><time>2026-03-29T07:22:29.564Z</time></trkpt><trkpt lat="43.0752348" lon="12.2428771"><ele>322.0</ele><time>2026-03-29T07:22:32.554Z</time></trkpt><trkpt lat="43.0751476" lon="12.2428731"><ele>322.0</ele><time>2026-03-29T07:22:35.56Z</time></trkpt><trkpt lat="43.0750608" lon="12.242869"><ele>322.0</ele><time>2026-03-29T07:22:38.558Z</time></trkpt><trkpt lat="43.0749731" lon="12.2428583"><ele>322.0</ele><time>2026-03-29T07:22:41.568Z</time></trkpt><trkpt lat="43.0748892" lon="12.2428485"><ele>322.0</ele><time>2026-03-29T07:22:44.557Z</time></trkpt><trkpt lat="43.0748046" lon="12.2428381"><ele>322.0</ele><time>2026-03-29T07:22:47.569Z</time></trkpt><trkpt lat="43.0747282" lon="12.2428222"><ele>322.0</ele><time>2026-03-29T07:22:50.572Z</time></trkpt><trkpt lat="43.0746515" lon="12.2428261"><ele>322.85714285714283</ele><time>2026-03-29T07:22:53.569Z</time></trkpt><trkpt lat="43.0745743" lon="12.2428376"><ele>323.7142857142857</ele><time>2026-03-29T07:22:56.558Z</time></trkpt><trkpt lat="43.0745113" lon="12.2428319"><ele>324.57142857142856</ele><time>2026-03-29T07:22:59.566Z</time></trkpt><trkpt lat="43.0744412" lon="12.2428279"><ele>325.42857142857144</ele><time>2026-03-29T07:23:02.567Z</time></trkpt><trkpt lat="43.0743662" lon="12.2428084"><ele>326.2857142857143</ele><time>2026-03-29T07:23:06.571Z</time></trkpt><trkpt lat="43.0742931" lon="12.2428215"><ele>327.1428571428571</ele><time>2026-03-29T07:23:09.573Z</time></trkpt><trkpt lat="43.0742102" lon="12.2428108"><ele>328.0</ele><time>2026-03-29T07:23:13.572Z</time></trkpt><trkpt lat="43.0741441" lon="12.2427724"><ele>329.2857142857143</ele><time>2026-03-29T07:23:17.564Z</time></trkpt><trkpt lat="43.074088" lon="12.2427171"><ele>330.57142857142856</ele><time>2026-03-29T07:23:20.56Z</time></trkpt><trkpt lat="43.0740207" lon="12.2426923"><ele>331.8571428571429</ele><time>2026-03-29T07:23:23.677Z</time></trkpt><trkpt lat="43.0739527" lon="12.2426983"><ele>333.1428571428571</ele><time>2026-03-29T07:23:28.582Z</time></trkpt><trkpt lat="43.0738788" lon="12.2427086"><ele>334.42857142857144</ele><time>2026-03-29T07:23:32.56Z</time></trkpt><trkpt lat="43.0738099" lon="12.2427112"><ele>335.7142857142857</ele><time>2026-03-29T07:23:35.547Z</time></trkpt><trkpt lat="43.073738" lon="12.2427048"><ele>337.0</ele><time>2026-03-29T07:23:38.563Z</time></trkpt><trkpt lat="43.0736747" lon="12.2426983"><ele>337.00000000000006</ele><time>2026-03-29T07:23:41.67Z</time></trkpt><trkpt lat="43.0735981" lon="12.2427039"><ele>337.0</ele><time>2026-03-29T07:23:45.562Z</time></trkpt><trkpt lat="43.0735259" lon="12.2427055"><ele>337.0</ele><time>2026-03-29T07:23:48.568Z</time></trkpt><trkpt lat="43.0734516" lon="12.2426977"><ele>337.0</ele><time>2026-03-29T07:23:51.561Z</time></trkpt><trkpt lat="43.0733742" lon="12.242689"><ele>337.0</ele><time>2026-03-29T07:23:54.575Z</time></trkpt><trkpt lat="43.0733045" lon="12.2426901"><ele>337.00000000000006</ele><time>2026-03-29T07:23:57.567Z</time></trkpt><trkpt lat="43.0732306" lon="12.2426852"><ele>337.0</ele><time>2026-03-29T07:24:01.56Z</time></trkpt><trkpt lat="43.0731476" lon="12.2426798"><ele>338.5714285714286</ele><time>2026-03-29T07:24:05.569Z</time></trkpt><trkpt lat="43.0730673" lon="12.2426775"><ele>340.14285714285717</ele><time>2026-03-29T07:24:09.543Z</time></trkpt><trkpt lat="43.072986" lon="12.2426875"><ele>341.7142857142857</ele><time>2026-03-29T07:24:13.546Z</time></trkpt><trkpt lat="43.0729178" lon="12.2426934"><ele>343.28571428571433</ele><time>2026-03-29T07:24:16.544Z</time></trkpt><trkpt lat="43.072855" lon="12.2427044"><ele>344.8571428571429</ele><time>2026-03-29T07:24:19.547Z</time></trkpt><trkpt lat="43.0727895" lon="12.2427217"><ele>346.42857142857144</ele><time>2026-03-29T07:24:22.551Z</time></trkpt><trkpt lat="43.0727144" lon="12.2427349"><ele>348.0</ele><time>2026-03-29T07:24:26.546Z</time></trkpt><trkpt lat="43.0726522" lon="12.2427494"><ele>348.0</ele><time>2026-03-29T07:24:29.546Z</time></trkpt><trkpt lat="43.0725823" lon="12.2427811"><ele>348.0</ele><time>2026-03-29T07:24:33.544Z</time></trkpt><trkpt lat="43.072507" lon="12.242788"><ele>348.0</ele><time>2026-03-29T07:24:37.555Z</time></trkpt><trkpt lat="43.072445" lon="12.2427199"><ele>348.0</ele><time>2026-03-29T07:24:41.56Z</time></trkpt><trkpt lat="43.0723849" lon="12.2426799"><ele>348.0</ele><time>2026-03-29T07:24:44.569Z</time></trkpt><trkpt lat="43.0723281" lon="12.2426319"><ele>348.0</ele><time>2026-03-29T07:24:47.659Z</time></trkpt><trkpt lat="43.0722736" lon="12.2425787"><ele>348.0</ele><time>2026-03-29T07:24:50.562Z</time></trkpt><trkpt lat="43.0722156" lon="12.2425263"><ele>349.6666666666667</ele><time>2026-03-29T07:24:53.559Z</time></trkpt><trkpt lat="43.0721692" lon="12.2424564"><ele>351.3333333333333</ele><time>2026-03-29T07:24:56.576Z</time></trkpt><trkpt lat="43.0721416" lon="12.2423706"><ele>353.0</ele><time>2026-03-29T07:24:59.549Z</time></trkpt><trkpt lat="43.0721419" lon="12.2422564"><ele>354.66666666666663</ele><time>2026-03-29T07:25:03.559Z</time></trkpt><trkpt lat="43.0721691" lon="12.2421473"><ele>356.3333333333333</ele><time>2026-03-29T07:25:07.555Z</time></trkpt><trkpt lat="43.0722036" lon="12.2420481"><ele>358.0</ele><time>2026-03-29T07:25:11.549Z</time></trkpt><trkpt lat="43.0722289" lon="12.2419404"><ele>359.42857142857144</ele><time>2026-03-29T07:25:15.558Z</time></trkpt><trkpt lat="43.0722584" lon="12.241845"><ele>360.8571428571429</ele><time>2026-03-29T07:25:19.544Z</time></trkpt><trkpt lat="43.0722694" lon="12.2417401"><ele>362.28571428571433</ele><time>2026-03-29T07:25:23.551Z</time></trkpt><trkpt lat="43.0722339" lon="12.2416666"><ele>363.7142857142857</ele><time>2026-03-29T07:25:26.548Z</time></trkpt><trkpt lat="43.0721723" lon="12.2416161"><ele>365.1428571428571</ele><time>2026-03-29T07:25:29.563Z</time></trkpt><trkpt lat="43.0721067" lon="12.2415726"><ele>366.5714285714286</ele><time>2026-03-29T07:25:32.551Z</time></trkpt><trkpt lat="43.0720388" lon="12.2415391"><ele>368.0</ele><time>2026-03-29T07:25:35.546Z</time></trkpt><trkpt lat="43.0719659" lon="12.2415116"><ele>368.0</ele><time>2026-03-29T07:25:38.546Z</time></trkpt><trkpt lat="43.0719017" lon="12.2414821"><ele>368.0</ele><time>2026-03-29T07:25:41.549Z</time></trkpt><trkpt lat="43.0718286" lon="12.2414454"><ele>368.0</ele><time>2026-03-29T07:25:44.544Z</time></trkpt><trkpt lat="43.071765" lon="12.2414137"><ele>368.0</ele><time>2026-03-29T07:25:47.546Z</time></trkpt><trkpt lat="43.0717042" lon="12.2413711"><ele>368.0</ele><time>2026-03-29T07:25:50.548Z</time></trkpt><trkpt lat="43.0716613" lon="12.2413035"><ele>368.0</ele><time>2026-03-29T07:25:53.551Z</time></trkpt><trkpt lat="43.071622" lon="12.2412234"><ele>368.0</ele><time>2026-03-29T07:25:56.542Z</time></trkpt><trkpt lat="43.0715959" lon="12.2411168"><ele>367.5714285714286</ele><time>2026-03-29T07:25:59.544Z</time></trkpt><trkpt lat="43.0715867" lon="12.2410296"><ele>367.1428571428571</ele><time>2026-03-29T07:26:01.543Z</time></trkpt><trkpt lat="43.0715613" lon="12.2409399"><ele>366.7142857142857</ele><time>2026-03-29T07:26:03.542Z</time></trkpt><trkpt lat="43.0715265" lon="12.2408505"><ele>366.28571428571433</ele><time>2026-03-29T07:26:05.553Z</time></trkpt><trkpt lat="43.0714816" lon="12.2407714"><ele>365.8571428571429</ele><time>2026-03-29T07:26:07.551Z</time></trkpt><trkpt lat="43.0714361" lon="12.2406921"><ele>365.42857142857144</ele><time>2026-03-29T07:26:09.652Z</time></trkpt><trkpt lat="43.071394" lon="12.2406143"><ele>365.0</ele><time>2026-03-29T07:26:11.55Z</time></trkpt><trkpt lat="43.0713461" lon="12.2405434"><ele>365.00000000000006</ele><time>2026-03-29T07:26:13.547Z</time></trkpt><trkpt lat="43.0712987" lon="12.2404737"><ele>365.0</ele><time>2026-03-29T07:26:15.548Z</time></trkpt><trkpt lat="43.0712561" lon="12.2403965"><ele>365.0</ele><time>2026-03-29T07:26:17.549Z</time></trkpt><trkpt lat="43.0712097" lon="12.2403169"><ele>365.0</ele><time>2026-03-29T07:26:19.546Z</time></trkpt><trkpt lat="43.0711646" lon="12.2402344"><ele>365.0</ele><time>2026-03-29T07:26:21.655Z</time></trkpt><trkpt lat="43.0711258" lon="12.2401429"><ele>365.00000000000006</ele><time>2026-03-29T07:26:23.555Z</time></trkpt><trkpt lat="43.0710996" lon="12.2400413"><ele>365.0</ele><time>2026-03-29T07:26:25.551Z</time></trkpt><trkpt lat="43.0710776" lon="12.2399375"><ele>365.0</ele><time>2026-03-29T07:26:27.669Z</time></trkpt><trkpt lat="43.0710666" lon="12.2398285"><ele>365.0</ele><time>2026-03-29T07:26:29.562Z</time></trkpt><trkpt lat="43.0710609" lon="12.2397262"><ele>365.0</ele><time>2026-03-29T07:26:31.549Z</time></trkpt><trkpt lat="43.0710547" lon="12.2396132"><ele>365.0</ele><time>2026-03-29T07:26:33.557Z</time></trkpt><trkpt lat="43.0710524" lon="12.2395046"><ele>365.0</ele><time>2026-03-29T07:26:35.558Z</time></trkpt><trkpt lat="43.0710526" lon="12.2393989"><ele>365.0</ele><time>2026-03-29T07:26:37.557Z</time></trkpt><trkpt lat="43.0710575" lon="12.2392966"><ele>365.6666666666667</ele><time>2026-03-29T07:26:39.571Z</time></trkpt><trkpt lat="43.071062" lon="12.2391969"><ele>366.33333333333337</ele><time>2026-03-29T07:26:41.569Z</time></trkpt><trkpt lat="43.0710611" lon="12.2391"><ele>367.0</ele><time>2026-03-29T07:26:43.567Z</time></trkpt><trkpt lat="43.0710696" lon="12.2390086"><ele>367.6666666666667</ele><time>2026-03-29T07:26:45.568Z</time></trkpt><trkpt lat="43.0710747" lon="12.2388921"><ele>368.3333333333333</ele><time>2026-03-29T07:26:48.57Z</time></trkpt><trkpt lat="43.0711214" lon="12.2388004"><ele>369.0</ele><time>2026-03-29T07:26:51.571Z</time></trkpt><trkpt lat="43.071169" lon="12.2387215"><ele>368.25</ele><time>2026-03-29T07:26:53.568Z</time></trkpt><trkpt lat="43.0712021" lon="12.2386472"><ele>367.5</ele><time>2026-03-29T07:26:55.571Z</time></trkpt><trkpt lat="43.0713376" lon="12.2383626"><ele>366.75</ele><time>2026-03-29T07:26:58.567Z</time></trkpt><trkpt lat="43.0714022" lon="12.238228"><ele>366.0</ele><time>2026-03-29T07:27:00.572Z</time></trkpt><trkpt lat="43.0714684" lon="12.2380922"><ele>366.0</ele><time>2026-03-29T07:27:02.567Z</time></trkpt><trkpt lat="43.0715075" lon="12.2380234"><ele>366.0</ele><time>2026-03-29T07:27:03.57Z</time></trkpt><trkpt lat="43.0715518" lon="12.2379507"><ele>366.0</ele><time>2026-03-29T07:27:04.567Z</time></trkpt><trkpt lat="43.0715855" lon="12.2378648"><ele>366.0</ele><time>2026-03-29T07:27:05.565Z</time></trkpt><trkpt lat="43.0716461" lon="12.2378173"><ele>366.0</ele><time>2026-03-29T07:27:06.565Z</time></trkpt><trkpt lat="43.0716816" lon="12.237741"><ele>366.0</ele><time>2026-03-29T07:27:07.665Z</time></trkpt><trkpt lat="43.0717171" lon="12.237659"><ele>366.0</ele><time>2026-03-29T07:27:08.569Z</time></trkpt><trkpt lat="43.071747" lon="12.2375678"><ele>365.7142857142857</ele><time>2026-03-29T07:27:09.569Z</time></trkpt><trkpt lat="43.0717814" lon="12.2374811"><ele>365.42857142857144</ele><time>2026-03-29T07:27:10.564Z</time></trkpt><trkpt lat="43.0718136" lon="12.2373948"><ele>365.1428571428571</ele><time>2026-03-29T07:27:11.567Z</time></trkpt><trkpt lat="43.0718475" lon="12.2373112"><ele>364.8571428571429</ele><time>2026-03-29T07:27:12.567Z</time></trkpt><trkpt lat="43.0718862" lon="12.2372144"><ele>364.57142857142856</ele><time>2026-03-29T07:27:13.561Z</time></trkpt><trkpt lat="43.0719288" lon="12.2371325"><ele>364.2857142857143</ele><time>2026-03-29T07:27:14.564Z</time></trkpt><trkpt lat="43.0719855" lon="12.2370638"><ele>364.0</ele><time>2026-03-29T07:27:15.568Z</time></trkpt><trkpt lat="43.0720506" lon="12.2370118"><ele>363.0</ele><time>2026-03-29T07:27:16.566Z</time></trkpt><trkpt lat="43.0721137" lon="12.2369804"><ele>362.0</ele><time>2026-03-29T07:27:17.559Z</time></trkpt><trkpt lat="43.0721894" lon="12.2369732"><ele>361.0</ele><time>2026-03-29T07:27:18.566Z</time></trkpt><trkpt lat="43.0722651" lon="12.2369869"><ele>360.0</ele><time>2026-03-29T07:27:19.545Z</time></trkpt><trkpt lat="43.0723496" lon="12.2370011"><ele>359.0</ele><time>2026-03-29T07:27:20.558Z</time></trkpt><trkpt lat="43.0724319" lon="12.2370224"><ele>358.0</ele><time>2026-03-29T07:27:21.559Z</time></trkpt><trkpt lat="43.0725128" lon="12.2370405"><ele>358.0</ele><time>2026-03-29T07:27:22.56Z</time></trkpt><trkpt lat="43.0725859" lon="12.2370253"><ele>358.0</ele><time>2026-03-29T07:27:23.571Z</time></trkpt><trkpt lat="43.0726608" lon="12.2369647"><ele>358.0</ele><time>2026-03-29T07:27:24.57Z</time></trkpt><trkpt lat="43.07272" lon="12.2368726"><ele>358.0</ele><time>2026-03-29T07:27:25.557Z</time></trkpt><trkpt lat="43.0727545" lon="12.2367603"><ele>358.0</ele><time>2026-03-29T07:27:26.55Z</time></trkpt><trkpt lat="43.0727581" lon="12.2366377"><ele>358.0</ele><time>2026-03-29T07:27:27.547Z</time></trkpt><trkpt lat="43.0727501" lon="12.2365141"><ele>356.2</ele><time>2026-03-29T07:27:28.563Z</time></trkpt><trkpt lat="43.0727328" lon="12.2363905"><ele>354.4</ele><time>2026-03-29T07:27:29.564Z</time></trkpt><trkpt lat="43.0727191" lon="12.2362628"><ele>352.59999999999997</ele><time>2026-03-29T07:27:30.568Z</time></trkpt><trkpt lat="43.0727003" lon="12.2361424"><ele>350.79999999999995</ele><time>2026-03-29T07:27:31.654Z</time></trkpt><trkpt lat="43.0726858" lon="12.2360233"><ele>349.0</ele><time>2026-03-29T07:27:32.564Z</time></trkpt><trkpt lat="43.0726679" lon="12.235905"><ele>348.99999999999994</ele><time>2026-03-29T07:27:33.565Z</time></trkpt><trkpt lat="43.0726576" lon="12.2357931"><ele>349.0</ele><time>2026-03-29T07:27:34.564Z</time></trkpt><trkpt lat="43.0726453" lon="12.2356802"><ele>349.0</ele><time>2026-03-29T07:27:35.57Z</time></trkpt><trkpt lat="43.0726289" lon="12.2355823"><ele>349.0</ele><time>2026-03-29T07:27:36.564Z</time></trkpt><trkpt lat="43.0726178" lon="12.2354856"><ele>349.0</ele><time>2026-03-29T07:27:37.55Z</time></trkpt><trkpt lat="43.0726065" lon="12.2353923"><ele>348.99999999999994</ele><time>2026-03-29T07:27:38.559Z</time></trkpt><trkpt lat="43.072594" lon="12.2352991"><ele>349.0</ele><time>2026-03-29T07:27:39.563Z</time></trkpt><trkpt lat="43.0725813" lon="12.2352114"><ele>348.2857142857143</ele><time>2026-03-29T07:27:40.571Z</time></trkpt><trkpt lat="43.07257" lon="12.2351155"><ele>347.57142857142856</ele><time>2026-03-29T07:27:41.561Z</time></trkpt><trkpt lat="43.0725642" lon="12.2350211"><ele>346.8571428571429</ele><time>2026-03-29T07:27:42.562Z</time></trkpt><trkpt lat="43.0725548" lon="12.2349282"><ele>346.1428571428571</ele><time>2026-03-29T07:27:43.561Z</time></trkpt><trkpt lat="43.0725484" lon="12.2348314"><ele>345.42857142857144</ele><time>2026-03-29T07:27:44.569Z</time></trkpt><trkpt lat="43.0725543" lon="12.2347369"><ele>344.7142857142857</ele><time>2026-03-29T07:27:45.551Z</time></trkpt><trkpt lat="43.0725649" lon="12.2346442"><ele>344.0</ele><time>2026-03-29T07:27:46.571Z</time></trkpt><trkpt lat="43.0725859" lon="12.2345548"><ele>343.14285714285717</ele><time>2026-03-29T07:27:47.563Z</time></trkpt><trkpt lat="43.0726144" lon="12.2344601"><ele>342.2857142857143</ele><time>2026-03-29T07:27:48.564Z</time></trkpt><trkpt lat="43.07265" lon="12.2343801"><ele>341.42857142857144</ele><time>2026-03-29T07:27:49.561Z</time></trkpt><trkpt lat="43.0726798" lon="12.234291"><ele>340.57142857142856</ele><time>2026-03-29T07:27:50.558Z</time></trkpt><trkpt lat="43.072707" lon="12.234192"><ele>339.7142857142857</ele><time>2026-03-29T07:27:51.559Z</time></trkpt><trkpt lat="43.0727235" lon="12.2340958"><ele>338.8571428571429</ele><time>2026-03-29T07:27:52.555Z</time></trkpt><trkpt lat="43.0727224" lon="12.2339838"><ele>338.0</ele><time>2026-03-29T07:27:53.571Z</time></trkpt><trkpt lat="43.0727083" lon="12.2338719"><ele>337.6666666666667</ele><time>2026-03-29T07:27:54.563Z</time></trkpt><trkpt lat="43.0726922" lon="12.2337684"><ele>337.33333333333337</ele><time>2026-03-29T07:27:55.671Z</time></trkpt><trkpt lat="43.0726471" lon="12.2335666"><ele>337.0</ele><time>2026-03-29T07:27:57.571Z</time></trkpt><trkpt lat="43.0726058" lon="12.2334785"><ele>336.6666666666667</ele><time>2026-03-29T07:27:58.566Z</time></trkpt><trkpt lat="43.0725689" lon="12.2334005"><ele>336.3333333333333</ele><time>2026-03-29T07:27:59.573Z</time></trkpt><trkpt lat="43.0725281" lon="12.2333169"><ele>336.0</ele><time>2026-03-29T07:28:00.568Z</time></trkpt><trkpt lat="43.0724947" lon="12.2332346"><ele>336.1666666666667</ele><time>2026-03-29T07:28:01.665Z</time></trkpt><trkpt lat="43.0724438" lon="12.2330709"><ele>336.3333333333333</ele><time>2026-03-29T07:28:03.561Z</time></trkpt><trkpt lat="43.0724219" lon="12.2329798"><ele>336.5</ele><time>2026-03-29T07:28:04.564Z</time></trkpt><trkpt lat="43.0724012" lon="12.2328969"><ele>336.66666666666663</ele><time>2026-03-29T07:28:05.57Z</time></trkpt><trkpt lat="43.0723901" lon="12.2328107"><ele>336.8333333333333</ele><time>2026-03-29T07:28:06.561Z</time></trkpt><trkpt lat="43.0723825" lon="12.2327157"><ele>337.0</ele><time>2026-03-29T07:28:07.675Z</time></trkpt><trkpt lat="43.0723795" lon="12.2325273"><ele>336.20000000000005</ele><time>2026-03-29T07:28:09.559Z</time></trkpt><trkpt lat="43.0723862" lon="12.2324409"><ele>335.4</ele><time>2026-03-29T07:28:10.557Z</time></trkpt><trkpt lat="43.0723962" lon="12.2323527"><ele>334.6</ele><time>2026-03-29T07:28:11.559Z</time></trkpt><trkpt lat="43.0724125" lon="12.2321877"><ele>333.79999999999995</ele><time>2026-03-29T07:28:13.563Z</time></trkpt><trkpt lat="43.0724345" lon="12.2320159"><ele>333.0</ele><time>2026-03-29T07:28:15.55Z</time></trkpt><trkpt lat="43.072447" lon="12.2318653"><ele>333.0</ele><time>2026-03-29T07:28:17.548Z</time></trkpt><trkpt lat="43.0724728" lon="12.2317285"><ele>333.0</ele><time>2026-03-29T07:28:19.545Z</time></trkpt><trkpt lat="43.0725254" lon="12.2315783"><ele>333.0</ele><time>2026-03-29T07:28:21.55Z</time></trkpt><trkpt lat="43.0725658" lon="12.2315054"><ele>333.0</ele><time>2026-03-29T07:28:22.557Z</time></trkpt><trkpt lat="43.0726148" lon="12.2313669"><ele>333.0</ele><time>2026-03-29T07:28:24.543Z</time></trkpt><trkpt lat="43.0726446" lon="12.2312399"><ele>331.0</ele><time>2026-03-29T07:28:26.543Z</time></trkpt><trkpt lat="43.0726815" lon="12.2311134"><ele>329.0</ele><time>2026-03-29T07:28:28.549Z</time></trkpt><trkpt lat="43.0727411" lon="12.2309339"><ele>327.0</ele><time>2026-03-29T07:28:31.541Z</time></trkpt><trkpt lat="43.0727922" lon="12.2308137"><ele>325.0</ele><time>2026-03-29T07:28:33.54Z</time></trkpt><trkpt lat="43.0728347" lon="12.2306927"><ele>323.0</ele><time>2026-03-29T07:28:35.549Z</time></trkpt><trkpt lat="43.0729031" lon="12.2305562"><ele>320.25</ele><time>2026-03-29T07:28:37.542Z</time></trkpt><trkpt lat="43.0729753" lon="12.2304332"><ele>317.5</ele><time>2026-03-29T07:28:39.542Z</time></trkpt><trkpt lat="43.0730581" lon="12.2303"><ele>314.75</ele><time>2026-03-29T07:28:41.54Z</time></trkpt><trkpt lat="43.0731426" lon="12.2301929"><ele>312.0</ele><time>2026-03-29T07:28:43.566Z</time></trkpt><trkpt lat="43.0732314" lon="12.2300845"><ele>312.0</ele><time>2026-03-29T07:28:45.562Z</time></trkpt><trkpt lat="43.0733264" lon="12.2299746"><ele>312.0</ele><time>2026-03-29T07:28:47.554Z</time></trkpt><trkpt lat="43.0734102" lon="12.2298667"><ele>312.0</ele><time>2026-03-29T07:28:49.557Z</time></trkpt><trkpt lat="43.0735081" lon="12.2297346"><ele>312.0</ele><time>2026-03-29T07:28:51.556Z</time></trkpt><trkpt lat="43.0735575" lon="12.2296798"><ele>312.0</ele><time>2026-03-29T07:28:52.566Z</time></trkpt><trkpt lat="43.0736063" lon="12.2296201"><ele>312.0</ele><time>2026-03-29T07:28:53.543Z</time></trkpt><trkpt lat="43.0736511" lon="12.2295588"><ele>312.0</ele><time>2026-03-29T07:28:54.55Z</time></trkpt><trkpt lat="43.0736986" lon="12.2294942"><ele>312.0</ele><time>2026-03-29T07:28:55.562Z</time></trkpt><trkpt lat="43.0737507" lon="12.2294262"><ele>312.0</ele><time>2026-03-29T07:28:56.548Z</time></trkpt><trkpt lat="43.0738024" lon="12.2293637"><ele>312.0</ele><time>2026-03-29T07:28:57.573Z</time></trkpt><trkpt lat="43.073858" lon="12.2292804"><ele>312.0</ele><time>2026-03-29T07:28:58.562Z</time></trkpt><trkpt lat="43.0738985" lon="12.2291921"><ele>312.0</ele><time>2026-03-29T07:28:59.542Z</time></trkpt><trkpt lat="43.0739381" lon="12.2290992"><ele>312.0</ele><time>2026-03-29T07:29:00.548Z</time></trkpt><trkpt lat="43.0739988" lon="12.22899"><ele>312.0</ele><time>2026-03-29T07:29:01.556Z</time></trkpt><trkpt lat="43.0740222" lon="12.228878"><ele>312.0</ele><time>2026-03-29T07:29:02.556Z</time></trkpt><trkpt lat="43.074033" lon="12.2287693"><ele>312.0</ele><time>2026-03-29T07:29:03.562Z</time></trkpt><trkpt lat="43.0740383" lon="12.2286513"><ele>312.0</ele><time>2026-03-29T07:29:04.646Z</time></trkpt><trkpt lat="43.074033" lon="12.2285355"><ele>312.0</ele><time>2026-03-29T07:29:05.564Z</time></trkpt><trkpt lat="43.0740132" lon="12.2284348"><ele>312.0</ele><time>2026-03-29T07:29:06.57Z</time></trkpt><trkpt lat="43.073995" lon="12.2283344"><ele>312.0</ele><time>2026-03-29T07:29:07.561Z</time></trkpt><trkpt lat="43.0739632" lon="12.2282442"><ele>312.0</ele><time>2026-03-29T07:29:08.565Z</time></trkpt><trkpt lat="43.07392" lon="12.2281528"><ele>312.0</ele><time>2026-03-29T07:29:09.549Z</time></trkpt><trkpt lat="43.0738955" lon="12.2280561"><ele>312.0</ele><time>2026-03-29T07:29:10.563Z</time></trkpt><trkpt lat="43.07388" lon="12.2279625"><ele>312.0</ele><time>2026-03-29T07:29:11.572Z</time></trkpt><trkpt lat="43.0739062" lon="12.2278679"><ele>312.0</ele><time>2026-03-29T07:29:12.562Z</time></trkpt><trkpt lat="43.0739506" lon="12.2277821"><ele>312.0</ele><time>2026-03-29T07:29:13.56Z</time></trkpt><trkpt lat="43.0740058" lon="12.2277281"><ele>312.0</ele><time>2026-03-29T07:29:14.559Z</time></trkpt><trkpt lat="43.0740782" lon="12.2276987"><ele>312.0</ele><time>2026-03-29T07:29:15.576Z</time></trkpt><trkpt lat="43.0741462" lon="12.2276792"><ele>312.0</ele><time>2026-03-29T07:29:16.554Z</time></trkpt><trkpt lat="43.0742149" lon="12.2276677"><ele>312.0</ele><time>2026-03-29T07:29:17.564Z</time></trkpt><trkpt lat="43.0742973" lon="12.2276469"><ele>312.0</ele><time>2026-03-29T07:29:18.562Z</time></trkpt><trkpt lat="43.0743739" lon="12.2276316"><ele>312.0</ele><time>2026-03-29T07:29:19.563Z</time></trkpt><trkpt lat="43.0744459" lon="12.2276177"><ele>310.8333333333333</ele><time>2026-03-29T07:29:20.559Z</time></trkpt><trkpt lat="43.0745207" lon="12.2275851"><ele>309.6666666666667</ele><time>2026-03-29T07:29:21.577Z</time></trkpt><trkpt lat="43.0746002" lon="12.2275423"><ele>308.5</ele><time>2026-03-29T07:29:22.563Z</time></trkpt><trkpt lat="43.0746668" lon="12.2275059"><ele>307.33333333333337</ele><time>2026-03-29T07:29:23.564Z</time></trkpt><trkpt lat="43.0747329" lon="12.2274467"><ele>306.1666666666667</ele><time>2026-03-29T07:29:24.566Z</time></trkpt><trkpt lat="43.0747959" lon="12.2273863"><ele>305.0</ele><time>2026-03-29T07:29:25.569Z</time></trkpt><trkpt lat="43.0748597" lon="12.2273183"><ele>303.6666666666667</ele><time>2026-03-29T07:29:26.562Z</time></trkpt><trkpt lat="43.074924" lon="12.2272464"><ele>302.33333333333337</ele><time>2026-03-29T07:29:27.562Z</time></trkpt><trkpt lat="43.0749771" lon="12.2271822"><ele>301.0</ele><time>2026-03-29T07:29:28.558Z</time></trkpt><trkpt lat="43.0750302" lon="12.2271172"><ele>299.6666666666667</ele><time>2026-03-29T07:29:29.575Z</time></trkpt><trkpt lat="43.0750841" lon="12.2270309"><ele>298.3333333333333</ele><time>2026-03-29T07:29:30.564Z</time></trkpt><trkpt lat="43.0751284" lon="12.2269435"><ele>297.0</ele><time>2026-03-29T07:29:31.568Z</time></trkpt><trkpt lat="43.0751626" lon="12.2268511"><ele>297.0</ele><time>2026-03-29T07:29:32.56Z</time></trkpt><trkpt lat="43.075178" lon="12.2267449"><ele>297.0</ele><time>2026-03-29T07:29:33.566Z</time></trkpt><trkpt lat="43.0751811" lon="12.2266458"><ele>297.0</ele><time>2026-03-29T07:29:34.564Z</time></trkpt><trkpt lat="43.0751739" lon="12.2265496"><ele>297.0</ele><time>2026-03-29T07:29:35.545Z</time></trkpt><trkpt lat="43.0751508" lon="12.226459"><ele>297.0</ele><time>2026-03-29T07:29:36.549Z</time></trkpt><trkpt lat="43.0751235" lon="12.2263702"><ele>297.0</ele><time>2026-03-29T07:29:37.572Z</time></trkpt><trkpt lat="43.0750875" lon="12.22629"><ele>297.0</ele><time>2026-03-29T07:29:38.546Z</time></trkpt><trkpt lat="43.0750519" lon="12.2262143"><ele>297.8</ele><time>2026-03-29T07:29:39.572Z</time></trkpt><trkpt lat="43.074976" lon="12.2260783"><ele>298.6</ele><time>2026-03-29T07:29:41.556Z</time></trkpt><trkpt lat="43.0749053" lon="12.2259536"><ele>299.40000000000003</ele><time>2026-03-29T07:29:43.548Z</time></trkpt><trkpt lat="43.0748648" lon="12.2258854"><ele>300.2</ele><time>2026-03-29T07:29:44.544Z</time></trkpt><trkpt lat="43.0747839" lon="12.2257621"><ele>301.0</ele><time>2026-03-29T07:29:46.548Z</time></trkpt><trkpt lat="43.0747042" lon="12.2256376"><ele>298.2</ele><time>2026-03-29T07:29:48.546Z</time></trkpt><trkpt lat="43.0746214" lon="12.2255214"><ele>295.40000000000003</ele><time>2026-03-29T07:29:50.546Z</time></trkpt><trkpt lat="43.0745419" lon="12.225405"><ele>292.6</ele><time>2026-03-29T07:29:52.672Z</time></trkpt><trkpt lat="43.0744927" lon="12.2252622"><ele>289.8</ele><time>2026-03-29T07:29:54.544Z</time></trkpt><trkpt lat="43.0744538" lon="12.2251939"><ele>287.0</ele><time>2026-03-29T07:29:55.549Z</time></trkpt><trkpt lat="43.0743986" lon="12.2250475"><ele>287.0</ele><time>2026-03-29T07:29:57.545Z</time></trkpt><trkpt lat="43.0743758" lon="12.2249645"><ele>287.0</ele><time>2026-03-29T07:29:58.554Z</time></trkpt><trkpt lat="43.0743559" lon="12.2247988"><ele>287.0</ele><time>2026-03-29T07:30:00.552Z</time></trkpt><trkpt lat="43.0743526" lon="12.2247123"><ele>287.0</ele><time>2026-03-29T07:30:01.55Z</time></trkpt><trkpt lat="43.0743512" lon="12.2246239"><ele>287.0</ele><time>2026-03-29T07:30:02.547Z</time></trkpt><trkpt lat="43.0743655" lon="12.2245345"><ele>287.0</ele><time>2026-03-29T07:30:03.547Z</time></trkpt><trkpt lat="43.0743776" lon="12.2244499"><ele>287.0</ele><time>2026-03-29T07:30:04.541Z</time></trkpt><trkpt lat="43.0744289" lon="12.224297"><ele>287.0</ele><time>2026-03-29T07:30:06.543Z</time></trkpt><trkpt lat="43.0744845" lon="12.2241516"><ele>287.0</ele><time>2026-03-29T07:30:08.54Z</time></trkpt><trkpt lat="43.0745658" lon="12.2239334"><ele>287.0</ele><time>2026-03-29T07:30:11.546Z</time></trkpt><trkpt lat="43.074602" lon="12.2238591"><ele>287.0</ele><time>2026-03-29T07:30:12.563Z</time></trkpt><trkpt lat="43.0746375" lon="12.2237856"><ele>287.0</ele><time>2026-03-29T07:30:13.55Z</time></trkpt><trkpt lat="43.0746746" lon="12.2237157"><ele>286.57142857142856</ele><time>2026-03-29T07:30:14.55Z</time></trkpt><trkpt lat="43.0747079" lon="12.2236402"><ele>286.1428571428571</ele><time>2026-03-29T07:30:15.546Z</time></trkpt><trkpt lat="43.0747432" lon="12.2235633"><ele>285.7142857142857</ele><time>2026-03-29T07:30:16.556Z</time></trkpt><trkpt lat="43.0747778" lon="12.2234879"><ele>285.2857142857143</ele><time>2026-03-29T07:30:17.552Z</time></trkpt><trkpt lat="43.0748116" lon="12.2234039"><ele>284.85714285714283</ele><time>2026-03-29T07:30:18.554Z</time></trkpt><trkpt lat="43.0748453" lon="12.2233266"><ele>284.42857142857144</ele><time>2026-03-29T07:30:19.556Z</time></trkpt><trkpt lat="43.0748807" lon="12.2232492"><ele>284.0</ele><time>2026-03-29T07:30:20.655Z</time></trkpt><trkpt lat="43.0749484" lon="12.2230974"><ele>284.0</ele><time>2026-03-29T07:30:22.549Z</time></trkpt><trkpt lat="43.0750169" lon="12.2229608"><ele>284.0</ele><time>2026-03-29T07:30:24.559Z</time></trkpt><trkpt lat="43.0750574" lon="12.2228865"><ele>284.0</ele><time>2026-03-29T07:30:25.544Z</time></trkpt><trkpt lat="43.0751037" lon="12.222743"><ele>284.0</ele><time>2026-03-29T07:30:27.543Z</time></trkpt><trkpt lat="43.0751366" lon="12.2226071"><ele>284.0</ele><time>2026-03-29T07:30:29.561Z</time></trkpt><trkpt lat="43.0751468" lon="12.2224454"><ele>284.0</ele><time>2026-03-29T07:30:31.539Z</time></trkpt><trkpt lat="43.0751367" lon="12.2223547"><ele>284.0</ele><time>2026-03-29T07:30:32.551Z</time></trkpt><trkpt lat="43.075111" lon="12.2221905"><ele>284.0</ele><time>2026-03-29T07:30:34.542Z</time></trkpt><trkpt lat="43.0750723" lon="12.2220503"><ele>284.0</ele><time>2026-03-29T07:30:36.558Z</time></trkpt><trkpt lat="43.075016" lon="12.2219409"><ele>284.0</ele><time>2026-03-29T07:30:38.564Z</time></trkpt><trkpt lat="43.0749605" lon="12.2218284"><ele>283.0</ele><time>2026-03-29T07:30:40.54Z</time></trkpt><trkpt lat="43.0749068" lon="12.2217033"><ele>282.0</ele><time>2026-03-29T07:30:42.563Z</time></trkpt><trkpt lat="43.0748616" lon="12.2215642"><ele>281.0</ele><time>2026-03-29T07:30:44.551Z</time></trkpt><trkpt lat="43.0748423" lon="12.2214189"><ele>280.0</ele><time>2026-03-29T07:30:46.565Z</time></trkpt><trkpt lat="43.0748475" lon="12.2213329"><ele>279.0</ele><time>2026-03-29T07:30:47.552Z</time></trkpt><trkpt lat="43.0748756" lon="12.221196"><ele>278.59999999999997</ele><time>2026-03-29T07:30:49.566Z</time></trkpt><trkpt lat="43.0748991" lon="12.2210516"><ele>278.2</ele><time>2026-03-29T07:30:51.559Z</time></trkpt><trkpt lat="43.0749322" lon="12.2209179"><ele>277.79999999999995</ele><time>2026-03-29T07:30:53.56Z</time></trkpt><trkpt lat="43.0749535" lon="12.2207741"><ele>277.4</ele><time>2026-03-29T07:30:55.562Z</time></trkpt><trkpt lat="43.074977" lon="12.2206432"><ele>277.0</ele><time>2026-03-29T07:30:57.564Z</time></trkpt><trkpt lat="43.0750082" lon="12.2205095"><ele>278.6</ele><time>2026-03-29T07:30:59.57Z</time></trkpt><trkpt lat="43.0750399" lon="12.2203917"><ele>280.2</ele><time>2026-03-29T07:31:01.562Z</time></trkpt><trkpt lat="43.0750552" lon="12.2202538"><ele>281.8</ele><time>2026-03-29T07:31:03.561Z</time></trkpt><trkpt lat="43.0750802" lon="12.2201224"><ele>283.4</ele><time>2026-03-29T07:31:05.567Z</time></trkpt><trkpt lat="43.0750865" lon="12.2199869"><ele>285.0</ele><time>2026-03-29T07:31:07.543Z</time></trkpt><trkpt lat="43.0751164" lon="12.2198513"><ele>284.0</ele><time>2026-03-29T07:31:09.558Z</time></trkpt><trkpt lat="43.0751396" lon="12.2197095"><ele>283.0</ele><time>2026-03-29T07:31:11.543Z</time></trkpt><trkpt lat="43.0751533" lon="12.2196244"><ele>282.0</ele><time>2026-03-29T07:31:12.544Z</time></trkpt><trkpt lat="43.0751881" lon="12.2194778"><ele>281.0</ele><time>2026-03-29T07:31:14.572Z</time></trkpt><trkpt lat="43.0752188" lon="12.2193414"><ele>280.0</ele><time>2026-03-29T07:31:16.556Z</time></trkpt><trkpt lat="43.0752535" lon="12.2191863"><ele>280.0</ele><time>2026-03-29T07:31:18.545Z</time></trkpt><trkpt lat="43.0752895" lon="12.2191087"><ele>280.0</ele><time>2026-03-29T07:31:19.544Z</time></trkpt><trkpt lat="43.0753683" lon="12.2189721"><ele>280.0</ele><time>2026-03-29T07:31:21.564Z</time></trkpt><trkpt lat="43.0754204" lon="12.2189079"><ele>280.0</ele><time>2026-03-29T07:31:22.568Z</time></trkpt><trkpt lat="43.0754725" lon="12.2188288"><ele>280.0</ele><time>2026-03-29T07:31:23.555Z</time></trkpt><trkpt lat="43.0755386" lon="12.2187491"><ele>280.0</ele><time>2026-03-29T07:31:24.547Z</time></trkpt><trkpt lat="43.0755984" lon="12.2186821"><ele>279.3333333333333</ele><time>2026-03-29T07:31:25.672Z</time></trkpt><trkpt lat="43.0756544" lon="12.2186106"><ele>278.66666666666663</ele><time>2026-03-29T07:31:26.573Z</time></trkpt><trkpt lat="43.0757158" lon="12.2185293"><ele>278.0</ele><time>2026-03-29T07:31:27.559Z</time></trkpt><trkpt lat="43.0757779" lon="12.2184576"><ele>277.3333333333333</ele><time>2026-03-29T07:31:28.572Z</time></trkpt><trkpt lat="43.0758388" lon="12.2183782"><ele>276.6666666666667</ele><time>2026-03-29T07:31:29.57Z</time></trkpt><trkpt lat="43.0759128" lon="12.2182872"><ele>276.0</ele><time>2026-03-29T07:31:30.561Z</time></trkpt><trkpt lat="43.0759783" lon="12.2182111"><ele>275.1666666666667</ele><time>2026-03-29T07:31:31.564Z</time></trkpt><trkpt lat="43.0760318" lon="12.2181281"><ele>274.3333333333333</ele><time>2026-03-29T07:31:32.569Z</time></trkpt><trkpt lat="43.0760862" lon="12.2180482"><ele>273.5</ele><time>2026-03-29T07:31:33.566Z</time></trkpt><trkpt lat="43.0761453" lon="12.2179669"><ele>272.66666666666663</ele><time>2026-03-29T07:31:34.565Z</time></trkpt><trkpt lat="43.076193" lon="12.2178867"><ele>271.8333333333333</ele><time>2026-03-29T07:31:35.574Z</time></trkpt><trkpt lat="43.0762385" lon="12.2177971"><ele>271.0</ele><time>2026-03-29T07:31:36.561Z</time></trkpt><trkpt lat="43.0762779" lon="12.2177088"><ele>271.0</ele><time>2026-03-29T07:31:37.667Z</time></trkpt><trkpt lat="43.0763591" lon="12.2175373"><ele>271.0</ele><time>2026-03-29T07:31:39.568Z</time></trkpt><trkpt lat="43.0763975" lon="12.2174504"><ele>271.0</ele><time>2026-03-29T07:31:40.565Z</time></trkpt><trkpt lat="43.0764325" lon="12.2173629"><ele>271.0</ele><time>2026-03-29T07:31:41.564Z</time></trkpt><trkpt lat="43.0764645" lon="12.2172758"><ele>271.0</ele><time>2026-03-29T07:31:42.572Z</time></trkpt><trkpt lat="43.0764955" lon="12.2171916"><ele>271.0</ele><time>2026-03-29T07:31:43.558Z</time></trkpt><trkpt lat="43.0765429" lon="12.2170274"><ele>271.16666666666663</ele><time>2026-03-29T07:31:45.567Z</time></trkpt><trkpt lat="43.0765656" lon="12.2169465"><ele>271.3333333333333</ele><time>2026-03-29T07:31:46.565Z</time></trkpt><trkpt lat="43.076613" lon="12.2167899"><ele>271.5</ele><time>2026-03-29T07:31:48.572Z</time></trkpt><trkpt lat="43.0766322" lon="12.2167056"><ele>271.6666666666667</ele><time>2026-03-29T07:31:49.559Z</time></trkpt><trkpt lat="43.0766829" lon="12.2165447"><ele>271.83333333333337</ele><time>2026-03-29T07:31:51.556Z</time></trkpt><trkpt lat="43.0767036" lon="12.2164596"><ele>272.0</ele><time>2026-03-29T07:31:52.565Z</time></trkpt><trkpt lat="43.0767299" lon="12.216373"><ele>271.0</ele><time>2026-03-29T07:31:53.564Z</time></trkpt><trkpt lat="43.0767553" lon="12.2162886"><ele>270.0</ele><time>2026-03-29T07:31:54.57Z</time></trkpt><trkpt lat="43.0767805" lon="12.2162077"><ele>269.0</ele><time>2026-03-29T07:31:55.666Z</time></trkpt><trkpt lat="43.07683" lon="12.2160511"><ele>268.0</ele><time>2026-03-29T07:31:57.569Z</time></trkpt><trkpt lat="43.0768769" lon="12.21589"><ele>267.0</ele><time>2026-03-29T07:31:59.56Z</time></trkpt><trkpt lat="43.0769351" lon="12.2157356"><ele>266.4</ele><time>2026-03-29T07:32:01.673Z</time></trkpt><trkpt lat="43.0769984" lon="12.2155888"><ele>265.79999999999995</ele><time>2026-03-29T07:32:03.555Z</time></trkpt><trkpt lat="43.0770735" lon="12.2154418"><ele>265.2</ele><time>2026-03-29T07:32:05.563Z</time></trkpt><trkpt lat="43.0771142" lon="12.2153725"><ele>264.59999999999997</ele><time>2026-03-29T07:32:06.561Z</time></trkpt><trkpt lat="43.0771546" lon="12.2153008"><ele>264.0</ele><time>2026-03-29T07:32:07.559Z</time></trkpt><trkpt lat="43.077231" lon="12.2151649"><ele>264.0</ele><time>2026-03-29T07:32:09.548Z</time></trkpt><trkpt lat="43.0772738" lon="12.2150931"><ele>264.0</ele><time>2026-03-29T07:32:10.558Z</time></trkpt><trkpt lat="43.0773512" lon="12.2149536"><ele>264.0</ele><time>2026-03-29T07:32:12.569Z</time></trkpt><trkpt lat="43.077387" lon="12.2148795"><ele>264.0</ele><time>2026-03-29T07:32:13.559Z</time></trkpt><trkpt lat="43.0774253" lon="12.2148017"><ele>264.0</ele><time>2026-03-29T07:32:14.556Z</time></trkpt><trkpt lat="43.0775056" lon="12.2146555"><ele>264.4</ele><time>2026-03-29T07:32:16.543Z</time></trkpt><trkpt lat="43.0775428" lon="12.2145855"><ele>264.79999999999995</ele><time>2026-03-29T07:32:17.569Z</time></trkpt><trkpt lat="43.0776174" lon="12.2144424"><ele>265.20000000000005</ele><time>2026-03-29T07:32:19.543Z</time></trkpt><trkpt lat="43.0776926" lon="12.2143113"><ele>265.6</ele><time>2026-03-29T07:32:21.564Z</time></trkpt><trkpt lat="43.0777612" lon="12.2141774"><ele>266.0</ele><time>2026-03-29T07:32:23.543Z</time></trkpt><trkpt lat="43.0778315" lon="12.2140426"><ele>265.5</ele><time>2026-03-29T07:32:25.545Z</time></trkpt><trkpt lat="43.0779001" lon="12.2139285"><ele>265.0</ele><time>2026-03-29T07:32:27.547Z</time></trkpt><trkpt lat="43.0779831" lon="12.213799"><ele>264.5</ele><time>2026-03-29T07:32:29.547Z</time></trkpt><trkpt lat="43.0780863" lon="12.2136176"><ele>264.0</ele><time>2026-03-29T07:32:32.554Z</time></trkpt><trkpt lat="43.0781533" lon="12.2135103"><ele>264.0</ele><time>2026-03-29T07:32:34.544Z</time></trkpt><trkpt lat="43.0782111" lon="12.2133955"><ele>264.0</ele><time>2026-03-29T07:32:36.556Z</time></trkpt><trkpt lat="43.0782692" lon="12.213291"><ele>264.0</ele><time>2026-03-29T07:32:38.568Z</time></trkpt><trkpt lat="43.078333" lon="12.213178"><ele>264.0</ele><time>2026-03-29T07:32:40.557Z</time></trkpt><trkpt lat="43.0783899" lon="12.2130812"><ele>264.0</ele><time>2026-03-29T07:32:42.556Z</time></trkpt><trkpt lat="43.0784466" lon="12.2129845"><ele>264.0</ele><time>2026-03-29T07:32:44.563Z</time></trkpt><trkpt lat="43.0784925" lon="12.2128982"><ele>264.0</ele><time>2026-03-29T07:32:46.545Z</time></trkpt><trkpt lat="43.0785436" lon="12.2127971"><ele>264.0</ele><time>2026-03-29T07:32:48.562Z</time></trkpt><trkpt lat="43.0785995" lon="12.2127031"><ele>264.0</ele><time>2026-03-29T07:32:50.574Z</time></trkpt><trkpt lat="43.078664" lon="12.2125936"><ele>264.0</ele><time>2026-03-29T07:32:52.564Z</time></trkpt><trkpt lat="43.0787267" lon="12.2124803"><ele>264.0</ele><time>2026-03-29T07:32:54.569Z</time></trkpt><trkpt lat="43.0787843" lon="12.2123789"><ele>264.0</ele><time>2026-03-29T07:32:56.575Z</time></trkpt><trkpt lat="43.0788447" lon="12.2122771"><ele>264.0</ele><time>2026-03-29T07:32:58.567Z</time></trkpt><trkpt lat="43.0789043" lon="12.2121812"><ele>264.0</ele><time>2026-03-29T07:33:00.566Z</time></trkpt><trkpt lat="43.0789635" lon="12.2120828"><ele>264.0</ele><time>2026-03-29T07:33:02.56Z</time></trkpt><trkpt lat="43.0790137" lon="12.2119925"><ele>263.8333333333333</ele><time>2026-03-29T07:33:04.552Z</time></trkpt><trkpt lat="43.0790778" lon="12.2119001"><ele>263.6666666666667</ele><time>2026-03-29T07:33:06.56Z</time></trkpt><trkpt lat="43.0791205" lon="12.2118142"><ele>263.5</ele><time>2026-03-29T07:33:08.562Z</time></trkpt><trkpt lat="43.0791651" lon="12.2117248"><ele>263.33333333333337</ele><time>2026-03-29T07:33:10.566Z</time></trkpt><trkpt lat="43.0792097" lon="12.2116478"><ele>263.1666666666667</ele><time>2026-03-29T07:33:12.565Z</time></trkpt><trkpt lat="43.0792739" lon="12.2115371"><ele>263.0</ele><time>2026-03-29T07:33:15.565Z</time></trkpt><trkpt lat="43.0793136" lon="12.2114638"><ele>263.7142857142857</ele><time>2026-03-29T07:33:17.571Z</time></trkpt><trkpt lat="43.0793613" lon="12.2113913"><ele>264.4285714285714</ele><time>2026-03-29T07:33:19.569Z</time></trkpt><trkpt lat="43.0794097" lon="12.2113157"><ele>265.1428571428571</ele><time>2026-03-29T07:33:21.568Z</time></trkpt><trkpt lat="43.0794531" lon="12.2112334"><ele>265.85714285714283</ele><time>2026-03-29T07:33:23.566Z</time></trkpt><trkpt lat="43.0794982" lon="12.2111546"><ele>266.57142857142856</ele><time>2026-03-29T07:33:25.551Z</time></trkpt><trkpt lat="43.0795428" lon="12.2110811"><ele>267.2857142857143</ele><time>2026-03-29T07:33:27.557Z</time></trkpt><trkpt lat="43.0795882" lon="12.2110078"><ele>268.0</ele><time>2026-03-29T07:33:29.568Z</time></trkpt><trkpt lat="43.079647" lon="12.2109062"><ele>268.0</ele><time>2026-03-29T07:33:32.568Z</time></trkpt><trkpt lat="43.0796895" lon="12.2108353"><ele>268.0</ele><time>2026-03-29T07:33:34.564Z</time></trkpt><trkpt lat="43.0797307" lon="12.2107697"><ele>268.0</ele><time>2026-03-29T07:33:36.567Z</time></trkpt><trkpt lat="43.0797661" lon="12.210698"><ele>268.0</ele><time>2026-03-29T07:33:38.562Z</time></trkpt><trkpt lat="43.0798035" lon="12.2106282"><ele>268.0</ele><time>2026-03-29T07:33:40.574Z</time></trkpt><trkpt lat="43.0798456" lon="12.2105576"><ele>268.0</ele><time>2026-03-29T07:33:42.563Z</time></trkpt><trkpt lat="43.0798855" lon="12.2104852"><ele>268.0</ele><time>2026-03-29T07:33:44.568Z</time></trkpt><trkpt lat="43.0799448" lon="12.2103806"><ele>268.7142857142857</ele><time>2026-03-29T07:33:47.561Z</time></trkpt><trkpt lat="43.0799881" lon="12.2103101"><ele>269.42857142857144</ele><time>2026-03-29T07:33:49.556Z</time></trkpt><trkpt lat="43.0800285" lon="12.2102339"><ele>270.1428571428571</ele><time>2026-03-29T07:33:51.565Z</time></trkpt><trkpt lat="43.0800671" lon="12.2101567"><ele>270.8571428571429</ele><time>2026-03-29T07:33:53.566Z</time></trkpt><trkpt lat="43.0801072" lon="12.2100816"><ele>271.57142857142856</ele><time>2026-03-29T07:33:55.567Z</time></trkpt><trkpt lat="43.080148" lon="12.2100112"><ele>272.2857142857143</ele><time>2026-03-29T07:33:57.562Z</time></trkpt><trkpt lat="43.0801932" lon="12.2099413"><ele>273.0</ele><time>2026-03-29T07:33:59.56Z</time></trkpt><trkpt lat="43.0802394" lon="12.2098685"><ele>273.14285714285717</ele><time>2026-03-29T07:34:01.562Z</time></trkpt><trkpt lat="43.0802819" lon="12.2097859"><ele>273.2857142857143</ele><time>2026-03-29T07:34:03.671Z</time></trkpt><trkpt lat="43.0803235" lon="12.2097031"><ele>273.42857142857144</ele><time>2026-03-29T07:34:05.543Z</time></trkpt><trkpt lat="43.0803677" lon="12.2096222"><ele>273.57142857142856</ele><time>2026-03-29T07:34:07.559Z</time></trkpt><trkpt lat="43.0804096" lon="12.2095408"><ele>273.7142857142857</ele><time>2026-03-29T07:34:09.57Z</time></trkpt><trkpt lat="43.0804592" lon="12.2094676"><ele>273.8571428571429</ele><time>2026-03-29T07:34:11.559Z</time></trkpt><trkpt lat="43.0805031" lon="12.2093956"><ele>274.0</ele><time>2026-03-29T07:34:13.57Z</time></trkpt><trkpt lat="43.080541" lon="12.2093165"><ele>274.00000000000006</ele><time>2026-03-29T07:34:15.663Z</time></trkpt><trkpt lat="43.0805807" lon="12.2092421"><ele>274.0</ele><time>2026-03-29T07:34:17.57Z</time></trkpt><trkpt lat="43.0806243" lon="12.2091693"><ele>274.0</ele><time>2026-03-29T07:34:19.542Z</time></trkpt><trkpt lat="43.0806731" lon="12.2090912"><ele>274.0</ele><time>2026-03-29T07:34:21.685Z</time></trkpt><trkpt lat="43.080722" lon="12.2090091"><ele>274.0</ele><time>2026-03-29T07:34:23.545Z</time></trkpt><trkpt lat="43.0807689" lon="12.2089293"><ele>274.00000000000006</ele><time>2026-03-29T07:34:25.56Z</time></trkpt><trkpt lat="43.0808147" lon="12.2088484"><ele>274.0</ele><time>2026-03-29T07:34:27.557Z</time></trkpt><trkpt lat="43.080869" lon="12.2087638"><ele>274.42857142857144</ele><time>2026-03-29T07:34:29.569Z</time></trkpt><trkpt lat="43.0809162" lon="12.2086842"><ele>274.8571428571429</ele><time>2026-03-29T07:34:31.578Z</time></trkpt><trkpt lat="43.0809612" lon="12.2086028"><ele>275.2857142857143</ele><time>2026-03-29T07:34:33.563Z</time></trkpt><trkpt lat="43.0809981" lon="12.2085175"><ele>275.7142857142857</ele><time>2026-03-29T07:34:35.553Z</time></trkpt><trkpt lat="43.0810449" lon="12.2084346"><ele>276.1428571428571</ele><time>2026-03-29T07:34:37.549Z</time></trkpt><trkpt lat="43.0810933" lon="12.2083594"><ele>276.57142857142856</ele><time>2026-03-29T07:34:39.556Z</time></trkpt><trkpt lat="43.0811402" lon="12.2082835"><ele>277.0</ele><time>2026-03-29T07:34:41.559Z</time></trkpt><trkpt lat="43.0811817" lon="12.2082009"><ele>276.66666666666663</ele><time>2026-03-29T07:34:43.567Z</time></trkpt><trkpt lat="43.0812223" lon="12.2081141"><ele>276.3333333333333</ele><time>2026-03-29T07:34:45.571Z</time></trkpt><trkpt lat="43.0812642" lon="12.2080281"><ele>276.0</ele><time>2026-03-29T07:34:47.559Z</time></trkpt><trkpt lat="43.0813125" lon="12.2079417"><ele>275.6666666666667</ele><time>2026-03-29T07:34:49.556Z</time></trkpt><trkpt lat="43.0813586" lon="12.2078585"><ele>275.33333333333337</ele><time>2026-03-29T07:34:51.563Z</time></trkpt><trkpt lat="43.0814083" lon="12.2077824"><ele>275.0</ele><time>2026-03-29T07:34:53.555Z</time></trkpt><trkpt lat="43.0814562" lon="12.207697"><ele>275.0</ele><time>2026-03-29T07:34:55.564Z</time></trkpt><trkpt lat="43.081503" lon="12.2076148"><ele>275.0</ele><time>2026-03-29T07:34:57.563Z</time></trkpt><trkpt lat="43.081554" lon="12.2075301"><ele>275.0</ele><time>2026-03-29T07:34:59.571Z</time></trkpt><trkpt lat="43.0816032" lon="12.2074536"><ele>275.0</ele><time>2026-03-29T07:35:01.562Z</time></trkpt><trkpt lat="43.081657" lon="12.2073651"><ele>275.0</ele><time>2026-03-29T07:35:03.563Z</time></trkpt><trkpt lat="43.0817074" lon="12.2072751"><ele>275.0</ele><time>2026-03-29T07:35:05.57Z</time></trkpt><trkpt lat="43.0817551" lon="12.2071835"><ele>275.33333333333337</ele><time>2026-03-29T07:35:07.57Z</time></trkpt><trkpt lat="43.0818015" lon="12.2070973"><ele>275.6666666666667</ele><time>2026-03-29T07:35:09.556Z</time></trkpt><trkpt lat="43.0818494" lon="12.2070103"><ele>276.0</ele><time>2026-03-29T07:35:11.572Z</time></trkpt><trkpt lat="43.0818958" lon="12.2069191"><ele>276.3333333333333</ele><time>2026-03-29T07:35:13.557Z</time></trkpt><trkpt lat="43.0819419" lon="12.2068242"><ele>276.66666666666663</ele><time>2026-03-29T07:35:15.552Z</time></trkpt><trkpt lat="43.0819948" lon="12.2067425"><ele>277.0</ele><time>2026-03-29T07:35:17.562Z</time></trkpt><trkpt lat="43.0820448" lon="12.2066494"><ele>277.0</ele><time>2026-03-29T07:35:19.561Z</time></trkpt><trkpt lat="43.0820895" lon="12.2065656"><ele>277.0</ele><time>2026-03-29T07:35:21.562Z</time></trkpt><trkpt lat="43.0821329" lon="12.2064776"><ele>277.0</ele><time>2026-03-29T07:35:23.567Z</time></trkpt><trkpt lat="43.0821735" lon="12.2063934"><ele>277.0</ele><time>2026-03-29T07:35:25.562Z</time></trkpt><trkpt lat="43.0822162" lon="12.2063144"><ele>277.0</ele><time>2026-03-29T07:35:27.669Z</time></trkpt><trkpt lat="43.0822514" lon="12.2062248"><ele>277.0</ele><time>2026-03-29T07:35:29.56Z</time></trkpt><trkpt lat="43.0822823" lon="12.2061393"><ele>277.0</ele><time>2026-03-29T07:35:31.575Z</time></trkpt><trkpt lat="43.0823189" lon="12.2060522"><ele>277.1428571428571</ele><time>2026-03-29T07:35:33.563Z</time></trkpt><trkpt lat="43.0823562" lon="12.2059573"><ele>277.2857142857143</ele><time>2026-03-29T07:35:35.577Z</time></trkpt><trkpt lat="43.0823923" lon="12.2058673"><ele>277.42857142857144</ele><time>2026-03-29T07:35:37.55Z</time></trkpt><trkpt lat="43.0824291" lon="12.2057788"><ele>277.57142857142856</ele><time>2026-03-29T07:35:39.668Z</time></trkpt><trkpt lat="43.0824657" lon="12.2056914"><ele>277.7142857142857</ele><time>2026-03-29T07:35:41.563Z</time></trkpt><trkpt lat="43.0825024" lon="12.2056042"><ele>277.85714285714283</ele><time>2026-03-29T07:35:43.565Z</time></trkpt><trkpt lat="43.082536" lon="12.2055179"><ele>278.0</ele><time>2026-03-29T07:35:45.668Z</time></trkpt><trkpt lat="43.0825726" lon="12.2054298"><ele>278.7142857142857</ele><time>2026-03-29T07:35:47.564Z</time></trkpt><trkpt lat="43.082608" lon="12.205339"><ele>279.42857142857144</ele><time>2026-03-29T07:35:49.571Z</time></trkpt><trkpt lat="43.0826402" lon="12.2052524"><ele>280.14285714285717</ele><time>2026-03-29T07:35:51.561Z</time></trkpt><trkpt lat="43.08267" lon="12.2051643"><ele>280.8571428571429</ele><time>2026-03-29T07:35:53.558Z</time></trkpt><trkpt lat="43.0826977" lon="12.2050731"><ele>281.5714285714286</ele><time>2026-03-29T07:35:55.561Z</time></trkpt><trkpt lat="43.0827272" lon="12.2049836"><ele>282.2857142857143</ele><time>2026-03-29T07:35:57.551Z</time></trkpt><trkpt lat="43.0827649" lon="12.2048938"><ele>283.0</ele><time>2026-03-29T07:35:59.564Z</time></trkpt><trkpt lat="43.0828009" lon="12.2048084"><ele>283.0</ele><time>2026-03-29T07:36:01.563Z</time></trkpt><trkpt lat="43.0828348" lon="12.2047285"><ele>283.0</ele><time>2026-03-29T07:36:03.555Z</time></trkpt><trkpt lat="43.0828662" lon="12.2046497"><ele>283.0</ele><time>2026-03-29T07:36:05.563Z</time></trkpt><trkpt lat="43.0828978" lon="12.204575"><ele>283.0</ele><time>2026-03-29T07:36:07.555Z</time></trkpt><trkpt lat="43.082935" lon="12.2045016"><ele>283.0</ele><time>2026-03-29T07:36:09.561Z</time></trkpt><trkpt lat="43.0829811" lon="12.2043927"><ele>283.0</ele><time>2026-03-29T07:36:12.562Z</time></trkpt><trkpt lat="43.0830105" lon="12.2043081"><ele>283.0</ele><time>2026-03-29T07:36:14.574Z</time></trkpt><trkpt lat="43.083052" lon="12.2042259"><ele>283.0</ele><time>2026-03-29T07:36:16.567Z</time></trkpt><trkpt lat="43.0830933" lon="12.2041456"><ele>283.0</ele><time>2026-03-29T07:36:18.553Z</time></trkpt><trkpt lat="43.0831379" lon="12.2040444"><ele>283.0</ele><time>2026-03-29T07:36:21.558Z</time></trkpt><trkpt lat="43.083169" lon="12.2039662"><ele>283.0</ele><time>2026-03-29T07:36:23.546Z</time></trkpt><trkpt lat="43.0832103" lon="12.2038667"><ele>283.0</ele><time>2026-03-29T07:36:26.552Z</time></trkpt><trkpt lat="43.0832656" lon="12.2037685"><ele>283.0</ele><time>2026-03-29T07:36:29.561Z</time></trkpt><trkpt lat="43.0833084" lon="12.2036999"><ele>283.66666666666663</ele><time>2026-03-29T07:36:31.572Z</time></trkpt><trkpt lat="43.0833648" lon="12.2036224"><ele>284.3333333333333</ele><time>2026-03-29T07:36:33.575Z</time></trkpt><trkpt lat="43.0834255" lon="12.2035346"><ele>285.0</ele><time>2026-03-29T07:36:35.562Z</time></trkpt><trkpt lat="43.0834908" lon="12.2034552"><ele>285.6666666666667</ele><time>2026-03-29T07:36:37.572Z</time></trkpt><trkpt lat="43.0835547" lon="12.2033924"><ele>286.33333333333337</ele><time>2026-03-29T07:36:39.542Z</time></trkpt><trkpt lat="43.0836162" lon="12.2033463"><ele>287.0</ele><time>2026-03-29T07:36:41.559Z</time></trkpt><trkpt lat="43.0836754" lon="12.2033036"><ele>287.0</ele><time>2026-03-29T07:36:43.546Z</time></trkpt><trkpt lat="43.0837433" lon="12.2032469"><ele>287.0</ele><time>2026-03-29T07:36:45.671Z</time></trkpt><trkpt lat="43.0838168" lon="12.2031975"><ele>287.0</ele><time>2026-03-29T07:36:47.556Z</time></trkpt><trkpt lat="43.0838846" lon="12.2031546"><ele>287.0</ele><time>2026-03-29T07:36:49.545Z</time></trkpt><trkpt lat="43.0839466" lon="12.2031061"><ele>287.0</ele><time>2026-03-29T07:36:51.546Z</time></trkpt><trkpt lat="43.0840062" lon="12.2030505"><ele>287.0</ele><time>2026-03-29T07:36:53.546Z</time></trkpt><trkpt lat="43.0840615" lon="12.202985"><ele>287.2857142857143</ele><time>2026-03-29T07:36:55.547Z</time></trkpt><trkpt lat="43.0841164" lon="12.2029171"><ele>287.57142857142856</ele><time>2026-03-29T07:36:57.547Z</time></trkpt><trkpt lat="43.084162" lon="12.2028483"><ele>287.8571428571429</ele><time>2026-03-29T07:36:59.546Z</time></trkpt><trkpt lat="43.0842014" lon="12.2027739"><ele>288.1428571428571</ele><time>2026-03-29T07:37:01.546Z</time></trkpt><trkpt lat="43.0842344" lon="12.2026906"><ele>288.42857142857144</ele><time>2026-03-29T07:37:03.555Z</time></trkpt><trkpt lat="43.0842644" lon="12.2025984"><ele>288.7142857142857</ele><time>2026-03-29T07:37:05.556Z</time></trkpt><trkpt lat="43.0842933" lon="12.2025111"><ele>289.0</ele><time>2026-03-29T07:37:07.541Z</time></trkpt><trkpt lat="43.0843083" lon="12.2023801"><ele>289.57142857142856</ele><time>2026-03-29T07:37:10.545Z</time></trkpt><trkpt lat="43.0843068" lon="12.2022821"><ele>290.1428571428571</ele><time>2026-03-29T07:37:12.548Z</time></trkpt><trkpt lat="43.0843112" lon="12.2021851"><ele>290.71428571428567</ele><time>2026-03-29T07:37:14.558Z</time></trkpt><trkpt lat="43.0843061" lon="12.2020948"><ele>291.2857142857143</ele><time>2026-03-29T07:37:16.545Z</time></trkpt><trkpt lat="43.0843044" lon="12.2020018"><ele>291.85714285714283</ele><time>2026-03-29T07:37:18.569Z</time></trkpt><trkpt lat="43.0842947" lon="12.2019123"><ele>292.4285714285714</ele><time>2026-03-29T07:37:20.671Z</time></trkpt><trkpt lat="43.0842841" lon="12.2018244"><ele>293.0</ele><time>2026-03-29T07:37:22.569Z</time></trkpt><trkpt lat="43.0842658" lon="12.2016953"><ele>293.0</ele><time>2026-03-29T07:37:25.547Z</time></trkpt><trkpt lat="43.0842536" lon="12.2016041"><ele>293.0</ele><time>2026-03-29T07:37:27.57Z</time></trkpt><trkpt lat="43.0842402" lon="12.2015181"><ele>293.0</ele><time>2026-03-29T07:37:29.563Z</time></trkpt><trkpt lat="43.0842258" lon="12.2013898"><ele>293.0</ele><time>2026-03-29T07:37:32.56Z</time></trkpt><trkpt lat="43.0842186" lon="12.201301"><ele>293.0</ele><time>2026-03-29T07:37:34.561Z</time></trkpt><trkpt lat="43.0842187" lon="12.2011728"><ele>293.0</ele><time>2026-03-29T07:37:37.57Z</time></trkpt><trkpt lat="43.0842219" lon="12.2010434"><ele>293.33333333333337</ele><time>2026-03-29T07:37:40.558Z</time></trkpt><trkpt lat="43.0842291" lon="12.2009214"><ele>293.6666666666667</ele><time>2026-03-29T07:37:43.558Z</time></trkpt><trkpt lat="43.0842411" lon="12.2008023"><ele>294.0</ele><time>2026-03-29T07:37:46.569Z</time></trkpt><trkpt lat="43.0842577" lon="12.2006861"><ele>294.3333333333333</ele><time>2026-03-29T07:37:49.574Z</time></trkpt><trkpt lat="43.0842774" lon="12.2005765"><ele>294.66666666666663</ele><time>2026-03-29T07:37:52.569Z</time></trkpt><trkpt lat="43.0843007" lon="12.200467"><ele>295.0</ele><time>2026-03-29T07:37:55.57Z</time></trkpt><trkpt lat="43.0843378" lon="12.2003488"><ele>295.0</ele><time>2026-03-29T07:37:58.564Z</time></trkpt><trkpt lat="43.0843773" lon="12.200235"><ele>295.0</ele><time>2026-03-29T07:38:01.563Z</time></trkpt><trkpt lat="43.0844192" lon="12.2001216"><ele>295.0</ele><time>2026-03-29T07:38:04.571Z</time></trkpt><trkpt lat="43.0844501" lon="12.2000375"><ele>295.0</ele><time>2026-03-29T07:38:06.545Z</time></trkpt><trkpt lat="43.0845035" lon="12.1999323"><ele>295.0</ele><time>2026-03-29T07:38:09.558Z</time></trkpt><trkpt lat="43.084543" lon="12.1998646"><ele>295.0</ele><time>2026-03-29T07:38:11.544Z</time></trkpt><trkpt lat="43.0846013" lon="12.199771"><ele>294.8333333333333</ele><time>2026-03-29T07:38:14.655Z</time></trkpt><trkpt lat="43.0846532" lon="12.199699"><ele>294.66666666666663</ele><time>2026-03-29T07:38:17.565Z</time></trkpt><trkpt lat="43.0847143" lon="12.1996279"><ele>294.5</ele><time>2026-03-29T07:38:20.64Z</time></trkpt><trkpt lat="43.0847802" lon="12.199558"><ele>294.3333333333333</ele><time>2026-03-29T07:38:23.57Z</time></trkpt><trkpt lat="43.0848475" lon="12.1995023"><ele>294.1666666666667</ele><time>2026-03-29T07:38:26.562Z</time></trkpt><trkpt lat="43.0849239" lon="12.1994746"><ele>294.0</ele><time>2026-03-29T07:38:29.552Z</time></trkpt><trkpt lat="43.0850112" lon="12.1994507"><ele>295.6666666666667</ele><time>2026-03-29T07:38:32.559Z</time></trkpt><trkpt lat="43.0850728" lon="12.1993726"><ele>297.3333333333333</ele><time>2026-03-29T07:38:35.571Z</time></trkpt><trkpt lat="43.0851067" lon="12.1992674"><ele>299.0</ele><time>2026-03-29T07:38:38.679Z</time></trkpt><trkpt lat="43.0851303" lon="12.1991488"><ele>300.66666666666663</ele><time>2026-03-29T07:38:41.57Z</time></trkpt><trkpt lat="43.0851403" lon="12.1990431"><ele>302.3333333333333</ele><time>2026-03-29T07:38:44.561Z</time></trkpt><trkpt lat="43.0851541" lon="12.1989449"><ele>304.0</ele><time>2026-03-29T07:38:47.563Z</time></trkpt><trkpt lat="43.0852034" lon="12.1988657"><ele>304.57142857142856</ele><time>2026-03-29T07:38:50.562Z</time></trkpt><trkpt lat="43.0852748" lon="12.1988528"><ele>305.14285714285717</ele><time>2026-03-29T07:38:53.573Z</time></trkpt><trkpt lat="43.0853447" lon="12.1988794"><ele>305.7142857142857</ele><time>2026-03-29T07:38:56.562Z</time></trkpt><trkpt lat="43.0854127" lon="12.1988967"><ele>306.2857142857143</ele><time>2026-03-29T07:38:59.563Z</time></trkpt><trkpt lat="43.0854914" lon="12.1989104"><ele>306.8571428571429</ele><time>2026-03-29T07:39:03.567Z</time></trkpt><trkpt lat="43.0855719" lon="12.1989435"><ele>307.42857142857144</ele><time>2026-03-29T07:39:08.556Z</time></trkpt><trkpt lat="43.0856336" lon="12.198967"><ele>308.0</ele><time>2026-03-29T07:39:11.571Z</time></trkpt><trkpt lat="43.0857103" lon="12.1989879"><ele>309.83333333333337</ele><time>2026-03-29T07:39:14.561Z</time></trkpt><trkpt lat="43.0857761" lon="12.1990044"><ele>311.6666666666667</ele><time>2026-03-29T07:39:17.571Z</time></trkpt><trkpt lat="43.0858489" lon="12.1990243"><ele>313.5</ele><time>2026-03-29T07:39:21.562Z</time></trkpt><trkpt lat="43.0859187" lon="12.1990442"><ele>315.3333333333333</ele><time>2026-03-29T07:39:24.582Z</time></trkpt><trkpt lat="43.0860064" lon="12.1990657"><ele>317.16666666666663</ele><time>2026-03-29T07:39:28.562Z</time></trkpt><trkpt lat="43.0860845" lon="12.1990651"><ele>319.0</ele><time>2026-03-29T07:39:31.559Z</time></trkpt><trkpt lat="43.0861572" lon="12.1990642"><ele>319.0</ele><time>2026-03-29T07:39:34.564Z</time></trkpt><trkpt lat="43.0862421" lon="12.1990621"><ele>319.0</ele><time>2026-03-29T07:39:38.559Z</time></trkpt><trkpt lat="43.0863209" lon="12.1990716"><ele>319.0</ele><time>2026-03-29T07:39:42.573Z</time></trkpt><trkpt lat="43.0863951" lon="12.1990738"><ele>319.0</ele><time>2026-03-29T07:39:46.565Z</time></trkpt><trkpt lat="43.0864661" lon="12.199068"><ele>319.0</ele><time>2026-03-29T07:39:49.57Z</time></trkpt><trkpt lat="43.0865307" lon="12.1990701"><ele>319.0</ele><time>2026-03-29T07:39:53.575Z</time></trkpt><trkpt lat="43.0866316" lon="12.19907"><ele>321.14285714285717</ele><time>2026-03-29T07:39:58.57Z</time></trkpt><trkpt lat="43.0866996" lon="12.1990798"><ele>323.2857142857143</ele><time>2026-03-29T07:40:02.558Z</time></trkpt><trkpt lat="43.0867781" lon="12.1990702"><ele>325.42857142857144</ele><time>2026-03-29T07:40:06.574Z</time></trkpt><trkpt lat="43.0868543" lon="12.1990627"><ele>327.57142857142856</ele><time>2026-03-29T07:40:10.547Z</time></trkpt><trkpt lat="43.0869276" lon="12.1990372"><ele>329.7142857142857</ele><time>2026-03-29T07:40:13.557Z</time></trkpt><trkpt lat="43.0869969" lon="12.199019"><ele>331.85714285714283</ele><time>2026-03-29T07:40:17.56Z</time></trkpt><trkpt lat="43.0870722" lon="12.1990104"><ele>334.0</ele><time>2026-03-29T07:40:21.562Z</time></trkpt><trkpt lat="43.0871371" lon="12.1990059"><ele>334.0</ele><time>2026-03-29T07:40:24.579Z</time></trkpt><trkpt lat="43.087209" lon="12.1990009"><ele>334.0</ele><time>2026-03-29T07:40:28.547Z</time></trkpt><trkpt lat="43.087281" lon="12.1990189"><ele>334.0</ele><time>2026-03-29T07:40:32.574Z</time></trkpt><trkpt lat="43.0873496" lon="12.1990189"><ele>334.0</ele><time>2026-03-29T07:40:36.575Z</time></trkpt><trkpt lat="43.0874246" lon="12.1990236"><ele>334.0</ele><time>2026-03-29T07:40:40.565Z</time></trkpt><trkpt lat="43.0874939" lon="12.1990186"><ele>334.0</ele><time>2026-03-29T07:40:44.567Z</time></trkpt><trkpt lat="43.0875635" lon="12.1990199"><ele>334.0</ele><time>2026-03-29T07:40:48.566Z</time></trkpt><trkpt lat="43.0876351" lon="12.1990425"><ele>336.16666666666663</ele><time>2026-03-29T07:40:52.547Z</time></trkpt><trkpt lat="43.0876816" lon="12.1991157"><ele>338.3333333333333</ele><time>2026-03-29T07:40:56.55Z</time></trkpt><trkpt lat="43.0877152" lon="12.1991939"><ele>340.5</ele><time>2026-03-29T07:40:58.567Z</time></trkpt><trkpt lat="43.087754" lon="12.1993218"><ele>342.6666666666667</ele><time>2026-03-29T07:41:00.543Z</time></trkpt><trkpt lat="43.0878107" lon="12.1994054"><ele>344.83333333333337</ele><time>2026-03-29T07:41:02.57Z</time></trkpt><trkpt lat="43.0878734" lon="12.1994652"><ele>347.0</ele><time>2026-03-29T07:41:06.559Z</time></trkpt><trkpt lat="43.0879357" lon="12.1995331"><ele>347.0</ele><time>2026-03-29T07:41:10.544Z</time></trkpt><trkpt lat="43.0879846" lon="12.1996139"><ele>347.0</ele><time>2026-03-29T07:41:14.552Z</time></trkpt><trkpt lat="43.0880221" lon="12.1996833"><ele>347.0</ele><time>2026-03-29T07:41:17.548Z</time></trkpt><trkpt lat="43.0880472" lon="12.1997764"><ele>347.0</ele><time>2026-03-29T07:41:21.572Z</time></trkpt><trkpt lat="43.087998" lon="12.1998615"><ele>347.0</ele><time>2026-03-29T07:41:25.651Z</time></trkpt><trkpt lat="43.0879542" lon="12.1999261"><ele>347.0</ele><time>2026-03-29T07:41:28.557Z</time></trkpt><trkpt lat="43.0879" lon="12.2000068"><ele>347.0</ele><time>2026-03-29T07:41:33.564Z</time></trkpt><trkpt lat="43.0878909" lon="12.2000964"><ele>347.8571428571429</ele><time>2026-03-29T07:41:36.547Z</time></trkpt><trkpt lat="43.0878956" lon="12.2001855"><ele>348.71428571428567</ele><time>2026-03-29T07:41:39.544Z</time></trkpt><trkpt lat="43.0879067" lon="12.2002739"><ele>349.57142857142856</ele><time>2026-03-29T07:41:42.549Z</time></trkpt><trkpt lat="43.0879111" lon="12.2003707"><ele>350.42857142857144</ele><time>2026-03-29T07:41:45.544Z</time></trkpt><trkpt lat="43.0879084" lon="12.2004749"><ele>351.28571428571433</ele><time>2026-03-29T07:41:48.647Z</time></trkpt><trkpt lat="43.0879135" lon="12.2005933"><ele>352.1428571428571</ele><time>2026-03-29T07:41:51.566Z</time></trkpt><trkpt lat="43.0879164" lon="12.200682"><ele>353.0</ele><time>2026-03-29T07:41:53.569Z</time></trkpt><trkpt lat="43.0879352" lon="12.2008025"><ele>354.0</ele><time>2026-03-29T07:41:56.565Z</time></trkpt><trkpt lat="43.0879619" lon="12.200911"><ele>355.0</ele><time>2026-03-29T07:41:59.547Z</time></trkpt><trkpt lat="43.0879691" lon="12.201024"><ele>356.0</ele><time>2026-03-29T07:42:02.567Z</time></trkpt><trkpt lat="43.087964" lon="12.201128"><ele>357.0</ele><time>2026-03-29T07:42:05.55Z</time></trkpt><trkpt lat="43.0879641" lon="12.2012407"><ele>358.0</ele><time>2026-03-29T07:42:08.552Z</time></trkpt><trkpt lat="43.0879704" lon="12.2013384"><ele>359.0</ele><time>2026-03-29T07:42:10.55Z</time></trkpt><trkpt lat="43.0879904" lon="12.2014539"><ele>358.83333333333337</ele><time>2026-03-29T07:42:12.557Z</time></trkpt><trkpt lat="43.088027" lon="12.2015539"><ele>358.6666666666667</ele><time>2026-03-29T07:42:14.561Z</time></trkpt><trkpt lat="43.0880714" lon="12.2016237"><ele>358.5</ele><time>2026-03-29T07:42:16.56Z</time></trkpt><trkpt lat="43.0881234" lon="12.2016768"><ele>358.3333333333333</ele><time>2026-03-29T07:42:18.572Z</time></trkpt><trkpt lat="43.0881968" lon="12.2017431"><ele>358.16666666666663</ele><time>2026-03-29T07:42:21.569Z</time></trkpt><trkpt lat="43.0882585" lon="12.2018162"><ele>358.0</ele><time>2026-03-29T07:42:24.565Z</time></trkpt><trkpt lat="43.0883146" lon="12.2018977"><ele>358.0</ele><time>2026-03-29T07:42:27.566Z</time></trkpt><trkpt lat="43.0883481" lon="12.2020045"><ele>358.0</ele><time>2026-03-29T07:42:30.559Z</time></trkpt><trkpt lat="43.0883708" lon="12.2021157"><ele>358.0</ele><time>2026-03-29T07:42:33.57Z</time></trkpt><trkpt lat="43.0883762" lon="12.20223"><ele>358.0</ele><time>2026-03-29T07:42:36.564Z</time></trkpt><trkpt lat="43.0883617" lon="12.2023384"><ele>358.0</ele><time>2026-03-29T07:42:39.562Z</time></trkpt><trkpt lat="43.0883418" lon="12.2024761"><ele>358.0</ele><time>2026-03-29T07:42:43.572Z</time></trkpt><trkpt lat="43.088336" lon="12.2025625"><ele>357.28571428571433</ele><time>2026-03-29T07:42:46.569Z</time></trkpt><trkpt lat="43.0883259" lon="12.2026535"><ele>356.57142857142856</ele><time>2026-03-29T07:42:50.544Z</time></trkpt><trkpt lat="43.0882879" lon="12.2027321"><ele>355.8571428571429</ele><time>2026-03-29T07:42:54.567Z</time></trkpt><trkpt lat="43.0882371" lon="12.2028266"><ele>355.14285714285717</ele><time>2026-03-29T07:42:58.553Z</time></trkpt><trkpt lat="43.0882046" lon="12.2029088"><ele>354.42857142857144</ele><time>2026-03-29T07:43:01.557Z</time></trkpt><trkpt lat="43.0881726" lon="12.2029979"><ele>353.7142857142857</ele><time>2026-03-29T07:43:04.57Z</time></trkpt><trkpt lat="43.0881416" lon="12.2030863"><ele>353.0</ele><time>2026-03-29T07:43:07.56Z</time></trkpt><trkpt lat="43.0881173" lon="12.203194"><ele>355.2857142857143</ele><time>2026-03-29T07:43:11.561Z</time></trkpt><trkpt lat="43.0880955" lon="12.2032829"><ele>357.5714285714286</ele><time>2026-03-29T07:43:14.562Z</time></trkpt><trkpt lat="43.0880685" lon="12.2033661"><ele>359.8571428571429</ele><time>2026-03-29T07:43:18.575Z</time></trkpt><trkpt lat="43.088033" lon="12.2034435"><ele>362.1428571428571</ele><time>2026-03-29T07:43:22.543Z</time></trkpt><trkpt lat="43.0880038" lon="12.2035359"><ele>364.42857142857144</ele><time>2026-03-29T07:43:26.569Z</time></trkpt><trkpt lat="43.0879699" lon="12.2036318"><ele>366.7142857142857</ele><time>2026-03-29T07:43:30.542Z</time></trkpt><trkpt lat="43.0879516" lon="12.2037341"><ele>369.0</ele><time>2026-03-29T07:43:34.573Z</time></trkpt><trkpt lat="43.0879187" lon="12.2038194"><ele>369.0</ele><time>2026-03-29T07:43:38.564Z</time></trkpt><trkpt lat="43.0879034" lon="12.2039122"><ele>369.0</ele><time>2026-03-29T07:43:42.561Z</time></trkpt><trkpt lat="43.0878934" lon="12.2040076"><ele>369.0</ele><time>2026-03-29T07:43:46.553Z</time></trkpt><trkpt lat="43.0878647" lon="12.2041104"><ele>369.0</ele><time>2026-03-29T07:43:50.551Z</time></trkpt><trkpt lat="43.0878426" lon="12.2042137"><ele>369.0</ele><time>2026-03-29T07:43:54.551Z</time></trkpt><trkpt lat="43.0878348" lon="12.2043008"><ele>369.0</ele><time>2026-03-29T07:43:57.562Z</time></trkpt><trkpt lat="43.0878309" lon="12.204411"><ele>369.0</ele><time>2026-03-29T07:44:01.558Z</time></trkpt><trkpt lat="43.0878336" lon="12.2045054"><ele>370.57142857142856</ele><time>2026-03-29T07:44:04.557Z</time></trkpt><trkpt lat="43.0878461" lon="12.2046096"><ele>372.1428571428571</ele><time>2026-03-29T07:44:07.555Z</time></trkpt><trkpt lat="43.0878678" lon="12.2046969"><ele>373.7142857142857</ele><time>2026-03-29T07:44:10.547Z</time></trkpt><trkpt lat="43.087895" lon="12.2047773"><ele>375.2857142857143</ele><time>2026-03-29T07:44:13.568Z</time></trkpt><trkpt lat="43.0879402" lon="12.2048598"><ele>376.8571428571429</ele><time>2026-03-29T07:44:17.564Z</time></trkpt><trkpt lat="43.0879881" lon="12.2049182"><ele>378.42857142857144</ele><time>2026-03-29T07:44:20.546Z</time></trkpt><trkpt lat="43.088033" lon="12.2049839"><ele>380.0</ele><time>2026-03-29T07:44:24.567Z</time></trkpt><trkpt lat="43.0880816" lon="12.2050407"><ele>380.42857142857144</ele><time>2026-03-29T07:44:28.564Z</time></trkpt><trkpt lat="43.0881425" lon="12.2050926"><ele>380.8571428571429</ele><time>2026-03-29T07:44:32.562Z</time></trkpt><trkpt lat="43.0882138" lon="12.2051208"><ele>381.2857142857143</ele><time>2026-03-29T07:44:36.57Z</time></trkpt><trkpt lat="43.0882802" lon="12.2051582"><ele>381.7142857142857</ele><time>2026-03-29T07:44:40.545Z</time></trkpt><trkpt lat="43.0883558" lon="12.2051852"><ele>382.1428571428571</ele><time>2026-03-29T07:44:44.65Z</time></trkpt><trkpt lat="43.0884343" lon="12.2051986"><ele>382.57142857142856</ele><time>2026-03-29T07:44:48.561Z</time></trkpt><trkpt lat="43.0884979" lon="12.2051979"><ele>383.0</ele><time>2026-03-29T07:44:51.565Z</time></trkpt><trkpt lat="43.088578" lon="12.2051818"><ele>385.7142857142857</ele><time>2026-03-29T07:44:55.56Z</time></trkpt><trkpt lat="43.0886505" lon="12.2051733"><ele>388.42857142857144</ele><time>2026-03-29T07:44:58.566Z</time></trkpt><trkpt lat="43.0887145" lon="12.2051981"><ele>391.1428571428571</ele><time>2026-03-29T07:45:01.558Z</time></trkpt><trkpt lat="43.0887807" lon="12.2052252"><ele>393.8571428571429</ele><time>2026-03-29T07:45:04.545Z</time></trkpt><trkpt lat="43.0888513" lon="12.2052471"><ele>396.5714285714286</ele><time>2026-03-29T07:45:07.56Z</time></trkpt><trkpt lat="43.0889148" lon="12.2052771"><ele>399.2857142857143</ele><time>2026-03-29T07:45:10.55Z</time></trkpt><trkpt lat="43.0889819" lon="12.2052981"><ele>402.0</ele><time>2026-03-29T07:45:13.576Z</time></trkpt><trkpt lat="43.0890762" lon="12.2053176"><ele>403.1666666666667</ele><time>2026-03-29T07:45:16.567Z</time></trkpt><trkpt lat="43.0891625" lon="12.2053409"><ele>404.33333333333337</ele><time>2026-03-29T07:45:19.565Z</time></trkpt><trkpt lat="43.0892439" lon="12.2053739"><ele>405.5</ele><time>2026-03-29T07:45:22.561Z</time></trkpt><trkpt lat="43.0893333" lon="12.2054215"><ele>406.6666666666667</ele><time>2026-03-29T07:45:25.548Z</time></trkpt><trkpt lat="43.0894227" lon="12.2054494"><ele>407.83333333333337</ele><time>2026-03-29T07:45:28.571Z</time></trkpt><trkpt lat="43.0894783" lon="12.2055259"><ele>409.0</ele><time>2026-03-29T07:45:32.566Z</time></trkpt><trkpt lat="43.0895307" lon="12.2055756"><ele>409.0</ele><time>2026-03-29T07:45:35.549Z</time></trkpt><trkpt lat="43.0895884" lon="12.2056379"><ele>409.0</ele><time>2026-03-29T07:45:38.565Z</time></trkpt><trkpt lat="43.0896422" lon="12.2056979"><ele>409.0</ele><time>2026-03-29T07:45:41.566Z</time></trkpt><trkpt lat="43.0897041" lon="12.2057486"><ele>409.0</ele><time>2026-03-29T07:45:44.561Z</time></trkpt><trkpt lat="43.0897629" lon="12.2057945"><ele>409.0</ele><time>2026-03-29T07:45:47.547Z</time></trkpt><trkpt lat="43.0898303" lon="12.2058341"><ele>409.0</ele><time>2026-03-29T07:45:50.547Z</time></trkpt><trkpt lat="43.0898899" lon="12.2058699"><ele>409.0</ele><time>2026-03-29T07:45:53.57Z</time></trkpt><trkpt lat="43.0899505" lon="12.2059229"><ele>409.6666666666667</ele><time>2026-03-29T07:45:56.561Z</time></trkpt><trkpt lat="43.090026" lon="12.2059853"><ele>410.33333333333337</ele><time>2026-03-29T07:45:59.549Z</time></trkpt><trkpt lat="43.0900984" lon="12.2060385"><ele>411.0</ele><time>2026-03-29T07:46:02.571Z</time></trkpt><trkpt lat="43.0901562" lon="12.2061113"><ele>411.66666666666663</ele><time>2026-03-29T07:46:05.547Z</time></trkpt><trkpt lat="43.0902314" lon="12.2061824"><ele>412.3333333333333</ele><time>2026-03-29T07:46:08.543Z</time></trkpt><trkpt lat="43.0903006" lon="12.2062262"><ele>413.0</ele><time>2026-03-29T07:46:11.552Z</time></trkpt><trkpt lat="43.0903776" lon="12.2062819"><ele>412.99999999999994</ele><time>2026-03-29T07:46:14.547Z</time></trkpt><trkpt lat="43.0904501" lon="12.2063514"><ele>413.0</ele><time>2026-03-29T07:46:17.548Z</time></trkpt><trkpt lat="43.0905218" lon="12.2064253"><ele>413.0</ele><time>2026-03-29T07:46:20.546Z</time></trkpt><trkpt lat="43.0905721" lon="12.2065036"><ele>413.0</ele><time>2026-03-29T07:46:23.543Z</time></trkpt><trkpt lat="43.0906241" lon="12.2065822"><ele>412.99999999999994</ele><time>2026-03-29T07:46:26.545Z</time></trkpt><trkpt lat="43.0906874" lon="12.2066532"><ele>413.0</ele><time>2026-03-29T07:46:29.651Z</time></trkpt><trkpt lat="43.0907669" lon="12.2067432"><ele>413.3333333333333</ele><time>2026-03-29T07:46:33.571Z</time></trkpt><trkpt lat="43.0908261" lon="12.2068183"><ele>413.66666666666663</ele><time>2026-03-29T07:46:36.565Z</time></trkpt><trkpt lat="43.0908901" lon="12.2068818"><ele>414.0</ele><time>2026-03-29T07:46:39.555Z</time></trkpt><trkpt lat="43.0909618" lon="12.2069397"><ele>414.33333333333337</ele><time>2026-03-29T07:46:42.566Z</time></trkpt><trkpt lat="43.0910016" lon="12.2070354"><ele>414.6666666666667</ele><time>2026-03-29T07:46:45.547Z</time></trkpt><trkpt lat="43.091014" lon="12.2071388"><ele>415.0</ele><time>2026-03-29T07:46:48.574Z</time></trkpt><trkpt lat="43.0910542" lon="12.2072374"><ele>414.6666666666667</ele><time>2026-03-29T07:46:51.562Z</time></trkpt><trkpt lat="43.0910906" lon="12.2073289"><ele>414.33333333333337</ele><time>2026-03-29T07:46:54.576Z</time></trkpt><trkpt lat="43.0911102" lon="12.2074438"><ele>414.0</ele><time>2026-03-29T07:46:57.566Z</time></trkpt><trkpt lat="43.0911172" lon="12.2075525"><ele>413.66666666666663</ele><time>2026-03-29T07:47:00.547Z</time></trkpt><trkpt lat="43.091117" lon="12.2076605"><ele>413.3333333333333</ele><time>2026-03-29T07:47:03.565Z</time></trkpt><trkpt lat="43.0911198" lon="12.2077733"><ele>413.0</ele><time>2026-03-29T07:47:06.57Z</time></trkpt><trkpt lat="43.0911252" lon="12.2078867"><ele>412.99999999999994</ele><time>2026-03-29T07:47:09.56Z</time></trkpt><trkpt lat="43.0911241" lon="12.2080021"><ele>413.0</ele><time>2026-03-29T07:47:12.573Z</time></trkpt><trkpt lat="43.0911206" lon="12.208114"><ele>413.0</ele><time>2026-03-29T07:47:15.547Z</time></trkpt><trkpt lat="43.0911317" lon="12.2082083"><ele>413.0</ele><time>2026-03-29T07:47:18.568Z</time></trkpt><trkpt lat="43.0910946" lon="12.2082999"><ele>412.99999999999994</ele><time>2026-03-29T07:47:21.57Z</time></trkpt><trkpt lat="43.0910579" lon="12.20839"><ele>413.0</ele><time>2026-03-29T07:47:24.563Z</time></trkpt><trkpt lat="43.0910565" lon="12.2084935"><ele>413.16666666666663</ele><time>2026-03-29T07:47:27.57Z</time></trkpt><trkpt lat="43.0910646" lon="12.2086135"><ele>413.3333333333333</ele><time>2026-03-29T07:47:30.551Z</time></trkpt><trkpt lat="43.0910731" lon="12.2087285"><ele>413.5</ele><time>2026-03-29T07:47:33.563Z</time></trkpt><trkpt lat="43.0910762" lon="12.2088351"><ele>413.66666666666663</ele><time>2026-03-29T07:47:36.546Z</time></trkpt><trkpt lat="43.0910699" lon="12.2089345"><ele>413.8333333333333</ele><time>2026-03-29T07:47:39.563Z</time></trkpt><trkpt lat="43.0910631" lon="12.2090371"><ele>414.0</ele><time>2026-03-29T07:47:42.559Z</time></trkpt><trkpt lat="43.0910435" lon="12.2091505"><ele>415.1666666666667</ele><time>2026-03-29T07:47:46.568Z</time></trkpt><trkpt lat="43.0910205" lon="12.2092542"><ele>416.33333333333337</ele><time>2026-03-29T07:47:49.559Z</time></trkpt><trkpt lat="43.0909815" lon="12.2093255"><ele>417.5</ele><time>2026-03-29T07:47:51.571Z</time></trkpt><trkpt lat="43.0909327" lon="12.2093868"><ele>418.6666666666667</ele><time>2026-03-29T07:47:53.571Z</time></trkpt><trkpt lat="43.0908603" lon="12.2094652"><ele>419.83333333333337</ele><time>2026-03-29T07:47:56.558Z</time></trkpt><trkpt lat="43.090809" lon="12.2095336"><ele>421.0</ele><time>2026-03-29T07:47:58.565Z</time></trkpt><trkpt lat="43.0907542" lon="12.2096376"><ele>417.1666666666667</ele><time>2026-03-29T07:48:01.57Z</time></trkpt><trkpt lat="43.0907189" lon="12.2097106"><ele>413.33333333333337</ele><time>2026-03-29T07:48:03.565Z</time></trkpt><trkpt lat="43.0906827" lon="12.2097911"><ele>409.5</ele><time>2026-03-29T07:48:05.554Z</time></trkpt><trkpt lat="43.0906389" lon="12.2098803"><ele>405.66666666666663</ele><time>2026-03-29T07:48:07.564Z</time></trkpt><trkpt lat="43.0906144" lon="12.2099866"><ele>401.8333333333333</ele><time>2026-03-29T07:48:09.565Z</time></trkpt><trkpt lat="43.090621" lon="12.2101132"><ele>398.0</ele><time>2026-03-29T07:48:11.561Z</time></trkpt><trkpt lat="43.0906256" lon="12.2102306"><ele>397.99999999999994</ele><time>2026-03-29T07:48:13.561Z</time></trkpt><trkpt lat="43.0906346" lon="12.2103393"><ele>398.0</ele><time>2026-03-29T07:48:15.549Z</time></trkpt><trkpt lat="43.09064" lon="12.2104397"><ele>398.0</ele><time>2026-03-29T07:48:17.553Z</time></trkpt><trkpt lat="43.0906632" lon="12.2105291"><ele>398.0</ele><time>2026-03-29T07:48:19.566Z</time></trkpt><trkpt lat="43.0907006" lon="12.2106097"><ele>397.99999999999994</ele><time>2026-03-29T07:48:21.557Z</time></trkpt><trkpt lat="43.0907696" lon="12.2106817"><ele>398.0</ele><time>2026-03-29T07:48:24.561Z</time></trkpt><trkpt lat="43.0908297" lon="12.2107513"><ele>402.66666666666663</ele><time>2026-03-29T07:48:27.558Z</time></trkpt><trkpt lat="43.0908924" lon="12.2108221"><ele>407.3333333333333</ele><time>2026-03-29T07:48:30.546Z</time></trkpt><trkpt lat="43.090947" lon="12.210903"><ele>412.0</ele><time>2026-03-29T07:48:33.565Z</time></trkpt><trkpt lat="43.0909879" lon="12.21098"><ele>416.66666666666663</ele><time>2026-03-29T07:48:36.568Z</time></trkpt><trkpt lat="43.0910313" lon="12.211063"><ele>421.3333333333333</ele><time>2026-03-29T07:48:39.558Z</time></trkpt><trkpt lat="43.09109" lon="12.2111319"><ele>426.0</ele><time>2026-03-29T07:48:42.555Z</time></trkpt><trkpt lat="43.0911605" lon="12.2111849"><ele>425.99999999999994</ele><time>2026-03-29T07:48:45.547Z</time></trkpt><trkpt lat="43.0912182" lon="12.2112241"><ele>426.0</ele><time>2026-03-29T07:48:48.568Z</time></trkpt><trkpt lat="43.0912821" lon="12.2112523"><ele>426.0</ele><time>2026-03-29T07:48:51.56Z</time></trkpt><trkpt lat="43.0913515" lon="12.2113011"><ele>426.0</ele><time>2026-03-29T07:48:55.544Z</time></trkpt><trkpt lat="43.0914045" lon="12.211354"><ele>426.0</ele><time>2026-03-29T07:48:59.557Z</time></trkpt><trkpt lat="43.0914591" lon="12.2114134"><ele>425.99999999999994</ele><time>2026-03-29T07:50:02.561Z</time></trkpt><trkpt lat="43.0915039" lon="12.2114741"><ele>426.0</ele><time>2026-03-29T07:50:08.554Z</time></trkpt><trkpt lat="43.091563" lon="12.2115147"><ele>426.85714285714283</ele><time>2026-03-29T07:50:20.646Z</time></trkpt><trkpt lat="43.0916204" lon="12.2115677"><ele>427.7142857142857</ele><time>2026-03-29T07:50:37.65Z</time></trkpt><trkpt lat="43.0916781" lon="12.21163"><ele>428.57142857142856</ele><time>2026-03-29T07:50:43.553Z</time></trkpt><trkpt lat="43.0917182" lon="12.2117069"><ele>429.42857142857144</ele><time>2026-03-29T07:50:47.57Z</time></trkpt><trkpt lat="43.0917638" lon="12.2117673"><ele>430.2857142857143</ele><time>2026-03-29T07:50:50.545Z</time></trkpt><trkpt lat="43.0918152" lon="12.2118277"><ele>431.1428571428571</ele><time>2026-03-29T07:50:53.543Z</time></trkpt><trkpt lat="43.0918725" lon="12.2119059"><ele>432.0</ele><time>2026-03-29T07:50:57.548Z</time></trkpt><trkpt lat="43.0919136" lon="12.2119737"><ele>432.0</ele><time>2026-03-29T07:51:00.554Z</time></trkpt><trkpt lat="43.0919099" lon="12.2120751"><ele>432.0</ele><time>2026-03-29T07:51:04.554Z</time></trkpt><trkpt lat="43.0918757" lon="12.2121704"><ele>432.0</ele><time>2026-03-29T07:51:09.558Z</time></trkpt><trkpt lat="43.0918547" lon="12.2122741"><ele>432.0</ele><time>2026-03-29T07:51:13.576Z</time></trkpt><trkpt lat="43.0918183" lon="12.212347"><ele>432.0</ele><time>2026-03-29T07:51:16.562Z</time></trkpt><trkpt lat="43.091812" lon="12.2124452"><ele>432.0</ele><time>2026-03-29T07:51:20.551Z</time></trkpt><trkpt lat="43.0918098" lon="12.2125445"><ele>432.0</ele><time>2026-03-29T07:51:24.564Z</time></trkpt><trkpt lat="43.0917566" lon="12.2126254"><ele>431.6666666666667</ele><time>2026-03-29T07:51:28.559Z</time></trkpt><trkpt lat="43.0917076" lon="12.2127043"><ele>431.33333333333337</ele><time>2026-03-29T07:51:32.561Z</time></trkpt><trkpt lat="43.0916569" lon="12.2127898"><ele>431.0</ele><time>2026-03-29T07:51:36.555Z</time></trkpt><trkpt lat="43.091609" lon="12.2128583"><ele>430.6666666666667</ele><time>2026-03-29T07:51:40.553Z</time></trkpt><trkpt lat="43.0915478" lon="12.2129216"><ele>430.33333333333337</ele><time>2026-03-29T07:51:43.557Z</time></trkpt><trkpt lat="43.0914915" lon="12.212989"><ele>430.0</ele><time>2026-03-29T07:51:47.559Z</time></trkpt><trkpt lat="43.0914224" lon="12.213047"><ele>430.0</ele><time>2026-03-29T07:51:51.57Z</time></trkpt><trkpt lat="43.0913478" lon="12.2130891"><ele>430.0</ele><time>2026-03-29T07:51:55.551Z</time></trkpt><trkpt lat="43.0912927" lon="12.2131504"><ele>430.0</ele><time>2026-03-29T07:51:59.563Z</time></trkpt><trkpt lat="43.091292" lon="12.2132586"><ele>430.0</ele><time>2026-03-29T07:52:04.571Z</time></trkpt><trkpt lat="43.0913318" lon="12.2133473"><ele>430.0</ele><time>2026-03-29T07:52:09.56Z</time></trkpt><trkpt lat="43.09136" lon="12.2134462"><ele>430.0</ele><time>2026-03-29T07:52:14.566Z</time></trkpt><trkpt lat="43.0913844" lon="12.2135267"><ele>430.0</ele><time>2026-03-29T07:52:18.554Z</time></trkpt><trkpt lat="43.0914307" lon="12.2136017"><ele>430.0</ele><time>2026-03-29T07:52:23.574Z</time></trkpt><trkpt lat="43.0914671" lon="12.2136807"><ele>430.0</ele><time>2026-03-29T07:52:27.563Z</time></trkpt><trkpt lat="43.0915049" lon="12.2137707"><ele>430.0</ele><time>2026-03-29T07:52:32.57Z</time></trkpt><trkpt lat="43.0915348" lon="12.2138572"><ele>430.0</ele><time>2026-03-29T07:52:37.563Z</time></trkpt><trkpt lat="43.0915328" lon="12.2139585"><ele>430.0</ele><time>2026-03-29T07:53:34.568Z</time></trkpt><trkpt lat="43.0914562" lon="12.2139943"><ele>430.0</ele><time>2026-03-29T08:01:36.533Z</time></trkpt><trkpt lat="43.0914448" lon="12.2140935"><ele>430.0</ele><time>2026-03-29T08:01:39.571Z</time></trkpt><trkpt lat="43.0914714" lon="12.2141751"><ele>430.1666666666667</ele><time>2026-03-29T08:01:42.561Z</time></trkpt><trkpt lat="43.0914927" lon="12.2142565"><ele>430.33333333333337</ele><time>2026-03-29T08:01:49.576Z</time></trkpt><trkpt lat="43.091527" lon="12.2143553"><ele>430.5</ele><time>2026-03-29T08:01:53.565Z</time></trkpt><trkpt lat="43.0915645" lon="12.2144602"><ele>430.66666666666663</ele><time>2026-03-29T08:01:57.561Z</time></trkpt><trkpt lat="43.0916075" lon="12.2145545"><ele>430.8333333333333</ele><time>2026-03-29T08:02:00.573Z</time></trkpt><trkpt lat="43.091669" lon="12.214642"><ele>431.0</ele><time>2026-03-29T08:02:03.562Z</time></trkpt><trkpt lat="43.0917377" lon="12.2147241"><ele>431.16666666666663</ele><time>2026-03-29T08:02:06.567Z</time></trkpt><trkpt lat="43.0918128" lon="12.2148003"><ele>431.3333333333333</ele><time>2026-03-29T08:02:09.561Z</time></trkpt><trkpt lat="43.0918686" lon="12.2148594"><ele>431.5</ele><time>2026-03-29T08:02:11.555Z</time></trkpt><trkpt lat="43.0919401" lon="12.214924"><ele>431.66666666666663</ele><time>2026-03-29T08:02:13.552Z</time></trkpt><trkpt lat="43.0920112" lon="12.2150059"><ele>431.8333333333333</ele><time>2026-03-29T08:02:15.548Z</time></trkpt><trkpt lat="43.0920916" lon="12.2150893"><ele>432.0</ele><time>2026-03-29T08:02:17.669Z</time></trkpt><trkpt lat="43.0921955" lon="12.2151631"><ele>432.0</ele><time>2026-03-29T08:02:19.545Z</time></trkpt><trkpt lat="43.0922974" lon="12.2151715"><ele>432.0</ele><time>2026-03-29T08:02:21.568Z</time></trkpt><trkpt lat="43.092381" lon="12.2151044"><ele>432.0</ele><time>2026-03-29T08:02:23.658Z</time></trkpt><trkpt lat="43.0924457" lon="12.2150398"><ele>432.0</ele><time>2026-03-29T08:02:25.561Z</time></trkpt><trkpt lat="43.0925029" lon="12.2149897"><ele>432.0</ele><time>2026-03-29T08:02:27.557Z</time></trkpt><trkpt lat="43.092547" lon="12.214922"><ele>432.0</ele><time>2026-03-29T08:02:29.55Z</time></trkpt><trkpt lat="43.0925876" lon="12.2148446"><ele>435.1666666666667</ele><time>2026-03-29T08:02:31.565Z</time></trkpt><trkpt lat="43.0926317" lon="12.2147369"><ele>438.33333333333337</ele><time>2026-03-29T08:02:34.553Z</time></trkpt><trkpt lat="43.0926682" lon="12.2146195"><ele>441.5</ele><time>2026-03-29T08:02:37.553Z</time></trkpt><trkpt lat="43.0927133" lon="12.2145101"><ele>444.6666666666667</ele><time>2026-03-29T08:02:40.559Z</time></trkpt><trkpt lat="43.0927558" lon="12.2144103"><ele>447.83333333333337</ele><time>2026-03-29T08:02:43.564Z</time></trkpt><trkpt lat="43.0928048" lon="12.2143366"><ele>451.0</ele><time>2026-03-29T08:02:46.559Z</time></trkpt><trkpt lat="43.092891" lon="12.2142965"><ele>451.00000000000006</ele><time>2026-03-29T08:02:49.56Z</time></trkpt><trkpt lat="43.0929669" lon="12.2142969"><ele>451.0</ele><time>2026-03-29T08:02:52.558Z</time></trkpt><trkpt lat="43.0930563" lon="12.2142885"><ele>451.0</ele><time>2026-03-29T08:02:55.543Z</time></trkpt><trkpt lat="43.0931229" lon="12.2142764"><ele>451.0</ele><time>2026-03-29T08:02:57.567Z</time></trkpt><trkpt lat="43.0932041" lon="12.2142389"><ele>451.00000000000006</ele><time>2026-03-29T08:02:59.557Z</time></trkpt><trkpt lat="43.0932875" lon="12.21419"><ele>451.0</ele><time>2026-03-29T08:03:01.564Z</time></trkpt><trkpt lat="43.0933695" lon="12.2141388"><ele>449.4</ele><time>2026-03-29T08:03:03.551Z</time></trkpt><trkpt lat="43.0934892" lon="12.2140481"><ele>447.8</ele><time>2026-03-29T08:03:06.571Z</time></trkpt><trkpt lat="43.093575" lon="12.2139399"><ele>446.19999999999993</ele><time>2026-03-29T08:03:08.559Z</time></trkpt><trkpt lat="43.0936561" lon="12.21385"><ele>444.59999999999997</ele><time>2026-03-29T08:03:10.568Z</time></trkpt><trkpt lat="43.0937235" lon="12.2138219"><ele>443.0</ele><time>2026-03-29T08:03:13.554Z</time></trkpt><trkpt lat="43.09379" lon="12.2137857"><ele>442.8333333333333</ele><time>2026-03-29T08:03:16.667Z</time></trkpt><trkpt lat="43.0938713" lon="12.213745"><ele>442.66666666666663</ele><time>2026-03-29T08:03:19.55Z</time></trkpt><trkpt lat="43.0939591" lon="12.2137562"><ele>442.5</ele><time>2026-03-29T08:03:22.548Z</time></trkpt><trkpt lat="43.0940446" lon="12.2138059"><ele>442.33333333333337</ele><time>2026-03-29T08:03:25.578Z</time></trkpt><trkpt lat="43.0941253" lon="12.2138614"><ele>442.1666666666667</ele><time>2026-03-29T08:03:28.665Z</time></trkpt><trkpt lat="43.094185" lon="12.2139239"><ele>442.0</ele><time>2026-03-29T08:03:31.557Z</time></trkpt><trkpt lat="43.0942379" lon="12.2140219"><ele>442.00000000000006</ele><time>2026-03-29T08:03:34.637Z</time></trkpt><trkpt lat="43.0942825" lon="12.2141294"><ele>442.0</ele><time>2026-03-29T08:03:37.566Z</time></trkpt><trkpt lat="43.094326" lon="12.2142295"><ele>442.0</ele><time>2026-03-29T08:03:40.554Z</time></trkpt><trkpt lat="43.0943748" lon="12.2143142"><ele>442.0</ele><time>2026-03-29T08:03:43.561Z</time></trkpt><trkpt lat="43.0944112" lon="12.2143895"><ele>442.00000000000006</ele><time>2026-03-29T08:03:46.543Z</time></trkpt><trkpt lat="43.0944473" lon="12.2144727"><ele>442.0</ele><time>2026-03-29T08:03:49.554Z</time></trkpt><trkpt lat="43.0944786" lon="12.2145591"><ele>442.00000000000006</ele><time>2026-03-29T08:03:52.563Z</time></trkpt><trkpt lat="43.0945322" lon="12.2146496"><ele>442.0</ele><time>2026-03-29T08:03:55.562Z</time></trkpt><trkpt lat="43.0946042" lon="12.2147137"><ele>442.0</ele><time>2026-03-29T08:03:58.562Z</time></trkpt><trkpt lat="43.0946651" lon="12.2147637"><ele>442.0</ele><time>2026-03-29T08:04:00.555Z</time></trkpt><trkpt lat="43.0947316" lon="12.2147906"><ele>442.00000000000006</ele><time>2026-03-29T08:04:03.564Z</time></trkpt><trkpt lat="43.0948042" lon="12.214796"><ele>442.0</ele><time>2026-03-29T08:04:06.566Z</time></trkpt><trkpt lat="43.094876" lon="12.2147817"><ele>444.8571428571429</ele><time>2026-03-29T08:04:09.562Z</time></trkpt><trkpt lat="43.0949395" lon="12.2147693"><ele>447.7142857142857</ele><time>2026-03-29T08:04:12.563Z</time></trkpt><trkpt lat="43.0949939" lon="12.2147224"><ele>450.57142857142856</ele><time>2026-03-29T08:04:15.667Z</time></trkpt><trkpt lat="43.0950674" lon="12.2146925"><ele>453.42857142857144</ele><time>2026-03-29T08:04:20.555Z</time></trkpt><trkpt lat="43.0951389" lon="12.2146639"><ele>456.2857142857143</ele><time>2026-03-29T08:04:24.568Z</time></trkpt><trkpt lat="43.0952162" lon="12.2146291"><ele>459.14285714285717</ele><time>2026-03-29T08:04:28.556Z</time></trkpt><trkpt lat="43.0952783" lon="12.2145998"><ele>462.0</ele><time>2026-03-29T08:04:31.564Z</time></trkpt><trkpt lat="43.0953699" lon="12.2145727"><ele>462.0</ele><time>2026-03-29T08:04:35.56Z</time></trkpt><trkpt lat="43.0954475" lon="12.2145454"><ele>462.0</ele><time>2026-03-29T08:04:39.673Z</time></trkpt><trkpt lat="43.0955115" lon="12.2145452"><ele>462.0</ele><time>2026-03-29T08:04:42.55Z</time></trkpt><trkpt lat="43.095576" lon="12.214522"><ele>462.0</ele><time>2026-03-29T08:04:46.573Z</time></trkpt><trkpt lat="43.0956399" lon="12.2144984"><ele>462.0</ele><time>2026-03-29T08:04:50.571Z</time></trkpt><trkpt lat="43.0957279" lon="12.2144989"><ele>462.0</ele><time>2026-03-29T08:04:54.555Z</time></trkpt><trkpt lat="43.0958212" lon="12.2145141"><ele>464.6666666666667</ele><time>2026-03-29T08:04:57.57Z</time></trkpt><trkpt lat="43.0958886" lon="12.2145239"><ele>467.33333333333337</ele><time>2026-03-29T08:04:59.565Z</time></trkpt><trkpt lat="43.095968" lon="12.2145247"><ele>470.0</ele><time>2026-03-29T08:05:01.561Z</time></trkpt><trkpt lat="43.0960547" lon="12.2145277"><ele>472.6666666666667</ele><time>2026-03-29T08:05:03.547Z</time></trkpt><trkpt lat="43.0961416" lon="12.2145403"><ele>475.33333333333337</ele><time>2026-03-29T08:05:06.575Z</time></trkpt><trkpt lat="43.0961998" lon="12.214575"><ele>478.0</ele><time>2026-03-29T08:05:09.573Z</time></trkpt><trkpt lat="43.0962628" lon="12.2146404"><ele>478.00000000000006</ele><time>2026-03-29T08:05:13.552Z</time></trkpt><trkpt lat="43.0963244" lon="12.2147051"><ele>478.0</ele><time>2026-03-29T08:05:17.549Z</time></trkpt><trkpt lat="43.0964005" lon="12.2147637"><ele>478.0</ele><time>2026-03-29T08:05:21.546Z</time></trkpt><trkpt lat="43.096475" lon="12.2148362"><ele>478.0</ele><time>2026-03-29T08:05:24.547Z</time></trkpt><trkpt lat="43.0965456" lon="12.2149167"><ele>478.00000000000006</ele><time>2026-03-29T08:05:27.543Z</time></trkpt><trkpt lat="43.0965984" lon="12.2149835"><ele>478.0</ele><time>2026-03-29T08:05:30.546Z</time></trkpt><trkpt lat="43.0966574" lon="12.2150449"><ele>476.7142857142858</ele><time>2026-03-29T08:05:33.546Z</time></trkpt><trkpt lat="43.0967263" lon="12.2150756"><ele>475.42857142857144</ele><time>2026-03-29T08:05:36.555Z</time></trkpt><trkpt lat="43.0967942" lon="12.2151021"><ele>474.14285714285717</ele><time>2026-03-29T08:05:40.568Z</time></trkpt><trkpt lat="43.0968722" lon="12.2151035"><ele>472.8571428571429</ele><time>2026-03-29T08:05:44.565Z</time></trkpt><trkpt lat="43.0969492" lon="12.2151087"><ele>471.57142857142856</ele><time>2026-03-29T08:05:48.574Z</time></trkpt><trkpt lat="43.0970255" lon="12.2151294"><ele>470.2857142857143</ele><time>2026-03-29T08:05:52.563Z</time></trkpt><trkpt lat="43.0970724" lon="12.2152032"><ele>469.0</ele><time>2026-03-29T08:05:55.565Z</time></trkpt><trkpt lat="43.097108" lon="12.2152792"><ele>469.0</ele><time>2026-03-29T08:05:59.562Z</time></trkpt><trkpt lat="43.0971542" lon="12.215341"><ele>469.0</ele><time>2026-03-29T08:06:02.555Z</time></trkpt><trkpt lat="43.0972285" lon="12.2153979"><ele>469.0</ele><time>2026-03-29T08:06:06.545Z</time></trkpt><trkpt lat="43.0972917" lon="12.2154202"><ele>469.0</ele><time>2026-03-29T08:06:09.566Z</time></trkpt><trkpt lat="43.0973446" lon="12.2154695"><ele>469.0</ele><time>2026-03-29T08:06:13.54Z</time></trkpt><trkpt lat="43.0973787" lon="12.215548"><ele>469.0</ele><time>2026-03-29T08:06:17.547Z</time></trkpt><trkpt lat="43.0974607" lon="12.2156032"><ele>469.0</ele><time>2026-03-29T08:06:20.54Z</time></trkpt><trkpt lat="43.0975015" lon="12.2156941"><ele>470.00000000000006</ele><time>2026-03-29T08:06:24.542Z</time></trkpt><trkpt lat="43.097505" lon="12.2157976"><ele>471.0</ele><time>2026-03-29T08:06:28.544Z</time></trkpt><trkpt lat="43.0975407" lon="12.2158752"><ele>472.0</ele><time>2026-03-29T08:06:31.542Z</time></trkpt><trkpt lat="43.097576" lon="12.2159735"><ele>473.0</ele><time>2026-03-29T08:06:35.544Z</time></trkpt><trkpt lat="43.0976574" lon="12.2160072"><ele>474.00000000000006</ele><time>2026-03-29T08:06:39.545Z</time></trkpt><trkpt lat="43.0977258" lon="12.2159489"><ele>475.0</ele><time>2026-03-29T08:06:42.57Z</time></trkpt><trkpt lat="43.0977802" lon="12.215874"><ele>475.0</ele><time>2026-03-29T08:06:46.544Z</time></trkpt><trkpt lat="43.0978235" lon="12.2158085"><ele>475.00000000000006</ele><time>2026-03-29T08:06:49.564Z</time></trkpt><trkpt lat="43.0978939" lon="12.2158018"><ele>475.0</ele><time>2026-03-29T08:06:55.562Z</time></trkpt><trkpt lat="43.0979651" lon="12.2157947"><ele>475.0</ele><time>2026-03-29T08:07:00.561Z</time></trkpt><trkpt lat="43.0980366" lon="12.2157543"><ele>475.00000000000006</ele><time>2026-03-29T08:07:06.558Z</time></trkpt><trkpt lat="43.0981047" lon="12.2157147"><ele>475.0</ele><time>2026-03-29T08:07:10.572Z</time></trkpt><trkpt lat="43.0981844" lon="12.2156738"><ele>475.0</ele><time>2026-03-29T08:07:14.561Z</time></trkpt><trkpt lat="43.0982409" lon="12.2156292"><ele>480.0</ele><time>2026-03-29T08:07:18.572Z</time></trkpt><trkpt lat="43.0982948" lon="12.2155597"><ele>485.00000000000006</ele><time>2026-03-29T08:07:21.561Z</time></trkpt><trkpt lat="43.0983585" lon="12.2155135"><ele>490.0</ele><time>2026-03-29T08:07:25.566Z</time></trkpt><trkpt lat="43.0984185" lon="12.2154619"><ele>495.0</ele><time>2026-03-29T08:07:29.554Z</time></trkpt><trkpt lat="43.0984875" lon="12.2154472"><ele>500.00000000000006</ele><time>2026-03-29T08:07:33.559Z</time></trkpt><trkpt lat="43.0985495" lon="12.2153973"><ele>505.0</ele><time>2026-03-29T08:07:39.57Z</time></trkpt><trkpt lat="43.09862" lon="12.2153753"><ele>510.0</ele><time>2026-03-29T08:07:43.553Z</time></trkpt><trkpt lat="43.098688" lon="12.2153847"><ele>510.0</ele><time>2026-03-29T08:07:47.562Z</time></trkpt><trkpt lat="43.0987519" lon="12.2153798"><ele>510.00000000000006</ele><time>2026-03-29T08:07:50.567Z</time></trkpt><trkpt lat="43.0988265" lon="12.2153745"><ele>510.0</ele><time>2026-03-29T08:07:54.561Z</time></trkpt><trkpt lat="43.0989035" lon="12.2153758"><ele>510.0</ele><time>2026-03-29T08:07:57.554Z</time></trkpt><trkpt lat="43.0989689" lon="12.2154036"><ele>510.00000000000006</ele><time>2026-03-29T08:08:00.566Z</time></trkpt><trkpt lat="43.0990342" lon="12.2154149"><ele>510.0</ele><time>2026-03-29T08:08:03.559Z</time></trkpt><trkpt lat="43.099103" lon="12.2154239"><ele>510.0</ele><time>2026-03-29T08:08:06.554Z</time></trkpt><trkpt lat="43.0991745" lon="12.2154073"><ele>509.8571428571429</ele><time>2026-03-29T08:08:09.565Z</time></trkpt><trkpt lat="43.0992358" lon="12.2153627"><ele>509.7142857142858</ele><time>2026-03-29T08:08:12.557Z</time></trkpt><trkpt lat="43.0992942" lon="12.2153286"><ele>509.57142857142856</ele><time>2026-03-29T08:08:15.561Z</time></trkpt><trkpt lat="43.0993712" lon="12.2153033"><ele>509.42857142857144</ele><time>2026-03-29T08:08:19.573Z</time></trkpt><trkpt lat="43.0994381" lon="12.2153244"><ele>509.2857142857143</ele><time>2026-03-29T08:08:23.56Z</time></trkpt><trkpt lat="43.0994978" lon="12.2153712"><ele>509.1428571428571</ele><time>2026-03-29T08:08:27.554Z</time></trkpt><trkpt lat="43.0995526" lon="12.2154403"><ele>508.99999999999994</ele><time>2026-03-29T08:08:31.554Z</time></trkpt><trkpt lat="43.0996157" lon="12.2154942"><ele>508.99999999999994</ele><time>2026-03-29T08:08:35.661Z</time></trkpt><trkpt lat="43.0996555" lon="12.2155628"><ele>509.0</ele><time>2026-03-29T08:08:39.555Z</time></trkpt><trkpt lat="43.0997153" lon="12.2156227"><ele>508.99999999999994</ele><time>2026-03-29T08:08:43.553Z</time></trkpt><trkpt lat="43.0997553" lon="12.2156982"><ele>508.99999999999994</ele><time>2026-03-29T08:08:48.556Z</time></trkpt><trkpt lat="43.0997781" lon="12.2157954"><ele>509.0</ele><time>2026-03-29T08:08:56.557Z</time></trkpt><trkpt lat="43.0998166" lon="12.2158663"><ele>508.99999999999994</ele><time>2026-03-29T08:09:00.57Z</time></trkpt><trkpt lat="43.0998801" lon="12.2158947"><ele>508.99999999999994</ele><time>2026-03-29T08:09:04.554Z</time></trkpt><trkpt lat="43.099924" lon="12.2159757"><ele>507.8571428571428</ele><time>2026-03-29T08:09:08.562Z</time></trkpt><trkpt lat="43.0999372" lon="12.2161027"><ele>506.71428571428567</ele><time>2026-03-29T08:09:12.562Z</time></trkpt><trkpt lat="43.0999896" lon="12.2161547"><ele>505.57142857142856</ele><time>2026-03-29T08:09:15.566Z</time></trkpt><trkpt lat="43.1000312" lon="12.2162334"><ele>504.4285714285714</ele><time>2026-03-29T08:09:19.557Z</time></trkpt><trkpt lat="43.100041" lon="12.2163235"><ele>503.2857142857142</ele><time>2026-03-29T08:09:23.56Z</time></trkpt><trkpt lat="43.1000232" lon="12.2164218"><ele>502.14285714285717</ele><time>2026-03-29T08:09:29.571Z</time></trkpt><trkpt lat="43.1000436" lon="12.2165169"><ele>501.0</ele><time>2026-03-29T08:09:33.554Z</time></trkpt><trkpt lat="43.1001075" lon="12.2165448"><ele>500.0</ele><time>2026-03-29T08:09:36.545Z</time></trkpt><trkpt lat="43.1001916" lon="12.2165376"><ele>499.0</ele><time>2026-03-29T08:09:42.569Z</time></trkpt><trkpt lat="43.1002455" lon="12.2165831"><ele>498.0</ele><time>2026-03-29T08:09:46.546Z</time></trkpt><trkpt lat="43.1003008" lon="12.2166328"><ele>497.0</ele><time>2026-03-29T08:09:51.542Z</time></trkpt><trkpt lat="43.1003657" lon="12.2166458"><ele>496.0</ele><time>2026-03-29T08:09:54.562Z</time></trkpt><trkpt lat="43.1004388" lon="12.2166516"><ele>495.0</ele><time>2026-03-29T08:09:57.556Z</time></trkpt><trkpt lat="43.1005189" lon="12.2166853"><ele>494.0</ele><time>2026-03-29T08:10:00.556Z</time></trkpt><trkpt lat="43.1005888" lon="12.216726"><ele>493.99999999999994</ele><time>2026-03-29T08:10:03.56Z</time></trkpt><trkpt lat="43.1006618" lon="12.2167843"><ele>494.0</ele><time>2026-03-29T08:10:06.55Z</time></trkpt><trkpt lat="43.1007284" lon="12.2168371"><ele>494.0</ele><time>2026-03-29T08:10:09.544Z</time></trkpt><trkpt lat="43.1007923" lon="12.2168921"><ele>494.0</ele><time>2026-03-29T08:10:12.541Z</time></trkpt><trkpt lat="43.1008427" lon="12.216961"><ele>493.99999999999994</ele><time>2026-03-29T08:10:16.544Z</time></trkpt><trkpt lat="43.1009081" lon="12.2169431"><ele>494.0</ele><time>2026-03-29T08:17:01.556Z</time></trkpt><trkpt lat="43.1009781" lon="12.2169003"><ele>494.66666666666663</ele><time>2026-03-29T08:17:05.57Z</time></trkpt><trkpt lat="43.1010225" lon="12.2168374"><ele>495.3333333333333</ele><time>2026-03-29T08:17:07.557Z</time></trkpt><trkpt lat="43.101082" lon="12.216782"><ele>496.0</ele><time>2026-03-29T08:17:09.562Z</time></trkpt><trkpt lat="43.1011657" lon="12.216733"><ele>496.66666666666663</ele><time>2026-03-29T08:17:12.566Z</time></trkpt><trkpt lat="43.1012402" lon="12.2166777"><ele>497.3333333333333</ele><time>2026-03-29T08:17:15.568Z</time></trkpt><trkpt lat="43.1013092" lon="12.2166178"><ele>498.0</ele><time>2026-03-29T08:17:18.553Z</time></trkpt><trkpt lat="43.1013733" lon="12.2165337"><ele>495.5</ele><time>2026-03-29T08:17:21.563Z</time></trkpt><trkpt lat="43.1013314" lon="12.2164351"><ele>493.0</ele><time>2026-03-29T08:17:25.554Z</time></trkpt><trkpt lat="43.1012716" lon="12.2163792"><ele>490.5</ele><time>2026-03-29T08:17:27.572Z</time></trkpt><trkpt lat="43.1012206" lon="12.2162857"><ele>488.0</ele><time>2026-03-29T08:17:29.567Z</time></trkpt><trkpt lat="43.1011396" lon="12.2162054"><ele>485.5</ele><time>2026-03-29T08:17:31.563Z</time></trkpt><trkpt lat="43.1010494" lon="12.2161526"><ele>483.0</ele><time>2026-03-29T08:17:33.558Z</time></trkpt><trkpt lat="43.100971" lon="12.2161249"><ele>483.0</ele><time>2026-03-29T08:17:35.564Z</time></trkpt><trkpt lat="43.1008823" lon="12.2161179"><ele>483.0</ele><time>2026-03-29T08:17:37.567Z</time></trkpt><trkpt lat="43.1008151" lon="12.2161228"><ele>483.0</ele><time>2026-03-29T08:17:39.541Z</time></trkpt><trkpt lat="43.1007503" lon="12.2161094"><ele>483.0</ele><time>2026-03-29T08:17:41.559Z</time></trkpt><trkpt lat="43.1006888" lon="12.2160671"><ele>483.0</ele><time>2026-03-29T08:17:43.552Z</time></trkpt><trkpt lat="43.1006065" lon="12.2160246"><ele>483.0</ele><time>2026-03-29T08:17:45.549Z</time></trkpt><trkpt lat="43.1005438" lon="12.2159562"><ele>485.4</ele><time>2026-03-29T08:17:48.553Z</time></trkpt><trkpt lat="43.1004135" lon="12.2158772"><ele>487.79999999999995</ele><time>2026-03-29T08:17:51.672Z</time></trkpt><trkpt lat="43.1003534" lon="12.215803"><ele>490.2</ele><time>2026-03-29T08:17:53.559Z</time></trkpt><trkpt lat="43.1003226" lon="12.2157146"><ele>492.6</ele><time>2026-03-29T08:17:55.555Z</time></trkpt><trkpt lat="43.1003179" lon="12.215598"><ele>495.0</ele><time>2026-03-29T08:17:57.557Z</time></trkpt><trkpt lat="43.100295" lon="12.2154928"><ele>495.0</ele><time>2026-03-29T08:17:59.565Z</time></trkpt><trkpt lat="43.1002501" lon="12.2154108"><ele>495.0</ele><time>2026-03-29T08:18:01.553Z</time></trkpt><trkpt lat="43.1002095" lon="12.2153269"><ele>495.0</ele><time>2026-03-29T08:18:03.652Z</time></trkpt><trkpt lat="43.1001796" lon="12.2152474"><ele>495.0</ele><time>2026-03-29T08:18:05.558Z</time></trkpt><trkpt lat="43.1001353" lon="12.2151342"><ele>495.0</ele><time>2026-03-29T08:18:08.567Z</time></trkpt><trkpt lat="43.1001292" lon="12.2150307"><ele>495.0</ele><time>2026-03-29T08:18:10.569Z</time></trkpt><trkpt lat="43.1001454" lon="12.2148685"><ele>492.8333333333333</ele><time>2026-03-29T08:18:12.564Z</time></trkpt><trkpt lat="43.1001434" lon="12.214711"><ele>490.66666666666663</ele><time>2026-03-29T08:18:14.556Z</time></trkpt><trkpt lat="43.1001351" lon="12.2145764"><ele>488.5</ele><time>2026-03-29T08:18:16.566Z</time></trkpt><trkpt lat="43.1001391" lon="12.2144896"><ele>486.3333333333333</ele><time>2026-03-29T08:18:18.543Z</time></trkpt><trkpt lat="43.1001146" lon="12.2143877"><ele>484.16666666666663</ele><time>2026-03-29T08:18:20.581Z</time></trkpt><trkpt lat="43.1000844" lon="12.2142989"><ele>482.0</ele><time>2026-03-29T08:18:22.547Z</time></trkpt><trkpt lat="43.1000258" lon="12.2142266"><ele>481.99999999999994</ele><time>2026-03-29T08:18:24.572Z</time></trkpt><trkpt lat="43.0999673" lon="12.2141705"><ele>482.0</ele><time>2026-03-29T08:18:26.542Z</time></trkpt><trkpt lat="43.0999127" lon="12.214092"><ele>482.0</ele><time>2026-03-29T08:18:29.543Z</time></trkpt><trkpt lat="43.0998748" lon="12.2139763"><ele>482.0</ele><time>2026-03-29T08:18:31.556Z</time></trkpt><trkpt lat="43.0998832" lon="12.2138552"><ele>481.99999999999994</ele><time>2026-03-29T08:18:33.552Z</time></trkpt><trkpt lat="43.0998854" lon="12.2137491"><ele>482.0</ele><time>2026-03-29T08:18:35.544Z</time></trkpt><trkpt lat="43.0998412" lon="12.2136368"><ele>480.8</ele><time>2026-03-29T08:18:37.553Z</time></trkpt><trkpt lat="43.0997926" lon="12.2135565"><ele>479.6</ele><time>2026-03-29T08:18:39.554Z</time></trkpt><trkpt lat="43.0997106" lon="12.2134858"><ele>478.40000000000003</ele><time>2026-03-29T08:18:41.563Z</time></trkpt><trkpt lat="43.0996073" lon="12.2133652"><ele>477.20000000000005</ele><time>2026-03-29T08:18:43.557Z</time></trkpt><trkpt lat="43.0995486" lon="12.2133089"><ele>476.0</ele><time>2026-03-29T08:18:44.559Z</time></trkpt><trkpt lat="43.0994846" lon="12.2132344"><ele>476.0</ele><time>2026-03-29T08:18:46.562Z</time></trkpt><trkpt lat="43.0994291" lon="12.213188"><ele>476.0</ele><time>2026-03-29T08:18:47.557Z</time></trkpt><trkpt lat="43.0993636" lon="12.2131154"><ele>476.0</ele><time>2026-03-29T08:18:49.555Z</time></trkpt><trkpt lat="43.0992503" lon="12.2130428"><ele>476.0</ele><time>2026-03-29T08:18:51.56Z</time></trkpt><trkpt lat="43.099166" lon="12.2129863"><ele>476.0</ele><time>2026-03-29T08:18:53.569Z</time></trkpt><trkpt lat="43.0990785" lon="12.2129553"><ele>473.6</ele><time>2026-03-29T08:18:55.551Z</time></trkpt><trkpt lat="43.0989851" lon="12.2129243"><ele>471.20000000000005</ele><time>2026-03-29T08:18:57.542Z</time></trkpt><trkpt lat="43.0988977" lon="12.2128668"><ele>468.79999999999995</ele><time>2026-03-29T08:18:59.546Z</time></trkpt><trkpt lat="43.0988405" lon="12.2127607"><ele>466.4</ele><time>2026-03-29T08:19:01.575Z</time></trkpt><trkpt lat="43.0987565" lon="12.2126614"><ele>464.0</ele><time>2026-03-29T08:19:03.562Z</time></trkpt><trkpt lat="43.098689" lon="12.2125572"><ele>464.0</ele><time>2026-03-29T08:19:05.576Z</time></trkpt><trkpt lat="43.0986543" lon="12.2124259"><ele>464.0</ele><time>2026-03-29T08:19:07.561Z</time></trkpt><trkpt lat="43.098617" lon="12.2123554"><ele>464.0</ele><time>2026-03-29T08:19:08.556Z</time></trkpt><trkpt lat="43.098577" lon="12.212219"><ele>464.0</ele><time>2026-03-29T08:19:10.569Z</time></trkpt><trkpt lat="43.0986045" lon="12.2120736"><ele>464.0</ele><time>2026-03-29T08:19:12.556Z</time></trkpt><trkpt lat="43.0986255" lon="12.2119104"><ele>462.28571428571433</ele><time>2026-03-29T08:19:14.556Z</time></trkpt><trkpt lat="43.098633" lon="12.2118133"><ele>460.57142857142856</ele><time>2026-03-29T08:19:15.569Z</time></trkpt><trkpt lat="43.0986313" lon="12.211719"><ele>458.8571428571429</ele><time>2026-03-29T08:19:16.555Z</time></trkpt><trkpt lat="43.0986644" lon="12.2116394"><ele>457.14285714285717</ele><time>2026-03-29T08:19:17.565Z</time></trkpt><trkpt lat="43.0986587" lon="12.2115382"><ele>455.42857142857144</ele><time>2026-03-29T08:19:18.557Z</time></trkpt><trkpt lat="43.0986621" lon="12.2114371"><ele>453.7142857142857</ele><time>2026-03-29T08:19:19.552Z</time></trkpt><trkpt lat="43.0986852" lon="12.2113499"><ele>452.0</ele><time>2026-03-29T08:19:20.56Z</time></trkpt><trkpt lat="43.0986996" lon="12.2111949"><ele>449.40000000000003</ele><time>2026-03-29T08:19:22.56Z</time></trkpt><trkpt lat="43.0986225" lon="12.2110594"><ele>446.80000000000007</ele><time>2026-03-29T08:19:24.564Z</time></trkpt><trkpt lat="43.0985863" lon="12.2109766"><ele>444.2</ele><time>2026-03-29T08:19:26.542Z</time></trkpt><trkpt lat="43.0986338" lon="12.2108564"><ele>441.6</ele><time>2026-03-29T08:19:28.561Z</time></trkpt><trkpt lat="43.0986219" lon="12.2107353"><ele>439.0</ele><time>2026-03-29T08:19:30.553Z</time></trkpt><trkpt lat="43.0985697" lon="12.2106224"><ele>435.79999999999995</ele><time>2026-03-29T08:19:32.548Z</time></trkpt><trkpt lat="43.0985088" lon="12.2104874"><ele>432.59999999999997</ele><time>2026-03-29T08:19:34.552Z</time></trkpt><trkpt lat="43.0984812" lon="12.2103542"><ele>429.4</ele><time>2026-03-29T08:19:36.552Z</time></trkpt><trkpt lat="43.0984328" lon="12.2102987"><ele>426.2</ele><time>2026-03-29T08:19:37.561Z</time></trkpt><trkpt lat="43.0983653" lon="12.2102063"><ele>423.0</ele><time>2026-03-29T08:19:39.547Z</time></trkpt><trkpt lat="43.0982822" lon="12.2101617"><ele>423.59999999999997</ele><time>2026-03-29T08:19:41.555Z</time></trkpt><trkpt lat="43.0982326" lon="12.2100456"><ele>424.2</ele><time>2026-03-29T08:19:43.542Z</time></trkpt><trkpt lat="43.0982222" lon="12.2099053"><ele>424.8</ele><time>2026-03-29T08:19:45.546Z</time></trkpt><trkpt lat="43.0981362" lon="12.2097956"><ele>425.4</ele><time>2026-03-29T08:19:47.543Z</time></trkpt><trkpt lat="43.0980745" lon="12.2097571"><ele>426.0</ele><time>2026-03-29T08:19:48.641Z</time></trkpt><trkpt lat="43.0979654" lon="12.2097008"><ele>422.8</ele><time>2026-03-29T08:19:50.54Z</time></trkpt><trkpt lat="43.0979044" lon="12.2096702"><ele>419.6</ele><time>2026-03-29T08:19:51.538Z</time></trkpt><trkpt lat="43.0978165" lon="12.2096044"><ele>416.4</ele><time>2026-03-29T08:19:53.544Z</time></trkpt><trkpt lat="43.0976957" lon="12.2095572"><ele>413.2</ele><time>2026-03-29T08:19:55.541Z</time></trkpt><trkpt lat="43.0975798" lon="12.2095263"><ele>410.0</ele><time>2026-03-29T08:19:57.539Z</time></trkpt><trkpt lat="43.0975438" lon="12.2094282"><ele>410.0</ele><time>2026-03-29T08:19:59.561Z</time></trkpt><trkpt lat="43.0975679" lon="12.2093293"><ele>410.0</ele><time>2026-03-29T08:20:01.549Z</time></trkpt><trkpt lat="43.0976304" lon="12.2092064"><ele>410.0</ele><time>2026-03-29T08:20:03.566Z</time></trkpt><trkpt lat="43.0977001" lon="12.2090712"><ele>410.0</ele><time>2026-03-29T08:20:05.592Z</time></trkpt><trkpt lat="43.0977993" lon="12.2089844"><ele>410.0</ele><time>2026-03-29T08:20:07.554Z</time></trkpt><trkpt lat="43.0978668" lon="12.2089753"><ele>409.99999999999994</ele><time>2026-03-29T08:20:08.56Z</time></trkpt><trkpt lat="43.0979306" lon="12.208968"><ele>410.0</ele><time>2026-03-29T08:20:09.563Z</time></trkpt><trkpt lat="43.098008" lon="12.2089518"><ele>410.0</ele><time>2026-03-29T08:20:10.568Z</time></trkpt><trkpt lat="43.0980831" lon="12.2089376"><ele>410.0</ele><time>2026-03-29T08:20:11.561Z</time></trkpt><trkpt lat="43.0981608" lon="12.2089533"><ele>409.99999999999994</ele><time>2026-03-29T08:20:12.567Z</time></trkpt><trkpt lat="43.0982358" lon="12.2089665"><ele>410.0</ele><time>2026-03-29T08:20:13.558Z</time></trkpt><trkpt lat="43.0983132" lon="12.2089957"><ele>410.0</ele><time>2026-03-29T08:20:14.552Z</time></trkpt><trkpt lat="43.0983933" lon="12.2090186"><ele>410.0</ele><time>2026-03-29T08:20:15.571Z</time></trkpt><trkpt lat="43.0984718" lon="12.2090259"><ele>410.0</ele><time>2026-03-29T08:20:16.557Z</time></trkpt><trkpt lat="43.098549" lon="12.2090255"><ele>410.0</ele><time>2026-03-29T08:20:17.564Z</time></trkpt><trkpt lat="43.0986183" lon="12.2090123"><ele>410.0</ele><time>2026-03-29T08:20:18.562Z</time></trkpt><trkpt lat="43.098687" lon="12.2089886"><ele>410.0</ele><time>2026-03-29T08:20:19.541Z</time></trkpt><trkpt lat="43.0987498" lon="12.2089727"><ele>410.0</ele><time>2026-03-29T08:20:20.567Z</time></trkpt><trkpt lat="43.0988616" lon="12.2089603"><ele>406.99999999999994</ele><time>2026-03-29T08:20:22.566Z</time></trkpt><trkpt lat="43.0989349" lon="12.208943"><ele>404.0</ele><time>2026-03-29T08:20:24.558Z</time></trkpt><trkpt lat="43.0990069" lon="12.2089598"><ele>401.0</ele><time>2026-03-29T08:20:26.544Z</time></trkpt><trkpt lat="43.099097" lon="12.2089571"><ele>398.0</ele><time>2026-03-29T08:20:29.558Z</time></trkpt><trkpt lat="43.0991651" lon="12.2089499"><ele>394.99999999999994</ele><time>2026-03-29T08:20:31.551Z</time></trkpt><trkpt lat="43.099238" lon="12.2089314"><ele>392.0</ele><time>2026-03-29T08:20:33.56Z</time></trkpt><trkpt lat="43.0993211" lon="12.2089109"><ele>392.0</ele><time>2026-03-29T08:20:35.553Z</time></trkpt><trkpt lat="43.0994271" lon="12.2088304"><ele>392.0</ele><time>2026-03-29T08:20:37.556Z</time></trkpt><trkpt lat="43.099513" lon="12.2087234"><ele>392.0</ele><time>2026-03-29T08:20:39.563Z</time></trkpt><trkpt lat="43.0996038" lon="12.2085924"><ele>392.0</ele><time>2026-03-29T08:20:41.562Z</time></trkpt><trkpt lat="43.099649" lon="12.2085187"><ele>392.0</ele><time>2026-03-29T08:20:42.565Z</time></trkpt><trkpt lat="43.0996857" lon="12.2084349"><ele>392.0</ele><time>2026-03-29T08:20:43.556Z</time></trkpt><trkpt lat="43.0997266" lon="12.2083549"><ele>392.0</ele><time>2026-03-29T08:20:44.57Z</time></trkpt><trkpt lat="43.09977" lon="12.2082835"><ele>392.0</ele><time>2026-03-29T08:20:45.561Z</time></trkpt><trkpt lat="43.0998088" lon="12.2082141"><ele>392.0</ele><time>2026-03-29T08:20:46.561Z</time></trkpt><trkpt lat="43.0998552" lon="12.2081407"><ele>392.0</ele><time>2026-03-29T08:20:47.553Z</time></trkpt><trkpt lat="43.0999029" lon="12.2080825"><ele>392.0</ele><time>2026-03-29T08:20:48.563Z</time></trkpt><trkpt lat="43.0999587" lon="12.2080111"><ele>392.0</ele><time>2026-03-29T08:20:49.555Z</time></trkpt><trkpt lat="43.1000616" lon="12.2079324"><ele>390.6</ele><time>2026-03-29T08:20:51.565Z</time></trkpt><trkpt lat="43.1001763" lon="12.2079283"><ele>389.20000000000005</ele><time>2026-03-29T08:20:53.564Z</time></trkpt><trkpt lat="43.100279" lon="12.2079099"><ele>387.8</ele><time>2026-03-29T08:20:55.539Z</time></trkpt><trkpt lat="43.1003426" lon="12.2078607"><ele>386.4</ele><time>2026-03-29T08:20:57.538Z</time></trkpt><trkpt lat="43.1003355" lon="12.2077498"><ele>385.0</ele><time>2026-03-29T08:20:59.547Z</time></trkpt><trkpt lat="43.1003647" lon="12.2076007"><ele>385.00000000000006</ele><time>2026-03-29T08:21:01.544Z</time></trkpt><trkpt lat="43.1003915" lon="12.2074287"><ele>385.0</ele><time>2026-03-29T08:21:03.538Z</time></trkpt><trkpt lat="43.100416" lon="12.2073395"><ele>385.0</ele><time>2026-03-29T08:21:04.542Z</time></trkpt><trkpt lat="43.1004242" lon="12.2072476"><ele>385.0</ele><time>2026-03-29T08:21:05.54Z</time></trkpt><trkpt lat="43.1004405" lon="12.2071314"><ele>385.00000000000006</ele><time>2026-03-29T08:21:06.541Z</time></trkpt><trkpt lat="43.1004632" lon="12.2070202"><ele>385.0</ele><time>2026-03-29T08:21:07.564Z</time></trkpt><trkpt lat="43.1004619" lon="12.2069013"><ele>383.0</ele><time>2026-03-29T08:21:08.565Z</time></trkpt><trkpt lat="43.1004815" lon="12.206794"><ele>381.0</ele><time>2026-03-29T08:21:09.569Z</time></trkpt><trkpt lat="43.100506" lon="12.2067008"><ele>379.0</ele><time>2026-03-29T08:21:10.675Z</time></trkpt><trkpt lat="43.1005529" lon="12.206529"><ele>377.0</ele><time>2026-03-29T08:21:12.559Z</time></trkpt><trkpt lat="43.1005718" lon="12.2064412"><ele>375.0</ele><time>2026-03-29T08:21:13.563Z</time></trkpt><trkpt lat="43.100603" lon="12.2062964"><ele>373.1666666666667</ele><time>2026-03-29T08:21:15.571Z</time></trkpt><trkpt lat="43.1006091" lon="12.2061927"><ele>371.3333333333333</ele><time>2026-03-29T08:21:17.572Z</time></trkpt><trkpt lat="43.1006032" lon="12.2060908"><ele>369.5</ele><time>2026-03-29T08:21:19.544Z</time></trkpt><trkpt lat="43.100621" lon="12.205968"><ele>367.66666666666663</ele><time>2026-03-29T08:21:21.555Z</time></trkpt><trkpt lat="43.1006573" lon="12.205867"><ele>365.8333333333333</ele><time>2026-03-29T08:21:23.563Z</time></trkpt><trkpt lat="43.1007467" lon="12.2057697"><ele>364.0</ele><time>2026-03-29T08:21:25.555Z</time></trkpt><trkpt lat="43.100835" lon="12.2056393"><ele>361.16666666666663</ele><time>2026-03-29T08:21:27.557Z</time></trkpt><trkpt lat="43.1008832" lon="12.2055636"><ele>358.3333333333333</ele><time>2026-03-29T08:21:28.555Z</time></trkpt><trkpt lat="43.1009268" lon="12.2054983"><ele>355.5</ele><time>2026-03-29T08:21:29.564Z</time></trkpt><trkpt lat="43.1009823" lon="12.2054449"><ele>352.6666666666667</ele><time>2026-03-29T08:21:30.566Z</time></trkpt><trkpt lat="43.1010556" lon="12.2053577"><ele>349.83333333333337</ele><time>2026-03-29T08:21:32.568Z</time></trkpt><trkpt lat="43.1011415" lon="12.2053496"><ele>347.0</ele><time>2026-03-29T08:21:34.558Z</time></trkpt><trkpt lat="43.1011864" lon="12.205449"><ele>347.0</ele><time>2026-03-29T08:21:37.542Z</time></trkpt><trkpt lat="43.1011831" lon="12.2055359"><ele>347.0</ele><time>2026-03-29T08:21:39.582Z</time></trkpt><trkpt lat="43.1011715" lon="12.2056252"><ele>347.0</ele><time>2026-03-29T08:21:41.546Z</time></trkpt><trkpt lat="43.1011522" lon="12.2057073"><ele>347.0</ele><time>2026-03-29T08:21:43.572Z</time></trkpt><trkpt lat="43.1011388" lon="12.2057926"><ele>347.0</ele><time>2026-03-29T08:21:45.679Z</time></trkpt><trkpt lat="43.1011256" lon="12.2058898"><ele>347.0</ele><time>2026-03-29T08:21:47.556Z</time></trkpt><trkpt lat="43.1011076" lon="12.2059882"><ele>347.0</ele><time>2026-03-29T08:21:49.562Z</time></trkpt><trkpt lat="43.1010922" lon="12.2060882"><ele>348.42857142857144</ele><time>2026-03-29T08:21:51.554Z</time></trkpt><trkpt lat="43.1010807" lon="12.206188"><ele>349.85714285714283</ele><time>2026-03-29T08:21:53.559Z</time></trkpt><trkpt lat="43.1010792" lon="12.2062903"><ele>351.2857142857143</ele><time>2026-03-29T08:21:55.567Z</time></trkpt><trkpt lat="43.1010728" lon="12.2063902"><ele>352.7142857142857</ele><time>2026-03-29T08:21:57.555Z</time></trkpt><trkpt lat="43.1010659" lon="12.206478"><ele>354.1428571428571</ele><time>2026-03-29T08:21:59.56Z</time></trkpt><trkpt lat="43.1010606" lon="12.2065718"><ele>355.57142857142856</ele><time>2026-03-29T08:22:01.542Z</time></trkpt><trkpt lat="43.101061" lon="12.2066671"><ele>357.0</ele><time>2026-03-29T08:22:03.555Z</time></trkpt><trkpt lat="43.1010731" lon="12.2067641"><ele>357.7142857142857</ele><time>2026-03-29T08:22:05.539Z</time></trkpt><trkpt lat="43.101091" lon="12.2068579"><ele>358.42857142857144</ele><time>2026-03-29T08:22:07.537Z</time></trkpt><trkpt lat="43.1011063" lon="12.2069535"><ele>359.1428571428571</ele><time>2026-03-29T08:22:09.549Z</time></trkpt><trkpt lat="43.1011189" lon="12.2070439"><ele>359.8571428571429</ele><time>2026-03-29T08:22:11.544Z</time></trkpt><trkpt lat="43.1011279" lon="12.2071325"><ele>360.57142857142856</ele><time>2026-03-29T08:22:13.546Z</time></trkpt><trkpt lat="43.1011455" lon="12.2072225"><ele>361.2857142857143</ele><time>2026-03-29T08:22:15.545Z</time></trkpt><trkpt lat="43.1011603" lon="12.2073113"><ele>362.0</ele><time>2026-03-29T08:22:17.544Z</time></trkpt><trkpt lat="43.1011673" lon="12.2074019"><ele>363.0</ele><time>2026-03-29T08:22:19.629Z</time></trkpt><trkpt lat="43.1011769" lon="12.2074966"><ele>364.0</ele><time>2026-03-29T08:22:21.539Z</time></trkpt><trkpt lat="43.1011733" lon="12.2075899"><ele>365.0</ele><time>2026-03-29T08:22:23.569Z</time></trkpt><trkpt lat="43.1011404" lon="12.2077026"><ele>366.0</ele><time>2026-03-29T08:22:26.562Z</time></trkpt><trkpt lat="43.1011054" lon="12.2077914"><ele>367.0</ele><time>2026-03-29T08:22:28.567Z</time></trkpt><trkpt lat="43.1010718" lon="12.2078719"><ele>368.0</ele><time>2026-03-29T08:22:30.562Z</time></trkpt><trkpt lat="43.1010429" lon="12.2079786"><ele>368.0</ele><time>2026-03-29T08:22:33.562Z</time></trkpt><trkpt lat="43.1010618" lon="12.2080631"><ele>368.0</ele><time>2026-03-29T08:22:35.561Z</time></trkpt><trkpt lat="43.1011106" lon="12.208129"><ele>368.0</ele><time>2026-03-29T08:22:37.564Z</time></trkpt><trkpt lat="43.101175" lon="12.2081543"><ele>368.0</ele><time>2026-03-29T08:22:39.555Z</time></trkpt><trkpt lat="43.1012381" lon="12.2081209"><ele>368.0</ele><time>2026-03-29T08:22:41.555Z</time></trkpt><trkpt lat="43.1012875" lon="12.2080542"><ele>368.0</ele><time>2026-03-29T08:22:43.547Z</time></trkpt><trkpt lat="43.1013547" lon="12.2079931"><ele>368.0</ele><time>2026-03-29T08:22:46.567Z</time></trkpt><trkpt lat="43.1014283" lon="12.207947"><ele>368.0</ele><time>2026-03-29T08:22:49.552Z</time></trkpt><trkpt lat="43.1014989" lon="12.2079038"><ele>368.0</ele><time>2026-03-29T08:22:52.544Z</time></trkpt><trkpt lat="43.1015811" lon="12.2078664"><ele>368.0</ele><time>2026-03-29T08:22:55.56Z</time></trkpt><trkpt lat="43.1016537" lon="12.2078496"><ele>368.0</ele><time>2026-03-29T08:22:56.57Z</time></trkpt><trkpt lat="43.1017143" lon="12.2078819"><ele>368.0</ele><time>2026-03-29T08:22:59.555Z</time></trkpt><trkpt lat="43.1018026" lon="12.2078861"><ele>368.0</ele><time>2026-03-29T08:23:02.559Z</time></trkpt><trkpt lat="43.101883" lon="12.2078897"><ele>366.0</ele><time>2026-03-29T08:23:05.556Z</time></trkpt><trkpt lat="43.1019435" lon="12.2078639"><ele>364.0</ele><time>2026-03-29T08:23:07.557Z</time></trkpt><trkpt lat="43.1020215" lon="12.2078253"><ele>362.0</ele><time>2026-03-29T08:23:10.544Z</time></trkpt><trkpt lat="43.1020966" lon="12.2077953"><ele>360.0</ele><time>2026-03-29T08:23:13.558Z</time></trkpt><trkpt lat="43.1021773" lon="12.2077826"><ele>358.0</ele><time>2026-03-29T08:23:16.561Z</time></trkpt><trkpt lat="43.1022533" lon="12.2077898"><ele>356.0</ele><time>2026-03-29T08:23:19.552Z</time></trkpt><trkpt lat="43.1023267" lon="12.2078179"><ele>355.99999999999994</ele><time>2026-03-29T08:23:22.563Z</time></trkpt><trkpt lat="43.1023981" lon="12.207867"><ele>356.0</ele><time>2026-03-29T08:23:25.561Z</time></trkpt><trkpt lat="43.1024482" lon="12.2079525"><ele>356.0</ele><time>2026-03-29T08:23:28.57Z</time></trkpt><trkpt lat="43.1024786" lon="12.2080447"><ele>356.0</ele><time>2026-03-29T08:23:31.559Z</time></trkpt><trkpt lat="43.1024926" lon="12.2081365"><ele>356.0</ele><time>2026-03-29T08:23:34.546Z</time></trkpt><trkpt lat="43.102513" lon="12.2082321"><ele>355.99999999999994</ele><time>2026-03-29T08:23:37.563Z</time></trkpt><trkpt lat="43.1025281" lon="12.2083257"><ele>356.0</ele><time>2026-03-29T08:23:39.54Z</time></trkpt><trkpt lat="43.102527" lon="12.2084476"><ele>358.6</ele><time>2026-03-29T08:23:41.672Z</time></trkpt><trkpt lat="43.1024996" lon="12.2085767"><ele>361.20000000000005</ele><time>2026-03-29T08:23:43.57Z</time></trkpt><trkpt lat="43.1024775" lon="12.2087138"><ele>363.79999999999995</ele><time>2026-03-29T08:23:45.57Z</time></trkpt><trkpt lat="43.1024809" lon="12.208881"><ele>366.4</ele><time>2026-03-29T08:23:47.558Z</time></trkpt><trkpt lat="43.1025005" lon="12.2089838"><ele>369.0</ele><time>2026-03-29T08:23:48.565Z</time></trkpt><trkpt lat="43.1025135" lon="12.2090768"><ele>369.1666666666667</ele><time>2026-03-29T08:23:49.567Z</time></trkpt><trkpt lat="43.1025436" lon="12.2091666"><ele>369.3333333333333</ele><time>2026-03-29T08:23:50.565Z</time></trkpt><trkpt lat="43.1025622" lon="12.2093047"><ele>369.5</ele><time>2026-03-29T08:23:52.563Z</time></trkpt><trkpt lat="43.1025667" lon="12.209417"><ele>369.66666666666663</ele><time>2026-03-29T08:23:54.575Z</time></trkpt><trkpt lat="43.1025832" lon="12.2095319"><ele>369.8333333333333</ele><time>2026-03-29T08:23:57.558Z</time></trkpt><trkpt lat="43.1025999" lon="12.2096402"><ele>370.0</ele><time>2026-03-29T08:24:00.562Z</time></trkpt><trkpt lat="43.102628" lon="12.2097222"><ele>370.0</ele><time>2026-03-29T08:24:02.556Z</time></trkpt><trkpt lat="43.1026758" lon="12.2098233"><ele>370.0</ele><time>2026-03-29T08:24:05.564Z</time></trkpt><trkpt lat="43.1027018" lon="12.209947"><ele>370.0</ele><time>2026-03-29T08:24:08.559Z</time></trkpt><trkpt lat="43.102712" lon="12.2100554"><ele>370.0</ele><time>2026-03-29T08:24:10.554Z</time></trkpt><trkpt lat="43.1027248" lon="12.2101927"><ele>370.0</ele><time>2026-03-29T08:24:12.552Z</time></trkpt><trkpt lat="43.1027271" lon="12.2103787"><ele>371.0</ele><time>2026-03-29T08:24:14.563Z</time></trkpt><trkpt lat="43.1027362" lon="12.2104864"><ele>372.0</ele><time>2026-03-29T08:24:15.567Z</time></trkpt><trkpt lat="43.1027656" lon="12.2105833"><ele>373.0</ele><time>2026-03-29T08:24:16.549Z</time></trkpt><trkpt lat="43.1027646" lon="12.2107438"><ele>374.0</ele><time>2026-03-29T08:24:18.566Z</time></trkpt><trkpt lat="43.1027573" lon="12.2108373"><ele>375.0</ele><time>2026-03-29T08:24:19.567Z</time></trkpt><trkpt lat="43.1027778" lon="12.2109484"><ele>376.0</ele><time>2026-03-29T08:24:20.578Z</time></trkpt><trkpt lat="43.1027761" lon="12.2110379"><ele>376.5</ele><time>2026-03-29T08:24:21.57Z</time></trkpt><trkpt lat="43.1028044" lon="12.2111831"><ele>377.0</ele><time>2026-03-29T08:24:23.557Z</time></trkpt><trkpt lat="43.1028443" lon="12.2112596"><ele>377.5</ele><time>2026-03-29T08:24:25.542Z</time></trkpt><trkpt lat="43.1029196" lon="12.2112837"><ele>378.0</ele><time>2026-03-29T08:24:27.555Z</time></trkpt><trkpt lat="43.1029856" lon="12.2112321"><ele>378.5</ele><time>2026-03-29T08:24:31.557Z</time></trkpt><trkpt lat="43.1030558" lon="12.211163"><ele>379.0</ele><time>2026-03-29T08:24:34.553Z</time></trkpt><trkpt lat="43.1031211" lon="12.2111027"><ele>379.00000000000006</ele><time>2026-03-29T08:24:36.553Z</time></trkpt><trkpt lat="43.1031852" lon="12.2110636"><ele>379.0</ele><time>2026-03-29T08:24:38.554Z</time></trkpt><trkpt lat="43.1032434" lon="12.2110278"><ele>379.0</ele><time>2026-03-29T08:24:40.556Z</time></trkpt><trkpt lat="43.103298" lon="12.2109835"><ele>379.0</ele><time>2026-03-29T08:24:42.542Z</time></trkpt><trkpt lat="43.1033715" lon="12.210925"><ele>379.0</ele><time>2026-03-29T08:24:45.543Z</time></trkpt><trkpt lat="43.1034287" lon="12.2108716"><ele>379.00000000000006</ele><time>2026-03-29T08:24:48.543Z</time></trkpt><trkpt lat="43.1034901" lon="12.210817"><ele>379.0</ele><time>2026-03-29T08:24:51.54Z</time></trkpt><trkpt lat="43.1035635" lon="12.210763"><ele>376.16666666666663</ele><time>2026-03-29T08:24:54.544Z</time></trkpt><trkpt lat="43.103634" lon="12.210701"><ele>373.3333333333333</ele><time>2026-03-29T08:24:57.564Z</time></trkpt><trkpt lat="43.1037019" lon="12.2106382"><ele>370.5</ele><time>2026-03-29T08:25:00.562Z</time></trkpt><trkpt lat="43.1037671" lon="12.2105846"><ele>367.6666666666667</ele><time>2026-03-29T08:25:03.558Z</time></trkpt><trkpt lat="43.1038237" lon="12.2105442"><ele>364.83333333333337</ele><time>2026-03-29T08:25:06.56Z</time></trkpt><trkpt lat="43.1038801" lon="12.2104641"><ele>362.0</ele><time>2026-03-29T08:27:55.554Z</time></trkpt><trkpt lat="43.1039148" lon="12.2103881"><ele>360.33333333333337</ele><time>2026-03-29T08:27:57.57Z</time></trkpt><trkpt lat="43.1039815" lon="12.2103298"><ele>358.6666666666667</ele><time>2026-03-29T08:27:59.552Z</time></trkpt><trkpt lat="43.1040849" lon="12.2102704"><ele>357.0</ele><time>2026-03-29T08:28:02.554Z</time></trkpt><trkpt lat="43.1041415" lon="12.2103319"><ele>355.3333333333333</ele><time>2026-03-29T08:28:05.563Z</time></trkpt><trkpt lat="43.1041632" lon="12.2104262"><ele>353.66666666666663</ele><time>2026-03-29T08:28:08.554Z</time></trkpt><trkpt lat="43.1041938" lon="12.2105511"><ele>352.0</ele><time>2026-03-29T08:28:11.56Z</time></trkpt><trkpt lat="43.1042178" lon="12.2106421"><ele>353.16666666666663</ele><time>2026-03-29T08:28:13.562Z</time></trkpt><trkpt lat="43.1042438" lon="12.2107506"><ele>354.3333333333333</ele><time>2026-03-29T08:28:15.546Z</time></trkpt><trkpt lat="43.1042621" lon="12.2108649"><ele>355.5</ele><time>2026-03-29T08:28:18.553Z</time></trkpt><trkpt lat="43.1042973" lon="12.2109715"><ele>356.6666666666667</ele><time>2026-03-29T08:28:21.543Z</time></trkpt><trkpt lat="43.1043571" lon="12.2110752"><ele>357.83333333333337</ele><time>2026-03-29T08:28:24.544Z</time></trkpt><trkpt lat="43.1043991" lon="12.2111827"><ele>359.0</ele><time>2026-03-29T08:28:26.552Z</time></trkpt><trkpt lat="43.1044434" lon="12.2112995"><ele>359.0</ele><time>2026-03-29T08:28:28.542Z</time></trkpt><trkpt lat="43.1044738" lon="12.2114108"><ele>359.0</ele><time>2026-03-29T08:28:30.528Z</time></trkpt><trkpt lat="43.1045518" lon="12.2115134"><ele>359.0</ele><time>2026-03-29T08:28:32.557Z</time></trkpt><trkpt lat="43.1045877" lon="12.2115853"><ele>359.0</ele><time>2026-03-29T08:28:34.542Z</time></trkpt><trkpt lat="43.104637" lon="12.2116418"><ele>359.0</ele><time>2026-03-29T08:28:48.555Z</time></trkpt><trkpt lat="43.1047122" lon="12.211631"><ele>359.0</ele><time>2026-03-29T08:28:53.557Z</time></trkpt><trkpt lat="43.1047747" lon="12.2115611"><ele>359.0</ele><time>2026-03-29T08:28:56.556Z</time></trkpt><trkpt lat="43.1048357" lon="12.2114908"><ele>359.0</ele><time>2026-03-29T08:28:59.562Z</time></trkpt><trkpt lat="43.1049012" lon="12.2114116"><ele>359.0</ele><time>2026-03-29T08:29:02.553Z</time></trkpt><trkpt lat="43.1049935" lon="12.2113117"><ele>359.0</ele><time>2026-03-29T08:29:05.563Z</time></trkpt><trkpt lat="43.1050591" lon="12.2112423"><ele>359.0</ele><time>2026-03-29T08:29:07.546Z</time></trkpt><trkpt lat="43.1050988" lon="12.2111504"><ele>359.0</ele><time>2026-03-29T08:29:09.665Z</time></trkpt><trkpt lat="43.1051334" lon="12.2110639"><ele>356.83333333333337</ele><time>2026-03-29T08:29:11.564Z</time></trkpt><trkpt lat="43.105182" lon="12.2109906"><ele>354.6666666666667</ele><time>2026-03-29T08:29:13.578Z</time></trkpt><trkpt lat="43.10523" lon="12.210908"><ele>352.5</ele><time>2026-03-29T08:29:15.552Z</time></trkpt><trkpt lat="43.1052507" lon="12.2107952"><ele>350.3333333333333</ele><time>2026-03-29T08:29:17.554Z</time></trkpt><trkpt lat="43.1052739" lon="12.2106777"><ele>348.16666666666663</ele><time>2026-03-29T08:29:19.559Z</time></trkpt><trkpt lat="43.1052898" lon="12.2105654"><ele>346.0</ele><time>2026-03-29T08:29:21.56Z</time></trkpt><trkpt lat="43.1053142" lon="12.2104587"><ele>344.4</ele><time>2026-03-29T08:29:23.542Z</time></trkpt><trkpt lat="43.1053367" lon="12.2103466"><ele>342.8</ele><time>2026-03-29T08:29:25.548Z</time></trkpt><trkpt lat="43.1053398" lon="12.2102335"><ele>341.2</ele><time>2026-03-29T08:29:27.562Z</time></trkpt><trkpt lat="43.1053545" lon="12.2101123"><ele>339.59999999999997</ele><time>2026-03-29T08:29:29.546Z</time></trkpt><trkpt lat="43.1053815" lon="12.2099821"><ele>338.0</ele><time>2026-03-29T08:29:31.559Z</time></trkpt><trkpt lat="43.105411" lon="12.2098529"><ele>335.5</ele><time>2026-03-29T08:29:33.554Z</time></trkpt><trkpt lat="43.1054365" lon="12.2097387"><ele>333.0</ele><time>2026-03-29T08:29:35.552Z</time></trkpt><trkpt lat="43.1054862" lon="12.2096097"><ele>330.5</ele><time>2026-03-29T08:29:37.543Z</time></trkpt><trkpt lat="43.1055484" lon="12.2093817"><ele>328.0</ele><time>2026-03-29T08:29:40.562Z</time></trkpt><trkpt lat="43.1055934" lon="12.2092631"><ele>328.0</ele><time>2026-03-29T08:29:42.546Z</time></trkpt><trkpt lat="43.1056345" lon="12.2091824"><ele>328.0</ele><time>2026-03-29T08:29:44.621Z</time></trkpt><trkpt lat="43.1056984" lon="12.2091173"><ele>328.0</ele><time>2026-03-29T08:29:48.563Z</time></trkpt><trkpt lat="43.1057534" lon="12.2091601"><ele>328.0</ele><time>2026-03-29T08:29:52.564Z</time></trkpt><trkpt lat="43.1057544" lon="12.2092732"><ele>328.0</ele><time>2026-03-29T08:29:58.567Z</time></trkpt><trkpt lat="43.1057749" lon="12.2093724"><ele>328.0</ele><time>2026-03-29T08:30:01.54Z</time></trkpt><trkpt lat="43.1057991" lon="12.209482"><ele>328.85714285714283</ele><time>2026-03-29T08:30:05.55Z</time></trkpt><trkpt lat="43.1058278" lon="12.2095605"><ele>329.7142857142857</ele><time>2026-03-29T08:30:08.567Z</time></trkpt><trkpt lat="43.1058338" lon="12.2096488"><ele>330.57142857142856</ele><time>2026-03-29T08:30:11.562Z</time></trkpt><trkpt lat="43.1058566" lon="12.2097515"><ele>331.42857142857144</ele><time>2026-03-29T08:30:15.55Z</time></trkpt><trkpt lat="43.1058574" lon="12.2098628"><ele>332.2857142857143</ele><time>2026-03-29T08:30:19.57Z</time></trkpt><trkpt lat="43.1058924" lon="12.209956"><ele>333.1428571428571</ele><time>2026-03-29T08:30:23.555Z</time></trkpt><trkpt lat="43.1059081" lon="12.2100597"><ele>334.0</ele><time>2026-03-29T08:30:27.54Z</time></trkpt><trkpt lat="43.1059299" lon="12.2101445"><ele>335.7142857142857</ele><time>2026-03-29T08:30:30.544Z</time></trkpt><trkpt lat="43.1059312" lon="12.2102391"><ele>337.42857142857144</ele><time>2026-03-29T08:30:34.56Z</time></trkpt><trkpt lat="43.1059322" lon="12.2103436"><ele>339.1428571428571</ele><time>2026-03-29T08:30:38.541Z</time></trkpt><trkpt lat="43.1059149" lon="12.2104284"><ele>340.8571428571429</ele><time>2026-03-29T08:30:42.651Z</time></trkpt><trkpt lat="43.1058957" lon="12.2105194"><ele>342.5714285714286</ele><time>2026-03-29T08:30:46.562Z</time></trkpt><trkpt lat="43.1059133" lon="12.2106077"><ele>344.2857142857143</ele><time>2026-03-29T08:30:49.566Z</time></trkpt><trkpt lat="43.1059253" lon="12.2106938"><ele>346.0</ele><time>2026-03-29T08:30:53.553Z</time></trkpt><trkpt lat="43.1059534" lon="12.2107858"><ele>347.7142857142857</ele><time>2026-03-29T08:30:58.54Z</time></trkpt><trkpt lat="43.1059939" lon="12.2108566"><ele>349.42857142857144</ele><time>2026-03-29T08:31:02.55Z</time></trkpt><trkpt lat="43.1060289" lon="12.2109553"><ele>351.14285714285717</ele><time>2026-03-29T08:31:07.551Z</time></trkpt><trkpt lat="43.1060537" lon="12.2110544"><ele>352.8571428571429</ele><time>2026-03-29T08:31:12.553Z</time></trkpt><trkpt lat="43.1060592" lon="12.2111443"><ele>354.57142857142856</ele><time>2026-03-29T08:31:16.563Z</time></trkpt><trkpt lat="43.1060748" lon="12.2112344"><ele>356.28571428571433</ele><time>2026-03-29T08:31:20.547Z</time></trkpt><trkpt lat="43.1061053" lon="12.211333"><ele>358.0</ele><time>2026-03-29T08:31:25.55Z</time></trkpt><trkpt lat="43.1061456" lon="12.2114073"><ele>358.00000000000006</ele><time>2026-03-29T08:31:29.547Z</time></trkpt><trkpt lat="43.106202" lon="12.2114589"><ele>358.0</ele><time>2026-03-29T08:31:33.575Z</time></trkpt><trkpt lat="43.1062644" lon="12.211515"><ele>358.0</ele><time>2026-03-29T08:31:37.558Z</time></trkpt><trkpt lat="43.1063119" lon="12.2115843"><ele>358.0</ele><time>2026-03-29T08:31:41.566Z</time></trkpt><trkpt lat="43.1063349" lon="12.211667"><ele>358.0</ele><time>2026-03-29T08:31:45.559Z</time></trkpt><trkpt lat="43.1063199" lon="12.2117663"><ele>358.00000000000006</ele><time>2026-03-29T08:31:49.563Z</time></trkpt><trkpt lat="43.1062871" lon="12.2118773"><ele>358.0</ele><time>2026-03-29T08:31:54.551Z</time></trkpt><trkpt lat="43.1062568" lon="12.2119553"><ele>359.8571428571429</ele><time>2026-03-29T08:31:58.557Z</time></trkpt><trkpt lat="43.1062331" lon="12.212046"><ele>361.7142857142857</ele><time>2026-03-29T08:32:02.561Z</time></trkpt><trkpt lat="43.1061953" lon="12.2121245"><ele>363.57142857142856</ele><time>2026-03-29T08:32:06.567Z</time></trkpt><trkpt lat="43.1061465" lon="12.2121827"><ele>365.42857142857144</ele><time>2026-03-29T08:32:10.554Z</time></trkpt><trkpt lat="43.1060949" lon="12.2122384"><ele>367.2857142857143</ele><time>2026-03-29T08:32:14.558Z</time></trkpt><trkpt lat="43.1060677" lon="12.2123317"><ele>369.14285714285717</ele><time>2026-03-29T08:32:19.56Z</time></trkpt><trkpt lat="43.1060891" lon="12.2124218"><ele>371.0</ele><time>2026-03-29T08:32:23.569Z</time></trkpt><trkpt lat="43.1061445" lon="12.2124991"><ele>373.2857142857143</ele><time>2026-03-29T08:32:28.556Z</time></trkpt><trkpt lat="43.1062218" lon="12.2125371"><ele>375.57142857142856</ele><time>2026-03-29T08:32:32.563Z</time></trkpt><trkpt lat="43.106283" lon="12.2125641"><ele>377.8571428571429</ele><time>2026-03-29T08:32:35.551Z</time></trkpt><trkpt lat="43.106344" lon="12.2126059"><ele>380.1428571428571</ele><time>2026-03-29T08:32:39.554Z</time></trkpt><trkpt lat="43.1064059" lon="12.2126388"><ele>382.42857142857144</ele><time>2026-03-29T08:32:43.554Z</time></trkpt><trkpt lat="43.1064686" lon="12.2126608"><ele>384.7142857142857</ele><time>2026-03-29T08:32:47.563Z</time></trkpt><trkpt lat="43.106533" lon="12.2126562"><ele>387.0</ele><time>2026-03-29T08:32:51.553Z</time></trkpt><trkpt lat="43.106609" lon="12.2126446"><ele>387.57142857142856</ele><time>2026-03-29T08:32:55.558Z</time></trkpt><trkpt lat="43.1066794" lon="12.2126317"><ele>388.14285714285717</ele><time>2026-03-29T08:33:00.558Z</time></trkpt><trkpt lat="43.1067528" lon="12.2126253"><ele>388.71428571428567</ele><time>2026-03-29T08:33:04.566Z</time></trkpt><trkpt lat="43.1068187" lon="12.2126312"><ele>389.2857142857143</ele><time>2026-03-29T08:33:07.556Z</time></trkpt><trkpt lat="43.1068877" lon="12.2126494"><ele>389.85714285714283</ele><time>2026-03-29T08:33:11.554Z</time></trkpt><trkpt lat="43.1069591" lon="12.212672"><ele>390.4285714285714</ele><time>2026-03-29T08:33:15.551Z</time></trkpt><trkpt lat="43.107021" lon="12.2127095"><ele>391.0</ele><time>2026-03-29T08:33:19.564Z</time></trkpt><trkpt lat="43.1070772" lon="12.2127662"><ele>390.99999999999994</ele><time>2026-03-29T08:33:24.555Z</time></trkpt><trkpt lat="43.1071538" lon="12.2127617"><ele>391.0</ele><time>2026-03-29T08:33:29.553Z</time></trkpt><trkpt lat="43.1071312" lon="12.212861"><ele>391.0</ele><time>2026-03-29T08:35:09.553Z</time></trkpt><trkpt lat="43.1071149" lon="12.2129488"><ele>391.0</ele><time>2026-03-29T08:35:12.556Z</time></trkpt><trkpt lat="43.1071019" lon="12.2130454"><ele>391.0</ele><time>2026-03-29T08:35:15.554Z</time></trkpt><trkpt lat="43.1070918" lon="12.21314"><ele>390.99999999999994</ele><time>2026-03-29T08:35:18.555Z</time></trkpt><trkpt lat="43.1070764" lon="12.213228"><ele>391.0</ele><time>2026-03-29T08:35:21.554Z</time></trkpt><trkpt lat="43.1070665" lon="12.2133212"><ele>393.1428571428571</ele><time>2026-03-29T08:35:24.554Z</time></trkpt><trkpt lat="43.1070499" lon="12.2134045"><ele>395.2857142857143</ele><time>2026-03-29T08:35:27.551Z</time></trkpt><trkpt lat="43.1070498" lon="12.2134949"><ele>397.42857142857144</ele><time>2026-03-29T08:35:30.574Z</time></trkpt><trkpt lat="43.107041" lon="12.213602"><ele>399.57142857142856</ele><time>2026-03-29T08:35:34.553Z</time></trkpt><trkpt lat="43.1070602" lon="12.2137102"><ele>401.7142857142857</ele><time>2026-03-29T08:35:38.563Z</time></trkpt><trkpt lat="43.1070735" lon="12.2138207"><ele>403.85714285714283</ele><time>2026-03-29T08:35:42.553Z</time></trkpt><trkpt lat="43.107079" lon="12.2139079"><ele>406.0</ele><time>2026-03-29T08:35:45.555Z</time></trkpt><trkpt lat="43.1070788" lon="12.2140191"><ele>408.0</ele><time>2026-03-29T08:35:50.556Z</time></trkpt><trkpt lat="43.1070851" lon="12.2141163"><ele>410.0</ele><time>2026-03-29T08:35:53.553Z</time></trkpt><trkpt lat="43.1071003" lon="12.2142107"><ele>412.0</ele><time>2026-03-29T08:35:56.553Z</time></trkpt><trkpt lat="43.1071134" lon="12.2143034"><ele>414.0</ele><time>2026-03-29T08:35:59.554Z</time></trkpt><trkpt lat="43.1071289" lon="12.2143921"><ele>416.0</ele><time>2026-03-29T08:36:02.551Z</time></trkpt><trkpt lat="43.10715" lon="12.2144751"><ele>418.0</ele><time>2026-03-29T08:36:05.555Z</time></trkpt><trkpt lat="43.1071722" lon="12.2145779"><ele>420.0</ele><time>2026-03-29T08:36:09.554Z</time></trkpt><trkpt lat="43.1071858" lon="12.2146723"><ele>420.0</ele><time>2026-03-29T08:36:14.54Z</time></trkpt><trkpt lat="43.1072301" lon="12.2147407"><ele>420.0</ele><time>2026-03-29T08:36:17.554Z</time></trkpt><trkpt lat="43.1072787" lon="12.214798"><ele>420.0</ele><time>2026-03-29T08:36:20.552Z</time></trkpt><trkpt lat="43.1073299" lon="12.2148527"><ele>420.0</ele><time>2026-03-29T08:36:23.55Z</time></trkpt><trkpt lat="43.107381" lon="12.2149031"><ele>420.0</ele><time>2026-03-29T08:36:25.559Z</time></trkpt><trkpt lat="43.107437" lon="12.2149763"><ele>420.0</ele><time>2026-03-29T08:36:29.558Z</time></trkpt><trkpt lat="43.1074762" lon="12.2150598"><ele>420.0</ele><time>2026-03-29T08:36:33.56Z</time></trkpt><trkpt lat="43.1074163" lon="12.2151037"><ele>421.85714285714283</ele><time>2026-03-29T08:36:38.57Z</time></trkpt><trkpt lat="43.1073619" lon="12.215056"><ele>423.7142857142857</ele><time>2026-03-29T08:36:41.656Z</time></trkpt><trkpt lat="43.1073146" lon="12.2149956"><ele>425.57142857142856</ele><time>2026-03-29T08:36:45.563Z</time></trkpt><trkpt lat="43.1072489" lon="12.214933"><ele>427.42857142857144</ele><time>2026-03-29T08:36:49.558Z</time></trkpt><trkpt lat="43.1071804" lon="12.2148953"><ele>429.2857142857143</ele><time>2026-03-29T08:36:53.565Z</time></trkpt><trkpt lat="43.1071086" lon="12.2148844"><ele>431.1428571428571</ele><time>2026-03-29T08:36:57.551Z</time></trkpt><trkpt lat="43.1070389" lon="12.2148824"><ele>433.0</ele><time>2026-03-29T08:37:01.562Z</time></trkpt><trkpt lat="43.1069634" lon="12.2148861"><ele>432.99999999999994</ele><time>2026-03-29T08:37:05.553Z</time></trkpt><trkpt lat="43.1068865" lon="12.2148936"><ele>433.0</ele><time>2026-03-29T08:37:09.564Z</time></trkpt><trkpt lat="43.1068129" lon="12.2148978"><ele>433.0</ele><time>2026-03-29T08:37:13.552Z</time></trkpt><trkpt lat="43.1067444" lon="12.2148969"><ele>433.0</ele><time>2026-03-29T08:37:17.554Z</time></trkpt><trkpt lat="43.1066792" lon="12.2148683"><ele>433.0</ele><time>2026-03-29T08:37:21.554Z</time></trkpt><trkpt lat="43.1066095" lon="12.2148404"><ele>432.99999999999994</ele><time>2026-03-29T08:37:25.556Z</time></trkpt><trkpt lat="43.1065528" lon="12.2147878"><ele>433.0</ele><time>2026-03-29T08:37:29.559Z</time></trkpt><trkpt lat="43.1064977" lon="12.2147313"><ele>433.85714285714283</ele><time>2026-03-29T08:37:33.552Z</time></trkpt><trkpt lat="43.1064333" lon="12.2146842"><ele>434.7142857142857</ele><time>2026-03-29T08:37:37.563Z</time></trkpt><trkpt lat="43.1063686" lon="12.2147379"><ele>435.57142857142856</ele><time>2026-03-29T08:37:41.554Z</time></trkpt><trkpt lat="43.106384" lon="12.2148298"><ele>436.42857142857144</ele><time>2026-03-29T08:37:44.552Z</time></trkpt><trkpt lat="43.1064226" lon="12.2149075"><ele>437.2857142857143</ele><time>2026-03-29T08:37:47.556Z</time></trkpt><trkpt lat="43.1064628" lon="12.2149918"><ele>438.1428571428571</ele><time>2026-03-29T08:37:51.541Z</time></trkpt><trkpt lat="43.1065019" lon="12.2150865"><ele>439.0</ele><time>2026-03-29T08:37:55.563Z</time></trkpt><trkpt lat="43.1065521" lon="12.2151637"><ele>438.00000000000006</ele><time>2026-03-29T08:37:59.569Z</time></trkpt><trkpt lat="43.106594" lon="12.2152427"><ele>437.0</ele><time>2026-03-29T08:38:03.553Z</time></trkpt><trkpt lat="43.1066403" lon="12.215325"><ele>436.0</ele><time>2026-03-29T08:38:07.545Z</time></trkpt><trkpt lat="43.1066884" lon="12.2153997"><ele>435.0</ele><time>2026-03-29T08:38:11.567Z</time></trkpt><trkpt lat="43.1067313" lon="12.2154796"><ele>434.00000000000006</ele><time>2026-03-29T08:38:15.552Z</time></trkpt><trkpt lat="43.1067643" lon="12.2155724"><ele>433.0</ele><time>2026-03-29T08:38:19.555Z</time></trkpt><trkpt lat="43.1067982" lon="12.2156997"><ele>435.2857142857142</ele><time>2026-03-29T08:38:24.551Z</time></trkpt><trkpt lat="43.1068114" lon="12.2158076"><ele>437.57142857142856</ele><time>2026-03-29T08:38:28.671Z</time></trkpt><trkpt lat="43.1068226" lon="12.2159085"><ele>439.85714285714283</ele><time>2026-03-29T08:38:32.552Z</time></trkpt><trkpt lat="43.1068319" lon="12.2160201"><ele>442.1428571428571</ele><time>2026-03-29T08:38:36.553Z</time></trkpt><trkpt lat="43.1068501" lon="12.2161058"><ele>444.4285714285714</ele><time>2026-03-29T08:38:39.541Z</time></trkpt><trkpt lat="43.1068751" lon="12.2161877"><ele>446.71428571428567</ele><time>2026-03-29T08:38:42.557Z</time></trkpt><trkpt lat="43.1069102" lon="12.2162631"><ele>449.0</ele><time>2026-03-29T08:38:45.563Z</time></trkpt><trkpt lat="43.1069525" lon="12.2163394"><ele>449.0</ele><time>2026-03-29T08:38:48.572Z</time></trkpt><trkpt lat="43.1070116" lon="12.2164044"><ele>448.99999999999994</ele><time>2026-03-29T08:38:51.556Z</time></trkpt><trkpt lat="43.1070662" lon="12.2164579"><ele>449.0</ele><time>2026-03-29T08:38:54.554Z</time></trkpt><trkpt lat="43.1071263" lon="12.2165031"><ele>449.0</ele><time>2026-03-29T08:38:57.556Z</time></trkpt><trkpt lat="43.1071828" lon="12.2165531"><ele>448.99999999999994</ele><time>2026-03-29T08:39:00.553Z</time></trkpt><trkpt lat="43.1072394" lon="12.2166121"><ele>449.0</ele><time>2026-03-29T08:39:03.54Z</time></trkpt><trkpt lat="43.1072907" lon="12.2166653"><ele>449.0</ele><time>2026-03-29T08:39:06.543Z</time></trkpt><trkpt lat="43.1073439" lon="12.2167347"><ele>448.71428571428567</ele><time>2026-03-29T08:39:09.554Z</time></trkpt><trkpt lat="43.1073928" lon="12.2167949"><ele>448.4285714285714</ele><time>2026-03-29T08:39:12.558Z</time></trkpt><trkpt lat="43.1074408" lon="12.2168643"><ele>448.1428571428571</ele><time>2026-03-29T08:39:15.555Z</time></trkpt><trkpt lat="43.1074917" lon="12.2169379"><ele>447.85714285714283</ele><time>2026-03-29T08:39:18.539Z</time></trkpt><trkpt lat="43.1075502" lon="12.2170039"><ele>447.57142857142856</ele><time>2026-03-29T08:39:21.557Z</time></trkpt><trkpt lat="43.107603" lon="12.2170695"><ele>447.2857142857142</ele><time>2026-03-29T08:39:24.545Z</time></trkpt><trkpt lat="43.1076561" lon="12.2171343"><ele>447.0</ele><time>2026-03-29T08:39:27.553Z</time></trkpt><trkpt lat="43.1077122" lon="12.2172028"><ele>446.99999999999994</ele><time>2026-03-29T08:39:30.558Z</time></trkpt><trkpt lat="43.1077689" lon="12.2172732"><ele>447.0</ele><time>2026-03-29T08:39:33.57Z</time></trkpt><trkpt lat="43.1078163" lon="12.2173427"><ele>447.0</ele><time>2026-03-29T08:39:36.564Z</time></trkpt><trkpt lat="43.1078689" lon="12.2174188"><ele>447.0</ele><time>2026-03-29T08:39:39.557Z</time></trkpt><trkpt lat="43.1079153" lon="12.2174996"><ele>447.0</ele><time>2026-03-29T08:39:42.564Z</time></trkpt><trkpt lat="43.1079459" lon="12.2175935"><ele>446.99999999999994</ele><time>2026-03-29T08:39:45.563Z</time></trkpt><trkpt lat="43.1079627" lon="12.2176909"><ele>447.0</ele><time>2026-03-29T08:39:48.552Z</time></trkpt><trkpt lat="43.1079745" lon="12.2177919"><ele>449.0</ele><time>2026-03-29T08:39:51.554Z</time></trkpt><trkpt lat="43.1079763" lon="12.2178782"><ele>451.0</ele><time>2026-03-29T08:39:54.556Z</time></trkpt><trkpt lat="43.1079764" lon="12.2179815"><ele>453.0</ele><time>2026-03-29T08:39:57.569Z</time></trkpt><trkpt lat="43.1079699" lon="12.2180808"><ele>455.0</ele><time>2026-03-29T08:40:00.563Z</time></trkpt><trkpt lat="43.1079541" lon="12.2181845"><ele>457.00000000000006</ele><time>2026-03-29T08:40:03.56Z</time></trkpt><trkpt lat="43.1079294" lon="12.2182848"><ele>459.0</ele><time>2026-03-29T08:40:06.555Z</time></trkpt><trkpt lat="43.1079109" lon="12.2183899"><ele>461.0</ele><time>2026-03-29T08:40:09.54Z</time></trkpt><trkpt lat="43.1078984" lon="12.2184965"><ele>461.7142857142857</ele><time>2026-03-29T08:40:12.539Z</time></trkpt><trkpt lat="43.1078712" lon="12.2185904"><ele>462.42857142857144</ele><time>2026-03-29T08:40:15.543Z</time></trkpt><trkpt lat="43.1078349" lon="12.218668"><ele>463.14285714285717</ele><time>2026-03-29T08:40:18.553Z</time></trkpt><trkpt lat="43.1078002" lon="12.2187433"><ele>463.8571428571429</ele><time>2026-03-29T08:40:21.57Z</time></trkpt><trkpt lat="43.1077669" lon="12.2188436"><ele>464.57142857142856</ele><time>2026-03-29T08:40:25.556Z</time></trkpt><trkpt lat="43.1077916" lon="12.2189432"><ele>465.28571428571433</ele><time>2026-03-29T08:40:28.564Z</time></trkpt><trkpt lat="43.1078117" lon="12.2190434"><ele>466.0</ele><time>2026-03-29T08:40:31.553Z</time></trkpt><trkpt lat="43.1078373" lon="12.2191337"><ele>466.00000000000006</ele><time>2026-03-29T08:40:33.557Z</time></trkpt><trkpt lat="43.1078646" lon="12.2192263"><ele>466.0</ele><time>2026-03-29T08:40:35.555Z</time></trkpt><trkpt lat="43.1078955" lon="12.2193079"><ele>466.0</ele><time>2026-03-29T08:40:37.554Z</time></trkpt><trkpt lat="43.1079362" lon="12.2194072"><ele>466.0</ele><time>2026-03-29T08:40:41.561Z</time></trkpt><trkpt lat="43.1079553" lon="12.2195082"><ele>466.00000000000006</ele><time>2026-03-29T08:40:44.562Z</time></trkpt><trkpt lat="43.1079989" lon="12.2195998"><ele>466.0</ele><time>2026-03-29T08:40:47.554Z</time></trkpt><trkpt lat="43.1080442" lon="12.2196775"><ele>466.00000000000006</ele><time>2026-03-29T08:40:50.56Z</time></trkpt><trkpt lat="43.1079722" lon="12.2196757"><ele>466.0</ele><time>2026-03-29T08:49:41.543Z</time></trkpt><trkpt lat="43.1078925" lon="12.2196916"><ele>466.0</ele><time>2026-03-29T08:49:44.556Z</time></trkpt><trkpt lat="43.107823" lon="12.2196553"><ele>466.0</ele><time>2026-03-29T08:49:47.554Z</time></trkpt><trkpt lat="43.1077514" lon="12.2196298"><ele>466.00000000000006</ele><time>2026-03-29T08:49:50.557Z</time></trkpt><trkpt lat="43.1076711" lon="12.2196398"><ele>466.0</ele><time>2026-03-29T08:49:53.571Z</time></trkpt><trkpt lat="43.1075849" lon="12.2196506"><ele>466.00000000000006</ele><time>2026-03-29T08:49:56.567Z</time></trkpt><trkpt lat="43.1075072" lon="12.2196124"><ele>466.0</ele><time>2026-03-29T08:49:59.552Z</time></trkpt><trkpt lat="43.1074545" lon="12.2196675"><ele>466.0</ele><time>2026-03-29T08:50:02.563Z</time></trkpt><trkpt lat="43.1075188" lon="12.219739"><ele>466.0</ele><time>2026-03-29T08:50:05.551Z</time></trkpt><trkpt lat="43.1075805" lon="12.2197646"><ele>466.00000000000006</ele><time>2026-03-29T08:50:07.553Z</time></trkpt><trkpt lat="43.1076561" lon="12.2198306"><ele>466.0</ele><time>2026-03-29T08:50:10.567Z</time></trkpt><trkpt lat="43.1077072" lon="12.2198847"><ele>462.50000000000006</ele><time>2026-03-29T08:50:12.576Z</time></trkpt><trkpt lat="43.1077806" lon="12.21996"><ele>459.0</ele><time>2026-03-29T08:50:15.554Z</time></trkpt><trkpt lat="43.107829" lon="12.2200731"><ele>455.5</ele><time>2026-03-29T08:50:18.552Z</time></trkpt><trkpt lat="43.107852" lon="12.2201536"><ele>452.0</ele><time>2026-03-29T08:50:20.556Z</time></trkpt><trkpt lat="43.1078809" lon="12.2202414"><ele>448.50000000000006</ele><time>2026-03-29T08:50:22.566Z</time></trkpt><trkpt lat="43.1079038" lon="12.2203332"><ele>445.0</ele><time>2026-03-29T08:50:24.552Z</time></trkpt><trkpt lat="43.1079404" lon="12.2204372"><ele>445.00000000000006</ele><time>2026-03-29T08:50:27.556Z</time></trkpt><trkpt lat="43.1079523" lon="12.2205275"><ele>445.0</ele><time>2026-03-29T08:50:30.561Z</time></trkpt><trkpt lat="43.1079913" lon="12.2206298"><ele>445.0</ele><time>2026-03-29T08:50:33.544Z</time></trkpt><trkpt lat="43.1080243" lon="12.2207343"><ele>445.0</ele><time>2026-03-29T08:50:36.557Z</time></trkpt><trkpt lat="43.1080894" lon="12.2208722"><ele>445.00000000000006</ele><time>2026-03-29T08:50:40.557Z</time></trkpt><trkpt lat="43.1081521" lon="12.2209536"><ele>445.0</ele><time>2026-03-29T08:50:43.556Z</time></trkpt><trkpt lat="43.1082138" lon="12.2210461"><ele>445.1666666666667</ele><time>2026-03-29T08:50:46.555Z</time></trkpt><trkpt lat="43.1082379" lon="12.2211309"><ele>445.33333333333337</ele><time>2026-03-29T08:50:48.555Z</time></trkpt><trkpt lat="43.1082532" lon="12.2212592"><ele>445.5</ele><time>2026-03-29T08:50:51.555Z</time></trkpt><trkpt lat="43.1082746" lon="12.2213548"><ele>445.66666666666663</ele><time>2026-03-29T08:50:53.554Z</time></trkpt><trkpt lat="43.108287" lon="12.2214604"><ele>445.8333333333333</ele><time>2026-03-29T08:50:55.553Z</time></trkpt><trkpt lat="43.1082964" lon="12.2215594"><ele>446.0</ele><time>2026-03-29T08:50:57.561Z</time></trkpt><trkpt lat="43.1082779" lon="12.2216572"><ele>444.49999999999994</ele><time>2026-03-29T08:50:59.552Z</time></trkpt><trkpt lat="43.1082741" lon="12.2217844"><ele>443.0</ele><time>2026-03-29T08:51:01.553Z</time></trkpt><trkpt lat="43.1082623" lon="12.2219065"><ele>441.5</ele><time>2026-03-29T08:51:03.559Z</time></trkpt><trkpt lat="43.1082618" lon="12.2220204"><ele>440.0</ele><time>2026-03-29T08:51:05.555Z</time></trkpt><trkpt lat="43.1082627" lon="12.222123"><ele>438.49999999999994</ele><time>2026-03-29T08:51:07.554Z</time></trkpt><trkpt lat="43.1082579" lon="12.2222422"><ele>437.0</ele><time>2026-03-29T08:51:10.558Z</time></trkpt><trkpt lat="43.1082397" lon="12.2223362"><ele>435.7142857142857</ele><time>2026-03-29T08:51:46.564Z</time></trkpt><trkpt lat="43.1081851" lon="12.222399"><ele>434.42857142857144</ele><time>2026-03-29T09:09:04.542Z</time></trkpt><trkpt lat="43.108175" lon="12.2224977"><ele>433.14285714285717</ele><time>2026-03-29T09:09:08.541Z</time></trkpt><trkpt lat="43.1081961" lon="12.222599"><ele>431.8571428571429</ele><time>2026-03-29T09:09:12.543Z</time></trkpt><trkpt lat="43.1082101" lon="12.2226842"><ele>430.57142857142856</ele><time>2026-03-29T09:09:15.542Z</time></trkpt><trkpt lat="43.1082335" lon="12.2227669"><ele>429.28571428571433</ele><time>2026-03-29T09:09:17.542Z</time></trkpt><trkpt lat="43.1082726" lon="12.2228612"><ele>428.0</ele><time>2026-03-29T09:09:20.644Z</time></trkpt><trkpt lat="43.1082759" lon="12.2229546"><ele>427.99999999999994</ele><time>2026-03-29T09:09:23.543Z</time></trkpt><trkpt lat="43.1082648" lon="12.223042"><ele>428.0</ele><time>2026-03-29T09:09:26.554Z</time></trkpt><trkpt lat="43.1082378" lon="12.2231541"><ele>428.0</ele><time>2026-03-29T09:09:29.553Z</time></trkpt><trkpt lat="43.108223" lon="12.2232796"><ele>428.0</ele><time>2026-03-29T09:09:33.552Z</time></trkpt><trkpt lat="43.1082119" lon="12.2233753"><ele>427.99999999999994</ele><time>2026-03-29T09:09:35.541Z</time></trkpt><trkpt lat="43.1082092" lon="12.2234702"><ele>428.0</ele><time>2026-03-29T09:09:37.547Z</time></trkpt><trkpt lat="43.1081959" lon="12.223574"><ele>422.7142857142857</ele><time>2026-03-29T09:09:39.551Z</time></trkpt><trkpt lat="43.1081658" lon="12.2236585"><ele>417.42857142857144</ele><time>2026-03-29T09:09:41.556Z</time></trkpt><trkpt lat="43.1080982" lon="12.2237303"><ele>412.1428571428571</ele><time>2026-03-29T09:09:43.552Z</time></trkpt><trkpt lat="43.1080383" lon="12.2237926"><ele>406.8571428571429</ele><time>2026-03-29T09:09:45.551Z</time></trkpt><trkpt lat="43.1079684" lon="12.2238425"><ele>401.57142857142856</ele><time>2026-03-29T09:09:48.554Z</time></trkpt><trkpt lat="43.1079026" lon="12.2238671"><ele>396.2857142857143</ele><time>2026-03-29T09:09:51.55Z</time></trkpt><trkpt lat="43.1078409" lon="12.2238956"><ele>391.0</ele><time>2026-03-29T09:09:54.55Z</time></trkpt><trkpt lat="43.1078327" lon="12.2239881"><ele>390.6666666666667</ele><time>2026-03-29T09:10:16.556Z</time></trkpt><trkpt lat="43.1078416" lon="12.2240781"><ele>390.33333333333337</ele><time>2026-03-29T09:10:18.553Z</time></trkpt><trkpt lat="43.1078609" lon="12.2241858"><ele>390.0</ele><time>2026-03-29T09:10:20.546Z</time></trkpt><trkpt lat="43.107905" lon="12.2243151"><ele>389.66666666666663</ele><time>2026-03-29T09:10:22.56Z</time></trkpt><trkpt lat="43.1079423" lon="12.2244279"><ele>389.3333333333333</ele><time>2026-03-29T09:10:24.552Z</time></trkpt><trkpt lat="43.1079906" lon="12.2245362"><ele>389.0</ele><time>2026-03-29T09:10:26.566Z</time></trkpt><trkpt lat="43.1080414" lon="12.2246339"><ele>388.99999999999994</ele><time>2026-03-29T09:10:28.553Z</time></trkpt><trkpt lat="43.1080891" lon="12.2247183"><ele>389.0</ele><time>2026-03-29T09:10:30.552Z</time></trkpt><trkpt lat="43.1081224" lon="12.2247998"><ele>389.0</ele><time>2026-03-29T09:10:32.563Z</time></trkpt><trkpt lat="43.1081464" lon="12.2249032"><ele>389.0</ele><time>2026-03-29T09:10:35.551Z</time></trkpt><trkpt lat="43.1081371" lon="12.2250074"><ele>388.99999999999994</ele><time>2026-03-29T09:10:38.554Z</time></trkpt><trkpt lat="43.1081086" lon="12.2251129"><ele>389.0</ele><time>2026-03-29T09:10:41.551Z</time></trkpt><trkpt lat="43.1080524" lon="12.2251938"><ele>389.5714285714286</ele><time>2026-03-29T09:10:44.528Z</time></trkpt><trkpt lat="43.1079862" lon="12.2252188"><ele>390.1428571428571</ele><time>2026-03-29T09:10:46.551Z</time></trkpt><trkpt lat="43.1079059" lon="12.2252576"><ele>390.7142857142857</ele><time>2026-03-29T09:10:49.55Z</time></trkpt><trkpt lat="43.1078364" lon="12.2253079"><ele>391.28571428571433</ele><time>2026-03-29T09:10:52.554Z</time></trkpt><trkpt lat="43.1077668" lon="12.2253687"><ele>391.8571428571429</ele><time>2026-03-29T09:10:57.556Z</time></trkpt><trkpt lat="43.1077067" lon="12.2254055"><ele>392.42857142857144</ele><time>2026-03-29T09:11:00.556Z</time></trkpt><trkpt lat="43.1076817" lon="12.2254882"><ele>393.0</ele><time>2026-03-29T09:11:02.558Z</time></trkpt><trkpt lat="43.107701" lon="12.2255885"><ele>392.79999999999995</ele><time>2026-03-29T09:11:04.553Z</time></trkpt><trkpt lat="43.1077621" lon="12.225686"><ele>392.6</ele><time>2026-03-29T09:11:06.553Z</time></trkpt><trkpt lat="43.1078417" lon="12.2257834"><ele>392.4</ele><time>2026-03-29T09:11:08.553Z</time></trkpt><trkpt lat="43.1079398" lon="12.2258507"><ele>392.20000000000005</ele><time>2026-03-29T09:11:10.56Z</time></trkpt><trkpt lat="43.1080318" lon="12.2259061"><ele>392.0</ele><time>2026-03-29T09:11:12.556Z</time></trkpt><trkpt lat="43.1081054" lon="12.2259691"><ele>391.99999999999994</ele><time>2026-03-29T09:11:14.551Z</time></trkpt><trkpt lat="43.1081696" lon="12.2260515"><ele>392.0</ele><time>2026-03-29T09:11:16.554Z</time></trkpt><trkpt lat="43.1082335" lon="12.2261533"><ele>392.0</ele><time>2026-03-29T09:11:18.574Z</time></trkpt><trkpt lat="43.1082849" lon="12.2262644"><ele>392.0</ele><time>2026-03-29T09:11:20.558Z</time></trkpt><trkpt lat="43.1083281" lon="12.2263596"><ele>391.99999999999994</ele><time>2026-03-29T09:11:22.551Z</time></trkpt><trkpt lat="43.1083489" lon="12.226457"><ele>392.0</ele><time>2026-03-29T09:11:24.558Z</time></trkpt><trkpt lat="43.1083781" lon="12.2265346"><ele>391.3333333333333</ele><time>2026-03-29T09:11:26.566Z</time></trkpt><trkpt lat="43.1084096" lon="12.226654"><ele>390.66666666666663</ele><time>2026-03-29T09:11:29.555Z</time></trkpt><trkpt lat="43.1084369" lon="12.2267415"><ele>390.0</ele><time>2026-03-29T09:11:31.552Z</time></trkpt><trkpt lat="43.1084722" lon="12.2268182"><ele>389.33333333333337</ele><time>2026-03-29T09:11:33.555Z</time></trkpt><trkpt lat="43.1085126" lon="12.2269255"><ele>388.6666666666667</ele><time>2026-03-29T09:11:35.56Z</time></trkpt><trkpt lat="43.108565" lon="12.2270365"><ele>388.0</ele><time>2026-03-29T09:11:37.555Z</time></trkpt><trkpt lat="43.1086019" lon="12.2271455"><ele>388.0</ele><time>2026-03-29T09:11:39.554Z</time></trkpt><trkpt lat="43.108646" lon="12.2272339"><ele>388.0</ele><time>2026-03-29T09:11:41.551Z</time></trkpt><trkpt lat="43.1087023" lon="12.2273465"><ele>388.0</ele><time>2026-03-29T09:11:43.572Z</time></trkpt><trkpt lat="43.1087689" lon="12.2274489"><ele>388.0</ele><time>2026-03-29T09:11:45.651Z</time></trkpt><trkpt lat="43.1088518" lon="12.2275142"><ele>388.0</ele><time>2026-03-29T09:11:47.553Z</time></trkpt><trkpt lat="43.1089424" lon="12.2275591"><ele>388.00000000000006</ele><time>2026-03-29T09:11:49.561Z</time></trkpt><trkpt lat="43.1090245" lon="12.2275998"><ele>388.0</ele><time>2026-03-29T09:11:51.565Z</time></trkpt><trkpt lat="43.1090958" lon="12.227676"><ele>388.0</ele><time>2026-03-29T09:11:53.551Z</time></trkpt><trkpt lat="43.1091482" lon="12.2277703"><ele>388.0</ele><time>2026-03-29T09:11:55.553Z</time></trkpt><trkpt lat="43.1091757" lon="12.2278731"><ele>388.00000000000006</ele><time>2026-03-29T09:11:57.554Z</time></trkpt><trkpt lat="43.1091846" lon="12.227982"><ele>388.0</ele><time>2026-03-29T09:11:59.551Z</time></trkpt><trkpt lat="43.1091849" lon="12.2280857"><ele>386.1666666666667</ele><time>2026-03-29T09:12:01.559Z</time></trkpt><trkpt lat="43.1091747" lon="12.2282046"><ele>384.33333333333337</ele><time>2026-03-29T09:12:03.553Z</time></trkpt><trkpt lat="43.1091705" lon="12.2283273"><ele>382.5</ele><time>2026-03-29T09:12:05.553Z</time></trkpt><trkpt lat="43.1091515" lon="12.228437"><ele>380.6666666666667</ele><time>2026-03-29T09:12:08.551Z</time></trkpt><trkpt lat="43.1091397" lon="12.2285444"><ele>378.83333333333337</ele><time>2026-03-29T09:12:33.543Z</time></trkpt><trkpt lat="43.1091571" lon="12.2286419"><ele>377.0</ele><time>2026-03-29T09:12:36.552Z</time></trkpt><trkpt lat="43.1091528" lon="12.228748"><ele>377.0</ele><time>2026-03-29T09:12:39.554Z</time></trkpt><trkpt lat="43.1091693" lon="12.2288608"><ele>377.0</ele><time>2026-03-29T09:12:42.552Z</time></trkpt><trkpt lat="43.1091992" lon="12.2289899"><ele>377.0</ele><time>2026-03-29T09:12:45.554Z</time></trkpt><trkpt lat="43.1092101" lon="12.2290955"><ele>377.0</ele><time>2026-03-29T09:12:47.553Z</time></trkpt><trkpt lat="43.1091981" lon="12.2292"><ele>377.0</ele><time>2026-03-29T09:12:49.557Z</time></trkpt><trkpt lat="43.1091933" lon="12.2293045"><ele>377.0</ele><time>2026-03-29T09:12:51.553Z</time></trkpt><trkpt lat="43.1091869" lon="12.2294056"><ele>376.1666666666667</ele><time>2026-03-29T09:12:53.557Z</time></trkpt><trkpt lat="43.1091705" lon="12.2294997"><ele>375.33333333333337</ele><time>2026-03-29T09:12:55.552Z</time></trkpt><trkpt lat="43.1091494" lon="12.229586"><ele>374.5</ele><time>2026-03-29T09:12:57.54Z</time></trkpt><trkpt lat="43.1091227" lon="12.2296657"><ele>373.6666666666667</ele><time>2026-03-29T09:12:59.543Z</time></trkpt><trkpt lat="43.1090979" lon="12.22976"><ele>372.8333333333333</ele><time>2026-03-29T09:13:01.55Z</time></trkpt><trkpt lat="43.1090587" lon="12.229882"><ele>372.0</ele><time>2026-03-29T09:13:03.551Z</time></trkpt><trkpt lat="43.1090036" lon="12.2300025"><ele>370.6</ele><time>2026-03-29T09:13:05.557Z</time></trkpt><trkpt lat="43.1089949" lon="12.2301312"><ele>369.20000000000005</ele><time>2026-03-29T09:13:07.558Z</time></trkpt><trkpt lat="43.109001" lon="12.2302754"><ele>367.8</ele><time>2026-03-29T09:13:09.561Z</time></trkpt><trkpt lat="43.109005" lon="12.2304171"><ele>366.4</ele><time>2026-03-29T09:13:11.565Z</time></trkpt><trkpt lat="43.1089976" lon="12.230554"><ele>365.0</ele><time>2026-03-29T09:13:13.562Z</time></trkpt><trkpt lat="43.1089951" lon="12.230683"><ele>365.0</ele><time>2026-03-29T09:13:15.55Z</time></trkpt><trkpt lat="43.10897" lon="12.2307898"><ele>365.0</ele><time>2026-03-29T09:13:17.539Z</time></trkpt><trkpt lat="43.1089354" lon="12.2308738"><ele>365.0</ele><time>2026-03-29T09:13:19.554Z</time></trkpt><trkpt lat="43.1089033" lon="12.2309539"><ele>365.0</ele><time>2026-03-29T09:13:21.555Z</time></trkpt><trkpt lat="43.1088535" lon="12.2310712"><ele>365.0</ele><time>2026-03-29T09:13:24.552Z</time></trkpt><trkpt lat="43.1088223" lon="12.2311463"><ele>365.0</ele><time>2026-03-29T09:13:26.549Z</time></trkpt><trkpt lat="43.1087769" lon="12.2312197"><ele>365.0</ele><time>2026-03-29T09:13:29.559Z</time></trkpt><trkpt lat="43.1087402" lon="12.2313048"><ele>365.0</ele><time>2026-03-29T09:13:32.539Z</time></trkpt><trkpt lat="43.1087008" lon="12.2314129"><ele>365.0</ele><time>2026-03-29T09:13:35.553Z</time></trkpt><trkpt lat="43.1086806" lon="12.2314951"><ele>365.0</ele><time>2026-03-29T09:13:37.54Z</time></trkpt><trkpt lat="43.1086587" lon="12.2315963"><ele>365.0</ele><time>2026-03-29T09:13:39.551Z</time></trkpt><trkpt lat="43.1086174" lon="12.2317023"><ele>365.0</ele><time>2026-03-29T09:13:41.553Z</time></trkpt><trkpt lat="43.1085676" lon="12.231796"><ele>364.2</ele><time>2026-03-29T09:13:43.55Z</time></trkpt><trkpt lat="43.1085215" lon="12.231887"><ele>363.4</ele><time>2026-03-29T09:13:45.553Z</time></trkpt><trkpt lat="43.1084485" lon="12.2319614"><ele>362.6</ele><time>2026-03-29T09:13:47.544Z</time></trkpt><trkpt lat="43.1083471" lon="12.2319828"><ele>361.8</ele><time>2026-03-29T09:13:49.572Z</time></trkpt><trkpt lat="43.1082378" lon="12.2320069"><ele>361.0</ele><time>2026-03-29T09:13:51.54Z</time></trkpt><trkpt lat="43.1081242" lon="12.2320284"><ele>358.4</ele><time>2026-03-29T09:13:53.555Z</time></trkpt><trkpt lat="43.1080193" lon="12.2320546"><ele>355.8</ele><time>2026-03-29T09:13:55.536Z</time></trkpt><trkpt lat="43.1079361" lon="12.2321178"><ele>353.2</ele><time>2026-03-29T09:13:57.54Z</time></trkpt><trkpt lat="43.1078322" lon="12.2321748"><ele>350.59999999999997</ele><time>2026-03-29T09:13:59.54Z</time></trkpt><trkpt lat="43.1077227" lon="12.2322088"><ele>348.0</ele><time>2026-03-29T09:14:01.549Z</time></trkpt><trkpt lat="43.1076374" lon="12.2322839"><ele>347.4</ele><time>2026-03-29T09:14:03.551Z</time></trkpt><trkpt lat="43.1075766" lon="12.23239"><ele>346.79999999999995</ele><time>2026-03-29T09:14:05.573Z</time></trkpt><trkpt lat="43.1075025" lon="12.2325079"><ele>346.2</ele><time>2026-03-29T09:14:07.538Z</time></trkpt><trkpt lat="43.1074387" lon="12.232649"><ele>345.6</ele><time>2026-03-29T09:14:09.536Z</time></trkpt><trkpt lat="43.1073906" lon="12.2327907"><ele>345.0</ele><time>2026-03-29T09:14:11.539Z</time></trkpt><trkpt lat="43.1073685" lon="12.2329327"><ele>344.6666666666667</ele><time>2026-03-29T09:14:13.538Z</time></trkpt><trkpt lat="43.1073523" lon="12.2330854"><ele>344.3333333333333</ele><time>2026-03-29T09:14:15.536Z</time></trkpt><trkpt lat="43.1073478" lon="12.233173"><ele>344.0</ele><time>2026-03-29T09:14:16.544Z</time></trkpt><trkpt lat="43.1073058" lon="12.2333304"><ele>343.66666666666663</ele><time>2026-03-29T09:14:18.537Z</time></trkpt><trkpt lat="43.1072741" lon="12.2334061"><ele>343.3333333333333</ele><time>2026-03-29T09:14:19.559Z</time></trkpt><trkpt lat="43.1072315" lon="12.2334712"><ele>343.0</ele><time>2026-03-29T09:14:20.55Z</time></trkpt><trkpt lat="43.1071803" lon="12.2335252"><ele>342.79999999999995</ele><time>2026-03-29T09:14:21.544Z</time></trkpt><trkpt lat="43.1071238" lon="12.2335705"><ele>342.6</ele><time>2026-03-29T09:14:22.547Z</time></trkpt><trkpt lat="43.1070507" lon="12.2336758"><ele>342.4</ele><time>2026-03-29T09:14:24.558Z</time></trkpt><trkpt lat="43.1070888" lon="12.2337745"><ele>342.20000000000005</ele><time>2026-03-29T09:14:26.549Z</time></trkpt><trkpt lat="43.1071895" lon="12.2337993"><ele>342.0</ele><time>2026-03-29T09:14:28.577Z</time></trkpt><trkpt lat="43.1072966" lon="12.2337373"><ele>342.0</ele><time>2026-03-29T09:14:30.555Z</time></trkpt><trkpt lat="43.1073725" lon="12.233651"><ele>342.0</ele><time>2026-03-29T09:14:32.56Z</time></trkpt><trkpt lat="43.1074404" lon="12.2336525"><ele>342.0</ele><time>2026-03-29T09:14:35.55Z</time></trkpt><trkpt lat="43.107402" lon="12.2337577"><ele>342.0</ele><time>2026-03-29T09:14:37.556Z</time></trkpt><trkpt lat="43.1073539" lon="12.2339019"><ele>342.0</ele><time>2026-03-29T09:14:39.557Z</time></trkpt><trkpt lat="43.1073057" lon="12.2340478"><ele>338.20000000000005</ele><time>2026-03-29T09:14:41.559Z</time></trkpt><trkpt lat="43.1072445" lon="12.234194"><ele>334.4</ele><time>2026-03-29T09:14:43.544Z</time></trkpt><trkpt lat="43.1071628" lon="12.2342911"><ele>330.6</ele><time>2026-03-29T09:14:45.551Z</time></trkpt><trkpt lat="43.1070886" lon="12.2343009"><ele>326.79999999999995</ele><time>2026-03-29T09:14:46.568Z</time></trkpt><trkpt lat="43.1069627" lon="12.2343186"><ele>323.0</ele><time>2026-03-29T09:14:48.551Z</time></trkpt><trkpt lat="43.1068453" lon="12.2343373"><ele>323.0</ele><time>2026-03-29T09:14:50.551Z</time></trkpt><trkpt lat="43.1067512" lon="12.2343786"><ele>323.0</ele><time>2026-03-29T09:14:52.551Z</time></trkpt><trkpt lat="43.1067315" lon="12.2344984"><ele>323.0</ele><time>2026-03-29T09:14:55.552Z</time></trkpt><trkpt lat="43.1067932" lon="12.2345702"><ele>323.0</ele><time>2026-03-29T09:14:57.553Z</time></trkpt><trkpt lat="43.1068677" lon="12.2346444"><ele>323.0</ele><time>2026-03-29T09:14:59.557Z</time></trkpt><trkpt lat="43.1069669" lon="12.2346964"><ele>323.0</ele><time>2026-03-29T09:15:01.553Z</time></trkpt><trkpt lat="43.1070519" lon="12.234761"><ele>323.0</ele><time>2026-03-29T09:15:03.56Z</time></trkpt><trkpt lat="43.107143" lon="12.2348393"><ele>323.0</ele><time>2026-03-29T09:15:05.55Z</time></trkpt><trkpt lat="43.1072294" lon="12.234915"><ele>323.0</ele><time>2026-03-29T09:15:07.563Z</time></trkpt><trkpt lat="43.1072777" lon="12.2349953"><ele>323.0</ele><time>2026-03-29T09:15:09.55Z</time></trkpt><trkpt lat="43.1073181" lon="12.2350642"><ele>323.0</ele><time>2026-03-29T09:15:11.551Z</time></trkpt><trkpt lat="43.107367" lon="12.2351274"><ele>320.33333333333337</ele><time>2026-03-29T09:15:13.55Z</time></trkpt><trkpt lat="43.1074165" lon="12.2351971"><ele>317.6666666666667</ele><time>2026-03-29T09:15:15.551Z</time></trkpt><trkpt lat="43.1074681" lon="12.2352521"><ele>315.0</ele><time>2026-03-29T09:15:17.554Z</time></trkpt><trkpt lat="43.1075434" lon="12.2353137"><ele>312.3333333333333</ele><time>2026-03-29T09:15:20.54Z</time></trkpt><trkpt lat="43.1076029" lon="12.2353828"><ele>309.66666666666663</ele><time>2026-03-29T09:15:23.551Z</time></trkpt><trkpt lat="43.1076539" lon="12.2354765"><ele>307.0</ele><time>2026-03-29T09:15:26.566Z</time></trkpt><trkpt lat="43.1076955" lon="12.2355755"><ele>306.4285714285714</ele><time>2026-03-29T09:15:29.559Z</time></trkpt><trkpt lat="43.1077302" lon="12.235667"><ele>305.85714285714283</ele><time>2026-03-29T09:15:32.552Z</time></trkpt><trkpt lat="43.1077392" lon="12.2357711"><ele>305.2857142857143</ele><time>2026-03-29T09:15:35.533Z</time></trkpt><trkpt lat="43.1077332" lon="12.235868"><ele>304.71428571428567</ele><time>2026-03-29T09:15:38.555Z</time></trkpt><trkpt lat="43.1077423" lon="12.2359614"><ele>304.1428571428571</ele><time>2026-03-29T09:15:41.552Z</time></trkpt><trkpt lat="43.1077763" lon="12.2360457"><ele>303.57142857142856</ele><time>2026-03-29T09:15:44.556Z</time></trkpt><trkpt lat="43.1078058" lon="12.2361297"><ele>303.0</ele><time>2026-03-29T09:15:47.551Z</time></trkpt><trkpt lat="43.1078078" lon="12.2362271"><ele>303.0</ele><time>2026-03-29T09:16:16.567Z</time></trkpt><trkpt lat="43.1078139" lon="12.2361274"><ele>303.0</ele><time>2026-03-29T09:18:42.553Z</time></trkpt><trkpt lat="43.1077848" lon="12.2360204"><ele>303.0</ele><time>2026-03-29T09:18:46.553Z</time></trkpt><trkpt lat="43.1077747" lon="12.2359236"><ele>303.0</ele><time>2026-03-29T09:18:49.537Z</time></trkpt><trkpt lat="43.107762" lon="12.2358146"><ele>303.0</ele><time>2026-03-29T09:18:52.544Z</time></trkpt><trkpt lat="43.1077663" lon="12.2356891"><ele>303.0</ele><time>2026-03-29T09:18:55.551Z</time></trkpt><trkpt lat="43.1077455" lon="12.2355989"><ele>302.8571428571429</ele><time>2026-03-29T09:18:57.637Z</time></trkpt><trkpt lat="43.1077169" lon="12.2355137"><ele>302.7142857142857</ele><time>2026-03-29T09:18:59.54Z</time></trkpt><trkpt lat="43.1076735" lon="12.2354223"><ele>302.57142857142856</ele><time>2026-03-29T09:19:02.541Z</time></trkpt><trkpt lat="43.1076285" lon="12.2353585"><ele>302.42857142857144</ele><time>2026-03-29T09:19:05.54Z</time></trkpt><trkpt lat="43.1075752" lon="12.2353071"><ele>302.2857142857143</ele><time>2026-03-29T09:19:07.539Z</time></trkpt><trkpt lat="43.1075076" lon="12.23525"><ele>302.14285714285717</ele><time>2026-03-29T09:19:09.543Z</time></trkpt><trkpt lat="43.1074469" lon="12.2351724"><ele>302.0</ele><time>2026-03-29T09:19:11.541Z</time></trkpt><trkpt lat="43.1073805" lon="12.2350899"><ele>302.0</ele><time>2026-03-29T09:19:13.544Z</time></trkpt><trkpt lat="43.107319" lon="12.2349972"><ele>302.0</ele><time>2026-03-29T09:19:15.639Z</time></trkpt><trkpt lat="43.1072508" lon="12.2349022"><ele>302.0</ele><time>2026-03-29T09:19:17.552Z</time></trkpt><trkpt lat="43.1071694" lon="12.2348086"><ele>302.0</ele><time>2026-03-29T09:19:19.556Z</time></trkpt><trkpt lat="43.107091" lon="12.2347403"><ele>302.0</ele><time>2026-03-29T09:19:21.56Z</time></trkpt><trkpt lat="43.1070143" lon="12.2346893"><ele>305.5</ele><time>2026-03-29T09:19:23.577Z</time></trkpt><trkpt lat="43.1069373" lon="12.2346418"><ele>309.0</ele><time>2026-03-29T09:19:25.542Z</time></trkpt><trkpt lat="43.1068637" lon="12.2345926"><ele>312.5</ele><time>2026-03-29T09:19:27.674Z</time></trkpt><trkpt lat="43.1067934" lon="12.2345466"><ele>316.0</ele><time>2026-03-29T09:19:29.554Z</time></trkpt><trkpt lat="43.106724" lon="12.2345152"><ele>319.5</ele><time>2026-03-29T09:19:31.549Z</time></trkpt><trkpt lat="43.106654" lon="12.2345004"><ele>323.0</ele><time>2026-03-29T09:19:33.527Z</time></trkpt><trkpt lat="43.1065824" lon="12.2344989"><ele>322.83333333333337</ele><time>2026-03-29T09:19:35.557Z</time></trkpt><trkpt lat="43.1065072" lon="12.2345082"><ele>322.6666666666667</ele><time>2026-03-29T09:19:37.551Z</time></trkpt><trkpt lat="43.1064372" lon="12.2345444"><ele>322.5</ele><time>2026-03-29T09:19:39.552Z</time></trkpt><trkpt lat="43.1063735" lon="12.2345993"><ele>322.3333333333333</ele><time>2026-03-29T09:19:41.56Z</time></trkpt><trkpt lat="43.1063127" lon="12.2346793"><ele>322.16666666666663</ele><time>2026-03-29T09:19:43.55Z</time></trkpt><trkpt lat="43.1062565" lon="12.2347775"><ele>322.0</ele><time>2026-03-29T09:19:45.551Z</time></trkpt><trkpt lat="43.1061968" lon="12.2348797"><ele>319.20000000000005</ele><time>2026-03-29T09:19:47.561Z</time></trkpt><trkpt lat="43.1061266" lon="12.2349751"><ele>316.40000000000003</ele><time>2026-03-29T09:19:49.564Z</time></trkpt><trkpt lat="43.1060585" lon="12.2350571"><ele>313.6</ele><time>2026-03-29T09:19:51.67Z</time></trkpt><trkpt lat="43.105993" lon="12.2351637"><ele>310.8</ele><time>2026-03-29T09:19:53.559Z</time></trkpt><trkpt lat="43.1059353" lon="12.2352794"><ele>308.0</ele><time>2026-03-29T09:19:55.542Z</time></trkpt><trkpt lat="43.1058586" lon="12.2353973"><ele>308.0</ele><time>2026-03-29T09:19:57.551Z</time></trkpt><trkpt lat="43.1057784" lon="12.2355114"><ele>308.0</ele><time>2026-03-29T09:19:59.55Z</time></trkpt><trkpt lat="43.1056975" lon="12.235639"><ele>308.0</ele><time>2026-03-29T09:20:01.56Z</time></trkpt><trkpt lat="43.1056451" lon="12.2357037"><ele>308.0</ele><time>2026-03-29T09:20:02.552Z</time></trkpt><trkpt lat="43.1055877" lon="12.2357753"><ele>308.0</ele><time>2026-03-29T09:20:03.658Z</time></trkpt><trkpt lat="43.1054733" lon="12.2359322"><ele>305.83333333333337</ele><time>2026-03-29T09:20:05.556Z</time></trkpt><trkpt lat="43.1054119" lon="12.2360155"><ele>303.6666666666667</ele><time>2026-03-29T09:20:06.555Z</time></trkpt><trkpt lat="43.1053451" lon="12.2361009"><ele>301.5</ele><time>2026-03-29T09:20:07.559Z</time></trkpt><trkpt lat="43.1052758" lon="12.2361797"><ele>299.3333333333333</ele><time>2026-03-29T09:20:08.56Z</time></trkpt><trkpt lat="43.1052046" lon="12.2362556"><ele>297.16666666666663</ele><time>2026-03-29T09:20:09.647Z</time></trkpt><trkpt lat="43.1051316" lon="12.2363153"><ele>295.0</ele><time>2026-03-29T09:20:10.555Z</time></trkpt><trkpt lat="43.1050578" lon="12.2363723"><ele>295.0</ele><time>2026-03-29T09:20:11.552Z</time></trkpt><trkpt lat="43.1049846" lon="12.236423"><ele>295.0</ele><time>2026-03-29T09:20:12.56Z</time></trkpt><trkpt lat="43.1049056" lon="12.2364729"><ele>295.0</ele><time>2026-03-29T09:20:13.565Z</time></trkpt><trkpt lat="43.1048192" lon="12.2365261"><ele>295.0</ele><time>2026-03-29T09:20:14.554Z</time></trkpt><trkpt lat="43.1047347" lon="12.2365809"><ele>295.0</ele><time>2026-03-29T09:20:15.551Z</time></trkpt><trkpt lat="43.1046451" lon="12.2366246"><ele>292.2</ele><time>2026-03-29T09:20:16.56Z</time></trkpt><trkpt lat="43.1045472" lon="12.2366533"><ele>289.4</ele><time>2026-03-29T09:20:17.555Z</time></trkpt><trkpt lat="43.1044527" lon="12.236684"><ele>286.6</ele><time>2026-03-29T09:20:18.558Z</time></trkpt><trkpt lat="43.1043477" lon="12.2367062"><ele>283.8</ele><time>2026-03-29T09:20:19.54Z</time></trkpt><trkpt lat="43.1042326" lon="12.2367258"><ele>281.0</ele><time>2026-03-29T09:20:20.561Z</time></trkpt><trkpt lat="43.1041166" lon="12.2367403"><ele>279.0</ele><time>2026-03-29T09:20:21.543Z</time></trkpt><trkpt lat="43.1040023" lon="12.2367609"><ele>277.0</ele><time>2026-03-29T09:20:22.563Z</time></trkpt><trkpt lat="43.103878" lon="12.236778"><ele>275.0</ele><time>2026-03-29T09:20:23.552Z</time></trkpt><trkpt lat="43.1037558" lon="12.2367923"><ele>273.0</ele><time>2026-03-29T09:20:24.554Z</time></trkpt><trkpt lat="43.1036327" lon="12.2368146"><ele>273.0</ele><time>2026-03-29T09:20:25.554Z</time></trkpt><trkpt lat="43.1035079" lon="12.2368369"><ele>273.0</ele><time>2026-03-29T09:20:26.554Z</time></trkpt><trkpt lat="43.1033845" lon="12.2368794"><ele>273.0</ele><time>2026-03-29T09:20:27.553Z</time></trkpt><trkpt lat="43.1032653" lon="12.2369402"><ele>273.0</ele><time>2026-03-29T09:20:28.57Z</time></trkpt><trkpt lat="43.103164" lon="12.2370364"><ele>271.5</ele><time>2026-03-29T09:20:29.56Z</time></trkpt><trkpt lat="43.1030754" lon="12.2371515"><ele>270.0</ele><time>2026-03-29T09:20:30.551Z</time></trkpt><trkpt lat="43.1029942" lon="12.2372779"><ele>268.5</ele><time>2026-03-29T09:20:31.553Z</time></trkpt><trkpt lat="43.1029163" lon="12.2374183"><ele>267.0</ele><time>2026-03-29T09:20:32.553Z</time></trkpt><trkpt lat="43.1028302" lon="12.2375489"><ele>266.75</ele><time>2026-03-29T09:20:33.553Z</time></trkpt><trkpt lat="43.1027361" lon="12.2376439"><ele>266.5</ele><time>2026-03-29T09:20:34.553Z</time></trkpt><trkpt lat="43.1026252" lon="12.2377371"><ele>266.25</ele><time>2026-03-29T09:20:35.556Z</time></trkpt><trkpt lat="43.1025161" lon="12.2378252"><ele>266.0</ele><time>2026-03-29T09:20:36.561Z</time></trkpt><trkpt lat="43.1024057" lon="12.2379049"><ele>265.0</ele><time>2026-03-29T09:20:37.564Z</time></trkpt><trkpt lat="43.1023033" lon="12.2379777"><ele>264.0</ele><time>2026-03-29T09:20:38.538Z</time></trkpt><trkpt lat="43.1021951" lon="12.2380559"><ele>263.0</ele><time>2026-03-29T09:20:39.532Z</time></trkpt><trkpt lat="43.1020903" lon="12.2381279"><ele>262.0</ele><time>2026-03-29T09:20:40.553Z</time></trkpt><trkpt lat="43.1019899" lon="12.2381989"><ele>260.5</ele><time>2026-03-29T09:20:41.54Z</time></trkpt><trkpt lat="43.1018862" lon="12.2382756"><ele>259.0</ele><time>2026-03-29T09:20:42.534Z</time></trkpt><trkpt lat="43.1017815" lon="12.2383401"><ele>257.5</ele><time>2026-03-29T09:20:43.538Z</time></trkpt><trkpt lat="43.1016807" lon="12.2384159"><ele>256.0</ele><time>2026-03-29T09:20:44.541Z</time></trkpt><trkpt lat="43.1015736" lon="12.2384748"><ele>254.5</ele><time>2026-03-29T09:20:45.54Z</time></trkpt><trkpt lat="43.1014632" lon="12.2385201"><ele>253.0</ele><time>2026-03-29T09:20:46.535Z</time></trkpt><trkpt lat="43.1013634" lon="12.2385698"><ele>251.5</ele><time>2026-03-29T09:20:47.538Z</time></trkpt><trkpt lat="43.1012524" lon="12.2386033"><ele>250.0</ele><time>2026-03-29T09:20:48.537Z</time></trkpt><trkpt lat="43.1011255" lon="12.2386116"><ele>250.0</ele><time>2026-03-29T09:20:49.625Z</time></trkpt><trkpt lat="43.1010038" lon="12.2386065"><ele>250.0</ele><time>2026-03-29T09:20:50.538Z</time></trkpt><trkpt lat="43.1008843" lon="12.2385834"><ele>250.0</ele><time>2026-03-29T09:20:51.536Z</time></trkpt><trkpt lat="43.1007518" lon="12.2385585"><ele>250.0</ele><time>2026-03-29T09:20:52.535Z</time></trkpt><trkpt lat="43.1006325" lon="12.2385462"><ele>248.4</ele><time>2026-03-29T09:20:53.531Z</time></trkpt><trkpt lat="43.1005259" lon="12.2385151"><ele>246.8</ele><time>2026-03-29T09:20:54.543Z</time></trkpt><trkpt lat="43.1004202" lon="12.2385045"><ele>245.2</ele><time>2026-03-29T09:20:55.541Z</time></trkpt><trkpt lat="43.1003193" lon="12.2384926"><ele>243.6</ele><time>2026-03-29T09:20:56.536Z</time></trkpt><trkpt lat="43.1002256" lon="12.2384937"><ele>242.0</ele><time>2026-03-29T09:20:57.539Z</time></trkpt><trkpt lat="43.1001488" lon="12.2385063"><ele>242.00000000000003</ele><time>2026-03-29T09:20:58.538Z</time></trkpt><trkpt lat="43.1000625" lon="12.2385291"><ele>242.0</ele><time>2026-03-29T09:20:59.536Z</time></trkpt><trkpt lat="43.0999831" lon="12.2385651"><ele>242.0</ele><time>2026-03-29T09:21:00.532Z</time></trkpt><trkpt lat="43.0999157" lon="12.2385939"><ele>242.0</ele><time>2026-03-29T09:21:01.543Z</time></trkpt><trkpt lat="43.0998431" lon="12.2385782"><ele>242.00000000000003</ele><time>2026-03-29T09:21:02.536Z</time></trkpt><trkpt lat="43.0997755" lon="12.2385482"><ele>242.0</ele><time>2026-03-29T09:21:03.533Z</time></trkpt><trkpt lat="43.0997075" lon="12.238524"><ele>241.42857142857142</ele><time>2026-03-29T09:21:04.537Z</time></trkpt><trkpt lat="43.0996369" lon="12.23848"><ele>240.85714285714283</ele><time>2026-03-29T09:21:05.538Z</time></trkpt><trkpt lat="43.099565" lon="12.2384521"><ele>240.28571428571428</ele><time>2026-03-29T09:21:06.533Z</time></trkpt><trkpt lat="43.0995019" lon="12.2384004"><ele>239.71428571428572</ele><time>2026-03-29T09:21:07.534Z</time></trkpt><trkpt lat="43.0994255" lon="12.2383668"><ele>239.14285714285714</ele><time>2026-03-29T09:21:08.535Z</time></trkpt><trkpt lat="43.0993635" lon="12.238334"><ele>238.57142857142856</ele><time>2026-03-29T09:21:09.537Z</time></trkpt><trkpt lat="43.0992984" lon="12.2382877"><ele>238.0</ele><time>2026-03-29T09:21:10.551Z</time></trkpt><trkpt lat="43.0991876" lon="12.2382089"><ele>238.0</ele><time>2026-03-29T09:21:12.638Z</time></trkpt><trkpt lat="43.099125" lon="12.2381567"><ele>238.0</ele><time>2026-03-29T09:21:13.543Z</time></trkpt><trkpt lat="43.0990758" lon="12.2381012"><ele>238.0</ele><time>2026-03-29T09:21:14.549Z</time></trkpt><trkpt lat="43.0990226" lon="12.2380365"><ele>238.0</ele><time>2026-03-29T09:21:15.558Z</time></trkpt><trkpt lat="43.0989754" lon="12.2379703"><ele>238.0</ele><time>2026-03-29T09:21:16.551Z</time></trkpt><trkpt lat="43.0989233" lon="12.2379033"><ele>238.0</ele><time>2026-03-29T09:21:17.537Z</time></trkpt><trkpt lat="43.0988795" lon="12.2378299"><ele>238.0</ele><time>2026-03-29T09:21:18.672Z</time></trkpt><trkpt lat="43.0987839" lon="12.2376973"><ele>238.14285714285714</ele><time>2026-03-29T09:21:20.537Z</time></trkpt><trkpt lat="43.0987361" lon="12.2376313"><ele>238.28571428571428</ele><time>2026-03-29T09:21:21.533Z</time></trkpt><trkpt lat="43.0986856" lon="12.2375705"><ele>238.42857142857144</ele><time>2026-03-29T09:21:22.535Z</time></trkpt><trkpt lat="43.0986404" lon="12.2375047"><ele>238.57142857142858</ele><time>2026-03-29T09:21:23.535Z</time></trkpt><trkpt lat="43.098593" lon="12.237438"><ele>238.71428571428572</ele><time>2026-03-29T09:21:24.55Z</time></trkpt><trkpt lat="43.0985515" lon="12.2373641"><ele>238.8571428571429</ele><time>2026-03-29T09:21:25.557Z</time></trkpt><trkpt lat="43.0984971" lon="12.237289"><ele>239.00000000000003</ele><time>2026-03-29T09:21:26.553Z</time></trkpt><trkpt lat="43.0984571" lon="12.2372173"><ele>239.00000000000003</ele><time>2026-03-29T09:21:27.554Z</time></trkpt><trkpt lat="43.0984086" lon="12.2371488"><ele>239.0</ele><time>2026-03-29T09:21:28.553Z</time></trkpt><trkpt lat="43.0983542" lon="12.2370904"><ele>239.00000000000003</ele><time>2026-03-29T09:21:29.559Z</time></trkpt><trkpt lat="43.0982949" lon="12.2370403"><ele>239.00000000000003</ele><time>2026-03-29T09:21:30.558Z</time></trkpt><trkpt lat="43.0982276" lon="12.2369937"><ele>239.0</ele><time>2026-03-29T09:21:31.556Z</time></trkpt><trkpt lat="43.0981616" lon="12.2369715"><ele>239.00000000000003</ele><time>2026-03-29T09:21:32.556Z</time></trkpt><trkpt lat="43.098091" lon="12.2369619"><ele>239.00000000000003</ele><time>2026-03-29T09:21:33.566Z</time></trkpt><trkpt lat="43.0980271" lon="12.2369635"><ele>239.2</ele><time>2026-03-29T09:21:34.539Z</time></trkpt><trkpt lat="43.0979058" lon="12.2369711"><ele>239.39999999999998</ele><time>2026-03-29T09:21:36.538Z</time></trkpt><trkpt lat="43.0978001" lon="12.2369834"><ele>239.6</ele><time>2026-03-29T09:21:38.555Z</time></trkpt><trkpt lat="43.0977056" lon="12.2369829"><ele>239.8</ele><time>2026-03-29T09:21:40.562Z</time></trkpt><trkpt lat="43.0976092" lon="12.2369543"><ele>240.0</ele><time>2026-03-29T09:21:42.54Z</time></trkpt><trkpt lat="43.0975104" lon="12.2369291"><ele>239.5</ele><time>2026-03-29T09:21:44.534Z</time></trkpt><trkpt lat="43.0974041" lon="12.2368683"><ele>239.0</ele><time>2026-03-29T09:21:46.538Z</time></trkpt><trkpt lat="43.097302" lon="12.236792"><ele>238.5</ele><time>2026-03-29T09:21:48.632Z</time></trkpt><trkpt lat="43.0971951" lon="12.23672"><ele>238.0</ele><time>2026-03-29T09:21:50.535Z</time></trkpt><trkpt lat="43.0970806" lon="12.2366395"><ele>238.0</ele><time>2026-03-29T09:21:52.532Z</time></trkpt><trkpt lat="43.0969805" lon="12.2365667"><ele>238.0</ele><time>2026-03-29T09:21:54.535Z</time></trkpt><trkpt lat="43.096882" lon="12.2364907"><ele>238.0</ele><time>2026-03-29T09:21:56.536Z</time></trkpt><trkpt lat="43.0967857" lon="12.2364257"><ele>238.0</ele><time>2026-03-29T09:21:58.535Z</time></trkpt><trkpt lat="43.0967342" lon="12.2363756"><ele>238.0</ele><time>2026-03-29T09:21:59.536Z</time></trkpt><trkpt lat="43.0966374" lon="12.2362988"><ele>238.0</ele><time>2026-03-29T09:22:01.536Z</time></trkpt><trkpt lat="43.0965487" lon="12.2362166"><ele>238.0</ele><time>2026-03-29T09:22:03.571Z</time></trkpt><trkpt lat="43.096454" lon="12.2361478"><ele>238.0</ele><time>2026-03-29T09:22:05.556Z</time></trkpt><trkpt lat="43.0963687" lon="12.2360701"><ele>238.0</ele><time>2026-03-29T09:22:07.541Z</time></trkpt><trkpt lat="43.0962886" lon="12.2360019"><ele>238.0</ele><time>2026-03-29T09:22:09.552Z</time></trkpt><trkpt lat="43.0962025" lon="12.2359249"><ele>238.0</ele><time>2026-03-29T09:22:11.559Z</time></trkpt><trkpt lat="43.0961152" lon="12.2358518"><ele>238.0</ele><time>2026-03-29T09:22:13.547Z</time></trkpt><trkpt lat="43.0960279" lon="12.2357834"><ele>238.0</ele><time>2026-03-29T09:22:15.553Z</time></trkpt><trkpt lat="43.0959039" lon="12.2356794"><ele>238.0</ele><time>2026-03-29T09:22:18.554Z</time></trkpt><trkpt lat="43.0958202" lon="12.2356081"><ele>238.0</ele><time>2026-03-29T09:22:20.549Z</time></trkpt><trkpt lat="43.09573" lon="12.23553"><ele>238.2</ele><time>2026-03-29T09:22:22.55Z</time></trkpt><trkpt lat="43.09565" lon="12.23545"><ele>238.4</ele><time>2026-03-29T09:22:24.553Z</time></trkpt><trkpt lat="43.0955678" lon="12.2353868"><ele>238.59999999999997</ele><time>2026-03-29T09:22:26.558Z</time></trkpt><trkpt lat="43.0954934" lon="12.2353357"><ele>238.79999999999998</ele><time>2026-03-29T09:22:28.552Z</time></trkpt><trkpt lat="43.0954044" lon="12.2353675"><ele>239.0</ele><time>2026-03-29T09:22:30.558Z</time></trkpt><trkpt lat="43.0953367" lon="12.2354648"><ele>239.0</ele><time>2026-03-29T09:22:32.557Z</time></trkpt><trkpt lat="43.0952772" lon="12.2355984"><ele>238.99999999999997</ele><time>2026-03-29T09:22:34.544Z</time></trkpt><trkpt lat="43.0952266" lon="12.2357312"><ele>238.99999999999997</ele><time>2026-03-29T09:22:36.556Z</time></trkpt><trkpt lat="43.0951669" lon="12.2358566"><ele>239.0</ele><time>2026-03-29T09:22:38.553Z</time></trkpt><trkpt lat="43.0951086" lon="12.2359775"><ele>239.0</ele><time>2026-03-29T09:22:40.55Z</time></trkpt><trkpt lat="43.0950534" lon="12.2360964"><ele>238.6</ele><time>2026-03-29T09:22:42.552Z</time></trkpt><trkpt lat="43.0949924" lon="12.2362152"><ele>238.2</ele><time>2026-03-29T09:22:44.555Z</time></trkpt><trkpt lat="43.0949383" lon="12.2363556"><ele>237.79999999999998</ele><time>2026-03-29T09:22:46.553Z</time></trkpt><trkpt lat="43.0948853" lon="12.2364933"><ele>237.39999999999998</ele><time>2026-03-29T09:22:48.552Z</time></trkpt><trkpt lat="43.0948342" lon="12.2366178"><ele>237.0</ele><time>2026-03-29T09:22:50.554Z</time></trkpt><trkpt lat="43.0947779" lon="12.2367427"><ele>236.2</ele><time>2026-03-29T09:22:52.65Z</time></trkpt><trkpt lat="43.0947185" lon="12.2368666"><ele>235.39999999999998</ele><time>2026-03-29T09:22:54.557Z</time></trkpt><trkpt lat="43.0946626" lon="12.236991"><ele>234.60000000000002</ele><time>2026-03-29T09:22:56.553Z</time></trkpt><trkpt lat="43.0946018" lon="12.2371205"><ele>233.8</ele><time>2026-03-29T09:22:58.551Z</time></trkpt><trkpt lat="43.0945456" lon="12.2372407"><ele>233.0</ele><time>2026-03-29T09:23:00.558Z</time></trkpt><trkpt lat="43.09449" lon="12.2373706"><ele>233.0</ele><time>2026-03-29T09:23:02.552Z</time></trkpt><trkpt lat="43.0944306" lon="12.2374994"><ele>233.0</ele><time>2026-03-29T09:23:04.552Z</time></trkpt><trkpt lat="43.0943812" lon="12.2376307"><ele>233.0</ele><time>2026-03-29T09:23:06.547Z</time></trkpt><trkpt lat="43.0943332" lon="12.2377553"><ele>233.0</ele><time>2026-03-29T09:23:08.552Z</time></trkpt><trkpt lat="43.0942899" lon="12.2378554"><ele>233.0</ele><time>2026-03-29T09:23:10.558Z</time></trkpt><trkpt lat="43.094252" lon="12.2379447"><ele>233.00000000000003</ele><time>2026-03-29T09:23:12.54Z</time></trkpt><trkpt lat="43.0942177" lon="12.2380428"><ele>233.0</ele><time>2026-03-29T09:23:14.55Z</time></trkpt><trkpt lat="43.094195" lon="12.2381261"><ele>233.0</ele><time>2026-03-29T09:23:16.55Z</time></trkpt><trkpt lat="43.0941633" lon="12.2382039"><ele>233.0</ele><time>2026-03-29T09:23:18.55Z</time></trkpt><trkpt lat="43.094111" lon="12.2383059"><ele>233.00000000000003</ele><time>2026-03-29T09:23:21.571Z</time></trkpt><trkpt lat="43.0940613" lon="12.2384142"><ele>233.0</ele><time>2026-03-29T09:23:24.552Z</time></trkpt><trkpt lat="43.0940129" lon="12.2385216"><ele>233.00000000000003</ele><time>2026-03-29T09:23:27.551Z</time></trkpt><trkpt lat="43.0939809" lon="12.2385989"><ele>233.0</ele><time>2026-03-29T09:23:29.553Z</time></trkpt><trkpt lat="43.0939444" lon="12.2387079"><ele>233.0</ele><time>2026-03-29T09:23:32.649Z</time></trkpt><trkpt lat="43.0939021" lon="12.2388026"><ele>233.0</ele><time>2026-03-29T09:23:35.559Z</time></trkpt><trkpt lat="43.0938505" lon="12.2388681"><ele>233.00000000000003</ele><time>2026-03-29T09:23:38.551Z</time></trkpt><trkpt lat="43.0937686" lon="12.2388826"><ele>233.0</ele><time>2026-03-29T09:23:42.554Z</time></trkpt><trkpt lat="43.0937031" lon="12.2388452"><ele>233.00000000000003</ele><time>2026-03-29T09:24:46.552Z</time></trkpt><trkpt lat="43.0936302" lon="12.2388388"><ele>233.0</ele><time>2026-03-29T09:25:33.548Z</time></trkpt><trkpt lat="43.0935509" lon="12.2387963"><ele>233.0</ele><time>2026-03-29T09:25:37.549Z</time></trkpt><trkpt lat="43.0934701" lon="12.2387527"><ele>233.0</ele><time>2026-03-29T09:25:40.652Z</time></trkpt><trkpt lat="43.0933909" lon="12.2387121"><ele>233.00000000000003</ele><time>2026-03-29T09:25:43.551Z</time></trkpt><trkpt lat="43.0933054" lon="12.2386711"><ele>233.0</ele><time>2026-03-29T09:25:46.537Z</time></trkpt><trkpt lat="43.0932442" lon="12.2386383"><ele>232.83333333333334</ele><time>2026-03-29T09:25:48.548Z</time></trkpt><trkpt lat="43.0931834" lon="12.2386061"><ele>232.66666666666669</ele><time>2026-03-29T09:25:50.541Z</time></trkpt><trkpt lat="43.0930982" lon="12.2385627"><ele>232.5</ele><time>2026-03-29T09:25:53.554Z</time></trkpt><trkpt lat="43.0930102" lon="12.2385201"><ele>232.33333333333331</ele><time>2026-03-29T09:25:56.55Z</time></trkpt><trkpt lat="43.0929201" lon="12.2384932"><ele>232.16666666666666</ele><time>2026-03-29T09:25:59.552Z</time></trkpt><trkpt lat="43.0928384" lon="12.2384546"><ele>232.0</ele><time>2026-03-29T09:26:02.535Z</time></trkpt><trkpt lat="43.0927509" lon="12.2384078"><ele>232.00000000000003</ele><time>2026-03-29T09:26:05.554Z</time></trkpt><trkpt lat="43.0926617" lon="12.2383638"><ele>232.0</ele><time>2026-03-29T09:26:08.553Z</time></trkpt><trkpt lat="43.0926011" lon="12.2383354"><ele>232.00000000000003</ele><time>2026-03-29T09:26:10.555Z</time></trkpt><trkpt lat="43.0925397" lon="12.2383087"><ele>232.00000000000003</ele><time>2026-03-29T09:26:12.544Z</time></trkpt><trkpt lat="43.0924798" lon="12.2382809"><ele>232.0</ele><time>2026-03-29T09:26:14.55Z</time></trkpt><trkpt lat="43.0924205" lon="12.2382514"><ele>232.00000000000003</ele><time>2026-03-29T09:26:16.572Z</time></trkpt><trkpt lat="43.0923363" lon="12.2382086"><ele>232.00000000000003</ele><time>2026-03-29T09:26:19.55Z</time></trkpt><trkpt lat="43.0922553" lon="12.2381711"><ele>232.6</ele><time>2026-03-29T09:26:22.549Z</time></trkpt><trkpt lat="43.0921729" lon="12.2381256"><ele>233.2</ele><time>2026-03-29T09:26:25.536Z</time></trkpt><trkpt lat="43.0920549" lon="12.2380674"><ele>233.8</ele><time>2026-03-29T09:26:29.552Z</time></trkpt><trkpt lat="43.0919723" lon="12.238018"><ele>234.4</ele><time>2026-03-29T09:26:32.564Z</time></trkpt><trkpt lat="43.0918991" lon="12.2379514"><ele>235.0</ele><time>2026-03-29T09:26:35.559Z</time></trkpt><trkpt lat="43.0918397" lon="12.2378622"><ele>235.0</ele><time>2026-03-29T09:26:38.541Z</time></trkpt><trkpt lat="43.0917991" lon="12.2377566"><ele>234.99999999999997</ele><time>2026-03-29T09:26:41.551Z</time></trkpt><trkpt lat="43.091786" lon="12.2376706"><ele>235.0</ele><time>2026-03-29T09:26:43.565Z</time></trkpt><trkpt lat="43.0917775" lon="12.2375799"><ele>235.0</ele><time>2026-03-29T09:26:45.551Z</time></trkpt><trkpt lat="43.0917706" lon="12.2374904"><ele>234.99999999999997</ele><time>2026-03-29T09:26:47.555Z</time></trkpt><trkpt lat="43.09176" lon="12.2374018"><ele>235.0</ele><time>2026-03-29T09:26:49.557Z</time></trkpt><trkpt lat="43.0917489" lon="12.2373104"><ele>235.0</ele><time>2026-03-29T09:26:51.539Z</time></trkpt><trkpt lat="43.0917393" lon="12.2372196"><ele>235.28571428571428</ele><time>2026-03-29T09:26:53.551Z</time></trkpt><trkpt lat="43.0917275" lon="12.2371334"><ele>235.57142857142856</ele><time>2026-03-29T09:26:55.553Z</time></trkpt><trkpt lat="43.0917129" lon="12.2370459"><ele>235.85714285714283</ele><time>2026-03-29T09:26:57.55Z</time></trkpt><trkpt lat="43.0916825" lon="12.236965"><ele>236.1428571428571</ele><time>2026-03-29T09:26:59.557Z</time></trkpt><trkpt lat="43.0916366" lon="12.2369057"><ele>236.42857142857142</ele><time>2026-03-29T09:27:01.566Z</time></trkpt><trkpt lat="43.0915577" lon="12.2368583"><ele>236.71428571428567</ele><time>2026-03-29T09:27:04.568Z</time></trkpt><trkpt lat="43.0914671" lon="12.2368296"><ele>236.99999999999997</ele><time>2026-03-29T09:27:07.554Z</time></trkpt><trkpt lat="43.0913997" lon="12.2368162"><ele>237.16666666666666</ele><time>2026-03-29T09:27:09.555Z</time></trkpt><trkpt lat="43.0913226" lon="12.2368064"><ele>237.33333333333331</ele><time>2026-03-29T09:27:11.551Z</time></trkpt><trkpt lat="43.0912481" lon="12.2368005"><ele>237.5</ele><time>2026-03-29T09:27:13.554Z</time></trkpt><trkpt lat="43.091175" lon="12.2367994"><ele>237.66666666666666</ele><time>2026-03-29T09:27:15.656Z</time></trkpt><trkpt lat="43.0911002" lon="12.2367998"><ele>237.83333333333331</ele><time>2026-03-29T09:27:17.556Z</time></trkpt><trkpt lat="43.0910229" lon="12.2368001"><ele>238.0</ele><time>2026-03-29T09:27:19.542Z</time></trkpt><trkpt lat="43.0909444" lon="12.2368034"><ele>237.99999999999997</ele><time>2026-03-29T09:27:21.551Z</time></trkpt><trkpt lat="43.0908667" lon="12.2368255"><ele>238.0</ele><time>2026-03-29T09:27:23.57Z</time></trkpt><trkpt lat="43.0907913" lon="12.2368644"><ele>238.0</ele><time>2026-03-29T09:27:25.555Z</time></trkpt><trkpt lat="43.0907183" lon="12.2369127"><ele>238.0</ele><time>2026-03-29T09:27:27.553Z</time></trkpt><trkpt lat="43.0906515" lon="12.2369718"><ele>237.99999999999997</ele><time>2026-03-29T09:27:29.552Z</time></trkpt><trkpt lat="43.0905879" lon="12.2370301"><ele>238.0</ele><time>2026-03-29T09:27:31.55Z</time></trkpt><trkpt lat="43.0905263" lon="12.2370931"><ele>237.83333333333331</ele><time>2026-03-29T09:27:33.556Z</time></trkpt><trkpt lat="43.0904636" lon="12.2371605"><ele>237.66666666666666</ele><time>2026-03-29T09:27:35.552Z</time></trkpt><trkpt lat="43.090404" lon="12.2372328"><ele>237.5</ele><time>2026-03-29T09:27:37.55Z</time></trkpt><trkpt lat="43.0903459" lon="12.2373039"><ele>237.33333333333331</ele><time>2026-03-29T09:27:39.561Z</time></trkpt><trkpt lat="43.0902843" lon="12.2373728"><ele>237.16666666666666</ele><time>2026-03-29T09:27:41.541Z</time></trkpt><trkpt lat="43.0902136" lon="12.2374389"><ele>237.0</ele><time>2026-03-29T09:27:43.546Z</time></trkpt><trkpt lat="43.0901458" lon="12.2375059"><ele>236.83333333333334</ele><time>2026-03-29T09:27:45.554Z</time></trkpt><trkpt lat="43.0900729" lon="12.237585"><ele>236.66666666666669</ele><time>2026-03-29T09:27:47.555Z</time></trkpt><trkpt lat="43.0900016" lon="12.237668"><ele>236.5</ele><time>2026-03-29T09:27:49.56Z</time></trkpt><trkpt lat="43.0899334" lon="12.2377298"><ele>236.33333333333334</ele><time>2026-03-29T09:27:51.552Z</time></trkpt><trkpt lat="43.0898703" lon="12.237798"><ele>236.16666666666669</ele><time>2026-03-29T09:27:53.551Z</time></trkpt><trkpt lat="43.0898155" lon="12.2378724"><ele>236.0</ele><time>2026-03-29T09:27:55.549Z</time></trkpt><trkpt lat="43.0897566" lon="12.2379408"><ele>235.83333333333334</ele><time>2026-03-29T09:27:57.557Z</time></trkpt><trkpt lat="43.0896928" lon="12.2380073"><ele>235.66666666666669</ele><time>2026-03-29T09:27:59.551Z</time></trkpt><trkpt lat="43.0896225" lon="12.2380708"><ele>235.5</ele><time>2026-03-29T09:28:01.643Z</time></trkpt><trkpt lat="43.0895501" lon="12.2381382"><ele>235.33333333333331</ele><time>2026-03-29T09:28:03.558Z</time></trkpt><trkpt lat="43.0894835" lon="12.2382024"><ele>235.16666666666666</ele><time>2026-03-29T09:28:05.556Z</time></trkpt><trkpt lat="43.0894243" lon="12.2382673"><ele>235.0</ele><time>2026-03-29T09:28:07.551Z</time></trkpt><trkpt lat="43.0893678" lon="12.2383371"><ele>234.85714285714283</ele><time>2026-03-29T09:28:09.553Z</time></trkpt><trkpt lat="43.0893082" lon="12.2384099"><ele>234.7142857142857</ele><time>2026-03-29T09:28:11.56Z</time></trkpt><trkpt lat="43.0892486" lon="12.2384736"><ele>234.57142857142856</ele><time>2026-03-29T09:28:13.55Z</time></trkpt><trkpt lat="43.0891922" lon="12.2385368"><ele>234.42857142857144</ele><time>2026-03-29T09:28:15.548Z</time></trkpt><trkpt lat="43.0891376" lon="12.2385901"><ele>234.2857142857143</ele><time>2026-03-29T09:28:17.559Z</time></trkpt><trkpt lat="43.0890807" lon="12.238635"><ele>234.14285714285717</ele><time>2026-03-29T09:28:19.558Z</time></trkpt><trkpt lat="43.0890166" lon="12.2386769"><ele>234.0</ele><time>2026-03-29T09:28:21.552Z</time></trkpt><trkpt lat="43.0889403" lon="12.2387126"><ele>233.66666666666666</ele><time>2026-03-29T09:28:23.55Z</time></trkpt><trkpt lat="43.0888657" lon="12.2387459"><ele>233.33333333333331</ele><time>2026-03-29T09:28:25.554Z</time></trkpt><trkpt lat="43.088792" lon="12.2387747"><ele>233.0</ele><time>2026-03-29T09:28:27.541Z</time></trkpt><trkpt lat="43.0887123" lon="12.2388104"><ele>232.66666666666666</ele><time>2026-03-29T09:28:29.537Z</time></trkpt><trkpt lat="43.0886304" lon="12.2388457"><ele>232.33333333333331</ele><time>2026-03-29T09:28:31.561Z</time></trkpt><trkpt lat="43.0885494" lon="12.2388766"><ele>232.0</ele><time>2026-03-29T09:28:33.55Z</time></trkpt><trkpt lat="43.0884693" lon="12.2388984"><ele>231.99999999999997</ele><time>2026-03-29T09:28:35.637Z</time></trkpt><trkpt lat="43.0883908" lon="12.2389295"><ele>232.0</ele><time>2026-03-29T09:28:37.551Z</time></trkpt><trkpt lat="43.0883129" lon="12.238961"><ele>232.0</ele><time>2026-03-29T09:28:39.542Z</time></trkpt><trkpt lat="43.0882398" lon="12.2389908"><ele>232.0</ele><time>2026-03-29T09:28:41.552Z</time></trkpt><trkpt lat="43.0881666" lon="12.2390233"><ele>231.99999999999997</ele><time>2026-03-29T09:28:43.559Z</time></trkpt><trkpt lat="43.088091" lon="12.2390547"><ele>232.0</ele><time>2026-03-29T09:28:45.547Z</time></trkpt><trkpt lat="43.0880119" lon="12.2390853"><ele>231.66666666666666</ele><time>2026-03-29T09:28:47.536Z</time></trkpt><trkpt lat="43.0879387" lon="12.2391171"><ele>231.33333333333331</ele><time>2026-03-29T09:28:49.538Z</time></trkpt><trkpt lat="43.08787" lon="12.2391681"><ele>231.0</ele><time>2026-03-29T09:28:51.542Z</time></trkpt><trkpt lat="43.0878062" lon="12.2392408"><ele>230.66666666666669</ele><time>2026-03-29T09:28:53.543Z</time></trkpt><trkpt lat="43.0877552" lon="12.2393286"><ele>230.33333333333334</ele><time>2026-03-29T09:28:55.539Z</time></trkpt><trkpt lat="43.0877139" lon="12.239423"><ele>230.0</ele><time>2026-03-29T09:28:57.538Z</time></trkpt><trkpt lat="43.0876867" lon="12.2395245"><ele>230.00000000000003</ele><time>2026-03-29T09:28:59.544Z</time></trkpt><trkpt lat="43.0876756" lon="12.2396309"><ele>230.0</ele><time>2026-03-29T09:29:01.537Z</time></trkpt><trkpt lat="43.0876812" lon="12.2397325"><ele>230.0</ele><time>2026-03-29T09:29:03.545Z</time></trkpt><trkpt lat="43.0876972" lon="12.2398293"><ele>230.0</ele><time>2026-03-29T09:29:05.633Z</time></trkpt><trkpt lat="43.0877174" lon="12.23993"><ele>230.00000000000003</ele><time>2026-03-29T09:29:07.55Z</time></trkpt><trkpt lat="43.0877374" lon="12.2400299"><ele>230.0</ele><time>2026-03-29T09:29:09.552Z</time></trkpt><trkpt lat="43.0877619" lon="12.2401266"><ele>230.16666666666669</ele><time>2026-03-29T09:29:11.553Z</time></trkpt><trkpt lat="43.0877857" lon="12.2402269"><ele>230.33333333333334</ele><time>2026-03-29T09:29:13.551Z</time></trkpt><trkpt lat="43.0878105" lon="12.2403282"><ele>230.5</ele><time>2026-03-29T09:29:15.558Z</time></trkpt><trkpt lat="43.0878358" lon="12.2404268"><ele>230.66666666666669</ele><time>2026-03-29T09:29:17.55Z</time></trkpt><trkpt lat="43.0878602" lon="12.2405286"><ele>230.83333333333334</ele><time>2026-03-29T09:29:19.558Z</time></trkpt><trkpt lat="43.0878816" lon="12.2406308"><ele>231.0</ele><time>2026-03-29T09:29:21.559Z</time></trkpt><trkpt lat="43.0879041" lon="12.2407279"><ele>231.14285714285714</ele><time>2026-03-29T09:29:23.558Z</time></trkpt><trkpt lat="43.0879265" lon="12.24082"><ele>231.28571428571428</ele><time>2026-03-29T09:29:25.555Z</time></trkpt><trkpt lat="43.0879438" lon="12.2409133"><ele>231.42857142857144</ele><time>2026-03-29T09:29:27.553Z</time></trkpt><trkpt lat="43.0879643" lon="12.2410042"><ele>231.57142857142858</ele><time>2026-03-29T09:29:29.554Z</time></trkpt><trkpt lat="43.0879809" lon="12.241095"><ele>231.71428571428572</ele><time>2026-03-29T09:29:31.552Z</time></trkpt><trkpt lat="43.0879967" lon="12.2411905"><ele>231.8571428571429</ele><time>2026-03-29T09:29:33.551Z</time></trkpt><trkpt lat="43.088012" lon="12.2412799"><ele>232.00000000000003</ele><time>2026-03-29T09:29:35.557Z</time></trkpt><trkpt lat="43.0880352" lon="12.2413743"><ele>232.00000000000003</ele><time>2026-03-29T09:29:37.555Z</time></trkpt><trkpt lat="43.0880536" lon="12.2414623"><ele>232.0</ele><time>2026-03-29T09:29:39.661Z</time></trkpt><trkpt lat="43.0880754" lon="12.2415588"><ele>232.00000000000003</ele><time>2026-03-29T09:29:41.554Z</time></trkpt><trkpt lat="43.0880953" lon="12.2416543"><ele>232.00000000000003</ele><time>2026-03-29T09:29:43.558Z</time></trkpt><trkpt lat="43.088116" lon="12.2417438"><ele>232.0</ele><time>2026-03-29T09:29:45.549Z</time></trkpt><trkpt lat="43.0881387" lon="12.2418372"><ele>232.00000000000003</ele><time>2026-03-29T09:29:47.555Z</time></trkpt><trkpt lat="43.0881597" lon="12.2419286"><ele>232.00000000000003</ele><time>2026-03-29T09:29:49.554Z</time></trkpt><trkpt lat="43.0881806" lon="12.2420223"><ele>231.8571428571429</ele><time>2026-03-29T09:29:51.561Z</time></trkpt><trkpt lat="43.0881998" lon="12.2421139"><ele>231.71428571428572</ele><time>2026-03-29T09:29:53.645Z</time></trkpt><trkpt lat="43.0882204" lon="12.2422032"><ele>231.57142857142858</ele><time>2026-03-29T09:29:55.542Z</time></trkpt><trkpt lat="43.0882392" lon="12.2422963"><ele>231.42857142857144</ele><time>2026-03-29T09:29:57.536Z</time></trkpt><trkpt lat="43.0882631" lon="12.2423983"><ele>231.28571428571428</ele><time>2026-03-29T09:29:59.539Z</time></trkpt><trkpt lat="43.0882878" lon="12.2424989"><ele>231.14285714285714</ele><time>2026-03-29T09:30:01.533Z</time></trkpt><trkpt lat="43.0883082" lon="12.2425944"><ele>231.0</ele><time>2026-03-29T09:30:03.55Z</time></trkpt><trkpt lat="43.0883265" lon="12.2426885"><ele>230.85714285714286</ele><time>2026-03-29T09:30:05.556Z</time></trkpt><trkpt lat="43.0883466" lon="12.242782"><ele>230.71428571428572</ele><time>2026-03-29T09:30:07.558Z</time></trkpt><trkpt lat="43.0883664" lon="12.2428712"><ele>230.57142857142856</ele><time>2026-03-29T09:30:09.553Z</time></trkpt><trkpt lat="43.0883873" lon="12.2429626"><ele>230.42857142857142</ele><time>2026-03-29T09:30:11.56Z</time></trkpt><trkpt lat="43.0884052" lon="12.2430592"><ele>230.28571428571428</ele><time>2026-03-29T09:30:13.556Z</time></trkpt><trkpt lat="43.0884226" lon="12.2431567"><ele>230.1428571428571</ele><time>2026-03-29T09:30:15.549Z</time></trkpt><trkpt lat="43.088441" lon="12.2432539"><ele>229.99999999999997</ele><time>2026-03-29T09:30:17.557Z</time></trkpt><trkpt lat="43.0884617" lon="12.2433494"><ele>229.99999999999997</ele><time>2026-03-29T09:30:19.541Z</time></trkpt><trkpt lat="43.0884825" lon="12.2434422"><ele>230.0</ele><time>2026-03-29T09:30:21.55Z</time></trkpt><trkpt lat="43.0885036" lon="12.2435376"><ele>229.99999999999997</ele><time>2026-03-29T09:30:23.557Z</time></trkpt><trkpt lat="43.0885244" lon="12.2436332"><ele>229.99999999999997</ele><time>2026-03-29T09:30:25.55Z</time></trkpt><trkpt lat="43.0885483" lon="12.2437314"><ele>230.0</ele><time>2026-03-29T09:30:27.651Z</time></trkpt><trkpt lat="43.0885675" lon="12.2438356"><ele>229.99999999999997</ele><time>2026-03-29T09:30:29.561Z</time></trkpt><trkpt lat="43.0885849" lon="12.2439391"><ele>229.99999999999997</ele><time>2026-03-29T09:30:31.558Z</time></trkpt><trkpt lat="43.0886068" lon="12.2440427"><ele>230.00000000000003</ele><time>2026-03-29T09:30:33.552Z</time></trkpt><trkpt lat="43.0886302" lon="12.2441478"><ele>230.0</ele><time>2026-03-29T09:30:35.556Z</time></trkpt><trkpt lat="43.0886513" lon="12.2442524"><ele>230.0</ele><time>2026-03-29T09:30:37.554Z</time></trkpt><trkpt lat="43.0886759" lon="12.2443957"><ele>230.0</ele><time>2026-03-29T09:30:40.551Z</time></trkpt><trkpt lat="43.0886946" lon="12.2445058"><ele>230.00000000000003</ele><time>2026-03-29T09:30:42.551Z</time></trkpt><trkpt lat="43.0887139" lon="12.2446207"><ele>230.0</ele><time>2026-03-29T09:30:44.553Z</time></trkpt><trkpt lat="43.0887339" lon="12.2447377"><ele>229.66666666666669</ele><time>2026-03-29T09:30:46.555Z</time></trkpt><trkpt lat="43.0887556" lon="12.2448516"><ele>229.33333333333334</ele><time>2026-03-29T09:30:48.551Z</time></trkpt><trkpt lat="43.0887819" lon="12.2449633"><ele>229.0</ele><time>2026-03-29T09:30:50.559Z</time></trkpt><trkpt lat="43.0888023" lon="12.2450726"><ele>228.66666666666669</ele><time>2026-03-29T09:30:52.552Z</time></trkpt><trkpt lat="43.0888214" lon="12.2451781"><ele>228.33333333333334</ele><time>2026-03-29T09:30:54.546Z</time></trkpt><trkpt lat="43.0888405" lon="12.2452808"><ele>228.0</ele><time>2026-03-29T09:30:56.552Z</time></trkpt><trkpt lat="43.0888601" lon="12.2453854"><ele>228.0</ele><time>2026-03-29T09:30:58.551Z</time></trkpt><trkpt lat="43.088879" lon="12.2454902"><ele>228.0</ele><time>2026-03-29T09:31:00.551Z</time></trkpt><trkpt lat="43.0889" lon="12.2455902"><ele>228.0</ele><time>2026-03-29T09:31:02.553Z</time></trkpt><trkpt lat="43.0889239" lon="12.2456807"><ele>228.0</ele><time>2026-03-29T09:31:04.549Z</time></trkpt><trkpt lat="43.0889439" lon="12.2457691"><ele>228.0</ele><time>2026-03-29T09:31:06.551Z</time></trkpt><trkpt lat="43.0889569" lon="12.2458573"><ele>228.0</ele><time>2026-03-29T09:31:08.553Z</time></trkpt><trkpt lat="43.0889855" lon="12.245983"><ele>227.85714285714283</ele><time>2026-03-29T09:31:11.551Z</time></trkpt><trkpt lat="43.0890057" lon="12.2460746"><ele>227.7142857142857</ele><time>2026-03-29T09:31:13.549Z</time></trkpt><trkpt lat="43.089025" lon="12.2461651"><ele>227.57142857142856</ele><time>2026-03-29T09:31:15.55Z</time></trkpt><trkpt lat="43.0890435" lon="12.2462631"><ele>227.42857142857144</ele><time>2026-03-29T09:31:17.553Z</time></trkpt><trkpt lat="43.0890674" lon="12.2463608"><ele>227.2857142857143</ele><time>2026-03-29T09:31:19.649Z</time></trkpt><trkpt lat="43.0890866" lon="12.2464558"><ele>227.14285714285717</ele><time>2026-03-29T09:31:21.552Z</time></trkpt><trkpt lat="43.0891021" lon="12.2465506"><ele>227.0</ele><time>2026-03-29T09:31:23.551Z</time></trkpt><trkpt lat="43.0891212" lon="12.2466456"><ele>226.85714285714286</ele><time>2026-03-29T09:31:25.558Z</time></trkpt><trkpt lat="43.0891398" lon="12.2467423"><ele>226.71428571428572</ele><time>2026-03-29T09:31:27.551Z</time></trkpt><trkpt lat="43.0891586" lon="12.246839"><ele>226.57142857142858</ele><time>2026-03-29T09:31:29.548Z</time></trkpt><trkpt lat="43.0891707" lon="12.2469325"><ele>226.42857142857144</ele><time>2026-03-29T09:31:31.553Z</time></trkpt><trkpt lat="43.0891909" lon="12.2470567"><ele>226.28571428571428</ele><time>2026-03-29T09:31:34.557Z</time></trkpt><trkpt lat="43.0892119" lon="12.247147"><ele>226.14285714285717</ele><time>2026-03-29T09:31:36.555Z</time></trkpt><trkpt lat="43.0892326" lon="12.2472353"><ele>226.0</ele><time>2026-03-29T09:31:38.54Z</time></trkpt><trkpt lat="43.0892552" lon="12.2473302"><ele>225.99999999999997</ele><time>2026-03-29T09:31:40.557Z</time></trkpt><trkpt lat="43.0892756" lon="12.2474275"><ele>226.0</ele><time>2026-03-29T09:31:42.551Z</time></trkpt><trkpt lat="43.0893015" lon="12.2475749"><ele>226.0</ele><time>2026-03-29T09:31:45.551Z</time></trkpt><trkpt lat="43.0893214" lon="12.2476742"><ele>226.0</ele><time>2026-03-29T09:31:47.553Z</time></trkpt><trkpt lat="43.0893379" lon="12.24777"><ele>225.99999999999997</ele><time>2026-03-29T09:31:49.541Z</time></trkpt><trkpt lat="43.0893522" lon="12.2478654"><ele>226.0</ele><time>2026-03-29T09:31:51.557Z</time></trkpt><trkpt lat="43.0893671" lon="12.2479547"><ele>226.0</ele><time>2026-03-29T09:31:53.555Z</time></trkpt><trkpt lat="43.0893825" lon="12.2480454"><ele>226.0</ele><time>2026-03-29T09:31:55.553Z</time></trkpt><trkpt lat="43.0893988" lon="12.2481444"><ele>226.0</ele><time>2026-03-29T09:31:57.554Z</time></trkpt><trkpt lat="43.0894194" lon="12.2482403"><ele>226.0</ele><time>2026-03-29T09:31:59.557Z</time></trkpt><trkpt lat="43.0894348" lon="12.2483285"><ele>226.0</ele><time>2026-03-29T09:32:01.551Z</time></trkpt><trkpt lat="43.0894541" lon="12.2484517"><ele>226.0</ele><time>2026-03-29T09:32:04.543Z</time></trkpt><trkpt lat="43.0894785" lon="12.2485316"><ele>226.0</ele><time>2026-03-29T09:32:06.551Z</time></trkpt><trkpt lat="43.0895003" lon="12.2486262"><ele>225.99999999999997</ele><time>2026-03-29T09:32:08.551Z</time></trkpt><trkpt lat="43.0895253" lon="12.2487251"><ele>226.0</ele><time>2026-03-29T09:32:10.551Z</time></trkpt><trkpt lat="43.0895468" lon="12.2488281"><ele>226.0</ele><time>2026-03-29T09:32:12.551Z</time></trkpt><trkpt lat="43.0895673" lon="12.2489334"><ele>226.0</ele><time>2026-03-29T09:32:14.55Z</time></trkpt><trkpt lat="43.0895917" lon="12.2490361"><ele>225.99999999999997</ele><time>2026-03-29T09:32:16.553Z</time></trkpt><trkpt lat="43.089612" lon="12.2491376"><ele>226.0</ele><time>2026-03-29T09:32:18.551Z</time></trkpt><trkpt lat="43.089632" lon="12.2492401"><ele>225.83333333333331</ele><time>2026-03-29T09:32:20.555Z</time></trkpt><trkpt lat="43.0896603" lon="12.2493476"><ele>225.66666666666666</ele><time>2026-03-29T09:32:22.55Z</time></trkpt><trkpt lat="43.0896848" lon="12.2494505"><ele>225.5</ele><time>2026-03-29T09:32:24.65Z</time></trkpt><trkpt lat="43.0897132" lon="12.2495549"><ele>225.33333333333331</ele><time>2026-03-29T09:32:26.553Z</time></trkpt><trkpt lat="43.089738" lon="12.249657"><ele>225.16666666666666</ele><time>2026-03-29T09:32:28.552Z</time></trkpt><trkpt lat="43.0897632" lon="12.2497628"><ele>225.0</ele><time>2026-03-29T09:32:30.552Z</time></trkpt><trkpt lat="43.0897825" lon="12.2498696"><ele>224.83333333333334</ele><time>2026-03-29T09:32:32.554Z</time></trkpt><trkpt lat="43.0898018" lon="12.2499777"><ele>224.66666666666669</ele><time>2026-03-29T09:32:34.552Z</time></trkpt><trkpt lat="43.0898238" lon="12.2500954"><ele>224.5</ele><time>2026-03-29T09:32:36.549Z</time></trkpt><trkpt lat="43.089848" lon="12.2502086"><ele>224.33333333333334</ele><time>2026-03-29T09:32:38.553Z</time></trkpt><trkpt lat="43.0898732" lon="12.2503256"><ele>224.16666666666669</ele><time>2026-03-29T09:32:40.55Z</time></trkpt><trkpt lat="43.0898953" lon="12.2504389"><ele>224.0</ele><time>2026-03-29T09:32:42.564Z</time></trkpt><trkpt lat="43.0899188" lon="12.2505552"><ele>224.16666666666669</ele><time>2026-03-29T09:32:44.556Z</time></trkpt><trkpt lat="43.0899423" lon="12.2506707"><ele>224.33333333333334</ele><time>2026-03-29T09:32:46.552Z</time></trkpt><trkpt lat="43.0899658" lon="12.2507846"><ele>224.5</ele><time>2026-03-29T09:32:48.551Z</time></trkpt><trkpt lat="43.089989" lon="12.2508985"><ele>224.66666666666669</ele><time>2026-03-29T09:32:50.54Z</time></trkpt><trkpt lat="43.090011" lon="12.2510113"><ele>224.83333333333334</ele><time>2026-03-29T09:32:52.548Z</time></trkpt><trkpt lat="43.0900356" lon="12.2511267"><ele>225.0</ele><time>2026-03-29T09:32:54.557Z</time></trkpt><trkpt lat="43.0900559" lon="12.2512357"><ele>225.0</ele><time>2026-03-29T09:32:56.552Z</time></trkpt><trkpt lat="43.0900761" lon="12.2513418"><ele>225.0</ele><time>2026-03-29T09:32:58.556Z</time></trkpt><trkpt lat="43.0900967" lon="12.2514482"><ele>225.0</ele><time>2026-03-29T09:33:00.559Z</time></trkpt><trkpt lat="43.0901192" lon="12.2515581"><ele>225.0</ele><time>2026-03-29T09:33:02.551Z</time></trkpt><trkpt lat="43.0901411" lon="12.2516654"><ele>225.0</ele><time>2026-03-29T09:33:04.551Z</time></trkpt><trkpt lat="43.0901572" lon="12.2517651"><ele>225.0</ele><time>2026-03-29T09:33:06.559Z</time></trkpt><trkpt lat="43.0901781" lon="12.2518748"><ele>224.83333333333334</ele><time>2026-03-29T09:33:08.538Z</time></trkpt><trkpt lat="43.0902025" lon="12.2519842"><ele>224.66666666666669</ele><time>2026-03-29T09:33:10.55Z</time></trkpt><trkpt lat="43.0902252" lon="12.252087"><ele>224.5</ele><time>2026-03-29T09:33:12.552Z</time></trkpt><trkpt lat="43.0902506" lon="12.2521898"><ele>224.33333333333334</ele><time>2026-03-29T09:33:14.539Z</time></trkpt><trkpt lat="43.0902744" lon="12.2522941"><ele>224.16666666666669</ele><time>2026-03-29T09:33:16.551Z</time></trkpt><trkpt lat="43.0902972" lon="12.252402"><ele>224.0</ele><time>2026-03-29T09:33:18.55Z</time></trkpt><trkpt lat="43.0903193" lon="12.2525066"><ele>224.00000000000003</ele><time>2026-03-29T09:33:20.552Z</time></trkpt><trkpt lat="43.090343" lon="12.2526108"><ele>224.0</ele><time>2026-03-29T09:33:22.552Z</time></trkpt><trkpt lat="43.0903631" lon="12.2527152"><ele>224.0</ele><time>2026-03-29T09:33:24.535Z</time></trkpt><trkpt lat="43.0903882" lon="12.2528214"><ele>224.0</ele><time>2026-03-29T09:33:26.558Z</time></trkpt><trkpt lat="43.0904073" lon="12.2529304"><ele>224.00000000000003</ele><time>2026-03-29T09:33:28.537Z</time></trkpt><trkpt lat="43.0904293" lon="12.2530406"><ele>224.0</ele><time>2026-03-29T09:33:30.538Z</time></trkpt><trkpt lat="43.0904501" lon="12.2531533"><ele>224.0</ele><time>2026-03-29T09:33:32.534Z</time></trkpt><trkpt lat="43.0904732" lon="12.2532628"><ele>223.99999999999997</ele><time>2026-03-29T09:33:34.536Z</time></trkpt><trkpt lat="43.0904892" lon="12.2533743"><ele>223.99999999999997</ele><time>2026-03-29T09:33:36.543Z</time></trkpt><trkpt lat="43.0905094" lon="12.2534889"><ele>224.0</ele><time>2026-03-29T09:33:38.539Z</time></trkpt><trkpt lat="43.0905496" lon="12.253657"><ele>224.0</ele><time>2026-03-29T09:33:41.539Z</time></trkpt><trkpt lat="43.0905719" lon="12.2537607"><ele>224.00000000000003</ele><time>2026-03-29T09:33:43.55Z</time></trkpt><trkpt lat="43.090594" lon="12.2538705"><ele>224.0</ele><time>2026-03-29T09:33:45.554Z</time></trkpt><trkpt lat="43.0906187" lon="12.2539794"><ele>224.0</ele><time>2026-03-29T09:33:47.551Z</time></trkpt><trkpt lat="43.0906415" lon="12.2540893"><ele>224.0</ele><time>2026-03-29T09:33:49.552Z</time></trkpt><trkpt lat="43.0906633" lon="12.2542001"><ele>224.00000000000003</ele><time>2026-03-29T09:33:51.554Z</time></trkpt><trkpt lat="43.090681" lon="12.2543112"><ele>224.0</ele><time>2026-03-29T09:33:53.563Z</time></trkpt><trkpt lat="43.0907031" lon="12.2544149"><ele>224.00000000000003</ele><time>2026-03-29T09:33:55.559Z</time></trkpt><trkpt lat="43.0907203" lon="12.2545192"><ele>224.0</ele><time>2026-03-29T09:33:57.551Z</time></trkpt><trkpt lat="43.0907431" lon="12.2546224"><ele>224.0</ele><time>2026-03-29T09:33:59.555Z</time></trkpt><trkpt lat="43.0907651" lon="12.2547293"><ele>224.0</ele><time>2026-03-29T09:34:01.55Z</time></trkpt><trkpt lat="43.0907859" lon="12.2548393"><ele>224.00000000000003</ele><time>2026-03-29T09:34:03.553Z</time></trkpt><trkpt lat="43.0908073" lon="12.2549498"><ele>224.0</ele><time>2026-03-29T09:34:05.539Z</time></trkpt><trkpt lat="43.0908292" lon="12.2550594"><ele>223.83333333333334</ele><time>2026-03-29T09:34:07.558Z</time></trkpt><trkpt lat="43.0908496" lon="12.2551707"><ele>223.66666666666669</ele><time>2026-03-29T09:34:09.536Z</time></trkpt><trkpt lat="43.0908738" lon="12.2552756"><ele>223.5</ele><time>2026-03-29T09:34:11.549Z</time></trkpt><trkpt lat="43.0908978" lon="12.255385"><ele>223.33333333333331</ele><time>2026-03-29T09:34:13.54Z</time></trkpt><trkpt lat="43.0909254" lon="12.2554931"><ele>223.16666666666666</ele><time>2026-03-29T09:34:15.551Z</time></trkpt><trkpt lat="43.0909508" lon="12.2556027"><ele>223.0</ele><time>2026-03-29T09:34:17.552Z</time></trkpt><trkpt lat="43.0909775" lon="12.2557145"><ele>223.0</ele><time>2026-03-29T09:34:19.538Z</time></trkpt><trkpt lat="43.0910006" lon="12.2558272"><ele>223.0</ele><time>2026-03-29T09:34:21.552Z</time></trkpt><trkpt lat="43.0910275" lon="12.2559411"><ele>223.0</ele><time>2026-03-29T09:34:23.552Z</time></trkpt><trkpt lat="43.0910486" lon="12.256062"><ele>223.0</ele><time>2026-03-29T09:34:25.555Z</time></trkpt><trkpt lat="43.0910773" lon="12.2561846"><ele>223.0</ele><time>2026-03-29T09:34:27.551Z</time></trkpt><trkpt lat="43.0911058" lon="12.2563059"><ele>222.99999999999997</ele><time>2026-03-29T09:34:29.555Z</time></trkpt><trkpt lat="43.091131" lon="12.2564191"><ele>223.0</ele><time>2026-03-29T09:34:31.551Z</time></trkpt><trkpt lat="43.091157" lon="12.2565319"><ele>223.0</ele><time>2026-03-29T09:34:33.554Z</time></trkpt><trkpt lat="43.0911837" lon="12.2566401"><ele>223.0</ele><time>2026-03-29T09:34:35.563Z</time></trkpt><trkpt lat="43.0912094" lon="12.256751"><ele>222.99999999999997</ele><time>2026-03-29T09:34:37.541Z</time></trkpt><trkpt lat="43.0912347" lon="12.2568646"><ele>223.0</ele><time>2026-03-29T09:34:39.552Z</time></trkpt><trkpt lat="43.0912569" lon="12.2569695"><ele>223.16666666666666</ele><time>2026-03-29T09:34:41.553Z</time></trkpt><trkpt lat="43.0912784" lon="12.2570659"><ele>223.33333333333331</ele><time>2026-03-29T09:34:43.554Z</time></trkpt><trkpt lat="43.0913003" lon="12.2571618"><ele>223.5</ele><time>2026-03-29T09:34:45.555Z</time></trkpt><trkpt lat="43.0913219" lon="12.2572632"><ele>223.66666666666669</ele><time>2026-03-29T09:34:47.55Z</time></trkpt><trkpt lat="43.0913459" lon="12.2573651"><ele>223.83333333333334</ele><time>2026-03-29T09:34:49.553Z</time></trkpt><trkpt lat="43.0913653" lon="12.2574701"><ele>224.0</ele><time>2026-03-29T09:34:51.55Z</time></trkpt><trkpt lat="43.0913823" lon="12.2575731"><ele>224.42857142857144</ele><time>2026-03-29T09:34:53.552Z</time></trkpt><trkpt lat="43.0913991" lon="12.2576735"><ele>224.85714285714286</ele><time>2026-03-29T09:34:55.55Z</time></trkpt><trkpt lat="43.0914125" lon="12.2577668"><ele>225.28571428571428</ele><time>2026-03-29T09:34:57.551Z</time></trkpt><trkpt lat="43.0914085" lon="12.257865"><ele>225.71428571428572</ele><time>2026-03-29T09:36:04.55Z</time></trkpt><trkpt lat="43.0914439" lon="12.2579513"><ele>226.14285714285717</ele><time>2026-03-29T09:36:34.55Z</time></trkpt><trkpt lat="43.0914594" lon="12.2580402"><ele>226.57142857142858</ele><time>2026-03-29T09:36:38.551Z</time></trkpt><trkpt lat="43.0914705" lon="12.25813"><ele>227.0</ele><time>2026-03-29T09:36:41.553Z</time></trkpt><trkpt lat="43.0914838" lon="12.2582236"><ele>227.71428571428572</ele><time>2026-03-29T09:36:44.552Z</time></trkpt><trkpt lat="43.0915011" lon="12.2583299"><ele>228.42857142857144</ele><time>2026-03-29T09:36:47.552Z</time></trkpt><trkpt lat="43.0915163" lon="12.2584137"><ele>229.14285714285717</ele><time>2026-03-29T09:36:49.557Z</time></trkpt><trkpt lat="43.0915333" lon="12.2585071"><ele>229.8571428571429</ele><time>2026-03-29T09:36:51.556Z</time></trkpt><trkpt lat="43.0915518" lon="12.2586068"><ele>230.57142857142858</ele><time>2026-03-29T09:36:53.553Z</time></trkpt><trkpt lat="43.0915726" lon="12.258702"><ele>231.28571428571433</ele><time>2026-03-29T09:36:55.55Z</time></trkpt><trkpt lat="43.0915913" lon="12.2587973"><ele>232.00000000000003</ele><time>2026-03-29T09:36:57.564Z</time></trkpt><trkpt lat="43.0916125" lon="12.2589026"><ele>230.66666666666666</ele><time>2026-03-29T09:36:59.55Z</time></trkpt><trkpt lat="43.0916371" lon="12.2590087"><ele>229.33333333333331</ele><time>2026-03-29T09:37:01.539Z</time></trkpt><trkpt lat="43.0916633" lon="12.2591186"><ele>228.0</ele><time>2026-03-29T09:37:03.551Z</time></trkpt><trkpt lat="43.0916852" lon="12.2592242"><ele>226.66666666666669</ele><time>2026-03-29T09:37:05.554Z</time></trkpt><trkpt lat="43.091707" lon="12.2593431"><ele>225.33333333333334</ele><time>2026-03-29T09:37:07.562Z</time></trkpt><trkpt lat="43.0917312" lon="12.2594608"><ele>224.0</ele><time>2026-03-29T09:37:09.549Z</time></trkpt><trkpt lat="43.0917543" lon="12.2595723"><ele>224.00000000000003</ele><time>2026-03-29T09:37:11.551Z</time></trkpt><trkpt lat="43.0917815" lon="12.2596874"><ele>224.0</ele><time>2026-03-29T09:37:13.562Z</time></trkpt><trkpt lat="43.091803" lon="12.2598016"><ele>224.0</ele><time>2026-03-29T09:37:15.551Z</time></trkpt><trkpt lat="43.0918234" lon="12.2599149"><ele>224.0</ele><time>2026-03-29T09:37:17.555Z</time></trkpt><trkpt lat="43.0918521" lon="12.2600327"><ele>224.00000000000003</ele><time>2026-03-29T09:37:19.55Z</time></trkpt><trkpt lat="43.0918784" lon="12.2601481"><ele>224.0</ele><time>2026-03-29T09:37:21.552Z</time></trkpt><trkpt lat="43.0918991" lon="12.2602629"><ele>223.79999999999998</ele><time>2026-03-29T09:37:23.549Z</time></trkpt><trkpt lat="43.0919194" lon="12.2603837"><ele>223.59999999999997</ele><time>2026-03-29T09:37:25.552Z</time></trkpt><trkpt lat="43.0919421" lon="12.2605072"><ele>223.4</ele><time>2026-03-29T09:37:27.551Z</time></trkpt><trkpt lat="43.0919664" lon="12.2606297"><ele>223.2</ele><time>2026-03-29T09:37:29.55Z</time></trkpt><trkpt lat="43.0919878" lon="12.2607556"><ele>223.0</ele><time>2026-03-29T09:37:31.554Z</time></trkpt><trkpt lat="43.0920097" lon="12.260874"><ele>222.60000000000002</ele><time>2026-03-29T09:37:33.551Z</time></trkpt><trkpt lat="43.0920414" lon="12.2609933"><ele>222.20000000000002</ele><time>2026-03-29T09:37:35.551Z</time></trkpt><trkpt lat="43.0920685" lon="12.2611153"><ele>221.8</ele><time>2026-03-29T09:37:37.541Z</time></trkpt><trkpt lat="43.0920948" lon="12.2612368"><ele>221.4</ele><time>2026-03-29T09:37:39.554Z</time></trkpt><trkpt lat="43.0921215" lon="12.2613701"><ele>221.0</ele><time>2026-03-29T09:37:41.551Z</time></trkpt><trkpt lat="43.0921428" lon="12.2614969"><ele>221.0</ele><time>2026-03-29T09:37:43.558Z</time></trkpt><trkpt lat="43.0921638" lon="12.2616175"><ele>221.00000000000003</ele><time>2026-03-29T09:37:45.554Z</time></trkpt><trkpt lat="43.0921941" lon="12.2617477"><ele>221.00000000000003</ele><time>2026-03-29T09:37:47.549Z</time></trkpt><trkpt lat="43.0922205" lon="12.261881"><ele>221.0</ele><time>2026-03-29T09:37:49.561Z</time></trkpt><trkpt lat="43.0922453" lon="12.2620092"><ele>221.0</ele><time>2026-03-29T09:37:51.553Z</time></trkpt><trkpt lat="43.0922722" lon="12.2621326"><ele>221.0</ele><time>2026-03-29T09:37:53.551Z</time></trkpt><trkpt lat="43.0922986" lon="12.2622566"><ele>221.00000000000003</ele><time>2026-03-29T09:37:55.571Z</time></trkpt><trkpt lat="43.0923271" lon="12.2623884"><ele>221.00000000000003</ele><time>2026-03-29T09:37:57.558Z</time></trkpt><trkpt lat="43.0923563" lon="12.2625118"><ele>221.0</ele><time>2026-03-29T09:37:59.551Z</time></trkpt><trkpt lat="43.092381" lon="12.2626326"><ele>221.0</ele><time>2026-03-29T09:38:01.559Z</time></trkpt><trkpt lat="43.0924052" lon="12.2627628"><ele>221.4</ele><time>2026-03-29T09:38:03.539Z</time></trkpt><trkpt lat="43.0924305" lon="12.2628878"><ele>221.8</ele><time>2026-03-29T09:38:05.553Z</time></trkpt><trkpt lat="43.0924567" lon="12.2630087"><ele>222.20000000000002</ele><time>2026-03-29T09:38:07.563Z</time></trkpt><trkpt lat="43.0924784" lon="12.2631315"><ele>222.60000000000002</ele><time>2026-03-29T09:38:09.545Z</time></trkpt><trkpt lat="43.0925025" lon="12.2632603"><ele>223.0</ele><time>2026-03-29T09:38:11.55Z</time></trkpt><trkpt lat="43.0925338" lon="12.2633932"><ele>223.0</ele><time>2026-03-29T09:38:13.535Z</time></trkpt><trkpt lat="43.0925634" lon="12.2635206"><ele>223.0</ele><time>2026-03-29T09:38:15.551Z</time></trkpt><trkpt lat="43.0925844" lon="12.2636458"><ele>223.0</ele><time>2026-03-29T09:38:17.538Z</time></trkpt><trkpt lat="43.0926091" lon="12.2637718"><ele>223.0</ele><time>2026-03-29T09:38:19.536Z</time></trkpt><trkpt lat="43.0926329" lon="12.2638953"><ele>223.0</ele><time>2026-03-29T09:38:21.54Z</time></trkpt><trkpt lat="43.0926625" lon="12.264021"><ele>223.0</ele><time>2026-03-29T09:38:23.533Z</time></trkpt><trkpt lat="43.0926798" lon="12.2641404"><ele>223.0</ele><time>2026-03-29T09:38:25.544Z</time></trkpt><trkpt lat="43.0926954" lon="12.2642495"><ele>223.0</ele><time>2026-03-29T09:38:27.543Z</time></trkpt><trkpt lat="43.0927257" lon="12.2643756"><ele>223.0</ele><time>2026-03-29T09:38:29.644Z</time></trkpt><trkpt lat="43.0927483" lon="12.2645088"><ele>223.0</ele><time>2026-03-29T09:38:31.541Z</time></trkpt><trkpt lat="43.0927744" lon="12.2646368"><ele>223.0</ele><time>2026-03-29T09:38:33.556Z</time></trkpt><trkpt lat="43.0927991" lon="12.2647638"><ele>223.0</ele><time>2026-03-29T09:38:35.565Z</time></trkpt><trkpt lat="43.0928269" lon="12.2648979"><ele>223.0</ele><time>2026-03-29T09:38:37.552Z</time></trkpt><trkpt lat="43.0928564" lon="12.2650261"><ele>223.0</ele><time>2026-03-29T09:38:39.566Z</time></trkpt><trkpt lat="43.0928733" lon="12.2651451"><ele>223.0</ele><time>2026-03-29T09:38:41.551Z</time></trkpt><trkpt lat="43.0929048" lon="12.2652754"><ele>223.0</ele><time>2026-03-29T09:38:43.564Z</time></trkpt><trkpt lat="43.0929273" lon="12.2654093"><ele>223.0</ele><time>2026-03-29T09:38:45.562Z</time></trkpt><trkpt lat="43.0929548" lon="12.2655431"><ele>223.0</ele><time>2026-03-29T09:38:47.549Z</time></trkpt><trkpt lat="43.0929811" lon="12.265668"><ele>223.0</ele><time>2026-03-29T09:38:49.557Z</time></trkpt><trkpt lat="43.0930105" lon="12.2657989"><ele>223.0</ele><time>2026-03-29T09:38:51.552Z</time></trkpt><trkpt lat="43.0930379" lon="12.2659308"><ele>223.4</ele><time>2026-03-29T09:38:53.55Z</time></trkpt><trkpt lat="43.0930559" lon="12.2660579"><ele>223.8</ele><time>2026-03-29T09:38:55.556Z</time></trkpt><trkpt lat="43.0930825" lon="12.2661946"><ele>224.2</ele><time>2026-03-29T09:38:57.559Z</time></trkpt><trkpt lat="43.0931116" lon="12.2663168"><ele>224.6</ele><time>2026-03-29T09:38:59.645Z</time></trkpt><trkpt lat="43.0931396" lon="12.2664426"><ele>225.0</ele><time>2026-03-29T09:39:01.568Z</time></trkpt><trkpt lat="43.0931652" lon="12.2665685"><ele>224.4</ele><time>2026-03-29T09:39:03.551Z</time></trkpt><trkpt lat="43.0931964" lon="12.2667005"><ele>223.8</ele><time>2026-03-29T09:39:05.55Z</time></trkpt><trkpt lat="43.0932305" lon="12.2668316"><ele>223.2</ele><time>2026-03-29T09:39:07.552Z</time></trkpt><trkpt lat="43.0932547" lon="12.2669582"><ele>222.6</ele><time>2026-03-29T09:39:09.556Z</time></trkpt><trkpt lat="43.0932805" lon="12.2670808"><ele>222.0</ele><time>2026-03-29T09:39:11.548Z</time></trkpt><trkpt lat="43.0933068" lon="12.2672089"><ele>222.6</ele><time>2026-03-29T09:39:13.555Z</time></trkpt><trkpt lat="43.093336" lon="12.2673334"><ele>223.2</ele><time>2026-03-29T09:39:15.554Z</time></trkpt><trkpt lat="43.0933592" lon="12.2674651"><ele>223.8</ele><time>2026-03-29T09:39:17.55Z</time></trkpt><trkpt lat="43.0933836" lon="12.2675929"><ele>224.4</ele><time>2026-03-29T09:39:19.562Z</time></trkpt><trkpt lat="43.0934126" lon="12.2677245"><ele>225.0</ele><time>2026-03-29T09:39:21.552Z</time></trkpt><trkpt lat="43.0934337" lon="12.2678461"><ele>225.0</ele><time>2026-03-29T09:39:23.55Z</time></trkpt><trkpt lat="43.0934656" lon="12.2679716"><ele>225.0</ele><time>2026-03-29T09:39:25.555Z</time></trkpt><trkpt lat="43.0934916" lon="12.2681029"><ele>225.0</ele><time>2026-03-29T09:39:27.556Z</time></trkpt><trkpt lat="43.093513" lon="12.2682284"><ele>225.0</ele><time>2026-03-29T09:39:29.555Z</time></trkpt><trkpt lat="43.0935388" lon="12.2683446"><ele>225.0</ele><time>2026-03-29T09:39:31.553Z</time></trkpt><trkpt lat="43.0935631" lon="12.2684675"><ele>224.6</ele><time>2026-03-29T09:39:33.551Z</time></trkpt><trkpt lat="43.0935876" lon="12.2685862"><ele>224.2</ele><time>2026-03-29T09:39:35.566Z</time></trkpt><trkpt lat="43.0936096" lon="12.2687076"><ele>223.8</ele><time>2026-03-29T09:39:37.551Z</time></trkpt><trkpt lat="43.0936027" lon="12.2688341"><ele>223.4</ele><time>2026-03-29T09:39:39.555Z</time></trkpt><trkpt lat="43.0936006" lon="12.2689658"><ele>223.0</ele><time>2026-03-29T09:39:41.572Z</time></trkpt><trkpt lat="43.0936341" lon="12.2690798"><ele>222.60000000000002</ele><time>2026-03-29T09:39:43.557Z</time></trkpt><trkpt lat="43.0936936" lon="12.2691763"><ele>222.20000000000002</ele><time>2026-03-29T09:39:45.557Z</time></trkpt><trkpt lat="43.093732" lon="12.2692795"><ele>221.8</ele><time>2026-03-29T09:39:47.551Z</time></trkpt><trkpt lat="43.0937592" lon="12.2693869"><ele>221.4</ele><time>2026-03-29T09:39:49.549Z</time></trkpt><trkpt lat="43.0937855" lon="12.2694972"><ele>221.0</ele><time>2026-03-29T09:39:51.537Z</time></trkpt><trkpt lat="43.0938187" lon="12.2696388"><ele>220.75</ele><time>2026-03-29T09:39:53.543Z</time></trkpt><trkpt lat="43.0938516" lon="12.2697886"><ele>220.5</ele><time>2026-03-29T09:39:55.552Z</time></trkpt><trkpt lat="43.0938879" lon="12.2699466"><ele>220.25</ele><time>2026-03-29T09:39:57.549Z</time></trkpt><trkpt lat="43.0939229" lon="12.2700942"><ele>220.0</ele><time>2026-03-29T09:39:59.56Z</time></trkpt><trkpt lat="43.0939583" lon="12.2702448"><ele>220.0</ele><time>2026-03-29T09:40:01.552Z</time></trkpt><trkpt lat="43.0939885" lon="12.2703942"><ele>220.0</ele><time>2026-03-29T09:40:03.555Z</time></trkpt><trkpt lat="43.0940125" lon="12.2705329"><ele>220.0</ele><time>2026-03-29T09:40:05.559Z</time></trkpt><trkpt lat="43.0940409" lon="12.2706693"><ele>220.0</ele><time>2026-03-29T09:40:07.555Z</time></trkpt><trkpt lat="43.0940658" lon="12.2707923"><ele>220.0</ele><time>2026-03-29T09:40:09.643Z</time></trkpt><trkpt lat="43.0940982" lon="12.2709216"><ele>220.0</ele><time>2026-03-29T09:40:11.551Z</time></trkpt><trkpt lat="43.0941309" lon="12.2710527"><ele>220.0</ele><time>2026-03-29T09:40:13.569Z</time></trkpt><trkpt lat="43.0941568" lon="12.2711784"><ele>220.0</ele><time>2026-03-29T09:40:15.551Z</time></trkpt><trkpt lat="43.0941853" lon="12.2712965"><ele>220.0</ele><time>2026-03-29T09:40:17.557Z</time></trkpt><trkpt lat="43.0942056" lon="12.2714194"><ele>220.0</ele><time>2026-03-29T09:40:19.554Z</time></trkpt><trkpt lat="43.0942311" lon="12.2715403"><ele>220.0</ele><time>2026-03-29T09:40:21.621Z</time></trkpt><trkpt lat="43.0942496" lon="12.2716655"><ele>220.0</ele><time>2026-03-29T09:40:23.561Z</time></trkpt><trkpt lat="43.0942719" lon="12.271795"><ele>220.0</ele><time>2026-03-29T09:40:25.552Z</time></trkpt><trkpt lat="43.0942933" lon="12.2719385"><ele>220.0</ele><time>2026-03-29T09:40:27.551Z</time></trkpt><trkpt lat="43.0943169" lon="12.2720588"><ele>220.0</ele><time>2026-03-29T09:40:29.56Z</time></trkpt><trkpt lat="43.0943343" lon="12.2721915"><ele>219.8</ele><time>2026-03-29T09:40:31.558Z</time></trkpt><trkpt lat="43.0943644" lon="12.2723325"><ele>219.6</ele><time>2026-03-29T09:40:33.557Z</time></trkpt><trkpt lat="43.0943962" lon="12.2724788"><ele>219.39999999999998</ele><time>2026-03-29T09:40:35.551Z</time></trkpt><trkpt lat="43.0944267" lon="12.2726217"><ele>219.2</ele><time>2026-03-29T09:40:37.551Z</time></trkpt><trkpt lat="43.0944613" lon="12.2727659"><ele>219.0</ele><time>2026-03-29T09:40:39.55Z</time></trkpt><trkpt lat="43.0944886" lon="12.2728931"><ele>219.0</ele><time>2026-03-29T09:40:41.553Z</time></trkpt><trkpt lat="43.0945184" lon="12.273023"><ele>218.99999999999997</ele><time>2026-03-29T09:40:43.558Z</time></trkpt><trkpt lat="43.094543" lon="12.2731517"><ele>218.99999999999997</ele><time>2026-03-29T09:40:45.555Z</time></trkpt><trkpt lat="43.0945618" lon="12.2732714"><ele>219.0</ele><time>2026-03-29T09:40:47.55Z</time></trkpt><trkpt lat="43.0945858" lon="12.2734106"><ele>219.0</ele><time>2026-03-29T09:40:49.563Z</time></trkpt><trkpt lat="43.0946076" lon="12.2735391"><ele>218.83333333333334</ele><time>2026-03-29T09:40:51.551Z</time></trkpt><trkpt lat="43.0946281" lon="12.2736627"><ele>218.66666666666669</ele><time>2026-03-29T09:40:53.555Z</time></trkpt><trkpt lat="43.0946458" lon="12.2737661"><ele>218.5</ele><time>2026-03-29T09:40:55.534Z</time></trkpt><trkpt lat="43.094675" lon="12.2738601"><ele>218.33333333333334</ele><time>2026-03-29T09:40:57.551Z</time></trkpt><trkpt lat="43.0946986" lon="12.2739598"><ele>218.16666666666669</ele><time>2026-03-29T09:40:59.55Z</time></trkpt><trkpt lat="43.094731" lon="12.2740661"><ele>218.0</ele><time>2026-03-29T09:41:01.545Z</time></trkpt><trkpt lat="43.0947518" lon="12.2742021"><ele>218.0</ele><time>2026-03-29T09:41:03.54Z</time></trkpt><trkpt lat="43.0947746" lon="12.2743316"><ele>218.0</ele><time>2026-03-29T09:41:05.554Z</time></trkpt><trkpt lat="43.0948087" lon="12.2744595"><ele>218.0</ele><time>2026-03-29T09:41:07.556Z</time></trkpt><trkpt lat="43.0948276" lon="12.2745773"><ele>218.0</ele><time>2026-03-29T09:41:09.55Z</time></trkpt><trkpt lat="43.0948442" lon="12.2746954"><ele>218.0</ele><time>2026-03-29T09:41:11.55Z</time></trkpt><trkpt lat="43.0948652" lon="12.2748146"><ele>218.0</ele><time>2026-03-29T09:41:13.551Z</time></trkpt><trkpt lat="43.0948924" lon="12.2749355"><ele>218.0</ele><time>2026-03-29T09:41:15.556Z</time></trkpt><trkpt lat="43.0949211" lon="12.2750585"><ele>218.0</ele><time>2026-03-29T09:41:17.551Z</time></trkpt><trkpt lat="43.0949507" lon="12.2751775"><ele>218.0</ele><time>2026-03-29T09:41:19.55Z</time></trkpt><trkpt lat="43.0949759" lon="12.2753072"><ele>218.0</ele><time>2026-03-29T09:41:21.554Z</time></trkpt><trkpt lat="43.0950029" lon="12.2754286"><ele>218.0</ele><time>2026-03-29T09:41:23.554Z</time></trkpt><trkpt lat="43.0950274" lon="12.2755569"><ele>218.0</ele><time>2026-03-29T09:41:25.552Z</time></trkpt><trkpt lat="43.0950534" lon="12.2756778"><ele>218.0</ele><time>2026-03-29T09:41:27.551Z</time></trkpt><trkpt lat="43.0950745" lon="12.2758109"><ele>218.0</ele><time>2026-03-29T09:41:29.552Z</time></trkpt><trkpt lat="43.0951043" lon="12.27594"><ele>218.0</ele><time>2026-03-29T09:41:31.553Z</time></trkpt><trkpt lat="43.0951259" lon="12.2760746"><ele>218.0</ele><time>2026-03-29T09:41:33.557Z</time></trkpt><trkpt lat="43.0951482" lon="12.2762009"><ele>218.0</ele><time>2026-03-29T09:41:35.542Z</time></trkpt><trkpt lat="43.095175" lon="12.2763324"><ele>218.0</ele><time>2026-03-29T09:41:37.557Z</time></trkpt><trkpt lat="43.0952017" lon="12.2764501"><ele>218.0</ele><time>2026-03-29T09:41:39.558Z</time></trkpt><trkpt lat="43.0952281" lon="12.2765814"><ele>218.0</ele><time>2026-03-29T09:41:41.565Z</time></trkpt><trkpt lat="43.0952507" lon="12.2767018"><ele>218.2</ele><time>2026-03-29T09:41:43.65Z</time></trkpt><trkpt lat="43.0952757" lon="12.2768174"><ele>218.4</ele><time>2026-03-29T09:41:45.561Z</time></trkpt><trkpt lat="43.095301" lon="12.2769427"><ele>218.59999999999997</ele><time>2026-03-29T09:41:47.553Z</time></trkpt><trkpt lat="43.095327" lon="12.2770632"><ele>218.79999999999998</ele><time>2026-03-29T09:41:49.559Z</time></trkpt><trkpt lat="43.0953526" lon="12.2771968"><ele>219.0</ele><time>2026-03-29T09:41:51.558Z</time></trkpt><trkpt lat="43.0953839" lon="12.2773271"><ele>219.0</ele><time>2026-03-29T09:41:53.551Z</time></trkpt><trkpt lat="43.0954171" lon="12.2774544"><ele>218.99999999999997</ele><time>2026-03-29T09:41:55.551Z</time></trkpt><trkpt lat="43.0954458" lon="12.2775869"><ele>218.99999999999997</ele><time>2026-03-29T09:41:57.549Z</time></trkpt><trkpt lat="43.0954726" lon="12.2777262"><ele>219.0</ele><time>2026-03-29T09:41:59.553Z</time></trkpt><trkpt lat="43.0954875" lon="12.2778528"><ele>219.0</ele><time>2026-03-29T09:42:01.558Z</time></trkpt><trkpt lat="43.0955208" lon="12.2779895"><ele>218.6</ele><time>2026-03-29T09:42:03.56Z</time></trkpt><trkpt lat="43.095552" lon="12.2781101"><ele>218.2</ele><time>2026-03-29T09:42:05.551Z</time></trkpt><trkpt lat="43.0955799" lon="12.2782475"><ele>217.79999999999998</ele><time>2026-03-29T09:42:07.553Z</time></trkpt><trkpt lat="43.0956057" lon="12.2783802"><ele>217.39999999999998</ele><time>2026-03-29T09:42:09.56Z</time></trkpt><trkpt lat="43.0956285" lon="12.2785044"><ele>217.0</ele><time>2026-03-29T09:42:11.565Z</time></trkpt><trkpt lat="43.0956558" lon="12.278637"><ele>217.0</ele><time>2026-03-29T09:42:13.562Z</time></trkpt><trkpt lat="43.0956835" lon="12.2787706"><ele>217.0</ele><time>2026-03-29T09:42:15.554Z</time></trkpt><trkpt lat="43.0957042" lon="12.278906"><ele>217.0</ele><time>2026-03-29T09:42:17.55Z</time></trkpt><trkpt lat="43.0957417" lon="12.2790356"><ele>217.0</ele><time>2026-03-29T09:42:19.556Z</time></trkpt><trkpt lat="43.0957718" lon="12.2791657"><ele>217.0</ele><time>2026-03-29T09:42:21.553Z</time></trkpt><trkpt lat="43.0958016" lon="12.2792905"><ele>217.39999999999998</ele><time>2026-03-29T09:42:23.57Z</time></trkpt><trkpt lat="43.0958237" lon="12.2794199"><ele>217.79999999999998</ele><time>2026-03-29T09:42:25.557Z</time></trkpt><trkpt lat="43.0958583" lon="12.2795588"><ele>218.2</ele><time>2026-03-29T09:42:27.554Z</time></trkpt><trkpt lat="43.0958822" lon="12.2796908"><ele>218.6</ele><time>2026-03-29T09:42:29.55Z</time></trkpt><trkpt lat="43.0959084" lon="12.2798182"><ele>219.0</ele><time>2026-03-29T09:42:31.553Z</time></trkpt><trkpt lat="43.095931" lon="12.2799499"><ele>219.0</ele><time>2026-03-29T09:42:33.544Z</time></trkpt><trkpt lat="43.0959554" lon="12.2800835"><ele>218.99999999999997</ele><time>2026-03-29T09:42:35.55Z</time></trkpt><trkpt lat="43.0959883" lon="12.2802255"><ele>218.99999999999997</ele><time>2026-03-29T09:42:37.554Z</time></trkpt><trkpt lat="43.0960142" lon="12.2803505"><ele>219.0</ele><time>2026-03-29T09:42:39.537Z</time></trkpt><trkpt lat="43.0960431" lon="12.2804935"><ele>219.0</ele><time>2026-03-29T09:42:41.554Z</time></trkpt><trkpt lat="43.0960741" lon="12.2806304"><ele>219.2</ele><time>2026-03-29T09:42:43.534Z</time></trkpt><trkpt lat="43.0960979" lon="12.2807666"><ele>219.39999999999998</ele><time>2026-03-29T09:42:45.549Z</time></trkpt><trkpt lat="43.0961262" lon="12.280906"><ele>219.6</ele><time>2026-03-29T09:42:47.541Z</time></trkpt><trkpt lat="43.0961543" lon="12.2810348"><ele>219.8</ele><time>2026-03-29T09:42:49.537Z</time></trkpt><trkpt lat="43.0961803" lon="12.2811707"><ele>220.0</ele><time>2026-03-29T09:42:51.536Z</time></trkpt><trkpt lat="43.0962087" lon="12.2812975"><ele>219.99999999999997</ele><time>2026-03-29T09:42:53.541Z</time></trkpt><trkpt lat="43.0962288" lon="12.2814213"><ele>220.0</ele><time>2026-03-29T09:42:55.539Z</time></trkpt><trkpt lat="43.0962485" lon="12.2815224"><ele>220.0</ele><time>2026-03-29T09:42:57.543Z</time></trkpt><trkpt lat="43.0962701" lon="12.2816277"><ele>220.0</ele><time>2026-03-29T09:42:59.554Z</time></trkpt><trkpt lat="43.0962915" lon="12.281735"><ele>219.99999999999997</ele><time>2026-03-29T09:43:01.577Z</time></trkpt><trkpt lat="43.0963173" lon="12.2818383"><ele>220.0</ele><time>2026-03-29T09:43:03.551Z</time></trkpt><trkpt lat="43.0963415" lon="12.2819451"><ele>219.99999999999997</ele><time>2026-03-29T09:43:05.54Z</time></trkpt><trkpt lat="43.0963593" lon="12.2820541"><ele>220.0</ele><time>2026-03-29T09:43:07.555Z</time></trkpt><trkpt lat="43.0963784" lon="12.2821576"><ele>220.0</ele><time>2026-03-29T09:43:09.54Z</time></trkpt><trkpt lat="43.0963942" lon="12.2822612"><ele>220.0</ele><time>2026-03-29T09:43:11.559Z</time></trkpt><trkpt lat="43.0964164" lon="12.2823631"><ele>219.99999999999997</ele><time>2026-03-29T09:43:13.556Z</time></trkpt><trkpt lat="43.096444" lon="12.2824691"><ele>220.0</ele><time>2026-03-29T09:43:15.549Z</time></trkpt><trkpt lat="43.0964658" lon="12.2825755"><ele>219.99999999999997</ele><time>2026-03-29T09:43:17.554Z</time></trkpt><trkpt lat="43.0964847" lon="12.2826861"><ele>220.0</ele><time>2026-03-29T09:43:19.54Z</time></trkpt><trkpt lat="43.0965043" lon="12.2827963"><ele>220.0</ele><time>2026-03-29T09:43:21.551Z</time></trkpt><trkpt lat="43.0965247" lon="12.2829122"><ele>220.0</ele><time>2026-03-29T09:43:23.556Z</time></trkpt><trkpt lat="43.0965424" lon="12.2830328"><ele>219.99999999999997</ele><time>2026-03-29T09:43:25.55Z</time></trkpt><trkpt lat="43.0965627" lon="12.2831513"><ele>220.0</ele><time>2026-03-29T09:43:27.561Z</time></trkpt><trkpt lat="43.0965869" lon="12.2832686"><ele>220.0</ele><time>2026-03-29T09:43:29.549Z</time></trkpt><trkpt lat="43.096613" lon="12.2833958"><ele>220.0</ele><time>2026-03-29T09:43:31.567Z</time></trkpt><trkpt lat="43.0966432" lon="12.2835239"><ele>220.0</ele><time>2026-03-29T09:43:33.551Z</time></trkpt><trkpt lat="43.0966663" lon="12.2836511"><ele>220.0</ele><time>2026-03-29T09:43:35.573Z</time></trkpt><trkpt lat="43.0966904" lon="12.2837701"><ele>220.0</ele><time>2026-03-29T09:43:37.557Z</time></trkpt><trkpt lat="43.0967139" lon="12.2838862"><ele>220.16666666666666</ele><time>2026-03-29T09:43:39.552Z</time></trkpt><trkpt lat="43.0967415" lon="12.2839979"><ele>220.33333333333331</ele><time>2026-03-29T09:43:41.551Z</time></trkpt><trkpt lat="43.0967808" lon="12.2841107"><ele>220.5</ele><time>2026-03-29T09:43:43.551Z</time></trkpt><trkpt lat="43.0968107" lon="12.2842338"><ele>220.66666666666669</ele><time>2026-03-29T09:43:45.554Z</time></trkpt><trkpt lat="43.0968221" lon="12.2843511"><ele>220.83333333333334</ele><time>2026-03-29T09:43:47.552Z</time></trkpt><trkpt lat="43.0968146" lon="12.2844653"><ele>221.0</ele><time>2026-03-29T09:43:49.55Z</time></trkpt><trkpt lat="43.0968309" lon="12.2846829"><ele>220.60000000000002</ele><time>2026-03-29T09:43:52.553Z</time></trkpt><trkpt lat="43.0968465" lon="12.2848427"><ele>220.20000000000002</ele><time>2026-03-29T09:43:54.55Z</time></trkpt><trkpt lat="43.0968669" lon="12.2849976"><ele>219.79999999999998</ele><time>2026-03-29T09:43:56.553Z</time></trkpt><trkpt lat="43.0969024" lon="12.2851386"><ele>219.39999999999998</ele><time>2026-03-29T09:43:58.553Z</time></trkpt><trkpt lat="43.0969289" lon="12.2852816"><ele>219.0</ele><time>2026-03-29T09:44:00.556Z</time></trkpt><trkpt lat="43.0969469" lon="12.2854113"><ele>219.0</ele><time>2026-03-29T09:44:02.57Z</time></trkpt><trkpt lat="43.0969764" lon="12.28555"><ele>218.99999999999997</ele><time>2026-03-29T09:44:04.559Z</time></trkpt><trkpt lat="43.0970078" lon="12.2856813"><ele>218.99999999999997</ele><time>2026-03-29T09:44:06.548Z</time></trkpt><trkpt lat="43.0970334" lon="12.2858104"><ele>219.0</ele><time>2026-03-29T09:44:08.556Z</time></trkpt><trkpt lat="43.097072" lon="12.2859492"><ele>219.0</ele><time>2026-03-29T09:44:10.551Z</time></trkpt><trkpt lat="43.0971115" lon="12.2860844"><ele>219.2</ele><time>2026-03-29T09:44:12.55Z</time></trkpt><trkpt lat="43.0971464" lon="12.2862117"><ele>219.39999999999998</ele><time>2026-03-29T09:44:14.557Z</time></trkpt><trkpt lat="43.0971776" lon="12.2863509"><ele>219.6</ele><time>2026-03-29T09:44:16.556Z</time></trkpt><trkpt lat="43.0972134" lon="12.2864855"><ele>219.8</ele><time>2026-03-29T09:44:18.545Z</time></trkpt><trkpt lat="43.0972642" lon="12.2865998"><ele>220.0</ele><time>2026-03-29T09:44:20.552Z</time></trkpt><trkpt lat="43.097308" lon="12.286718"><ele>220.6</ele><time>2026-03-29T09:44:22.553Z</time></trkpt><trkpt lat="43.0973627" lon="12.2868313"><ele>221.2</ele><time>2026-03-29T09:44:24.553Z</time></trkpt><trkpt lat="43.0974262" lon="12.2869451"><ele>221.8</ele><time>2026-03-29T09:44:26.548Z</time></trkpt><trkpt lat="43.097487" lon="12.2870712"><ele>222.4</ele><time>2026-03-29T09:44:28.552Z</time></trkpt><trkpt lat="43.0974937" lon="12.2872025"><ele>223.0</ele><time>2026-03-29T09:44:30.57Z</time></trkpt><trkpt lat="43.0974583" lon="12.2873297"><ele>223.0</ele><time>2026-03-29T09:44:32.549Z</time></trkpt><trkpt lat="43.0974681" lon="12.2874768"><ele>223.0</ele><time>2026-03-29T09:44:34.544Z</time></trkpt><trkpt lat="43.0974919" lon="12.287602"><ele>223.0</ele><time>2026-03-29T09:44:36.556Z</time></trkpt><trkpt lat="43.097524" lon="12.2877347"><ele>223.0</ele><time>2026-03-29T09:44:38.549Z</time></trkpt><trkpt lat="43.0975582" lon="12.287868"><ele>223.0</ele><time>2026-03-29T09:44:40.558Z</time></trkpt><trkpt lat="43.0975837" lon="12.2879979"><ele>222.60000000000002</ele><time>2026-03-29T09:44:42.553Z</time></trkpt><trkpt lat="43.0976068" lon="12.2881389"><ele>222.20000000000002</ele><time>2026-03-29T09:44:44.552Z</time></trkpt><trkpt lat="43.0976397" lon="12.2882736"><ele>221.8</ele><time>2026-03-29T09:44:46.551Z</time></trkpt><trkpt lat="43.0976654" lon="12.2884081"><ele>221.4</ele><time>2026-03-29T09:44:48.552Z</time></trkpt><trkpt lat="43.0976838" lon="12.2885428"><ele>221.0</ele><time>2026-03-29T09:44:50.552Z</time></trkpt><trkpt lat="43.0977134" lon="12.2886743"><ele>221.0</ele><time>2026-03-29T09:44:52.551Z</time></trkpt><trkpt lat="43.0977471" lon="12.2888122"><ele>221.00000000000003</ele><time>2026-03-29T09:44:54.555Z</time></trkpt><trkpt lat="43.0977739" lon="12.2889418"><ele>221.00000000000003</ele><time>2026-03-29T09:44:56.554Z</time></trkpt><trkpt lat="43.0978131" lon="12.2890675"><ele>221.0</ele><time>2026-03-29T09:44:58.549Z</time></trkpt><trkpt lat="43.0978266" lon="12.2891989"><ele>221.0</ele><time>2026-03-29T09:45:00.551Z</time></trkpt><trkpt lat="43.0978478" lon="12.2893223"><ele>221.4</ele><time>2026-03-29T09:45:02.558Z</time></trkpt><trkpt lat="43.0978791" lon="12.2894434"><ele>221.8</ele><time>2026-03-29T09:45:04.552Z</time></trkpt><trkpt lat="43.0979051" lon="12.289571"><ele>222.20000000000002</ele><time>2026-03-29T09:45:06.555Z</time></trkpt><trkpt lat="43.0979317" lon="12.289701"><ele>222.60000000000002</ele><time>2026-03-29T09:45:08.556Z</time></trkpt><trkpt lat="43.0979518" lon="12.2898288"><ele>223.0</ele><time>2026-03-29T09:45:10.549Z</time></trkpt><trkpt lat="43.0979706" lon="12.2899632"><ele>223.0</ele><time>2026-03-29T09:45:12.567Z</time></trkpt><trkpt lat="43.0979897" lon="12.2900974"><ele>223.0</ele><time>2026-03-29T09:45:14.559Z</time></trkpt><trkpt lat="43.0980199" lon="12.2902255"><ele>223.0</ele><time>2026-03-29T09:45:16.549Z</time></trkpt><trkpt lat="43.0980409" lon="12.2903534"><ele>223.0</ele><time>2026-03-29T09:45:18.553Z</time></trkpt><trkpt lat="43.0980642" lon="12.2904793"><ele>223.0</ele><time>2026-03-29T09:45:20.557Z</time></trkpt><trkpt lat="43.0980957" lon="12.2906068"><ele>222.8</ele><time>2026-03-29T09:45:22.644Z</time></trkpt><trkpt lat="43.0981157" lon="12.2907331"><ele>222.60000000000002</ele><time>2026-03-29T09:45:24.55Z</time></trkpt><trkpt lat="43.0981475" lon="12.2908769"><ele>222.39999999999998</ele><time>2026-03-29T09:45:26.552Z</time></trkpt><trkpt lat="43.0981696" lon="12.2910081"><ele>222.2</ele><time>2026-03-29T09:45:28.65Z</time></trkpt><trkpt lat="43.0981931" lon="12.291145"><ele>222.0</ele><time>2026-03-29T09:45:30.552Z</time></trkpt><trkpt lat="43.0982199" lon="12.2912803"><ele>222.39999999999998</ele><time>2026-03-29T09:45:32.55Z</time></trkpt><trkpt lat="43.098234" lon="12.2914246"><ele>222.79999999999998</ele><time>2026-03-29T09:45:34.55Z</time></trkpt><trkpt lat="43.0982483" lon="12.2915633"><ele>223.2</ele><time>2026-03-29T09:45:36.554Z</time></trkpt><trkpt lat="43.0982703" lon="12.2916863"><ele>223.6</ele><time>2026-03-29T09:45:38.543Z</time></trkpt><trkpt lat="43.0982843" lon="12.2918178"><ele>224.0</ele><time>2026-03-29T09:45:40.555Z</time></trkpt><trkpt lat="43.0982786" lon="12.2919475"><ele>224.6</ele><time>2026-03-29T09:45:42.552Z</time></trkpt><trkpt lat="43.0982726" lon="12.2920827"><ele>225.2</ele><time>2026-03-29T09:45:44.548Z</time></trkpt><trkpt lat="43.098262" lon="12.2922193"><ele>225.79999999999998</ele><time>2026-03-29T09:45:46.551Z</time></trkpt><trkpt lat="43.0982471" lon="12.2923438"><ele>226.39999999999998</ele><time>2026-03-29T09:45:48.564Z</time></trkpt><trkpt lat="43.0982343" lon="12.2924703"><ele>227.0</ele><time>2026-03-29T09:45:50.562Z</time></trkpt><trkpt lat="43.0982148" lon="12.2925923"><ele>227.00000000000003</ele><time>2026-03-29T09:45:52.571Z</time></trkpt><trkpt lat="43.0981987" lon="12.292713"><ele>227.0</ele><time>2026-03-29T09:45:54.554Z</time></trkpt><trkpt lat="43.0981852" lon="12.2928315"><ele>227.0</ele><time>2026-03-29T09:45:56.548Z</time></trkpt><trkpt lat="43.0981774" lon="12.2929389"><ele>227.0</ele><time>2026-03-29T09:45:58.551Z</time></trkpt><trkpt lat="43.0981733" lon="12.2930361"><ele>227.00000000000003</ele><time>2026-03-29T09:46:00.548Z</time></trkpt><trkpt lat="43.0981617" lon="12.2931583"><ele>227.0</ele><time>2026-03-29T09:46:03.549Z</time></trkpt><trkpt lat="43.0981464" lon="12.2932601"><ele>226.8</ele><time>2026-03-29T09:46:05.556Z</time></trkpt><trkpt lat="43.0981243" lon="12.2933829"><ele>226.6</ele><time>2026-03-29T09:46:07.55Z</time></trkpt><trkpt lat="43.0980903" lon="12.2935166"><ele>226.40000000000003</ele><time>2026-03-29T09:46:09.55Z</time></trkpt><trkpt lat="43.0980189" lon="12.2936272"><ele>226.20000000000002</ele><time>2026-03-29T09:46:11.54Z</time></trkpt><trkpt lat="43.097926" lon="12.2936993"><ele>226.0</ele><time>2026-03-29T09:46:13.556Z</time></trkpt><trkpt lat="43.097829" lon="12.2937634"><ele>226.0</ele><time>2026-03-29T09:46:15.55Z</time></trkpt><trkpt lat="43.0977247" lon="12.2938127"><ele>226.00000000000003</ele><time>2026-03-29T09:46:17.55Z</time></trkpt><trkpt lat="43.0976602" lon="12.2938241"><ele>226.00000000000003</ele><time>2026-03-29T09:46:18.55Z</time></trkpt><trkpt lat="43.0975963" lon="12.2938381"><ele>226.0</ele><time>2026-03-29T09:46:19.55Z</time></trkpt><trkpt lat="43.0974803" lon="12.2938519"><ele>226.0</ele><time>2026-03-29T09:46:21.65Z</time></trkpt><trkpt lat="43.0973792" lon="12.2938643"><ele>225.8</ele><time>2026-03-29T09:46:23.551Z</time></trkpt><trkpt lat="43.0972803" lon="12.2938545"><ele>225.60000000000002</ele><time>2026-03-29T09:46:25.555Z</time></trkpt><trkpt lat="43.0971764" lon="12.2938361"><ele>225.4</ele><time>2026-03-29T09:46:27.545Z</time></trkpt><trkpt lat="43.0970802" lon="12.293813"><ele>225.2</ele><time>2026-03-29T09:46:29.563Z</time></trkpt><trkpt lat="43.0969834" lon="12.2938014"><ele>225.0</ele><time>2026-03-29T09:46:31.554Z</time></trkpt><trkpt lat="43.0968836" lon="12.2937894"><ele>225.0</ele><time>2026-03-29T09:46:33.55Z</time></trkpt><trkpt lat="43.0967878" lon="12.2938014"><ele>225.0</ele><time>2026-03-29T09:46:35.557Z</time></trkpt><trkpt lat="43.0966882" lon="12.2938203"><ele>225.0</ele><time>2026-03-29T09:46:37.559Z</time></trkpt><trkpt lat="43.0965908" lon="12.2938357"><ele>225.0</ele><time>2026-03-29T09:46:39.55Z</time></trkpt><trkpt lat="43.0964976" lon="12.2938466"><ele>225.0</ele><time>2026-03-29T09:46:41.551Z</time></trkpt><trkpt lat="43.0964112" lon="12.293855"><ele>225.0</ele><time>2026-03-29T09:46:43.553Z</time></trkpt><trkpt lat="43.0963237" lon="12.2938568"><ele>225.0</ele><time>2026-03-29T09:46:45.549Z</time></trkpt><trkpt lat="43.0962251" lon="12.2938431"><ele>225.0</ele><time>2026-03-29T09:46:47.555Z</time></trkpt><trkpt lat="43.0961243" lon="12.293842"><ele>225.0</ele><time>2026-03-29T09:46:49.549Z</time></trkpt><trkpt lat="43.0960181" lon="12.2938424"><ele>225.0</ele><time>2026-03-29T09:46:51.552Z</time></trkpt><trkpt lat="43.0959072" lon="12.2938303"><ele>225.0</ele><time>2026-03-29T09:46:53.552Z</time></trkpt><trkpt lat="43.0957936" lon="12.2938205"><ele>225.0</ele><time>2026-03-29T09:46:55.536Z</time></trkpt><trkpt lat="43.0956726" lon="12.2938013"><ele>225.0</ele><time>2026-03-29T09:46:57.555Z</time></trkpt><trkpt lat="43.0955472" lon="12.2937899"><ele>225.0</ele><time>2026-03-29T09:46:59.546Z</time></trkpt><trkpt lat="43.0954258" lon="12.2937876"><ele>225.4</ele><time>2026-03-29T09:47:01.552Z</time></trkpt><trkpt lat="43.0953077" lon="12.2938041"><ele>225.8</ele><time>2026-03-29T09:47:03.551Z</time></trkpt><trkpt lat="43.0952031" lon="12.2938319"><ele>226.2</ele><time>2026-03-29T09:47:05.551Z</time></trkpt><trkpt lat="43.0950922" lon="12.2938551"><ele>226.6</ele><time>2026-03-29T09:47:07.539Z</time></trkpt><trkpt lat="43.0949874" lon="12.2938729"><ele>227.0</ele><time>2026-03-29T09:47:09.549Z</time></trkpt><trkpt lat="43.0948795" lon="12.2938932"><ele>227.6</ele><time>2026-03-29T09:47:11.551Z</time></trkpt><trkpt lat="43.0947725" lon="12.293939"><ele>228.2</ele><time>2026-03-29T09:47:13.549Z</time></trkpt><trkpt lat="43.094675" lon="12.2939781"><ele>228.8</ele><time>2026-03-29T09:47:15.557Z</time></trkpt><trkpt lat="43.0945729" lon="12.2940244"><ele>229.4</ele><time>2026-03-29T09:47:17.539Z</time></trkpt><trkpt lat="43.0944731" lon="12.2940721"><ele>230.0</ele><time>2026-03-29T09:47:19.549Z</time></trkpt><trkpt lat="43.0943754" lon="12.2941088"><ele>230.0</ele><time>2026-03-29T09:47:21.538Z</time></trkpt><trkpt lat="43.094289" lon="12.2941419"><ele>230.0</ele><time>2026-03-29T09:47:23.546Z</time></trkpt><trkpt lat="43.0942209" lon="12.2941753"><ele>230.0</ele><time>2026-03-29T09:47:25.537Z</time></trkpt><trkpt lat="43.0941945" lon="12.2942624"><ele>230.0</ele><time>2026-03-29T09:47:28.532Z</time></trkpt></trkseg></trk></gpx>